<?xml version='1.0' encoding='UTF-8'?><gpx version="1.1" creator="JPX - https://github.com/jenetics/jpx" xmlns="http://www.topografix.com/GPX/1/1"><trk><trkseg><trkpt lat="41.747806217977484" lon="12.469298458540434"><ele>30.0</ele><time>2026-03-25T12:04:25Z</time></trkpt><trkpt lat="41.747767618101" lon="12.46921632317852"><ele>30.0</ele><time>2026-03-25T12:04:28Z</time></trkpt><trkpt lat="41.7477244027332" lon="12.469151649818526"><ele>30.0</ele><time>2026-03-25T12:04:29.999Z</time></trkpt><trkpt lat="41.74767460885482" lon="12.469079902296757"><ele>30.0</ele><time>2026-03-25T12:04:31.999Z</time></trkpt><trkpt lat="41.74762607205701" lon="12.468984677536543"><ele>30.0</ele><time>2026-03-25T12:04:33.999Z</time></trkpt><trkpt lat="41.74757210847295" lon="12.468899363296316"><ele>30.0</ele><time>2026-03-25T12:04:35.999Z</time></trkpt><trkpt lat="41.74749591240881" lon="12.468828043711035"><ele>30.2</ele><time>2026-03-25T12:04:37.999Z</time></trkpt><trkpt lat="41.747390526451845" lon="12.468861133900024"><ele>30.4</ele><time>2026-03-25T12:04:39.999Z</time></trkpt><trkpt lat="41.74728322431418" lon="12.468938488360612"><ele>30.6</ele><time>2026-03-25T12:04:41.999Z</time></trkpt><trkpt lat="41.747203367666756" lon="12.469034964841581"><ele>30.8</ele><time>2026-03-25T12:04:43.999Z</time></trkpt><trkpt lat="41.74714483209437" lon="12.469110403389866"><ele>31.0</ele><time>2026-03-25T12:04:45.999Z</time></trkpt><trkpt lat="41.74717809565754" lon="12.468994002645113"><ele>31.000000000000004</ele><time>2026-03-25T12:04:51.999Z</time></trkpt><trkpt lat="41.74726927753898" lon="12.468883704588935"><ele>31.0</ele><time>2026-03-25T12:04:53.999Z</time></trkpt><trkpt lat="41.74731989077423" lon="12.468826193367281"><ele>31.0</ele><time>2026-03-25T12:04:54.999Z</time></trkpt><trkpt lat="41.747370705665205" lon="12.468775303157063"><ele>31.0</ele><time>2026-03-25T12:04:55.999Z</time></trkpt><trkpt lat="41.74742500725025" lon="12.468718391835212"><ele>31.000000000000004</ele><time>2026-03-25T12:04:56.999Z</time></trkpt><trkpt lat="41.74747839758276" lon="12.468661861916933"><ele>31.0</ele><time>2026-03-25T12:04:57.999Z</time></trkpt><trkpt lat="41.74753152379157" lon="12.468612851827812"><ele>31.0</ele><time>2026-03-25T12:04:58.999Z</time></trkpt><trkpt lat="41.74762184257456" lon="12.468500989312531"><ele>31.0</ele><time>2026-03-25T12:05:00.999Z</time></trkpt><trkpt lat="41.74771672039493" lon="12.46839560415953"><ele>31.0</ele><time>2026-03-25T12:05:02.999Z</time></trkpt><trkpt lat="41.74776626859172" lon="12.468339207101582"><ele>31.0</ele><time>2026-03-25T12:05:03.999Z</time></trkpt><trkpt lat="41.74781184933005" lon="12.468278975309216"><ele>31.0</ele><time>2026-03-25T12:05:04.999Z</time></trkpt><trkpt lat="41.74790239490184" lon="12.468171883842915"><ele>30.75</ele><time>2026-03-25T12:05:06.999Z</time></trkpt><trkpt lat="41.74799195204593" lon="12.46806428408369"><ele>30.5</ele><time>2026-03-25T12:05:08.998Z</time></trkpt><trkpt lat="41.748080088998414" lon="12.467952048995896"><ele>30.25</ele><time>2026-03-25T12:05:10.998Z</time></trkpt><trkpt lat="41.74818510217239" lon="12.46786753576618"><ele>30.0</ele><time>2026-03-25T12:05:12.998Z</time></trkpt><trkpt lat="41.74827024303895" lon="12.46775550662484"><ele>31.0</ele><time>2026-03-25T12:05:14.998Z</time></trkpt><trkpt lat="41.74832863452087" lon="12.467619978336602"><ele>32.0</ele><time>2026-03-25T12:05:16.998Z</time></trkpt><trkpt lat="41.748351117924614" lon="12.46747246867197"><ele>33.0</ele><time>2026-03-25T12:05:18.998Z</time></trkpt><trkpt lat="41.748360159520544" lon="12.467326126964714"><ele>34.0</ele><time>2026-03-25T12:05:20.998Z</time></trkpt><trkpt lat="41.74840519834229" lon="12.467176157911986"><ele>34.0</ele><time>2026-03-25T12:05:22.998Z</time></trkpt><trkpt lat="41.74844422305502" lon="12.467019741297326"><ele>34.0</ele><time>2026-03-25T12:05:24.998Z</time></trkpt><trkpt lat="41.74848049469937" lon="12.46686603172101"><ele>34.0</ele><time>2026-03-25T12:05:26.998Z</time></trkpt><trkpt lat="41.74853219535949" lon="12.466717009141684"><ele>34.0</ele><time>2026-03-25T12:05:28.998Z</time></trkpt><trkpt lat="41.748595611217446" lon="12.466573651886579"><ele>33.833333333333336</ele><time>2026-03-25T12:05:30.998Z</time></trkpt><trkpt lat="41.74865468416348" lon="12.466518320708715"><ele>33.66666666666667</ele><time>2026-03-25T12:05:32.998Z</time></trkpt><trkpt lat="41.74875063657457" lon="12.466591956780505"><ele>33.5</ele><time>2026-03-25T12:05:34.998Z</time></trkpt><trkpt lat="41.74880806505358" lon="12.46662727746809"><ele>33.333333333333336</ele><time>2026-03-25T12:05:35.998Z</time></trkpt><trkpt lat="41.74886817702318" lon="12.466664248605499"><ele>33.166666666666664</ele><time>2026-03-25T12:05:36.998Z</time></trkpt><trkpt lat="41.74892683728868" lon="12.466700326997657"><ele>33.0</ele><time>2026-03-25T12:05:37.998Z</time></trkpt><trkpt lat="41.74895770894893" lon="12.466797903694559"><ele>33.0</ele><time>2026-03-25T12:05:38.998Z</time></trkpt><trkpt lat="41.749051802735735" lon="12.466909772668822"><ele>33.0</ele><time>2026-03-25T12:05:40.998Z</time></trkpt><trkpt lat="41.749125725634165" lon="12.46703320840503"><ele>33.0</ele><time>2026-03-25T12:05:42.998Z</time></trkpt><trkpt lat="41.74919746174275" lon="12.467163444671655"><ele>33.0</ele><time>2026-03-25T12:05:44.999Z</time></trkpt><trkpt lat="41.74927356688136" lon="12.467291372326457"><ele>33.75</ele><time>2026-03-25T12:05:46.999Z</time></trkpt><trkpt lat="41.74934743220859" lon="12.467419301142142"><ele>34.5</ele><time>2026-03-25T12:05:48.999Z</time></trkpt><trkpt lat="41.74942582521276" lon="12.467544801113524"><ele>35.25</ele><time>2026-03-25T12:05:50.999Z</time></trkpt><trkpt lat="41.7495004771293" lon="12.467668321863437"><ele>36.0</ele><time>2026-03-25T12:05:52.999Z</time></trkpt><trkpt lat="41.74958358534885" lon="12.467784668858659"><ele>37.25</ele><time>2026-03-25T12:05:54.999Z</time></trkpt><trkpt lat="41.74966910476112" lon="12.467895192199341"><ele>38.5</ele><time>2026-03-25T12:05:57Z</time></trkpt><trkpt lat="41.74976369447022" lon="12.468001392083742"><ele>39.75</ele><time>2026-03-25T12:05:59Z</time></trkpt><trkpt lat="41.74985788552366" lon="12.468094008380138"><ele>41.0</ele><time>2026-03-25T12:06:01Z</time></trkpt><trkpt lat="41.74995238447433" lon="12.468178960455932"><ele>41.0</ele><time>2026-03-25T12:06:03Z</time></trkpt><trkpt lat="41.75005028883187" lon="12.468257842259163"><ele>41.0</ele><time>2026-03-25T12:06:05Z</time></trkpt><trkpt lat="41.750152589953146" lon="12.468341017614115"><ele>41.0</ele><time>2026-03-25T12:06:07Z</time></trkpt><trkpt lat="41.75025039797067" lon="12.468428706133201"><ele>41.0</ele><time>2026-03-25T12:06:09Z</time></trkpt><trkpt lat="41.75034987300004" lon="12.468514384054055"><ele>42.4</ele><time>2026-03-25T12:06:11Z</time></trkpt><trkpt lat="41.750405950145066" lon="12.468554472637745"><ele>43.8</ele><time>2026-03-25T12:06:12Z</time></trkpt><trkpt lat="41.7505070846342" lon="12.468632674075069"><ele>45.199999999999996</ele><time>2026-03-25T12:06:14Z</time></trkpt><trkpt lat="41.75061210675021" lon="12.468709288149183"><ele>46.599999999999994</ele><time>2026-03-25T12:06:16Z</time></trkpt><trkpt lat="41.75071875993032" lon="12.468775251205784"><ele>48.0</ele><time>2026-03-25T12:06:18Z</time></trkpt><trkpt lat="41.75083506471138" lon="12.468825284618498"><ele>48.0</ele><time>2026-03-25T12:06:20Z</time></trkpt><trkpt lat="41.75095233745375" lon="12.468859282681596"><ele>48.0</ele><time>2026-03-25T12:06:22Z</time></trkpt><trkpt lat="41.751068893113064" lon="12.468888130354879"><ele>48.0</ele><time>2026-03-25T12:06:24Z</time></trkpt><trkpt lat="41.75118876388872" lon="12.468907433890418"><ele>48.0</ele><time>2026-03-25T12:06:25.999Z</time></trkpt><trkpt lat="41.75130617366908" lon="12.468927532151477"><ele>49.75</ele><time>2026-03-25T12:06:27.999Z</time></trkpt><trkpt lat="41.75142008946196" lon="12.468946578831787"><ele>51.5</ele><time>2026-03-25T12:06:29.999Z</time></trkpt><trkpt lat="41.75153172363598" lon="12.468963967237293"><ele>53.25</ele><time>2026-03-25T12:06:31.999Z</time></trkpt><trkpt lat="41.75164572801262" lon="12.468995550471778"><ele>55.0</ele><time>2026-03-25T12:06:33.999Z</time></trkpt><trkpt lat="41.75175514065578" lon="12.469039358616259"><ele>55.0</ele><time>2026-03-25T12:06:35.999Z</time></trkpt><trkpt lat="41.751864827579176" lon="12.469085478019283"><ele>55.0</ele><time>2026-03-25T12:06:37.999Z</time></trkpt><trkpt lat="41.75197210582352" lon="12.469142218266573"><ele>55.0</ele><time>2026-03-25T12:06:39.999Z</time></trkpt><trkpt lat="41.75207883641539" lon="12.469208498005727"><ele>55.0</ele><time>2026-03-25T12:06:41.999Z</time></trkpt><trkpt lat="41.752183332668636" lon="12.46926791571459"><ele>56.5</ele><time>2026-03-25T12:06:43.999Z</time></trkpt><trkpt lat="41.75229081615131" lon="12.469337003397253"><ele>58.0</ele><time>2026-03-25T12:06:45.999Z</time></trkpt><trkpt lat="41.752399579639125" lon="12.469405469788825"><ele>59.5</ele><time>2026-03-25T12:06:47.999Z</time></trkpt><trkpt lat="41.75249705655181" lon="12.469488236109264"><ele>61.0</ele><time>2026-03-25T12:06:49.999Z</time></trkpt><trkpt lat="41.75260113471355" lon="12.469559406212522"><ele>62.0</ele><time>2026-03-25T12:06:51.999Z</time></trkpt><trkpt lat="41.75270638828816" lon="12.469641724711193"><ele>63.0</ele><time>2026-03-25T12:06:53.999Z</time></trkpt><trkpt lat="41.75280937469339" lon="12.469724826031397"><ele>64.0</ele><time>2026-03-25T12:06:55.999Z</time></trkpt><trkpt lat="41.75290934907615" lon="12.4698184901836"><ele>65.0</ele><time>2026-03-25T12:06:57.999Z</time></trkpt><trkpt lat="41.75300204997839" lon="12.469914492491926"><ele>65.0</ele><time>2026-03-25T12:06:59.999Z</time></trkpt><trkpt lat="41.753078532964075" lon="12.470039105103762"><ele>65.0</ele><time>2026-03-25T12:07:01.999Z</time></trkpt><trkpt lat="41.75316080471947" lon="12.47015478000052"><ele>65.0</ele><time>2026-03-25T12:07:03.999Z</time></trkpt><trkpt lat="41.75323731672985" lon="12.470278780360829"><ele>65.0</ele><time>2026-03-25T12:07:05.999Z</time></trkpt><trkpt lat="41.7533097184005" lon="12.47040653718925"><ele>64.75</ele><time>2026-03-25T12:07:07.999Z</time></trkpt><trkpt lat="41.75338234183541" lon="12.470533222901862"><ele>64.5</ele><time>2026-03-25T12:07:09.999Z</time></trkpt><trkpt lat="41.753454227810565" lon="12.47066244724101"><ele>64.25</ele><time>2026-03-25T12:07:11.999Z</time></trkpt><trkpt lat="41.75352692621131" lon="12.470792493270984"><ele>64.0</ele><time>2026-03-25T12:07:13.999Z</time></trkpt><trkpt lat="41.75359971588519" lon="12.47092056953029"><ele>63.99999999999999</ele><time>2026-03-25T12:07:15.999Z</time></trkpt><trkpt lat="41.75367696102213" lon="12.471056518640262"><ele>64.0</ele><time>2026-03-25T12:07:17.999Z</time></trkpt><trkpt lat="41.75371450240346" lon="12.471127018341011"><ele>64.0</ele><time>2026-03-25T12:07:18.999Z</time></trkpt><trkpt lat="41.75378882368516" lon="12.471261146637666"><ele>64.0</ele><time>2026-03-25T12:07:20.999Z</time></trkpt><trkpt lat="41.75382623308001" lon="12.471331324031523"><ele>63.99999999999999</ele><time>2026-03-25T12:07:21.999Z</time></trkpt><trkpt lat="41.75386431308047" lon="12.471399558505112"><ele>64.0</ele><time>2026-03-25T12:07:22.999Z</time></trkpt><trkpt lat="41.753938745414835" lon="12.471532564203752"><ele>64.0</ele><time>2026-03-25T12:07:24.999Z</time></trkpt><trkpt lat="41.75397655699908" lon="12.471604715968635"><ele>63.99999999999999</ele><time>2026-03-25T12:07:25.999Z</time></trkpt><trkpt lat="41.75401455678581" lon="12.471673401556997"><ele>64.0</ele><time>2026-03-25T12:07:26.999Z</time></trkpt><trkpt lat="41.754052610349" lon="12.471741264312948"><ele>64.0</ele><time>2026-03-25T12:07:27.999Z</time></trkpt><trkpt lat="41.754090847580535" lon="12.471809858620857"><ele>63.99999999999999</ele><time>2026-03-25T12:07:28.999Z</time></trkpt><trkpt lat="41.754127427338275" lon="12.471880664928076"><ele>64.0</ele><time>2026-03-25T12:07:29.999Z</time></trkpt><trkpt lat="41.7542007327712" lon="12.472014058350956"><ele>64.0</ele><time>2026-03-25T12:07:31.999Z</time></trkpt><trkpt lat="41.75428500810115" lon="12.47214056101803"><ele>64.16666666666666</ele><time>2026-03-25T12:07:33.999Z</time></trkpt><trkpt lat="41.75436162837358" lon="12.472274669623197"><ele>64.33333333333333</ele><time>2026-03-25T12:07:35.999Z</time></trkpt><trkpt lat="41.75443474990129" lon="12.472412183201211"><ele>64.5</ele><time>2026-03-25T12:07:37.999Z</time></trkpt><trkpt lat="41.75447390049414" lon="12.472478424603674"><ele>64.66666666666667</ele><time>2026-03-25T12:07:38.999Z</time></trkpt><trkpt lat="41.75451257939931" lon="12.472547039391163"><ele>64.83333333333334</ele><time>2026-03-25T12:07:39.999Z</time></trkpt><trkpt lat="41.75454859868405" lon="12.472618275717226"><ele>65.0</ele><time>2026-03-25T12:07:40.999Z</time></trkpt><trkpt lat="41.754617425585195" lon="12.472756571683382"><ele>65.5</ele><time>2026-03-25T12:07:42.999Z</time></trkpt><trkpt lat="41.75465857372052" lon="12.472820534114136"><ele>66.0</ele><time>2026-03-25T12:07:43.999Z</time></trkpt><trkpt lat="41.75471961518629" lon="12.472946767171363"><ele>66.5</ele><time>2026-03-25T12:07:45.999Z</time></trkpt><trkpt lat="41.754921722682454" lon="12.472809175266244"><ele>67.0</ele><time>2026-03-25T12:07:48.998Z</time></trkpt><trkpt lat="41.754986446964864" lon="12.47271419569097"><ele>67.0</ele><time>2026-03-25T12:07:51Z</time></trkpt><trkpt lat="41.75504648150387" lon="12.472601982169321"><ele>67.0</ele><time>2026-03-25T12:07:53Z</time></trkpt><trkpt lat="41.75511136049526" lon="12.4724946615128"><ele>67.0</ele><time>2026-03-25T12:07:55Z</time></trkpt><trkpt lat="41.755166800664085" lon="12.472415602549349"><ele>67.0</ele><time>2026-03-25T12:07:57Z</time></trkpt><trkpt lat="41.75522342079487" lon="12.4723414984601"><ele>67.0</ele><time>2026-03-25T12:07:59Z</time></trkpt><trkpt lat="41.75531842156804" lon="12.472571863027714"><ele>67.6</ele><time>2026-03-25T12:08:03Z</time></trkpt><trkpt lat="41.755350105913706" lon="12.472645017050992"><ele>68.2</ele><time>2026-03-25T12:08:04Z</time></trkpt><trkpt lat="41.75544044889257" lon="12.47274265085467"><ele>68.8</ele><time>2026-03-25T12:08:06Z</time></trkpt><trkpt lat="41.755518447088825" lon="12.472859038788547"><ele>69.4</ele><time>2026-03-25T12:08:08Z</time></trkpt><trkpt lat="41.75560079178563" lon="12.47298901380974"><ele>70.0</ele><time>2026-03-25T12:08:10Z</time></trkpt><trkpt lat="41.75563726234403" lon="12.4730595241994"><ele>70.0</ele><time>2026-03-25T12:08:11Z</time></trkpt><trkpt lat="41.75569962573967" lon="12.473198144560172"><ele>70.0</ele><time>2026-03-25T12:08:13Z</time></trkpt><trkpt lat="41.755736696746744" lon="12.473277818651566"><ele>70.0</ele><time>2026-03-25T12:08:14Z</time></trkpt><trkpt lat="41.7557731006669" lon="12.473355232536568"><ele>70.0</ele><time>2026-03-25T12:08:15Z</time></trkpt><trkpt lat="41.755816750416066" lon="12.473444471059542"><ele>70.0</ele><time>2026-03-25T12:08:16Z</time></trkpt><trkpt lat="41.75586371213751" lon="12.473519878492734"><ele>70.0</ele><time>2026-03-25T12:08:17Z</time></trkpt><trkpt lat="41.755902438091454" lon="12.473599234104505"><ele>70.0</ele><time>2026-03-25T12:08:18Z</time></trkpt><trkpt lat="41.75595583358606" lon="12.473676057034776"><ele>70.0</ele><time>2026-03-25T12:08:19Z</time></trkpt><trkpt lat="41.75600529837857" lon="12.473732368063553"><ele>70.0</ele><time>2026-03-25T12:08:20Z</time></trkpt><trkpt lat="41.75607970297655" lon="12.473788594520887"><ele>70.0</ele><time>2026-03-25T12:08:22Z</time></trkpt><trkpt lat="41.756171936308945" lon="12.47393799492557"><ele>70.0</ele><time>2026-03-25T12:08:24Z</time></trkpt><trkpt lat="41.75622304472914" lon="12.474021444582165"><ele>68.5</ele><time>2026-03-25T12:08:25Z</time></trkpt><trkpt lat="41.75628271145681" lon="12.474096684828648"><ele>67.0</ele><time>2026-03-25T12:08:26Z</time></trkpt><trkpt lat="41.756313946962806" lon="12.474171117682456"><ele>65.5</ele><time>2026-03-25T12:08:27Z</time></trkpt><trkpt lat="41.756347367039346" lon="12.474245114381509"><ele>64.0</ele><time>2026-03-25T12:08:28Z</time></trkpt><trkpt lat="41.75639062971157" lon="12.474316953886776"><ele>62.49999999999999</ele><time>2026-03-25T12:08:29Z</time></trkpt><trkpt lat="41.756431844124954" lon="12.474398876002361"><ele>61.0</ele><time>2026-03-25T12:08:30Z</time></trkpt><trkpt lat="41.75649682157317" lon="12.474526378426273"><ele>60.99999999999999</ele><time>2026-03-25T12:08:32Z</time></trkpt><trkpt lat="41.756577365618156" lon="12.474450033179863"><ele>61.0</ele><time>2026-03-25T12:08:34Z</time></trkpt><trkpt lat="41.75665288921476" lon="12.474427124003151"><ele>61.0</ele><time>2026-03-25T12:08:35Z</time></trkpt><trkpt lat="41.7567243377613" lon="12.474459143365415"><ele>61.0</ele><time>2026-03-25T12:08:37Z</time></trkpt><trkpt lat="41.75677917482674" lon="12.474519687206021"><ele>60.99999999999999</ele><time>2026-03-25T12:08:40.999Z</time></trkpt><trkpt lat="41.75688775352028" lon="12.474553548080772"><ele>61.0</ele><time>2026-03-25T12:08:43.999Z</time></trkpt><trkpt lat="41.75698424443716" lon="12.474550808672685"><ele>60.99999999999999</ele><time>2026-03-25T12:08:45.999Z</time></trkpt><trkpt lat="41.75708526202042" lon="12.474531099396462"><ele>61.0</ele><time>2026-03-25T12:08:47.999Z</time></trkpt><trkpt lat="41.757186302827655" lon="12.474492429879769"><ele>61.0</ele><time>2026-03-25T12:08:49.999Z</time></trkpt><trkpt lat="41.75727093955759" lon="12.474442216063318"><ele>61.0</ele><time>2026-03-25T12:08:51.999Z</time></trkpt><trkpt lat="41.75733089002396" lon="12.474403313783178"><ele>60.99999999999999</ele><time>2026-03-25T12:08:53.999Z</time></trkpt><trkpt lat="41.7574041254271" lon="12.474372746015824"><ele>61.0</ele><time>2026-03-25T12:08:56.999Z</time></trkpt><trkpt lat="41.757316517124586" lon="12.474437298053427"><ele>60.99999999999999</ele><time>2026-03-25T12:09:28.999Z</time></trkpt><trkpt lat="41.75723300998288" lon="12.474459980570149"><ele>61.0</ele><time>2026-03-25T12:09:31.999Z</time></trkpt><trkpt lat="41.75729515898536" lon="12.474428843797442"><ele>61.0</ele><time>2026-03-25T12:09:39.999Z</time></trkpt><trkpt lat="41.757369960556794" lon="12.474377105976258"><ele>61.0</ele><time>2026-03-25T12:09:43.999Z</time></trkpt><trkpt lat="41.75742959636072" lon="12.47433930116627"><ele>60.99999999999999</ele><time>2026-03-25T12:09:59Z</time></trkpt><trkpt lat="41.75748587716866" lon="12.474275614961943"><ele>61.0</ele><time>2026-03-25T12:10:02Z</time></trkpt><trkpt lat="41.75756388337826" lon="12.47421192184302"><ele>60.99999999999999</ele><time>2026-03-25T12:10:05Z</time></trkpt><trkpt lat="41.75765156161577" lon="12.474154695198745"><ele>61.0</ele><time>2026-03-25T12:10:07Z</time></trkpt><trkpt lat="41.757705193454925" lon="12.4741072255339"><ele>61.0</ele><time>2026-03-25T12:10:09Z</time></trkpt><trkpt lat="41.757784826179645" lon="12.474022943577227"><ele>61.0</ele><time>2026-03-25T12:10:11Z</time></trkpt><trkpt lat="41.75785434904663" lon="12.47397856646949"><ele>60.99999999999999</ele><time>2026-03-25T12:10:13Z</time></trkpt><trkpt lat="41.75792538666967" lon="12.473897894443118"><ele>61.0</ele><time>2026-03-25T12:10:16Z</time></trkpt><trkpt lat="41.75801309626622" lon="12.473851277865235"><ele>61.666666666666664</ele><time>2026-03-25T12:10:18Z</time></trkpt><trkpt lat="41.758089133600485" lon="12.47383582666722"><ele>62.33333333333333</ele><time>2026-03-25T12:10:20Z</time></trkpt><trkpt lat="41.758171216197674" lon="12.473805461885359"><ele>63.0</ele><time>2026-03-25T12:10:22Z</time></trkpt><trkpt lat="41.75826336351537" lon="12.473756649107742"><ele>63.66666666666667</ele><time>2026-03-25T12:10:24Z</time></trkpt><trkpt lat="41.75834138497691" lon="12.473705848776527"><ele>64.33333333333334</ele><time>2026-03-25T12:10:26Z</time></trkpt><trkpt lat="41.758406840751" lon="12.473640933399293"><ele>65.0</ele><time>2026-03-25T12:10:28Z</time></trkpt><trkpt lat="41.75848044165928" lon="12.473619331542906"><ele>64.0</ele><time>2026-03-25T12:10:31Z</time></trkpt><trkpt lat="41.758539592474854" lon="12.473685962504216"><ele>63.0</ele><time>2026-03-25T12:10:33Z</time></trkpt><trkpt lat="41.75857369237839" lon="12.473788074382336"><ele>62.0</ele><time>2026-03-25T12:10:35Z</time></trkpt><trkpt lat="41.75862666229144" lon="12.473894616419438"><ele>61.0</ele><time>2026-03-25T12:10:37Z</time></trkpt><trkpt lat="41.75870976380011" lon="12.473919509999101"><ele>60.00000000000001</ele><time>2026-03-25T12:10:39Z</time></trkpt><trkpt lat="41.75880228483958" lon="12.473930216052215"><ele>59.0</ele><time>2026-03-25T12:10:41Z</time></trkpt><trkpt lat="41.75888414246383" lon="12.4740229838074"><ele>59.0</ele><time>2026-03-25T12:10:43Z</time></trkpt><trkpt lat="41.758993419398635" lon="12.47406549239392"><ele>59.00000000000001</ele><time>2026-03-25T12:10:45Z</time></trkpt><trkpt lat="41.75910178667906" lon="12.474118127963772"><ele>59.00000000000001</ele><time>2026-03-25T12:10:47Z</time></trkpt><trkpt lat="41.759162134711275" lon="12.474155481036174"><ele>59.0</ele><time>2026-03-25T12:10:48Z</time></trkpt><trkpt lat="41.759226353028964" lon="12.474197137516587"><ele>59.0</ele><time>2026-03-25T12:10:49Z</time></trkpt><trkpt lat="41.759317307259494" lon="12.474313166542629"><ele>58.16666666666667</ele><time>2026-03-25T12:10:50.999Z</time></trkpt><trkpt lat="41.75941024511416" lon="12.474410647055025"><ele>57.333333333333336</ele><time>2026-03-25T12:10:52.999Z</time></trkpt><trkpt lat="41.7594927560042" lon="12.474464101695766"><ele>56.5</ele><time>2026-03-25T12:10:54.999Z</time></trkpt><trkpt lat="41.759547096582466" lon="12.474520177210039"><ele>55.66666666666667</ele><time>2026-03-25T12:10:56.999Z</time></trkpt><trkpt lat="41.759609384917695" lon="12.474598765672136"><ele>54.833333333333336</ele><time>2026-03-25T12:10:59.999Z</time></trkpt><trkpt lat="41.759673050309324" lon="12.474650643796348"><ele>54.0</ele><time>2026-03-25T12:11:02.999Z</time></trkpt><trkpt lat="41.75973570037164" lon="12.47468992425231"><ele>54.0</ele><time>2026-03-25T12:11:05.999Z</time></trkpt><trkpt lat="41.75978407589782" lon="12.47477533362841"><ele>54.0</ele><time>2026-03-25T12:11:08.999Z</time></trkpt><trkpt lat="41.75983826493198" lon="12.474850063290111"><ele>54.0</ele><time>2026-03-25T12:11:11.999Z</time></trkpt><trkpt lat="41.759829105501076" lon="12.474744889783388"><ele>54.0</ele><time>2026-03-25T12:11:19.999Z</time></trkpt><trkpt lat="41.759783111504305" lon="12.47466021203039"><ele>54.0</ele><time>2026-03-25T12:11:21.999Z</time></trkpt><trkpt lat="41.75980172808018" lon="12.47457255470584"><ele>54.0</ele><time>2026-03-25T12:11:23.999Z</time></trkpt><trkpt lat="41.759816115182" lon="12.474468881061087"><ele>54.0</ele><time>2026-03-25T12:11:26.999Z</time></trkpt><trkpt lat="41.7597941969116" lon="12.474366059101115"><ele>54.0</ele><time>2026-03-25T12:11:29.999Z</time></trkpt><trkpt lat="41.7598614448711" lon="12.474375036792603"><ele>54.0</ele><time>2026-03-25T12:11:41.999Z</time></trkpt><trkpt lat="41.75984693434851" lon="12.474485063668226"><ele>54.0</ele><time>2026-03-25T12:11:43.999Z</time></trkpt><trkpt lat="41.75981045904397" lon="12.474584506944268"><ele>54.0</ele><time>2026-03-25T12:11:45.999Z</time></trkpt><trkpt lat="41.75981371000002" lon="12.4746911339772"><ele>54.0</ele><time>2026-03-25T12:11:47.999Z</time></trkpt><trkpt lat="41.7598333093326" lon="12.474811826292031"><ele>54.0</ele><time>2026-03-25T12:11:49.999Z</time></trkpt><trkpt lat="41.759864319891605" lon="12.474951599705106"><ele>54.0</ele><time>2026-03-25T12:11:52.999Z</time></trkpt><trkpt lat="41.75988294035605" lon="12.47504359028986"><ele>54.0</ele><time>2026-03-25T12:11:53.999Z</time></trkpt><trkpt lat="41.75990924360717" lon="12.475145148234184"><ele>54.0</ele><time>2026-03-25T12:11:55.999Z</time></trkpt><trkpt lat="41.75992598706076" lon="12.475260654260012"><ele>54.0</ele><time>2026-03-25T12:11:57.999Z</time></trkpt><trkpt lat="41.759956046913544" lon="12.475359859406959"><ele>54.0</ele><time>2026-03-25T12:11:59.999Z</time></trkpt><trkpt lat="41.760017098450724" lon="12.475411423997066"><ele>53.833333333333336</ele><time>2026-03-25T12:12:02Z</time></trkpt><trkpt lat="41.76001134139305" lon="12.475524194788612"><ele>53.66666666666667</ele><time>2026-03-25T12:12:05Z</time></trkpt><trkpt lat="41.76003284764446" lon="12.475637051218127"><ele>53.5</ele><time>2026-03-25T12:12:07Z</time></trkpt><trkpt lat="41.760080929839965" lon="12.475711951987284"><ele>53.333333333333336</ele><time>2026-03-25T12:12:09Z</time></trkpt><trkpt lat="41.76015939746687" lon="12.47576796834669"><ele>53.16666666666667</ele><time>2026-03-25T12:12:12Z</time></trkpt><trkpt lat="41.760204484923136" lon="12.475864288310413"><ele>53.0</ele><time>2026-03-25T12:12:14Z</time></trkpt><trkpt lat="41.760145253685465" lon="12.475782153879189"><ele>53.00000000000001</ele><time>2026-03-25T12:12:31Z</time></trkpt><trkpt lat="41.760108115116694" lon="12.475711497110039"><ele>53.0</ele><time>2026-03-25T12:12:33Z</time></trkpt><trkpt lat="41.76004387326119" lon="12.475693839565634"><ele>53.0</ele><time>2026-03-25T12:12:35Z</time></trkpt><trkpt lat="41.759978519058116" lon="12.47572332671847"><ele>53.0</ele><time>2026-03-25T12:12:38Z</time></trkpt><trkpt lat="41.75994313899128" lon="12.4758069841849"><ele>53.00000000000001</ele><time>2026-03-25T12:12:41Z</time></trkpt><trkpt lat="41.75990380713135" lon="12.475905877080997"><ele>53.0</ele><time>2026-03-25T12:12:45Z</time></trkpt><trkpt lat="41.75988329483475" lon="12.476036249976154"><ele>53.0</ele><time>2026-03-25T12:12:47Z</time></trkpt><trkpt lat="41.75990734666113" lon="12.476122095486797"><ele>53.0</ele><time>2026-03-25T12:12:49Z</time></trkpt><trkpt lat="41.759977295724575" lon="12.476165743884517"><ele>53.0</ele><time>2026-03-25T12:12:52Z</time></trkpt><trkpt lat="41.760034996349205" lon="12.476238590081604"><ele>53.0</ele><time>2026-03-25T12:12:54.999Z</time></trkpt><trkpt lat="41.759984288397824" lon="12.47616654944864"><ele>53.0</ele><time>2026-03-25T12:13:12.999Z</time></trkpt><trkpt lat="41.75993737738924" lon="12.476103203366797"><ele>53.0</ele><time>2026-03-25T12:13:15.999Z</time></trkpt><trkpt lat="41.75988905356303" lon="12.476045876490067"><ele>53.0</ele><time>2026-03-25T12:13:18.999Z</time></trkpt><trkpt lat="41.7598944928356" lon="12.475946607133194"><ele>53.00000000000001</ele><time>2026-03-25T12:13:20.999Z</time></trkpt><trkpt lat="41.759926504988805" lon="12.475828389904654"><ele>53.0</ele><time>2026-03-25T12:13:22.999Z</time></trkpt><trkpt lat="41.759972457045386" lon="12.475735062952605"><ele>53.0</ele><time>2026-03-25T12:13:24.999Z</time></trkpt><trkpt lat="41.75997145574214" lon="12.47564108735289"><ele>53.0</ele><time>2026-03-25T12:13:27.999Z</time></trkpt><trkpt lat="41.75998028251" lon="12.475545615128999"><ele>53.00000000000001</ele><time>2026-03-25T12:13:30.999Z</time></trkpt><trkpt lat="41.7600133246286" lon="12.475450073743762"><ele>53.0</ele><time>2026-03-25T12:13:34.999Z</time></trkpt><trkpt lat="41.75997613732208" lon="12.475358581511298"><ele>53.16666666666667</ele><time>2026-03-25T12:13:37.999Z</time></trkpt><trkpt lat="41.759913865733374" lon="12.475315522193418"><ele>53.333333333333336</ele><time>2026-03-25T12:13:39.999Z</time></trkpt><trkpt lat="41.75990907223121" lon="12.475219979142866"><ele>53.5</ele><time>2026-03-25T12:13:41.999Z</time></trkpt><trkpt lat="41.7598988702152" lon="12.475125504028195"><ele>53.66666666666667</ele><time>2026-03-25T12:13:43.999Z</time></trkpt><trkpt lat="41.759876869371745" lon="12.475021741927167"><ele>53.833333333333336</ele><time>2026-03-25T12:13:45.999Z</time></trkpt><trkpt lat="41.75986322180123" lon="12.474888692313513"><ele>54.0</ele><time>2026-03-25T12:13:47.999Z</time></trkpt><trkpt lat="41.75982611879304" lon="12.474789666359346"><ele>54.0</ele><time>2026-03-25T12:13:50.999Z</time></trkpt><trkpt lat="41.759757436878495" lon="12.47475875132113"><ele>54.0</ele><time>2026-03-25T12:13:52.999Z</time></trkpt><trkpt lat="41.75970593168018" lon="12.474660330252233"><ele>54.0</ele><time>2026-03-25T12:13:55.999Z</time></trkpt><trkpt lat="41.75964857215964" lon="12.474586846110958"><ele>54.0</ele><time>2026-03-25T12:13:57.999Z</time></trkpt><trkpt lat="41.75958521339012" lon="12.474516486715233"><ele>54.0</ele><time>2026-03-25T12:13:59.999Z</time></trkpt><trkpt lat="41.759546598403645" lon="12.47439978963343"><ele>54.0</ele><time>2026-03-25T12:14:03.999Z</time></trkpt><trkpt lat="41.75947602460605" lon="12.474354802690742"><ele>53.666666666666664</ele><time>2026-03-25T12:14:05.999Z</time></trkpt><trkpt lat="41.75940716004884" lon="12.474335587792089"><ele>53.33333333333333</ele><time>2026-03-25T12:14:09Z</time></trkpt><trkpt lat="41.759320752033716" lon="12.474328756591316"><ele>53.0</ele><time>2026-03-25T12:14:12Z</time></trkpt><trkpt lat="41.759271371140436" lon="12.474266663577195"><ele>52.666666666666664</ele><time>2026-03-25T12:14:14Z</time></trkpt><trkpt lat="41.75920265959879" lon="12.474196774368592"><ele>52.33333333333333</ele><time>2026-03-25T12:14:16Z</time></trkpt><trkpt lat="41.75912948547691" lon="12.474147589978916"><ele>52.0</ele><time>2026-03-25T12:14:18Z</time></trkpt><trkpt lat="41.759053162101544" lon="12.47407982077344"><ele>53.166666666666664</ele><time>2026-03-25T12:14:20Z</time></trkpt><trkpt lat="41.75896345469271" lon="12.47403156457741"><ele>54.33333333333333</ele><time>2026-03-25T12:14:23Z</time></trkpt><trkpt lat="41.75888044449495" lon="12.474010329039878"><ele>55.5</ele><time>2026-03-25T12:14:25Z</time></trkpt><trkpt lat="41.75880296158403" lon="12.473980886816637"><ele>56.66666666666667</ele><time>2026-03-25T12:14:27Z</time></trkpt><trkpt lat="41.75872073666186" lon="12.473977374918405"><ele>57.833333333333336</ele><time>2026-03-25T12:14:29Z</time></trkpt><trkpt lat="41.758644408305706" lon="12.473976467283224"><ele>59.0</ele><time>2026-03-25T12:14:31Z</time></trkpt><trkpt lat="41.758559399508776" lon="12.473954954874486"><ele>60.00000000000001</ele><time>2026-03-25T12:14:33Z</time></trkpt><trkpt lat="41.75846510674133" lon="12.473950631477743"><ele>61.0</ele><time>2026-03-25T12:14:35Z</time></trkpt><trkpt lat="41.758402300276984" lon="12.473937412558803"><ele>62.0</ele><time>2026-03-25T12:14:36Z</time></trkpt><trkpt lat="41.758306132567654" lon="12.473955201110252"><ele>63.0</ele><time>2026-03-25T12:14:38Z</time></trkpt><trkpt lat="41.75820835018515" lon="12.47398864298485"><ele>64.0</ele><time>2026-03-25T12:14:40Z</time></trkpt><trkpt lat="41.758117760815146" lon="12.474020077277647"><ele>65.0</ele><time>2026-03-25T12:14:42Z</time></trkpt><trkpt lat="41.75802018116885" lon="12.47405644890701"><ele>65.0</ele><time>2026-03-25T12:14:44Z</time></trkpt><trkpt lat="41.7579456690951" lon="12.474122293773867"><ele>65.0</ele><time>2026-03-25T12:14:46Z</time></trkpt><trkpt lat="41.75787405612363" lon="12.474192819943141"><ele>65.0</ele><time>2026-03-25T12:14:48Z</time></trkpt><trkpt lat="41.75778079392588" lon="12.474264754380547"><ele>65.0</ele><time>2026-03-25T12:14:50Z</time></trkpt><trkpt lat="41.757686687885304" lon="12.474306521556018"><ele>65.0</ele><time>2026-03-25T12:14:52Z</time></trkpt><trkpt lat="41.75760328382724" lon="12.474340772572312"><ele>64.33333333333334</ele><time>2026-03-25T12:14:54Z</time></trkpt><trkpt lat="41.757532226951696" lon="12.474398259371661"><ele>63.66666666666667</ele><time>2026-03-25T12:14:56Z</time></trkpt><trkpt lat="41.757451766295226" lon="12.474418847250153"><ele>63.0</ele><time>2026-03-25T12:14:58Z</time></trkpt><trkpt lat="41.75737072209597" lon="12.47439263840431"><ele>62.33333333333333</ele><time>2026-03-25T12:15:02Z</time></trkpt><trkpt lat="41.75729439300884" lon="12.474423357035691"><ele>61.666666666666664</ele><time>2026-03-25T12:15:04.999Z</time></trkpt><trkpt lat="41.7572311048315" lon="12.474489735379052"><ele>61.0</ele><time>2026-03-25T12:15:06.999Z</time></trkpt><trkpt lat="41.7570975748158" lon="12.474538384790655"><ele>60.99999999999999</ele><time>2026-03-25T12:15:08.999Z</time></trkpt><trkpt lat="41.75702770725882" lon="12.474552976341991"><ele>61.0</ele><time>2026-03-25T12:15:09.999Z</time></trkpt><trkpt lat="41.756958083460404" lon="12.47457052581421"><ele>61.0</ele><time>2026-03-25T12:15:10.999Z</time></trkpt><trkpt lat="41.75688500250484" lon="12.474564969958179"><ele>61.0</ele><time>2026-03-25T12:15:11.999Z</time></trkpt><trkpt lat="41.75682162801156" lon="12.474559050763977"><ele>60.99999999999999</ele><time>2026-03-25T12:15:12.999Z</time></trkpt><trkpt lat="41.75674129936137" lon="12.474507849631605"><ele>61.0</ele><time>2026-03-25T12:15:14.999Z</time></trkpt><trkpt lat="41.75667451478776" lon="12.474433968817321"><ele>60.99999999999999</ele><time>2026-03-25T12:15:18.999Z</time></trkpt><trkpt lat="41.756592833344115" lon="12.474432857403011"><ele>61.0</ele><time>2026-03-25T12:15:20.999Z</time></trkpt><trkpt lat="41.75649518992092" lon="12.47447930182312"><ele>61.0</ele><time>2026-03-25T12:15:22.999Z</time></trkpt><trkpt lat="41.75639674467276" lon="12.474446399709604"><ele>61.0</ele><time>2026-03-25T12:15:24.999Z</time></trkpt><trkpt lat="41.75636798659357" lon="12.474365153629984"><ele>60.99999999999999</ele><time>2026-03-25T12:15:25.999Z</time></trkpt><trkpt lat="41.75633292834154" lon="12.474272778969121"><ele>61.0</ele><time>2026-03-25T12:15:26.999Z</time></trkpt><trkpt lat="41.756311177828984" lon="12.474133959446707"><ele>60.99999999999999</ele><time>2026-03-25T12:15:28.999Z</time></trkpt><trkpt lat="41.756261926772694" lon="12.474065291849886"><ele>61.0</ele><time>2026-03-25T12:15:30.999Z</time></trkpt><trkpt lat="41.756203998250804" lon="12.473978822731578"><ele>61.0</ele><time>2026-03-25T12:15:32.999Z</time></trkpt><trkpt lat="41.75614661289307" lon="12.473900378586958"><ele>61.0</ele><time>2026-03-25T12:15:34.999Z</time></trkpt><trkpt lat="41.75610493536894" lon="12.47382333814953"><ele>60.99999999999999</ele><time>2026-03-25T12:15:36.999Z</time></trkpt><trkpt lat="41.756045702809914" lon="12.473744974503713"><ele>61.0</ele><time>2026-03-25T12:15:39.999Z</time></trkpt><trkpt lat="41.75597216912743" lon="12.473769369301616"><ele>62.0</ele><time>2026-03-25T12:15:42.999Z</time></trkpt><trkpt lat="41.75589113754706" lon="12.473871397530122"><ele>62.99999999999999</ele><time>2026-03-25T12:15:44.999Z</time></trkpt><trkpt lat="41.7558109383798" lon="12.473957428440217"><ele>63.99999999999999</ele><time>2026-03-25T12:15:46.999Z</time></trkpt><trkpt lat="41.75570773001661" lon="12.47401075082664"><ele>65.0</ele><time>2026-03-25T12:15:48.999Z</time></trkpt><trkpt lat="41.755608103069825" lon="12.474040830136348"><ele>66.0</ele><time>2026-03-25T12:15:50.999Z</time></trkpt><trkpt lat="41.755534236441456" lon="12.474077179333303"><ele>66.0</ele><time>2026-03-25T12:15:52.999Z</time></trkpt><trkpt lat="41.755527953742096" lon="12.474163444454273"><ele>66.0</ele><time>2026-03-25T12:15:56.999Z</time></trkpt><trkpt lat="41.75556824526854" lon="12.474278615980166"><ele>66.0</ele><time>2026-03-25T12:15:58.999Z</time></trkpt><trkpt lat="41.75561493528336" lon="12.474337031320054"><ele>66.0</ele><time>2026-03-25T12:15:59.999Z</time></trkpt><trkpt lat="41.75566357993694" lon="12.474400006010086"><ele>66.0</ele><time>2026-03-25T12:16:00.999Z</time></trkpt><trkpt lat="41.75570936419751" lon="12.474469824639485"><ele>66.0</ele><time>2026-03-25T12:16:01.999Z</time></trkpt><trkpt lat="41.755752060549774" lon="12.47453394258368"><ele>66.0</ele><time>2026-03-25T12:16:02.999Z</time></trkpt><trkpt lat="41.75579793028013" lon="12.474593105270658"><ele>65.8</ele><time>2026-03-25T12:16:03.999Z</time></trkpt><trkpt lat="41.7558941306596" lon="12.474703788019891"><ele>65.6</ele><time>2026-03-25T12:16:05.999Z</time></trkpt><trkpt lat="41.75594713592378" lon="12.474752863157962"><ele>65.4</ele><time>2026-03-25T12:16:06.999Z</time></trkpt><trkpt lat="41.75605456731624" lon="12.474841719942518"><ele>65.2</ele><time>2026-03-25T12:16:08.999Z</time></trkpt><trkpt lat="41.756110883943805" lon="12.474882211666207"><ele>65.0</ele><time>2026-03-25T12:16:09.999Z</time></trkpt><trkpt lat="41.75622209590786" lon="12.474955666221952"><ele>64.6</ele><time>2026-03-25T12:16:11.999Z</time></trkpt><trkpt lat="41.756280925634485" lon="12.474991569896309"><ele>64.2</ele><time>2026-03-25T12:16:12.999Z</time></trkpt><trkpt lat="41.75639500777527" lon="12.475059269996985"><ele>63.8</ele><time>2026-03-25T12:16:15Z</time></trkpt><trkpt lat="41.75650859395946" lon="12.475126345127553"><ele>63.4</ele><time>2026-03-25T12:16:17Z</time></trkpt><trkpt lat="41.75662165990631" lon="12.475192669553664"><ele>63.0</ele><time>2026-03-25T12:16:19Z</time></trkpt><trkpt lat="41.75673379723741" lon="12.47525786562987"><ele>63.0</ele><time>2026-03-25T12:16:21Z</time></trkpt><trkpt lat="41.75685110295431" lon="12.475320255672596"><ele>63.0</ele><time>2026-03-25T12:16:23Z</time></trkpt><trkpt lat="41.75696671692116" lon="12.47538676355867"><ele>63.0</ele><time>2026-03-25T12:16:25Z</time></trkpt><trkpt lat="41.75702417537422" lon="12.475423910874236"><ele>63.0</ele><time>2026-03-25T12:16:26Z</time></trkpt><trkpt lat="41.75713818947463" lon="12.475490507022322"><ele>63.0</ele><time>2026-03-25T12:16:28Z</time></trkpt><trkpt lat="41.7572492433375" lon="12.475561091555639"><ele>64.75</ele><time>2026-03-25T12:16:30Z</time></trkpt><trkpt lat="41.75736174419698" lon="12.475622820511937"><ele>66.5</ele><time>2026-03-25T12:16:32Z</time></trkpt><trkpt lat="41.75747488700503" lon="12.475685059029956"><ele>68.25</ele><time>2026-03-25T12:16:34Z</time></trkpt><trkpt lat="41.75758750836927" lon="12.475750792783419"><ele>70.0</ele><time>2026-03-25T12:16:36Z</time></trkpt><trkpt lat="41.757700148645206" lon="12.475820516336375"><ele>69.66666666666666</ele><time>2026-03-25T12:16:38Z</time></trkpt><trkpt lat="41.757815466206736" lon="12.475888172297703"><ele>69.33333333333333</ele><time>2026-03-25T12:16:40Z</time></trkpt><trkpt lat="41.75787864741385" lon="12.475922812072604"><ele>69.0</ele><time>2026-03-25T12:16:41Z</time></trkpt><trkpt lat="41.75793689202458" lon="12.475959930194984"><ele>68.66666666666667</ele><time>2026-03-25T12:16:42Z</time></trkpt><trkpt lat="41.75800128917634" lon="12.475999148465164"><ele>68.33333333333334</ele><time>2026-03-25T12:16:43Z</time></trkpt><trkpt lat="41.75806622325348" lon="12.476038734140918"><ele>68.0</ele><time>2026-03-25T12:16:44Z</time></trkpt><trkpt lat="41.75813410778115" lon="12.476079598380327"><ele>68.0</ele><time>2026-03-25T12:16:45Z</time></trkpt><trkpt lat="41.75820455706324" lon="12.476119829690909"><ele>68.0</ele><time>2026-03-25T12:16:46Z</time></trkpt><trkpt lat="41.75827574475062" lon="12.476160240453023"><ele>68.0</ele><time>2026-03-25T12:16:47Z</time></trkpt><trkpt lat="41.75834694152863" lon="12.476198072822392"><ele>68.0</ele><time>2026-03-25T12:16:48Z</time></trkpt><trkpt lat="41.7584195581457" lon="12.476240016961162"><ele>68.0</ele><time>2026-03-25T12:16:49Z</time></trkpt><trkpt lat="41.75849198486373" lon="12.476280940170625"><ele>68.0</ele><time>2026-03-25T12:16:50Z</time></trkpt><trkpt lat="41.75856304139438" lon="12.476319552322535"><ele>66.83333333333334</ele><time>2026-03-25T12:16:51Z</time></trkpt><trkpt lat="41.7586358832003" lon="12.476360129423604"><ele>65.66666666666667</ele><time>2026-03-25T12:16:52Z</time></trkpt><trkpt lat="41.75871091283532" lon="12.476401431315878"><ele>64.5</ele><time>2026-03-25T12:16:53Z</time></trkpt><trkpt lat="41.7587863482552" lon="12.476445414200256"><ele>63.33333333333333</ele><time>2026-03-25T12:16:54Z</time></trkpt><trkpt lat="41.75886070506702" lon="12.47648965859896"><ele>62.166666666666664</ele><time>2026-03-25T12:16:55Z</time></trkpt><trkpt lat="41.75893609290772" lon="12.476532626254459"><ele>61.0</ele><time>2026-03-25T12:16:56Z</time></trkpt><trkpt lat="41.7590135996324" lon="12.476577432735152"><ele>60.99999999999999</ele><time>2026-03-25T12:16:57Z</time></trkpt><trkpt lat="41.75909169254964" lon="12.476620064898585"><ele>61.0</ele><time>2026-03-25T12:16:58Z</time></trkpt><trkpt lat="41.75916883754772" lon="12.476663083195072"><ele>61.0</ele><time>2026-03-25T12:16:59Z</time></trkpt><trkpt lat="41.759246697250425" lon="12.476706000013069"><ele>61.0</ele><time>2026-03-25T12:17:00Z</time></trkpt><trkpt lat="41.75932579093504" lon="12.476748086461901"><ele>60.99999999999999</ele><time>2026-03-25T12:17:01Z</time></trkpt><trkpt lat="41.759403810475156" lon="12.476792071599359"><ele>61.0</ele><time>2026-03-25T12:17:02Z</time></trkpt><trkpt lat="41.75948329548504" lon="12.476836725568695"><ele>59.599999999999994</ele><time>2026-03-25T12:17:03Z</time></trkpt><trkpt lat="41.759566266577956" lon="12.476878362315963"><ele>58.199999999999996</ele><time>2026-03-25T12:17:04Z</time></trkpt><trkpt lat="41.759649581225126" lon="12.476921906479543"><ele>56.800000000000004</ele><time>2026-03-25T12:17:05Z</time></trkpt><trkpt lat="41.75973372018241" lon="12.476967116065406"><ele>55.400000000000006</ele><time>2026-03-25T12:17:06Z</time></trkpt><trkpt lat="41.759819988411124" lon="12.47701179734794"><ele>54.0</ele><time>2026-03-25T12:17:07Z</time></trkpt><trkpt lat="41.75990664049048" lon="12.477053961349474"><ele>54.0</ele><time>2026-03-25T12:17:08Z</time></trkpt><trkpt lat="41.759993212494905" lon="12.477091036849558"><ele>54.0</ele><time>2026-03-25T12:17:08.999Z</time></trkpt><trkpt lat="41.76007793695809" lon="12.477120030701295"><ele>54.0</ele><time>2026-03-25T12:17:09.999Z</time></trkpt><trkpt lat="41.760161427524665" lon="12.477146240780064"><ele>54.0</ele><time>2026-03-25T12:17:10.999Z</time></trkpt><trkpt lat="41.76024520172717" lon="12.477165830119771"><ele>54.0</ele><time>2026-03-25T12:17:11.999Z</time></trkpt><trkpt lat="41.76032833929704" lon="12.477187653066482"><ele>54.0</ele><time>2026-03-25T12:17:12.999Z</time></trkpt><trkpt lat="41.760408942295626" lon="12.477208805027981"><ele>54.0</ele><time>2026-03-25T12:17:13.999Z</time></trkpt><trkpt lat="41.760487246524015" lon="12.477228066209259"><ele>54.0</ele><time>2026-03-25T12:17:14.999Z</time></trkpt><trkpt lat="41.76056277339791" lon="12.47724294583964"><ele>54.0</ele><time>2026-03-25T12:17:15.999Z</time></trkpt><trkpt lat="41.76063343783317" lon="12.477260830429207"><ele>54.0</ele><time>2026-03-25T12:17:16.999Z</time></trkpt><trkpt lat="41.76070378054366" lon="12.477274783181755"><ele>54.0</ele><time>2026-03-25T12:17:17.999Z</time></trkpt><trkpt lat="41.760772168936676" lon="12.477288401490513"><ele>54.0</ele><time>2026-03-25T12:17:18.999Z</time></trkpt><trkpt lat="41.76083707023946" lon="12.477302594631213"><ele>54.0</ele><time>2026-03-25T12:17:19.999Z</time></trkpt><trkpt lat="41.760901720020506" lon="12.477321422596422"><ele>54.0</ele><time>2026-03-25T12:17:20.999Z</time></trkpt><trkpt lat="41.76102140443264" lon="12.477352314795176"><ele>54.0</ele><time>2026-03-25T12:17:22.999Z</time></trkpt><trkpt lat="41.761142078250664" lon="12.477383512280602"><ele>54.0</ele><time>2026-03-25T12:17:24.999Z</time></trkpt><trkpt lat="41.761259078860924" lon="12.477412519864338"><ele>54.0</ele><time>2026-03-25T12:17:26.999Z</time></trkpt><trkpt lat="41.761372754542094" lon="12.477441090911583"><ele>55.2</ele><time>2026-03-25T12:17:28.999Z</time></trkpt><trkpt lat="41.7614853440221" lon="12.477466805044152"><ele>56.400000000000006</ele><time>2026-03-25T12:17:30.999Z</time></trkpt><trkpt lat="41.761596639770374" lon="12.47749638810979"><ele>57.6</ele><time>2026-03-25T12:17:32.999Z</time></trkpt><trkpt lat="41.76170347843954" lon="12.477524614096621"><ele>58.8</ele><time>2026-03-25T12:17:34.999Z</time></trkpt><trkpt lat="41.76179681502613" lon="12.477535055833181"><ele>60.0</ele><time>2026-03-25T12:17:36.999Z</time></trkpt><trkpt lat="41.76179906367166" lon="12.477313686957302"><ele>60.0</ele><time>2026-03-25T12:17:38.999Z</time></trkpt><trkpt lat="41.76178703907532" lon="12.477158451080996"><ele>60.0</ele><time>2026-03-25T12:17:40.999Z</time></trkpt><trkpt lat="41.761787353117946" lon="12.477021166050138"><ele>60.0</ele><time>2026-03-25T12:17:42.999Z</time></trkpt><trkpt lat="41.76178215274791" lon="12.476885913446525"><ele>60.0</ele><time>2026-03-25T12:17:44.999Z</time></trkpt><trkpt lat="41.76178257472283" lon="12.476753055365284"><ele>60.0</ele><time>2026-03-25T12:17:46.999Z</time></trkpt><trkpt lat="41.76178236280639" lon="12.476631302384616"><ele>60.6</ele><time>2026-03-25T12:17:48.999Z</time></trkpt><trkpt lat="41.76179366672859" lon="12.476535082878938"><ele>61.2</ele><time>2026-03-25T12:17:50.999Z</time></trkpt><trkpt lat="41.761792226241134" lon="12.476390592022868"><ele>61.8</ele><time>2026-03-25T12:17:53.999Z</time></trkpt><trkpt lat="41.76179121022483" lon="12.476299277753721"><ele>62.4</ele><time>2026-03-25T12:17:54.999Z</time></trkpt><trkpt lat="41.761789338923265" lon="12.476133967569503"><ele>63.0</ele><time>2026-03-25T12:17:56.999Z</time></trkpt><trkpt lat="41.76178710992155" lon="12.47598945421308"><ele>63.166666666666664</ele><time>2026-03-25T12:17:58.999Z</time></trkpt><trkpt lat="41.76178545619576" lon="12.475836932364997"><ele>63.33333333333333</ele><time>2026-03-25T12:18:00.999Z</time></trkpt><trkpt lat="41.76178779893489" lon="12.475682273335881"><ele>63.5</ele><time>2026-03-25T12:18:02.999Z</time></trkpt><trkpt lat="41.761788456193806" lon="12.47559514380244"><ele>63.666666666666664</ele><time>2026-03-25T12:18:03.999Z</time></trkpt><trkpt lat="41.7617848848823" lon="12.475500463223732"><ele>63.83333333333333</ele><time>2026-03-25T12:18:04.999Z</time></trkpt><trkpt lat="41.761764559859664" lon="12.475391108241423"><ele>64.0</ele><time>2026-03-25T12:18:05.999Z</time></trkpt><trkpt lat="41.76170967459489" lon="12.475290386367401"><ele>64.60000000000001</ele><time>2026-03-25T12:18:06.999Z</time></trkpt><trkpt lat="41.76164439404109" lon="12.475229663124725"><ele>65.2</ele><time>2026-03-25T12:18:07.999Z</time></trkpt><trkpt lat="41.76154461785534" lon="12.47517090265766"><ele>65.80000000000001</ele><time>2026-03-25T12:18:09.999Z</time></trkpt><trkpt lat="41.76148477668094" lon="12.475050176064105"><ele>66.4</ele><time>2026-03-25T12:18:11.999Z</time></trkpt><trkpt lat="41.76145503855192" lon="12.474916714725111"><ele>67.0</ele><time>2026-03-25T12:18:13.999Z</time></trkpt><trkpt lat="41.76150078364946" lon="12.474782103511625"><ele>67.0</ele><time>2026-03-25T12:18:15.999Z</time></trkpt><trkpt lat="41.7615683689372" lon="12.474662013683611"><ele>67.0</ele><time>2026-03-25T12:18:17.999Z</time></trkpt><trkpt lat="41.76160692645914" lon="12.474589930150719"><ele>67.0</ele><time>2026-03-25T12:18:18.999Z</time></trkpt><trkpt lat="41.761671009238576" lon="12.474551305341706"><ele>67.0</ele><time>2026-03-25T12:18:20Z</time></trkpt><trkpt lat="41.76178290188521" lon="12.47455209128027"><ele>67.0</ele><time>2026-03-25T12:18:22Z</time></trkpt><trkpt lat="41.761811860490894" lon="12.474632872092968"><ele>67.0</ele><time>2026-03-25T12:18:23Z</time></trkpt><trkpt lat="41.76190480193615" lon="12.474708244557103"><ele>68.6</ele><time>2026-03-25T12:18:25Z</time></trkpt><trkpt lat="41.761997226262366" lon="12.474784153059574"><ele>70.2</ele><time>2026-03-25T12:18:27Z</time></trkpt><trkpt lat="41.76208723396429" lon="12.474787301049728"><ele>71.8</ele><time>2026-03-25T12:18:29Z</time></trkpt><trkpt lat="41.7621816529546" lon="12.474804940963757"><ele>73.4</ele><time>2026-03-25T12:18:31Z</time></trkpt><trkpt lat="41.76229988306739" lon="12.474818921685014"><ele>75.0</ele><time>2026-03-25T12:18:33Z</time></trkpt><trkpt lat="41.76236508092266" lon="12.474834418789987"><ele>75.0</ele><time>2026-03-25T12:18:34Z</time></trkpt><trkpt lat="41.762428557571425" lon="12.474836344846675"><ele>75.0</ele><time>2026-03-25T12:18:35Z</time></trkpt><trkpt lat="41.76254568028043" lon="12.474840582976269"><ele>75.0</ele><time>2026-03-25T12:18:37Z</time></trkpt><trkpt lat="41.76261133489295" lon="12.474827212524787"><ele>75.0</ele><time>2026-03-25T12:18:38Z</time></trkpt><trkpt lat="41.76267798414289" lon="12.474791927592497"><ele>75.0</ele><time>2026-03-25T12:18:39Z</time></trkpt><trkpt lat="41.7627781702078" lon="12.47472799441241"><ele>75.0</ele><time>2026-03-25T12:18:41Z</time></trkpt><trkpt lat="41.76288264657541" lon="12.474701483349293"><ele>75.2</ele><time>2026-03-25T12:18:43Z</time></trkpt><trkpt lat="41.762947385353385" lon="12.47471069200156"><ele>75.4</ele><time>2026-03-25T12:18:44Z</time></trkpt><trkpt lat="41.76301860886517" lon="12.47473575741293"><ele>75.6</ele><time>2026-03-25T12:18:45Z</time></trkpt><trkpt lat="41.76308303221326" lon="12.474749263935587"><ele>75.8</ele><time>2026-03-25T12:18:46Z</time></trkpt><trkpt lat="41.76320584584531" lon="12.474792415769686"><ele>76.0</ele><time>2026-03-25T12:18:48Z</time></trkpt><trkpt lat="41.76332185758205" lon="12.474850225238901"><ele>76.0</ele><time>2026-03-25T12:18:50Z</time></trkpt><trkpt lat="41.76338457084644" lon="12.47487334852853"><ele>76.0</ele><time>2026-03-25T12:18:51Z</time></trkpt><trkpt lat="41.7634437589919" lon="12.474902902863112"><ele>76.0</ele><time>2026-03-25T12:18:52Z</time></trkpt><trkpt lat="41.76355958515675" lon="12.474960808843342"><ele>76.0</ele><time>2026-03-25T12:18:54Z</time></trkpt><trkpt lat="41.7636167699891" lon="12.475007507540036"><ele>76.0</ele><time>2026-03-25T12:18:55Z</time></trkpt><trkpt lat="41.76367460574651" lon="12.475042362357897"><ele>76.0</ele><time>2026-03-25T12:18:56Z</time></trkpt><trkpt lat="41.763783227679" lon="12.475117161163027"><ele>74.5</ele><time>2026-03-25T12:18:58Z</time></trkpt><trkpt lat="41.76384383907208" lon="12.475151137312329"><ele>73.0</ele><time>2026-03-25T12:18:59Z</time></trkpt><trkpt lat="41.7639454896767" lon="12.475243665235308"><ele>71.5</ele><time>2026-03-25T12:19:01Z</time></trkpt><trkpt lat="41.76402381831543" lon="12.475305573369777"><ele>70.0</ele><time>2026-03-25T12:19:03Z</time></trkpt><trkpt lat="41.76415225375294" lon="12.47508753198826"><ele>70.0</ele><time>2026-03-25T12:19:06Z</time></trkpt><trkpt lat="41.76418042818017" lon="12.475008939607472"><ele>70.0</ele><time>2026-03-25T12:19:07Z</time></trkpt><trkpt lat="41.76420536068573" lon="12.474926912059333"><ele>70.0</ele><time>2026-03-25T12:19:08Z</time></trkpt><trkpt lat="41.76423203488911" lon="12.474845803992883"><ele>70.0</ele><time>2026-03-25T12:19:09Z</time></trkpt><trkpt lat="41.764279398164675" lon="12.47470075691883"><ele>70.0</ele><time>2026-03-25T12:19:11Z</time></trkpt><trkpt lat="41.76431934681727" lon="12.474567754489245"><ele>70.0</ele><time>2026-03-25T12:19:13Z</time></trkpt><trkpt lat="41.76434053007016" lon="12.474485498795579"><ele>70.0</ele><time>2026-03-25T12:19:14Z</time></trkpt><trkpt lat="41.764352703846164" lon="12.47433586853533"><ele>70.0</ele><time>2026-03-25T12:19:15.999Z</time></trkpt><trkpt lat="41.7644271208112" lon="12.474365631132988"><ele>70.0</ele><time>2026-03-25T12:19:18.999Z</time></trkpt><trkpt lat="41.764461005117624" lon="12.474240739035986"><ele>70.0</ele><time>2026-03-25T12:19:22.999Z</time></trkpt><trkpt lat="41.764496725131075" lon="12.474128826025664"><ele>70.0</ele><time>2026-03-25T12:19:24.999Z</time></trkpt><trkpt lat="41.76453572622769" lon="12.474013427438939"><ele>70.0</ele><time>2026-03-25T12:19:26.999Z</time></trkpt><trkpt lat="41.76456908850405" lon="12.47388502543709"><ele>70.0</ele><time>2026-03-25T12:19:28.999Z</time></trkpt><trkpt lat="41.764607222712115" lon="12.473760301847472"><ele>70.0</ele><time>2026-03-25T12:19:30.999Z</time></trkpt><trkpt lat="41.764654263524086" lon="12.473639868522831"><ele>70.0</ele><time>2026-03-25T12:19:32.999Z</time></trkpt><trkpt lat="41.76469552749245" lon="12.47352025698114"><ele>70.0</ele><time>2026-03-25T12:19:34.999Z</time></trkpt><trkpt lat="41.764773382077585" lon="12.473425051260598"><ele>69.8</ele><time>2026-03-25T12:19:36.999Z</time></trkpt><trkpt lat="41.76476680685154" lon="12.473325584724535"><ele>69.6</ele><time>2026-03-25T12:19:37.999Z</time></trkpt><trkpt lat="41.76481657593042" lon="12.473175578585778"><ele>69.4</ele><time>2026-03-25T12:19:39.999Z</time></trkpt><trkpt lat="41.76486404911348" lon="12.473023249164541"><ele>69.2</ele><time>2026-03-25T12:19:41.999Z</time></trkpt><trkpt lat="41.76491191642807" lon="12.472862064940779"><ele>69.0</ele><time>2026-03-25T12:19:43.999Z</time></trkpt><trkpt lat="41.76493607599738" lon="12.472778679063694"><ele>68.71428571428572</ele><time>2026-03-25T12:19:44.999Z</time></trkpt><trkpt lat="41.76496003872022" lon="12.472693323066089"><ele>68.42857142857143</ele><time>2026-03-25T12:19:45.999Z</time></trkpt><trkpt lat="41.76498603173299" lon="12.472610726220715"><ele>68.14285714285714</ele><time>2026-03-25T12:19:46.999Z</time></trkpt><trkpt lat="41.76501126805181" lon="12.47252640617768"><ele>67.85714285714286</ele><time>2026-03-25T12:19:47.999Z</time></trkpt><trkpt lat="41.7650362729541" lon="12.472441498223032"><ele>67.57142857142857</ele><time>2026-03-25T12:19:48.999Z</time></trkpt><trkpt lat="41.76506382214031" lon="12.472348996524492"><ele>67.28571428571429</ele><time>2026-03-25T12:19:49.999Z</time></trkpt><trkpt lat="41.765092000585675" lon="12.47225455929116"><ele>67.0</ele><time>2026-03-25T12:19:50.999Z</time></trkpt><trkpt lat="41.76512206067747" lon="12.472166917964357"><ele>66.57142857142857</ele><time>2026-03-25T12:19:51.999Z</time></trkpt><trkpt lat="41.76515401643181" lon="12.472080203304882"><ele>66.14285714285714</ele><time>2026-03-25T12:19:52.999Z</time></trkpt><trkpt lat="41.76518435789246" lon="12.471990658579049"><ele>65.71428571428571</ele><time>2026-03-25T12:19:53.999Z</time></trkpt><trkpt lat="41.765209414683575" lon="12.471901929727698"><ele>65.28571428571428</ele><time>2026-03-25T12:19:54.999Z</time></trkpt><trkpt lat="41.76523115418632" lon="12.471815128603962"><ele>64.85714285714285</ele><time>2026-03-25T12:19:55.999Z</time></trkpt><trkpt lat="41.7652592685148" lon="12.47173036277007"><ele>64.42857142857143</ele><time>2026-03-25T12:19:56.999Z</time></trkpt><trkpt lat="41.76529001826722" lon="12.47164760486445"><ele>64.0</ele><time>2026-03-25T12:19:57.999Z</time></trkpt><trkpt lat="41.76531627959428" lon="12.471566587746231"><ele>64.0</ele><time>2026-03-25T12:19:58.999Z</time></trkpt><trkpt lat="41.76533759279319" lon="12.471483114995113"><ele>64.0</ele><time>2026-03-25T12:19:59.999Z</time></trkpt><trkpt lat="41.76538489165236" lon="12.47132892324636"><ele>64.0</ele><time>2026-03-25T12:20:01.999Z</time></trkpt><trkpt lat="41.76542317561503" lon="12.471176473952353"><ele>64.0</ele><time>2026-03-25T12:20:03.999Z</time></trkpt><trkpt lat="41.765462669756886" lon="12.471028776751524"><ele>64.0</ele><time>2026-03-25T12:20:05.999Z</time></trkpt><trkpt lat="41.76551155662722" lon="12.470887719098718"><ele>63.99999999999999</ele><time>2026-03-25T12:20:07.999Z</time></trkpt><trkpt lat="41.76556054958752" lon="12.470748133935265"><ele>64.0</ele><time>2026-03-25T12:20:09.999Z</time></trkpt><trkpt lat="41.76560704171293" lon="12.470601971327664"><ele>64.0</ele><time>2026-03-25T12:20:11.999Z</time></trkpt><trkpt lat="41.76562908533539" lon="12.47052075464539"><ele>64.0</ele><time>2026-03-25T12:20:12.999Z</time></trkpt><trkpt lat="41.76565727052332" lon="12.470441149191629"><ele>63.99999999999999</ele><time>2026-03-25T12:20:13.999Z</time></trkpt><trkpt lat="41.765694349878764" lon="12.470359368291234"><ele>64.0</ele><time>2026-03-25T12:20:14.999Z</time></trkpt><trkpt lat="41.765726158058726" lon="12.470283974330686"><ele>63.6</ele><time>2026-03-25T12:20:15.999Z</time></trkpt><trkpt lat="41.76569418174302" lon="12.470204254647088"><ele>63.2</ele><time>2026-03-25T12:20:16.999Z</time></trkpt><trkpt lat="41.76570216106846" lon="12.470043862727938"><ele>62.800000000000004</ele><time>2026-03-25T12:20:18.999Z</time></trkpt><trkpt lat="41.76582439652052" lon="12.469971425084882"><ele>62.400000000000006</ele><time>2026-03-25T12:20:19.999Z</time></trkpt><trkpt lat="41.76587180213747" lon="12.46982436627317"><ele>62.0</ele><time>2026-03-25T12:20:21.999Z</time></trkpt><trkpt lat="41.76591586780544" lon="12.469692550913498"><ele>61.333333333333336</ele><time>2026-03-25T12:20:23.999Z</time></trkpt><trkpt lat="41.765947148800706" lon="12.469589030199039"><ele>60.66666666666667</ele><time>2026-03-25T12:20:26Z</time></trkpt><trkpt lat="41.765995851394045" lon="12.46952551304367"><ele>60.0</ele><time>2026-03-25T12:20:29Z</time></trkpt><trkpt lat="41.76605905499099" lon="12.46950118721265"><ele>59.33333333333333</ele><time>2026-03-25T12:20:32Z</time></trkpt><trkpt lat="41.76614097227024" lon="12.469537027682454"><ele>58.666666666666664</ele><time>2026-03-25T12:20:34Z</time></trkpt><trkpt lat="41.76623514968368" lon="12.469613670987233"><ele>58.0</ele><time>2026-03-25T12:20:36Z</time></trkpt><trkpt lat="41.76635114724389" lon="12.469661242928012"><ele>58.0</ele><time>2026-03-25T12:20:38Z</time></trkpt><trkpt lat="41.7664093018458" lon="12.469697410154097"><ele>58.0</ele><time>2026-03-25T12:20:39Z</time></trkpt><trkpt lat="41.766466710842515" lon="12.469734752065614"><ele>58.0</ele><time>2026-03-25T12:20:40Z</time></trkpt><trkpt lat="41.76657585926262" lon="12.469792105039026"><ele>58.0</ele><time>2026-03-25T12:20:42Z</time></trkpt><trkpt lat="41.76668313225092" lon="12.469856522130398"><ele>58.0</ele><time>2026-03-25T12:20:44Z</time></trkpt><trkpt lat="41.76678908014714" lon="12.469861166284652"><ele>58.2</ele><time>2026-03-25T12:20:46Z</time></trkpt><trkpt lat="41.76687828204864" lon="12.469849938295441"><ele>58.4</ele><time>2026-03-25T12:20:48Z</time></trkpt><trkpt lat="41.76697730056248" lon="12.46992568045437"><ele>58.60000000000001</ele><time>2026-03-25T12:20:50Z</time></trkpt><trkpt lat="41.767081738114435" lon="12.469977771066347"><ele>58.800000000000004</ele><time>2026-03-25T12:20:52Z</time></trkpt><trkpt lat="41.767183670122975" lon="12.470040121122395"><ele>59.0</ele><time>2026-03-25T12:20:54Z</time></trkpt><trkpt lat="41.76728400598298" lon="12.470101391376016"><ele>59.0</ele><time>2026-03-25T12:20:56Z</time></trkpt><trkpt lat="41.76739509361851" lon="12.470151530643342"><ele>59.0</ele><time>2026-03-25T12:20:58Z</time></trkpt><trkpt lat="41.76745446636962" lon="12.470183548061543"><ele>59.0</ele><time>2026-03-25T12:20:59Z</time></trkpt><trkpt lat="41.76751678457852" lon="12.470214910288277"><ele>59.0</ele><time>2026-03-25T12:21:00Z</time></trkpt><trkpt lat="41.76758050572035" lon="12.47024546044488"><ele>59.0</ele><time>2026-03-25T12:21:01Z</time></trkpt><trkpt lat="41.76763911216156" lon="12.470278924435249"><ele>59.0</ele><time>2026-03-25T12:21:02Z</time></trkpt><trkpt lat="41.76770214123538" lon="12.470315094966827"><ele>59.0</ele><time>2026-03-25T12:21:03Z</time></trkpt><trkpt lat="41.767726747715905" lon="12.470451201916566"><ele>58.42857142857142</ele><time>2026-03-25T12:21:04Z</time></trkpt><trkpt lat="41.76779053191026" lon="12.4704869655833"><ele>57.85714285714286</ele><time>2026-03-25T12:21:05Z</time></trkpt><trkpt lat="41.76785602168154" lon="12.470523685711349"><ele>57.285714285714285</ele><time>2026-03-25T12:21:06Z</time></trkpt><trkpt lat="41.76792229776325" lon="12.470560907517012"><ele>56.71428571428571</ele><time>2026-03-25T12:21:07Z</time></trkpt><trkpt lat="41.767992657435876" lon="12.470600542036166"><ele>56.14285714285714</ele><time>2026-03-25T12:21:08Z</time></trkpt><trkpt lat="41.768063225341855" lon="12.47064029392624"><ele>55.57142857142857</ele><time>2026-03-25T12:21:09Z</time></trkpt><trkpt lat="41.7681302092917" lon="12.470677837507472"><ele>55.0</ele><time>2026-03-25T12:21:10Z</time></trkpt><trkpt lat="41.768212014069036" lon="12.470723670012594"><ele>55.0</ele><time>2026-03-25T12:21:11Z</time></trkpt><trkpt lat="41.76829142536674" lon="12.470763634542628"><ele>55.0</ele><time>2026-03-25T12:21:12Z</time></trkpt><trkpt lat="41.76837331349801" lon="12.470803107830557"><ele>55.0</ele><time>2026-03-25T12:21:13Z</time></trkpt><trkpt lat="41.7684460661139" lon="12.470846400290071"><ele>55.0</ele><time>2026-03-25T12:21:14Z</time></trkpt><trkpt lat="41.76854076987219" lon="12.470914881326985"><ele>55.0</ele><time>2026-03-25T12:21:15Z</time></trkpt><trkpt lat="41.76877929589556" lon="12.470968557309446"><ele>54.33333333333333</ele><time>2026-03-25T12:21:16Z</time></trkpt><trkpt lat="41.768907610255155" lon="12.470872805504255"><ele>53.66666666666667</ele><time>2026-03-25T12:21:17Z</time></trkpt><trkpt lat="41.76901420794665" lon="12.470577472401468"><ele>53.0</ele><time>2026-03-25T12:21:18Z</time></trkpt><trkpt lat="41.76902922459116" lon="12.470408947787021"><ele>53.0</ele><time>2026-03-25T12:21:19Z</time></trkpt><trkpt lat="41.768924270873875" lon="12.47020132641032"><ele>53.0</ele><time>2026-03-25T12:21:20Z</time></trkpt><trkpt lat="41.7689294591264" lon="12.470096419613135"><ele>53.0</ele><time>2026-03-25T12:21:20.999Z</time></trkpt><trkpt lat="41.768926493305386" lon="12.46998979994213"><ele>53.0</ele><time>2026-03-25T12:21:21.999Z</time></trkpt><trkpt lat="41.76892394273671" lon="12.469898133052475"><ele>53.0</ele><time>2026-03-25T12:21:22.999Z</time></trkpt><trkpt lat="41.76892163063171" lon="12.46980486394599"><ele>53.00000000000001</ele><time>2026-03-25T12:21:23.999Z</time></trkpt><trkpt lat="41.768919662335904" lon="12.469719046306471"><ele>53.0</ele><time>2026-03-25T12:21:24.999Z</time></trkpt><trkpt lat="41.768917295072946" lon="12.469629606322158"><ele>53.0</ele><time>2026-03-25T12:21:25.999Z</time></trkpt><trkpt lat="41.768914935494585" lon="12.469541830650456"><ele>53.0</ele><time>2026-03-25T12:21:26.999Z</time></trkpt><trkpt lat="41.7689256950892" lon="12.469392317460928"><ele>53.00000000000001</ele><time>2026-03-25T12:21:28.999Z</time></trkpt><trkpt lat="41.76895464659396" lon="12.469248235936407"><ele>53.0</ele><time>2026-03-25T12:21:30.999Z</time></trkpt><trkpt lat="41.768999135046734" lon="12.469107593345125"><ele>52.5</ele><time>2026-03-25T12:21:32.999Z</time></trkpt><trkpt lat="41.76905414206401" lon="12.46896297214685"><ele>52.0</ele><time>2026-03-25T12:21:34.999Z</time></trkpt><trkpt lat="41.769112280629315" lon="12.468825694804435"><ele>51.5</ele><time>2026-03-25T12:21:36.999Z</time></trkpt><trkpt lat="41.769072035260976" lon="12.46870749134653"><ele>51.0</ele><time>2026-03-25T12:21:37.999Z</time></trkpt><trkpt lat="41.76912799372416" lon="12.468574633516374"><ele>51.0</ele><time>2026-03-25T12:21:39.999Z</time></trkpt><trkpt lat="41.76917466355599" lon="12.468443363323242"><ele>51.0</ele><time>2026-03-25T12:21:41.999Z</time></trkpt><trkpt lat="41.769236158657506" lon="12.46829315843302"><ele>51.0</ele><time>2026-03-25T12:21:43.999Z</time></trkpt><trkpt lat="41.76929049018182" lon="12.468150902723613"><ele>51.0</ele><time>2026-03-25T12:21:45.999Z</time></trkpt><trkpt lat="41.76935042232035" lon="12.468005767700673"><ele>50.25</ele><time>2026-03-25T12:21:47.999Z</time></trkpt><trkpt lat="41.769410820746465" lon="12.467861205950374"><ele>49.5</ele><time>2026-03-25T12:21:49.999Z</time></trkpt><trkpt lat="41.7694686663365" lon="12.467717402970656"><ele>48.75</ele><time>2026-03-25T12:21:51.999Z</time></trkpt><trkpt lat="41.769515168249676" lon="12.467573026615433"><ele>48.0</ele><time>2026-03-25T12:21:53.999Z</time></trkpt><trkpt lat="41.76957199826842" lon="12.467435147531054"><ele>48.0</ele><time>2026-03-25T12:21:55.999Z</time></trkpt><trkpt lat="41.76962556650145" lon="12.467300190382261"><ele>48.0</ele><time>2026-03-25T12:21:57.999Z</time></trkpt><trkpt lat="41.76967280364118" lon="12.467165528553274"><ele>48.0</ele><time>2026-03-25T12:21:59.999Z</time></trkpt><trkpt lat="41.76971860455013" lon="12.467034350500207"><ele>48.0</ele><time>2026-03-25T12:22:01.999Z</time></trkpt><trkpt lat="41.769752971516226" lon="12.466904428586131"><ele>48.0</ele><time>2026-03-25T12:22:03.999Z</time></trkpt><trkpt lat="41.769797960611164" lon="12.46678166635302"><ele>48.25</ele><time>2026-03-25T12:22:05.999Z</time></trkpt><trkpt lat="41.769931653124026" lon="12.466723045903354"><ele>48.5</ele><time>2026-03-25T12:22:07.999Z</time></trkpt><trkpt lat="41.769845667586914" lon="12.466508697616725"><ele>48.75</ele><time>2026-03-25T12:22:09.999Z</time></trkpt><trkpt lat="41.76988067370446" lon="12.466368318121848"><ele>49.0</ele><time>2026-03-25T12:22:11.999Z</time></trkpt><trkpt lat="41.769919302503055" lon="12.46623377970792"><ele>47.75</ele><time>2026-03-25T12:22:13.999Z</time></trkpt><trkpt lat="41.76992696412867" lon="12.466089703527224"><ele>46.5</ele><time>2026-03-25T12:22:15.999Z</time></trkpt><trkpt lat="41.769955184200995" lon="12.46594672162378"><ele>45.25</ele><time>2026-03-25T12:22:17.999Z</time></trkpt><trkpt lat="41.769989889983755" lon="12.465790377699308"><ele>44.0</ele><time>2026-03-25T12:22:19.999Z</time></trkpt><trkpt lat="41.76999655276449" lon="12.465620374700462"><ele>44.0</ele><time>2026-03-25T12:22:21.999Z</time></trkpt><trkpt lat="41.76999247349609" lon="12.465533580094945"><ele>44.0</ele><time>2026-03-25T12:22:22.999Z</time></trkpt><trkpt lat="41.76996146236182" lon="12.465447951282814"><ele>44.0</ele><time>2026-03-25T12:22:24.999Z</time></trkpt><trkpt lat="41.77017994824463" lon="12.465406939408211"><ele>44.0</ele><time>2026-03-25T12:22:26.999Z</time></trkpt><trkpt lat="41.77027269358137" lon="12.465395499695996"><ele>45.2</ele><time>2026-03-25T12:22:28.999Z</time></trkpt><trkpt lat="41.770356031970266" lon="12.46544684975684"><ele>46.400000000000006</ele><time>2026-03-25T12:22:30.999Z</time></trkpt><trkpt lat="41.77044685849754" lon="12.465498940514225"><ele>47.6</ele><time>2026-03-25T12:22:33Z</time></trkpt><trkpt lat="41.770542021083095" lon="12.46555682040916"><ele>48.8</ele><time>2026-03-25T12:22:35Z</time></trkpt><trkpt lat="41.77063801661925" lon="12.465610394269193"><ele>50.0</ele><time>2026-03-25T12:22:37Z</time></trkpt><trkpt lat="41.770739251403654" lon="12.465675095255017"><ele>50.0</ele><time>2026-03-25T12:22:39Z</time></trkpt><trkpt lat="41.770836800523874" lon="12.465741923919833"><ele>50.0</ele><time>2026-03-25T12:22:41Z</time></trkpt><trkpt lat="41.770934706307976" lon="12.465802192551026"><ele>50.0</ele><time>2026-03-25T12:22:43Z</time></trkpt><trkpt lat="41.77103022202806" lon="12.465864106341549"><ele>50.0</ele><time>2026-03-25T12:22:45Z</time></trkpt><trkpt lat="41.771118055295474" lon="12.465957272099093"><ele>50.0</ele><time>2026-03-25T12:22:47Z</time></trkpt><trkpt lat="41.77122250641802" lon="12.466012007994781"><ele>50.2</ele><time>2026-03-25T12:22:49Z</time></trkpt><trkpt lat="41.77132485964567" lon="12.466070023096382"><ele>50.4</ele><time>2026-03-25T12:22:51Z</time></trkpt><trkpt lat="41.77142143975936" lon="12.46613461073042"><ele>50.599999999999994</ele><time>2026-03-25T12:22:53Z</time></trkpt><trkpt lat="41.77152240777752" lon="12.466199342737019"><ele>50.8</ele><time>2026-03-25T12:22:55Z</time></trkpt><trkpt lat="41.77161710129642" lon="12.466264396894228"><ele>51.0</ele><time>2026-03-25T12:22:57Z</time></trkpt><trkpt lat="41.77171733185576" lon="12.466322633983284"><ele>51.599999999999994</ele><time>2026-03-25T12:22:59Z</time></trkpt><trkpt lat="41.771813379055956" lon="12.466379343173799"><ele>52.2</ele><time>2026-03-25T12:23:01Z</time></trkpt><trkpt lat="41.77191166310326" lon="12.466429699438388"><ele>52.800000000000004</ele><time>2026-03-25T12:23:03Z</time></trkpt><trkpt lat="41.77201149865744" lon="12.466498281488667"><ele>53.400000000000006</ele><time>2026-03-25T12:23:05Z</time></trkpt><trkpt lat="41.77211203180019" lon="12.466554396815638"><ele>54.0</ele><time>2026-03-25T12:23:07Z</time></trkpt><trkpt lat="41.77220624401344" lon="12.466613081675693"><ele>54.25</ele><time>2026-03-25T12:23:09Z</time></trkpt><trkpt lat="41.77228405115249" lon="12.466841955461467"><ele>54.5</ele><time>2026-03-25T12:23:11Z</time></trkpt><trkpt lat="41.77239004713816" lon="12.466868968705976"><ele>54.75</ele><time>2026-03-25T12:23:13Z</time></trkpt><trkpt lat="41.772494622565645" lon="12.466895620114359"><ele>55.0</ele><time>2026-03-25T12:23:15Z</time></trkpt><trkpt lat="41.77256757104521" lon="12.466961890708657"><ele>55.0</ele><time>2026-03-25T12:23:17Z</time></trkpt><trkpt lat="41.77266639838565" lon="12.46703219792233"><ele>55.0</ele><time>2026-03-25T12:23:19Z</time></trkpt><trkpt lat="41.77276006303146" lon="12.467092406870163"><ele>55.0</ele><time>2026-03-25T12:23:21Z</time></trkpt><trkpt lat="41.77285162711259" lon="12.467150962948118"><ele>55.0</ele><time>2026-03-25T12:23:23Z</time></trkpt><trkpt lat="41.77294202778106" lon="12.46720719386528"><ele>55.0</ele><time>2026-03-25T12:23:24.999Z</time></trkpt><trkpt lat="41.77302729508554" lon="12.467260231756098"><ele>55.2</ele><time>2026-03-25T12:23:26.999Z</time></trkpt><trkpt lat="41.77311482507887" lon="12.467314677060045"><ele>55.4</ele><time>2026-03-25T12:23:28.999Z</time></trkpt><trkpt lat="41.773215035383444" lon="12.467377710013455"><ele>55.599999999999994</ele><time>2026-03-25T12:23:30.999Z</time></trkpt><trkpt lat="41.77332275462825" lon="12.467445763876677"><ele>55.8</ele><time>2026-03-25T12:23:32.999Z</time></trkpt><trkpt lat="41.773422172533785" lon="12.467508573183459"><ele>56.0</ele><time>2026-03-25T12:23:34.999Z</time></trkpt><trkpt lat="41.77350153734272" lon="12.467558713547684"><ele>57.199999999999996</ele><time>2026-03-25T12:23:36.999Z</time></trkpt><trkpt lat="41.77358874032586" lon="12.467613805793368"><ele>58.39999999999999</ele><time>2026-03-25T12:23:38.999Z</time></trkpt><trkpt lat="41.77369857309014" lon="12.46768173153282"><ele>59.6</ele><time>2026-03-25T12:23:40.999Z</time></trkpt><trkpt lat="41.77375662066358" lon="12.467717441372226"><ele>60.8</ele><time>2026-03-25T12:23:41.999Z</time></trkpt><trkpt lat="41.773863203738685" lon="12.467783009402627"><ele>62.0</ele><time>2026-03-25T12:23:43.999Z</time></trkpt><trkpt lat="41.7739635960349" lon="12.467846740906447"><ele>62.0</ele><time>2026-03-25T12:23:45.999Z</time></trkpt><trkpt lat="41.77406369787778" lon="12.467911587349077"><ele>62.0</ele><time>2026-03-25T12:23:47.999Z</time></trkpt><trkpt lat="41.77416409267544" lon="12.467981992582546"><ele>62.0</ele><time>2026-03-25T12:23:49.999Z</time></trkpt><trkpt lat="41.77426867359328" lon="12.468062971589974"><ele>62.0</ele><time>2026-03-25T12:23:51.999Z</time></trkpt><trkpt lat="41.77436527378266" lon="12.468147432151046"><ele>61.8</ele><time>2026-03-25T12:23:53.999Z</time></trkpt><trkpt lat="41.77446479557766" lon="12.468234749809675"><ele>61.6</ele><time>2026-03-25T12:23:55.999Z</time></trkpt><trkpt lat="41.77451753828837" lon="12.468283723770309"><ele>61.39999999999999</ele><time>2026-03-25T12:23:56.999Z</time></trkpt><trkpt lat="41.77461726219477" lon="12.468376323295244"><ele>61.199999999999996</ele><time>2026-03-25T12:23:58.999Z</time></trkpt><trkpt lat="41.7747199435532" lon="12.468471667512405"><ele>61.0</ele><time>2026-03-25T12:24:00.999Z</time></trkpt><trkpt lat="41.77482322733235" lon="12.468566401975732"><ele>61.0</ele><time>2026-03-25T12:24:02.999Z</time></trkpt><trkpt lat="41.77492591570149" lon="12.468659898991694"><ele>61.0</ele><time>2026-03-25T12:24:04.999Z</time></trkpt><trkpt lat="41.77501668562423" lon="12.468742069650665"><ele>61.0</ele><time>2026-03-25T12:24:06.999Z</time></trkpt><trkpt lat="41.77510208305874" lon="12.468819376854377"><ele>61.0</ele><time>2026-03-25T12:24:08.999Z</time></trkpt><trkpt lat="41.77519714299325" lon="12.468905431142977"><ele>61.25</ele><time>2026-03-25T12:24:10.999Z</time></trkpt><trkpt lat="41.775299072093546" lon="12.468998075789635"><ele>61.5</ele><time>2026-03-25T12:24:12.999Z</time></trkpt><trkpt lat="41.77539925723402" lon="12.469087945565764"><ele>61.75</ele><time>2026-03-25T12:24:14.999Z</time></trkpt><trkpt lat="41.77549815343361" lon="12.46917663325293"><ele>62.0</ele><time>2026-03-25T12:24:16.999Z</time></trkpt><trkpt lat="41.77559929889711" lon="12.469267338075797"><ele>62.0</ele><time>2026-03-25T12:24:18.999Z</time></trkpt><trkpt lat="41.77569813868464" lon="12.46935597518128"><ele>62.0</ele><time>2026-03-25T12:24:20.999Z</time></trkpt><trkpt lat="41.77579891605797" lon="12.469446349853827"><ele>62.0</ele><time>2026-03-25T12:24:22.999Z</time></trkpt><trkpt lat="41.77589633344244" lon="12.469533846724046"><ele>62.0</ele><time>2026-03-25T12:24:24.999Z</time></trkpt><trkpt lat="41.775985059091916" lon="12.469613741622682"><ele>62.5</ele><time>2026-03-25T12:24:26.999Z</time></trkpt><trkpt lat="41.77607550676638" lon="12.469695187155802"><ele>63.0</ele><time>2026-03-25T12:24:28.999Z</time></trkpt><trkpt lat="41.77616755161134" lon="12.469778070902715"><ele>63.5</ele><time>2026-03-25T12:24:30.999Z</time></trkpt><trkpt lat="41.776261909580434" lon="12.469863037515516"><ele>64.0</ele><time>2026-03-25T12:24:32.999Z</time></trkpt><trkpt lat="41.77635862825092" lon="12.469950129910947"><ele>64.0</ele><time>2026-03-25T12:24:34.998Z</time></trkpt><trkpt lat="41.77645859467991" lon="12.470040146783482"><ele>64.0</ele><time>2026-03-25T12:24:36.998Z</time></trkpt><trkpt lat="41.77655776441548" lon="12.47012928587393"><ele>64.0</ele><time>2026-03-25T12:24:39Z</time></trkpt><trkpt lat="41.776655037512256" lon="12.470216049662682"><ele>64.0</ele><time>2026-03-25T12:24:41Z</time></trkpt><trkpt lat="41.77675319510079" lon="12.470303602355715"><ele>64.0</ele><time>2026-03-25T12:24:43Z</time></trkpt><trkpt lat="41.77684913773912" lon="12.470389179418492"><ele>64.0</ele><time>2026-03-25T12:24:45Z</time></trkpt><trkpt lat="41.77694739141011" lon="12.470476817807862"><ele>64.0</ele><time>2026-03-25T12:24:47Z</time></trkpt><trkpt lat="41.77704691245151" lon="12.470565586638939"><ele>64.0</ele><time>2026-03-25T12:24:49Z</time></trkpt><trkpt lat="41.777141525619065" lon="12.470649977809344"><ele>63.5</ele><time>2026-03-25T12:24:51Z</time></trkpt><trkpt lat="41.777236280985754" lon="12.470735493682753"><ele>63.0</ele><time>2026-03-25T12:24:53Z</time></trkpt><trkpt lat="41.77733191431709" lon="12.47082649321171"><ele>62.5</ele><time>2026-03-25T12:24:55Z</time></trkpt><trkpt lat="41.77740786116641" lon="12.470914166984864"><ele>62.0</ele><time>2026-03-25T12:24:57Z</time></trkpt><trkpt lat="41.77749712062201" lon="12.471022442604134"><ele>62.0</ele><time>2026-03-25T12:24:59Z</time></trkpt><trkpt lat="41.77758408584782" lon="12.471131246257455"><ele>62.0</ele><time>2026-03-25T12:25:01Z</time></trkpt><trkpt lat="41.77766737962338" lon="12.471236379007918"><ele>62.0</ele><time>2026-03-25T12:25:03Z</time></trkpt><trkpt lat="41.7777560618244" lon="12.471349475935282"><ele>62.0</ele><time>2026-03-25T12:25:05Z</time></trkpt><trkpt lat="41.77780192102691" lon="12.471408359649"><ele>62.0</ele><time>2026-03-25T12:25:06Z</time></trkpt><trkpt lat="41.77788967600701" lon="12.471521037863349"><ele>61.8</ele><time>2026-03-25T12:25:08Z</time></trkpt><trkpt lat="41.77796937871715" lon="12.471623376948106"><ele>61.6</ele><time>2026-03-25T12:25:10Z</time></trkpt><trkpt lat="41.77805781394347" lon="12.471736928468028"><ele>61.39999999999999</ele><time>2026-03-25T12:25:12Z</time></trkpt><trkpt lat="41.778103728415154" lon="12.47179588318032"><ele>61.199999999999996</ele><time>2026-03-25T12:25:13Z</time></trkpt><trkpt lat="41.77819025175136" lon="12.471908731747774"><ele>61.0</ele><time>2026-03-25T12:25:15Z</time></trkpt><trkpt lat="41.778238620594855" lon="12.471970632235392"><ele>61.0</ele><time>2026-03-25T12:25:16Z</time></trkpt><trkpt lat="41.77832774092097" lon="12.472078649723422"><ele>60.99999999999999</ele><time>2026-03-25T12:25:18Z</time></trkpt><trkpt lat="41.77837988147027" lon="12.472135428975784"><ele>60.99999999999999</ele><time>2026-03-25T12:25:19Z</time></trkpt><trkpt lat="41.778431019827586" lon="12.472187625421096"><ele>61.0</ele><time>2026-03-25T12:25:20Z</time></trkpt><trkpt lat="41.77853424009167" lon="12.472282145358601"><ele>61.0</ele><time>2026-03-25T12:25:22Z</time></trkpt><trkpt lat="41.77863646616263" lon="12.472367457099503"><ele>60.599999999999994</ele><time>2026-03-25T12:25:24Z</time></trkpt><trkpt lat="41.77874286519554" lon="12.472448225559548"><ele>60.199999999999996</ele><time>2026-03-25T12:25:26Z</time></trkpt><trkpt lat="41.77885164159251" lon="12.472521388806292"><ele>59.800000000000004</ele><time>2026-03-25T12:25:28Z</time></trkpt><trkpt lat="41.778911843459156" lon="12.472555925834449"><ele>59.400000000000006</ele><time>2026-03-25T12:25:28.999Z</time></trkpt><trkpt lat="41.779032588588954" lon="12.472616499242047"><ele>59.0</ele><time>2026-03-25T12:25:30.999Z</time></trkpt><trkpt lat="41.779153289720625" lon="12.472672105162918"><ele>59.0</ele><time>2026-03-25T12:25:32.999Z</time></trkpt><trkpt lat="41.77921475264861" lon="12.472697356470126"><ele>59.00000000000001</ele><time>2026-03-25T12:25:33.999Z</time></trkpt><trkpt lat="41.77932100488305" lon="12.472745447409112"><ele>59.00000000000001</ele><time>2026-03-25T12:25:35.999Z</time></trkpt><trkpt lat="41.77942360872596" lon="12.472807686615436"><ele>59.0</ele><time>2026-03-25T12:25:37.999Z</time></trkpt><trkpt lat="41.77952625757102" lon="12.472885312230982"><ele>59.0</ele><time>2026-03-25T12:25:39.999Z</time></trkpt><trkpt lat="41.779628026477255" lon="12.472974206838904"><ele>59.400000000000006</ele><time>2026-03-25T12:25:41.999Z</time></trkpt><trkpt lat="41.779716363720894" lon="12.473068161636155"><ele>59.800000000000004</ele><time>2026-03-25T12:25:43.999Z</time></trkpt><trkpt lat="41.779805946672425" lon="12.473179086343022"><ele>60.199999999999996</ele><time>2026-03-25T12:25:45.999Z</time></trkpt><trkpt lat="41.77985125282384" lon="12.473238794066607"><ele>60.599999999999994</ele><time>2026-03-25T12:25:46.999Z</time></trkpt><trkpt lat="41.779928935819775" lon="12.473353120783731"><ele>61.0</ele><time>2026-03-25T12:25:48.999Z</time></trkpt><trkpt lat="41.78000610481303" lon="12.473464630228696"><ele>61.0</ele><time>2026-03-25T12:25:50.999Z</time></trkpt><trkpt lat="41.78009150220885" lon="12.473588700580784"><ele>60.99999999999999</ele><time>2026-03-25T12:25:52.999Z</time></trkpt><trkpt lat="41.78013603202927" lon="12.473653430536693"><ele>60.99999999999999</ele><time>2026-03-25T12:25:53.999Z</time></trkpt><trkpt lat="41.780221540200124" lon="12.473778287954982"><ele>61.0</ele><time>2026-03-25T12:25:55.999Z</time></trkpt><trkpt lat="41.78030484507241" lon="12.473901000288716"><ele>61.0</ele><time>2026-03-25T12:25:57.999Z</time></trkpt><trkpt lat="41.78038939162229" lon="12.474025541705224"><ele>60.166666666666664</ele><time>2026-03-25T12:25:59.999Z</time></trkpt><trkpt lat="41.780471129128166" lon="12.47414594528178"><ele>59.33333333333333</ele><time>2026-03-25T12:26:01.999Z</time></trkpt><trkpt lat="41.780513678613175" lon="12.474208622745268"><ele>58.5</ele><time>2026-03-25T12:26:02.999Z</time></trkpt><trkpt lat="41.78055607785751" lon="12.474271078988867"><ele>57.66666666666667</ele><time>2026-03-25T12:26:03.999Z</time></trkpt><trkpt lat="41.78063912823809" lon="12.474393416568509"><ele>56.833333333333336</ele><time>2026-03-25T12:26:05.999Z</time></trkpt><trkpt lat="41.78068174474022" lon="12.474456192915165"><ele>56.0</ele><time>2026-03-25T12:26:06.999Z</time></trkpt><trkpt lat="41.78072423956294" lon="12.474518789715491"><ele>56.0</ele><time>2026-03-25T12:26:07.999Z</time></trkpt><trkpt lat="41.780768387496124" lon="12.474583821922106"><ele>55.99999999999999</ele><time>2026-03-25T12:26:08.999Z</time></trkpt><trkpt lat="41.7808517749945" lon="12.474706157309418"><ele>55.99999999999999</ele><time>2026-03-25T12:26:10.999Z</time></trkpt><trkpt lat="41.780938691048675" lon="12.474830351359405"><ele>56.0</ele><time>2026-03-25T12:26:12.999Z</time></trkpt><trkpt lat="41.78102601080866" lon="12.474949248136452"><ele>56.0</ele><time>2026-03-25T12:26:14.999Z</time></trkpt><trkpt lat="41.78107171113165" lon="12.475009920056388"><ele>56.25</ele><time>2026-03-25T12:26:15.999Z</time></trkpt><trkpt lat="41.78115844435996" lon="12.475125067475922"><ele>56.5</ele><time>2026-03-25T12:26:17.999Z</time></trkpt><trkpt lat="41.781243522861246" lon="12.475239760247504"><ele>56.75</ele><time>2026-03-25T12:26:19.999Z</time></trkpt><trkpt lat="41.78133018179307" lon="12.475357058343288"><ele>57.0</ele><time>2026-03-25T12:26:21.999Z</time></trkpt><trkpt lat="41.78141803592339" lon="12.475475974218213"><ele>57.333333333333336</ele><time>2026-03-25T12:26:23.999Z</time></trkpt><trkpt lat="41.781463653890604" lon="12.475537720835757"><ele>57.66666666666667</ele><time>2026-03-25T12:26:24.999Z</time></trkpt><trkpt lat="41.78155212852322" lon="12.475655746422744"><ele>58.0</ele><time>2026-03-25T12:26:26.999Z</time></trkpt><trkpt lat="41.78159843340093" lon="12.47571690289582"><ele>58.333333333333336</ele><time>2026-03-25T12:26:27.999Z</time></trkpt><trkpt lat="41.78169132997295" lon="12.475840439116274"><ele>58.66666666666667</ele><time>2026-03-25T12:26:29.999Z</time></trkpt><trkpt lat="41.781738357422896" lon="12.475898354246706"><ele>59.0</ele><time>2026-03-25T12:26:30.999Z</time></trkpt><trkpt lat="41.78178727052713" lon="12.475957319994139"><ele>58.800000000000004</ele><time>2026-03-25T12:26:31.999Z</time></trkpt><trkpt lat="41.781887622342694" lon="12.47606840875127"><ele>58.60000000000001</ele><time>2026-03-25T12:26:33.999Z</time></trkpt><trkpt lat="41.78193881781283" lon="12.476122213522437"><ele>58.4</ele><time>2026-03-25T12:26:34.999Z</time></trkpt><trkpt lat="41.782039445396634" lon="12.476222842828427"><ele>58.2</ele><time>2026-03-25T12:26:36.999Z</time></trkpt><trkpt lat="41.78209499780036" lon="12.47627163994764"><ele>58.0</ele><time>2026-03-25T12:26:37.999Z</time></trkpt><trkpt lat="41.782148242521" lon="12.47631897009161"><ele>57.599999999999994</ele><time>2026-03-25T12:26:38.998Z</time></trkpt><trkpt lat="41.78224536274435" lon="12.476402153430366"><ele>57.199999999999996</ele><time>2026-03-25T12:26:40.998Z</time></trkpt><trkpt lat="41.782343916136206" lon="12.476479540176175"><ele>56.8</ele><time>2026-03-25T12:26:42.998Z</time></trkpt><trkpt lat="41.78244233148345" lon="12.476550923072574"><ele>56.4</ele><time>2026-03-25T12:26:45Z</time></trkpt><trkpt lat="41.78253121736883" lon="12.476610527788447"><ele>56.0</ele><time>2026-03-25T12:26:47Z</time></trkpt><trkpt lat="41.78264372630869" lon="12.476677517237556"><ele>56.5</ele><time>2026-03-25T12:26:49Z</time></trkpt><trkpt lat="41.78274994029291" lon="12.476741067866246"><ele>57.0</ele><time>2026-03-25T12:26:51Z</time></trkpt><trkpt lat="41.78286359111046" lon="12.476808344682173"><ele>57.5</ele><time>2026-03-25T12:26:53Z</time></trkpt><trkpt lat="41.782977262725474" lon="12.476874637971891"><ele>58.0</ele><time>2026-03-25T12:26:55Z</time></trkpt><trkpt lat="41.78308727438674" lon="12.47693879678845"><ele>58.0</ele><time>2026-03-25T12:26:57Z</time></trkpt><trkpt lat="41.78318960358775" lon="12.476998475155927"><ele>58.0</ele><time>2026-03-25T12:26:59Z</time></trkpt><trkpt lat="41.78328890038709" lon="12.477057891816663"><ele>58.0</ele><time>2026-03-25T12:27:01Z</time></trkpt><trkpt lat="41.78339706793502" lon="12.477122635997342"><ele>58.0</ele><time>2026-03-25T12:27:03Z</time></trkpt><trkpt lat="41.783510366677824" lon="12.477190507697797"><ele>57.75</ele><time>2026-03-25T12:27:05Z</time></trkpt><trkpt lat="41.78362070780184" lon="12.477260146839747"><ele>57.5</ele><time>2026-03-25T12:27:07Z</time></trkpt><trkpt lat="41.783728838519814" lon="12.477332526912397"><ele>57.25</ele><time>2026-03-25T12:27:09Z</time></trkpt><trkpt lat="41.78384034305672" lon="12.477409523928143"><ele>57.0</ele><time>2026-03-25T12:27:11Z</time></trkpt><trkpt lat="41.78394125345871" lon="12.477486394953988"><ele>57.0</ele><time>2026-03-25T12:27:13Z</time></trkpt><trkpt lat="41.78404139535603" lon="12.477567524402598"><ele>57.0</ele><time>2026-03-25T12:27:15Z</time></trkpt><trkpt lat="41.7841398345643" lon="12.477652546472003"><ele>57.0</ele><time>2026-03-25T12:27:17Z</time></trkpt><trkpt lat="41.784193340472896" lon="12.477699790833341"><ele>57.0</ele><time>2026-03-25T12:27:18Z</time></trkpt><trkpt lat="41.78429022226037" lon="12.477785334999403"><ele>57.0</ele><time>2026-03-25T12:27:20Z</time></trkpt><trkpt lat="41.78439114957086" lon="12.477874641866975"><ele>57.0</ele><time>2026-03-25T12:27:22Z</time></trkpt><trkpt lat="41.78449326847573" lon="12.47796596946637"><ele>57.0</ele><time>2026-03-25T12:27:24Z</time></trkpt><trkpt lat="41.784598168109255" lon="12.478059501332542"><ele>57.0</ele><time>2026-03-25T12:27:26Z</time></trkpt><trkpt lat="41.78465198868056" lon="12.478107450474985"><ele>57.0</ele><time>2026-03-25T12:27:27Z</time></trkpt><trkpt lat="41.784707081187676" lon="12.478156460566339"><ele>57.0</ele><time>2026-03-25T12:27:28Z</time></trkpt><trkpt lat="41.784764081364784" lon="12.478207157677021"><ele>57.0</ele><time>2026-03-25T12:27:29Z</time></trkpt><trkpt lat="41.784822686461126" lon="12.47825928222298"><ele>57.0</ele><time>2026-03-25T12:27:30Z</time></trkpt><trkpt lat="41.78488088668593" lon="12.47831104667036"><ele>57.0</ele><time>2026-03-25T12:27:31Z</time></trkpt><trkpt lat="41.78494126979021" lon="12.47836475263412"><ele>57.0</ele><time>2026-03-25T12:27:32Z</time></trkpt><trkpt lat="41.785004746977116" lon="12.478421210486108"><ele>57.0</ele><time>2026-03-25T12:27:33.999Z</time></trkpt><trkpt lat="41.78516467851701" lon="12.478442029541794"><ele>57.0</ele><time>2026-03-25T12:27:35.999Z</time></trkpt><trkpt lat="41.785004605358466" lon="12.47841206026926"><ele>57.0</ele><time>2026-03-25T12:27:36.999Z</time></trkpt><trkpt lat="41.785121569746956" lon="12.4785630095156"><ele>57.0</ele><time>2026-03-25T12:27:55.999Z</time></trkpt><trkpt lat="41.78502253309841" lon="12.478463763974638"><ele>57.0</ele><time>2026-03-25T12:27:56.999Z</time></trkpt><trkpt lat="41.785106326081376" lon="12.478538291139595"><ele>57.0</ele><time>2026-03-25T12:27:58.999Z</time></trkpt><trkpt lat="41.78509547192254" lon="12.478702461207336"><ele>56.8</ele><time>2026-03-25T12:27:59.999Z</time></trkpt><trkpt lat="41.78510001573062" lon="12.478792698542408"><ele>56.6</ele><time>2026-03-25T12:28:00.999Z</time></trkpt><trkpt lat="41.78514551358823" lon="12.478942262146662"><ele>56.39999999999999</ele><time>2026-03-25T12:28:02.999Z</time></trkpt><trkpt lat="41.785229658091986" lon="12.47904481889142"><ele>56.199999999999996</ele><time>2026-03-25T12:28:04.999Z</time></trkpt><trkpt lat="41.78532866617181" lon="12.479090460479034"><ele>56.0</ele><time>2026-03-25T12:28:06.999Z</time></trkpt><trkpt lat="41.785399218586065" lon="12.479288744189233"><ele>56.0</ele><time>2026-03-25T12:28:08.999Z</time></trkpt><trkpt lat="41.78538277846107" lon="12.479391815241641"><ele>55.99999999999999</ele><time>2026-03-25T12:28:09.999Z</time></trkpt><trkpt lat="41.78538537152275" lon="12.479480292018389"><ele>55.99999999999999</ele><time>2026-03-25T12:28:10.999Z</time></trkpt><trkpt lat="41.78542137545875" lon="12.479629958369603"><ele>56.0</ele><time>2026-03-25T12:28:12.999Z</time></trkpt><trkpt lat="41.78545623889472" lon="12.479782682058916"><ele>56.0</ele><time>2026-03-25T12:28:14.999Z</time></trkpt><trkpt lat="41.78550732028769" lon="12.47993648059822"><ele>55.0</ele><time>2026-03-25T12:28:16.999Z</time></trkpt><trkpt lat="41.78553904039717" lon="12.48001017387393"><ele>53.99999999999999</ele><time>2026-03-25T12:28:17.999Z</time></trkpt><trkpt lat="41.785607566381394" lon="12.480144486510476"><ele>53.0</ele><time>2026-03-25T12:28:19.999Z</time></trkpt><trkpt lat="41.7856819329956" lon="12.48026393993344"><ele>52.0</ele><time>2026-03-25T12:28:21.999Z</time></trkpt><trkpt lat="41.785769081694205" lon="12.48036927969405"><ele>51.0</ele><time>2026-03-25T12:28:23.999Z</time></trkpt><trkpt lat="41.7858218829568" lon="12.480424917874696"><ele>50.4</ele><time>2026-03-25T12:28:24.999Z</time></trkpt><trkpt lat="41.7859242530102" lon="12.480501626231439"><ele>49.8</ele><time>2026-03-25T12:28:26.999Z</time></trkpt><trkpt lat="41.786032416725575" lon="12.480568487967055"><ele>49.199999999999996</ele><time>2026-03-25T12:28:28.999Z</time></trkpt><trkpt lat="41.78614821094364" lon="12.480617279352801"><ele>48.599999999999994</ele><time>2026-03-25T12:28:30.999Z</time></trkpt><trkpt lat="41.78621056271107" lon="12.480636469042619"><ele>48.0</ele><time>2026-03-25T12:28:31.999Z</time></trkpt><trkpt lat="41.786273349643565" lon="12.480654142418254"><ele>48.0</ele><time>2026-03-25T12:28:32.999Z</time></trkpt><trkpt lat="41.78640083581252" lon="12.48069041772374"><ele>48.0</ele><time>2026-03-25T12:28:34.999Z</time></trkpt><trkpt lat="41.78646557435758" lon="12.48070912951677"><ele>48.0</ele><time>2026-03-25T12:28:35.999Z</time></trkpt><trkpt lat="41.78652919290352" lon="12.480727517601386"><ele>48.0</ele><time>2026-03-25T12:28:36.999Z</time></trkpt><trkpt lat="41.78659433389923" lon="12.480746345691529"><ele>48.0</ele><time>2026-03-25T12:28:37.999Z</time></trkpt><trkpt lat="41.78665784537047" lon="12.480764702769974"><ele>48.0</ele><time>2026-03-25T12:28:38.999Z</time></trkpt><trkpt lat="41.78672603034969" lon="12.480784410664741"><ele>47.99999999999999</ele><time>2026-03-25T12:28:39.999Z</time></trkpt><trkpt lat="41.78679072079915" lon="12.48080310852232"><ele>48.0</ele><time>2026-03-25T12:28:40.999Z</time></trkpt><trkpt lat="41.78686114387086" lon="12.480823463303793"><ele>48.0</ele><time>2026-03-25T12:28:41.999Z</time></trkpt><trkpt lat="41.786934377820764" lon="12.480844631001846"><ele>48.0</ele><time>2026-03-25T12:28:42.998Z</time></trkpt><trkpt lat="41.78700672211976" lon="12.480883532953088"><ele>48.0</ele><time>2026-03-25T12:28:43.998Z</time></trkpt><trkpt lat="41.7870770794768" lon="12.480930352502899"><ele>47.99999999999999</ele><time>2026-03-25T12:28:44.998Z</time></trkpt><trkpt lat="41.7871374123206" lon="12.481000443781115"><ele>48.0</ele><time>2026-03-25T12:28:45.998Z</time></trkpt><trkpt lat="41.787197576532684" lon="12.481064625420204"><ele>47.666666666666664</ele><time>2026-03-25T12:28:46.998Z</time></trkpt><trkpt lat="41.787251699405076" lon="12.481140687429056"><ele>47.333333333333336</ele><time>2026-03-25T12:28:47.998Z</time></trkpt><trkpt lat="41.787308150443906" lon="12.481218992446047"><ele>47.0</ele><time>2026-03-25T12:28:48.998Z</time></trkpt><trkpt lat="41.78735520891868" lon="12.481305468025246"><ele>46.66666666666667</ele><time>2026-03-25T12:28:50Z</time></trkpt><trkpt lat="41.787391804962255" lon="12.481387326838375"><ele>46.333333333333336</ele><time>2026-03-25T12:28:51Z</time></trkpt><trkpt lat="41.78736274353957" lon="12.481540061541176"><ele>46.0</ele><time>2026-03-25T12:28:53Z</time></trkpt><trkpt lat="41.78729848533275" lon="12.48159852343098"><ele>46.0</ele><time>2026-03-25T12:28:54Z</time></trkpt><trkpt lat="41.78725225293764" lon="12.481658274927371"><ele>46.0</ele><time>2026-03-25T12:28:55Z</time></trkpt><trkpt lat="41.787224609430226" lon="12.481742843921548"><ele>46.0</ele><time>2026-03-25T12:28:56Z</time></trkpt><trkpt lat="41.78720363946933" lon="12.481829122868563"><ele>46.0</ele><time>2026-03-25T12:28:57Z</time></trkpt><trkpt lat="41.7871835031647" lon="12.481912935247887"><ele>46.0</ele><time>2026-03-25T12:28:58Z</time></trkpt><trkpt lat="41.78717676681127" lon="12.482001508742677"><ele>46.0</ele><time>2026-03-25T12:28:59Z</time></trkpt><trkpt lat="41.78718012656747" lon="12.482093871241533"><ele>46.0</ele><time>2026-03-25T12:29:00Z</time></trkpt><trkpt lat="41.787182655419514" lon="12.48217945545981"><ele>45.85714285714286</ele><time>2026-03-25T12:29:01Z</time></trkpt><trkpt lat="41.78720235094252" lon="12.48226188085705"><ele>45.71428571428571</ele><time>2026-03-25T12:29:02Z</time></trkpt><trkpt lat="41.78722427035422" lon="12.482345464633164"><ele>45.57142857142857</ele><time>2026-03-25T12:29:03Z</time></trkpt><trkpt lat="41.7872557435473" lon="12.482422875385982"><ele>45.42857142857143</ele><time>2026-03-25T12:29:04Z</time></trkpt><trkpt lat="41.787293630089565" lon="12.482498188852265"><ele>45.28571428571429</ele><time>2026-03-25T12:29:05Z</time></trkpt><trkpt lat="41.787339983636485" lon="12.482565866371532"><ele>45.14285714285714</ele><time>2026-03-25T12:29:06Z</time></trkpt><trkpt lat="41.787393108948386" lon="12.482626226244099"><ele>45.0</ele><time>2026-03-25T12:29:07Z</time></trkpt><trkpt lat="41.787453202253396" lon="12.482676107690887"><ele>45.0</ele><time>2026-03-25T12:29:08Z</time></trkpt><trkpt lat="41.78751303061076" lon="12.482724135708258"><ele>45.0</ele><time>2026-03-25T12:29:09Z</time></trkpt><trkpt lat="41.78757263887815" lon="12.48277509311135"><ele>45.0</ele><time>2026-03-25T12:29:10Z</time></trkpt><trkpt lat="41.78759878065557" lon="12.482881574313874"><ele>45.0</ele><time>2026-03-25T12:29:11Z</time></trkpt><trkpt lat="41.78763689613322" lon="12.482971240101225"><ele>45.0</ele><time>2026-03-25T12:29:12Z</time></trkpt><trkpt lat="41.78767355039768" lon="12.483051160078926"><ele>45.0</ele><time>2026-03-25T12:29:13Z</time></trkpt><trkpt lat="41.7877108005154" lon="12.483131506187473"><ele>45.0</ele><time>2026-03-25T12:29:14Z</time></trkpt><trkpt lat="41.78774678866471" lon="12.483220947217696"><ele>45.0</ele><time>2026-03-25T12:29:15Z</time></trkpt><trkpt lat="41.78777551848194" lon="12.483314139243157"><ele>45.0</ele><time>2026-03-25T12:29:16Z</time></trkpt><trkpt lat="41.787786037680696" lon="12.483411568142083"><ele>45.0</ele><time>2026-03-25T12:29:17Z</time></trkpt><trkpt lat="41.78779942534171" lon="12.483503982040023"><ele>45.0</ele><time>2026-03-25T12:29:18Z</time></trkpt><trkpt lat="41.78780417744035" lon="12.483597972811014"><ele>45.0</ele><time>2026-03-25T12:29:19Z</time></trkpt><trkpt lat="41.787805545680364" lon="12.483688195031263"><ele>45.0</ele><time>2026-03-25T12:29:20Z</time></trkpt><trkpt lat="41.7878095260489" lon="12.48377542365695"><ele>45.0</ele><time>2026-03-25T12:29:21Z</time></trkpt><trkpt lat="41.787815052247964" lon="12.483944116928187"><ele>45.0</ele><time>2026-03-25T12:29:23Z</time></trkpt><trkpt lat="41.78782018871344" lon="12.484100072920016"><ele>45.0</ele><time>2026-03-25T12:29:25Z</time></trkpt><trkpt lat="41.78780846912303" lon="12.484210705698063"><ele>45.0</ele><time>2026-03-25T12:29:27Z</time></trkpt><trkpt lat="41.787814888270255" lon="12.484315734939283"><ele>45.0</ele><time>2026-03-25T12:29:41.999Z</time></trkpt><trkpt lat="41.787787110157645" lon="12.484404680780601"><ele>45.0</ele><time>2026-03-25T12:29:43.999Z</time></trkpt><trkpt lat="41.787763392597135" lon="12.484553598162382"><ele>45.4</ele><time>2026-03-25T12:29:45.999Z</time></trkpt><trkpt lat="41.78774293544667" lon="12.484638854872998"><ele>45.8</ele><time>2026-03-25T12:29:46.999Z</time></trkpt><trkpt lat="41.78769008009474" lon="12.484789835913459"><ele>46.2</ele><time>2026-03-25T12:29:48.999Z</time></trkpt><trkpt lat="41.78763614545384" lon="12.48493867836444"><ele>46.6</ele><time>2026-03-25T12:29:50.999Z</time></trkpt><trkpt lat="41.78757719141785" lon="12.485087695547582"><ele>47.0</ele><time>2026-03-25T12:29:52.999Z</time></trkpt><trkpt lat="41.787539420559284" lon="12.485215927058285"><ele>47.0</ele><time>2026-03-25T12:29:54.999Z</time></trkpt><trkpt lat="41.78752695365968" lon="12.485308689929614"><ele>47.0</ele><time>2026-03-25T12:29:56.999Z</time></trkpt><trkpt lat="41.78750668576674" lon="12.485456490606959"><ele>47.0</ele><time>2026-03-25T12:29:58.999Z</time></trkpt><trkpt lat="41.78749088759515" lon="12.48557709005562"><ele>47.0</ele><time>2026-03-25T12:30:00.999Z</time></trkpt><trkpt lat="41.787489559461534" lon="12.48566538805391"><ele>47.0</ele><time>2026-03-25T12:30:02.999Z</time></trkpt><trkpt lat="41.78754639082169" lon="12.485757306349456"><ele>47.0</ele><time>2026-03-25T12:30:04.999Z</time></trkpt><trkpt lat="41.787553998186944" lon="12.485849052200766"><ele>47.166666666666664</ele><time>2026-03-25T12:30:07.999Z</time></trkpt><trkpt lat="41.78753234696161" lon="12.485985867504802"><ele>47.33333333333333</ele><time>2026-03-25T12:30:09.999Z</time></trkpt><trkpt lat="41.7875182747957" lon="12.486116948256468"><ele>47.5</ele><time>2026-03-25T12:30:11.999Z</time></trkpt><trkpt lat="41.78751005392684" lon="12.486225633407969"><ele>47.666666666666664</ele><time>2026-03-25T12:30:13.999Z</time></trkpt><trkpt lat="41.78750395382944" lon="12.486320658502862"><ele>47.833333333333336</ele><time>2026-03-25T12:30:15.999Z</time></trkpt><trkpt lat="41.7875006988063" lon="12.48643822281221"><ele>48.0</ele><time>2026-03-25T12:30:18.999Z</time></trkpt><trkpt lat="41.78748561316307" lon="12.486530176877855"><ele>48.0</ele><time>2026-03-25T12:30:20.999Z</time></trkpt><trkpt lat="41.78747699103838" lon="12.486640631535716"><ele>48.0</ele><time>2026-03-25T12:30:22.999Z</time></trkpt><trkpt lat="41.78746488992359" lon="12.48676183018792"><ele>48.0</ele><time>2026-03-25T12:30:24.999Z</time></trkpt><trkpt lat="41.78745446945459" lon="12.48685141231711"><ele>48.0</ele><time>2026-03-25T12:30:26.999Z</time></trkpt><trkpt lat="41.78744336972812" lon="12.486956282905497"><ele>48.0</ele><time>2026-03-25T12:30:29.999Z</time></trkpt><trkpt lat="41.78744756736892" lon="12.487048609695561"><ele>48.0</ele><time>2026-03-25T12:30:32.999Z</time></trkpt><trkpt lat="41.78746703568797" lon="12.486917315141856"><ele>48.0</ele><time>2026-03-25T12:30:35.999Z</time></trkpt><trkpt lat="41.787465933764544" lon="12.486821243151741"><ele>48.0</ele><time>2026-03-25T12:30:37.999Z</time></trkpt><trkpt lat="41.787539084782736" lon="12.486854671003321"><ele>48.0</ele><time>2026-03-25T12:30:42.999Z</time></trkpt><trkpt lat="41.78761383035597" lon="12.486886270941314"><ele>48.0</ele><time>2026-03-25T12:30:57Z</time></trkpt><trkpt lat="41.78757353928084" lon="12.486955969564395"><ele>48.0</ele><time>2026-03-25T12:31:00Z</time></trkpt><trkpt lat="41.78755485470365" lon="12.487055759323589"><ele>48.0</ele><time>2026-03-25T12:31:02Z</time></trkpt><trkpt lat="41.78755346854663" lon="12.48716702230561"><ele>48.0</ele><time>2026-03-25T12:31:04Z</time></trkpt><trkpt lat="41.78756340247426" lon="12.487287709894426"><ele>48.0</ele><time>2026-03-25T12:31:06Z</time></trkpt><trkpt lat="41.78756824408471" lon="12.487408900686367"><ele>48.0</ele><time>2026-03-25T12:31:08Z</time></trkpt><trkpt lat="41.78760112743782" lon="12.487513381627448"><ele>48.0</ele><time>2026-03-25T12:31:10Z</time></trkpt><trkpt lat="41.78763683853209" lon="12.487609756708604"><ele>48.0</ele><time>2026-03-25T12:31:12Z</time></trkpt><trkpt lat="41.78769888999381" lon="12.487670856555873"><ele>48.0</ele><time>2026-03-25T12:31:14Z</time></trkpt><trkpt lat="41.78774818553946" lon="12.487733545066991"><ele>49.0</ele><time>2026-03-25T12:31:16Z</time></trkpt><trkpt lat="41.78779540761206" lon="12.487797428066964"><ele>50.0</ele><time>2026-03-25T12:31:20Z</time></trkpt><trkpt lat="41.78787464128415" lon="12.487834291052437"><ele>51.0</ele><time>2026-03-25T12:32:01.999Z</time></trkpt><trkpt lat="41.78794129905107" lon="12.487885240160569"><ele>52.0</ele><time>2026-03-25T12:32:03.999Z</time></trkpt><trkpt lat="41.78803971141372" lon="12.487935021936588"><ele>53.0</ele><time>2026-03-25T12:32:05.999Z</time></trkpt><trkpt lat="41.788147804816816" lon="12.487955142359658"><ele>54.0</ele><time>2026-03-25T12:32:07.999Z</time></trkpt><trkpt lat="41.78825710080431" lon="12.487955789819814"><ele>54.0</ele><time>2026-03-25T12:32:09.999Z</time></trkpt><trkpt lat="41.788364985940625" lon="12.487934481430074"><ele>54.00000000000001</ele><time>2026-03-25T12:32:11.999Z</time></trkpt><trkpt lat="41.78846948785262" lon="12.487912864107235"><ele>54.00000000000001</ele><time>2026-03-25T12:32:13.999Z</time></trkpt><trkpt lat="41.78856218512841" lon="12.487869589101576"><ele>54.0</ele><time>2026-03-25T12:32:15.999Z</time></trkpt><trkpt lat="41.788652274492364" lon="12.487808154910002"><ele>54.0</ele><time>2026-03-25T12:32:17.999Z</time></trkpt><trkpt lat="41.78873222228761" lon="12.487739848054932"><ele>55.800000000000004</ele><time>2026-03-25T12:32:19.999Z</time></trkpt><trkpt lat="41.788808087953456" lon="12.487673638643514"><ele>57.60000000000001</ele><time>2026-03-25T12:32:21.999Z</time></trkpt><trkpt lat="41.78890320201516" lon="12.487644234065552"><ele>59.4</ele><time>2026-03-25T12:32:23.999Z</time></trkpt><trkpt lat="41.78901615270743" lon="12.487650162614077"><ele>61.2</ele><time>2026-03-25T12:32:25.999Z</time></trkpt><trkpt lat="41.7891223544816" lon="12.487750045435687"><ele>63.0</ele><time>2026-03-25T12:32:27.999Z</time></trkpt><trkpt lat="41.78915130898427" lon="12.487830295087694"><ele>63.0</ele><time>2026-03-25T12:32:28.999Z</time></trkpt><trkpt lat="41.7891600390653" lon="12.487918827356314"><ele>63.0</ele><time>2026-03-25T12:32:29.999Z</time></trkpt><trkpt lat="41.78916587752965" lon="12.488009052736416"><ele>63.0</ele><time>2026-03-25T12:32:30.999Z</time></trkpt><trkpt lat="41.789206653288545" lon="12.488163401524956"><ele>63.0</ele><time>2026-03-25T12:32:32.999Z</time></trkpt><trkpt lat="41.78922524351915" lon="12.488263992846115"><ele>63.0</ele><time>2026-03-25T12:32:34.999Z</time></trkpt><trkpt lat="41.7892400713696" lon="12.488390055026052"><ele>63.0</ele><time>2026-03-25T12:32:38.999Z</time></trkpt><trkpt lat="41.789256836844245" lon="12.488513759551777"><ele>62.8</ele><time>2026-03-25T12:32:40.999Z</time></trkpt><trkpt lat="41.789283230376725" lon="12.488659710097096"><ele>62.599999999999994</ele><time>2026-03-25T12:32:42.999Z</time></trkpt><trkpt lat="41.789233492945755" lon="12.488809623564778"><ele>62.400000000000006</ele><time>2026-03-25T12:32:43.999Z</time></trkpt><trkpt lat="41.789309717812806" lon="12.48889026210683"><ele>62.2</ele><time>2026-03-25T12:32:44.999Z</time></trkpt><trkpt lat="41.78938829765291" lon="12.48895142025089"><ele>62.0</ele><time>2026-03-25T12:32:45.999Z</time></trkpt><trkpt lat="41.78946490337804" lon="12.488996937992917"><ele>62.0</ele><time>2026-03-25T12:32:46.999Z</time></trkpt><trkpt lat="41.7895908944368" lon="12.48896005628581"><ele>62.0</ele><time>2026-03-25T12:32:47.999Z</time></trkpt><trkpt lat="41.78970389360025" lon="12.488931794492014"><ele>62.0</ele><time>2026-03-25T12:32:49.999Z</time></trkpt><trkpt lat="41.78981415855973" lon="12.488905268225281"><ele>62.0</ele><time>2026-03-25T12:32:51.998Z</time></trkpt><trkpt lat="41.78991242651934" lon="12.488903261686799"><ele>62.0</ele><time>2026-03-25T12:32:53.998Z</time></trkpt><trkpt lat="41.790036948207586" lon="12.488901563663633"><ele>62.0</ele><time>2026-03-25T12:32:55.998Z</time></trkpt><trkpt lat="41.79015356641724" lon="12.488899973395318"><ele>62.0</ele><time>2026-03-25T12:32:57.998Z</time></trkpt><trkpt lat="41.7902823682353" lon="12.488898216963952"><ele>62.0</ele><time>2026-03-25T12:32:59.998Z</time></trkpt><trkpt lat="41.790345889006296" lon="12.488875708918204"><ele>62.0</ele><time>2026-03-25T12:33:00.998Z</time></trkpt><trkpt lat="41.790465827019716" lon="12.488910129974867"><ele>62.2</ele><time>2026-03-25T12:33:03Z</time></trkpt><trkpt lat="41.790528667934545" lon="12.48892959060746"><ele>62.400000000000006</ele><time>2026-03-25T12:33:04Z</time></trkpt><trkpt lat="41.790652254786366" lon="12.48896898327425"><ele>62.599999999999994</ele><time>2026-03-25T12:33:06Z</time></trkpt><trkpt lat="41.79076160767914" lon="12.488997465427724"><ele>62.8</ele><time>2026-03-25T12:33:08Z</time></trkpt><trkpt lat="41.790862076068926" lon="12.489033165651042"><ele>63.0</ele><time>2026-03-25T12:33:10Z</time></trkpt><trkpt lat="41.790962280509724" lon="12.489094428019486"><ele>63.0</ele><time>2026-03-25T12:33:12Z</time></trkpt><trkpt lat="41.791033437039516" lon="12.489233160536944"><ele>63.0</ele><time>2026-03-25T12:33:14Z</time></trkpt><trkpt lat="41.79107558440838" lon="12.489385652947245"><ele>63.0</ele><time>2026-03-25T12:33:16Z</time></trkpt><trkpt lat="41.791120776769525" lon="12.489534863007925"><ele>63.0</ele><time>2026-03-25T12:33:18Z</time></trkpt><trkpt lat="41.791164383053584" lon="12.489657346026917"><ele>62.599999999999994</ele><time>2026-03-25T12:33:20Z</time></trkpt><trkpt lat="41.79120001994056" lon="12.489772619979963"><ele>62.199999999999996</ele><time>2026-03-25T12:33:22Z</time></trkpt><trkpt lat="41.79122698245319" lon="12.489901183545129"><ele>61.8</ele><time>2026-03-25T12:33:24Z</time></trkpt><trkpt lat="41.79126830746385" lon="12.490022249323822"><ele>61.4</ele><time>2026-03-25T12:33:26Z</time></trkpt><trkpt lat="41.791310660187285" lon="12.490149143798064"><ele>61.0</ele><time>2026-03-25T12:33:28Z</time></trkpt><trkpt lat="41.79134869299303" lon="12.49027604875711"><ele>61.0</ele><time>2026-03-25T12:33:30Z</time></trkpt><trkpt lat="41.791387315224" lon="12.49041192747693"><ele>60.99999999999999</ele><time>2026-03-25T12:33:32Z</time></trkpt><trkpt lat="41.79142731243518" lon="12.490548437686462"><ele>60.99999999999999</ele><time>2026-03-25T12:33:34Z</time></trkpt><trkpt lat="41.7914659098428" lon="12.49067764763556"><ele>61.0</ele><time>2026-03-25T12:33:36Z</time></trkpt><trkpt lat="41.7914845185704" lon="12.490810118157228"><ele>61.0</ele><time>2026-03-25T12:33:38Z</time></trkpt><trkpt lat="41.7915263396103" lon="12.490918271463249"><ele>60.5</ele><time>2026-03-25T12:33:40Z</time></trkpt><trkpt lat="41.791551723764634" lon="12.491064928452014"><ele>60.0</ele><time>2026-03-25T12:33:42Z</time></trkpt><trkpt lat="41.79158542994575" lon="12.491218156401981"><ele>59.5</ele><time>2026-03-25T12:33:44Z</time></trkpt><trkpt lat="41.79162110104204" lon="12.491361587314781"><ele>59.0</ele><time>2026-03-25T12:33:46Z</time></trkpt><trkpt lat="41.79165207526063" lon="12.491512301102656"><ele>59.66666666666667</ele><time>2026-03-25T12:33:47.999Z</time></trkpt><trkpt lat="41.791693494102155" lon="12.49164682791298"><ele>60.333333333333336</ele><time>2026-03-25T12:33:49.999Z</time></trkpt><trkpt lat="41.79174451089044" lon="12.491772526941153"><ele>61.0</ele><time>2026-03-25T12:33:51.999Z</time></trkpt><trkpt lat="41.79180185408285" lon="12.49187080976825"><ele>61.66666666666667</ele><time>2026-03-25T12:33:53.999Z</time></trkpt><trkpt lat="41.79179459355473" lon="12.491961808575887"><ele>62.333333333333336</ele><time>2026-03-25T12:33:55.999Z</time></trkpt><trkpt lat="41.7917970843394" lon="12.492054014482646"><ele>63.0</ele><time>2026-03-25T12:33:58.999Z</time></trkpt><trkpt lat="41.791789990735595" lon="12.492159806961675"><ele>64.0</ele><time>2026-03-25T12:34:00.999Z</time></trkpt><trkpt lat="41.79182747186053" lon="12.492289424734679"><ele>65.0</ele><time>2026-03-25T12:34:02.999Z</time></trkpt><trkpt lat="41.791897883174556" lon="12.49241759741693"><ele>66.0</ele><time>2026-03-25T12:34:04.999Z</time></trkpt><trkpt lat="41.79191251887427" lon="12.492501682670385"><ele>67.0</ele><time>2026-03-25T12:34:05.999Z</time></trkpt><trkpt lat="41.79192609136269" lon="12.492585214551859"><ele>68.0</ele><time>2026-03-25T12:34:06.999Z</time></trkpt><trkpt lat="41.79196089454767" lon="12.492737132540425"><ele>68.2</ele><time>2026-03-25T12:34:08.999Z</time></trkpt><trkpt lat="41.7919987072756" lon="12.492893006092077"><ele>68.4</ele><time>2026-03-25T12:34:10.999Z</time></trkpt><trkpt lat="41.79201976289544" lon="12.49297584869858"><ele>68.60000000000001</ele><time>2026-03-25T12:34:11.999Z</time></trkpt><trkpt lat="41.79203438548905" lon="12.493058757801542"><ele>68.8</ele><time>2026-03-25T12:34:12.999Z</time></trkpt><trkpt lat="41.79206916194388" lon="12.49321411379208"><ele>69.0</ele><time>2026-03-25T12:34:14.999Z</time></trkpt><trkpt lat="41.79209704614561" lon="12.49336522056251"><ele>69.2</ele><time>2026-03-25T12:34:16.999Z</time></trkpt><trkpt lat="41.79213659372196" lon="12.493507564906272"><ele>69.4</ele><time>2026-03-25T12:34:18.999Z</time></trkpt><trkpt lat="41.79217728471284" lon="12.493639809759955"><ele>69.6</ele><time>2026-03-25T12:34:20.999Z</time></trkpt><trkpt lat="41.79220145754281" lon="12.493766768487166"><ele>69.8</ele><time>2026-03-25T12:34:22.999Z</time></trkpt><trkpt lat="41.792250981442514" lon="12.493871121517143"><ele>70.0</ele><time>2026-03-25T12:34:24.999Z</time></trkpt><trkpt lat="41.79226117902857" lon="12.49405355752526"><ele>69.2</ele><time>2026-03-25T12:34:26.999Z</time></trkpt><trkpt lat="41.79227091089647" lon="12.494138127167442"><ele>68.4</ele><time>2026-03-25T12:34:27.999Z</time></trkpt><trkpt lat="41.79235803205045" lon="12.494251815597826"><ele>67.6</ele><time>2026-03-25T12:34:29.999Z</time></trkpt><trkpt lat="41.79243605814528" lon="12.494430793277722"><ele>66.8</ele><time>2026-03-25T12:34:31.999Z</time></trkpt><trkpt lat="41.79253682773424" lon="12.494467742142298"><ele>66.0</ele><time>2026-03-25T12:34:33.999Z</time></trkpt><trkpt lat="41.79263328884671" lon="12.49450311113496"><ele>66.39999999999999</ele><time>2026-03-25T12:34:35.999Z</time></trkpt><trkpt lat="41.79273248714803" lon="12.494538630870691"><ele>66.8</ele><time>2026-03-25T12:34:37.999Z</time></trkpt><trkpt lat="41.792832455506804" lon="12.49457356668632"><ele>67.19999999999999</ele><time>2026-03-25T12:34:39.999Z</time></trkpt><trkpt lat="41.79292742473938" lon="12.494605158440566"><ele>67.6</ele><time>2026-03-25T12:34:41.999Z</time></trkpt><trkpt lat="41.7930154009154" lon="12.494632498255342"><ele>68.0</ele><time>2026-03-25T12:34:43.999Z</time></trkpt><trkpt lat="41.7931021266861" lon="12.494743351156394"><ele>66.0</ele><time>2026-03-25T12:34:48.999Z</time></trkpt><trkpt lat="41.79318272536865" lon="12.494833704224762"><ele>64.0</ele><time>2026-03-25T12:34:51.999Z</time></trkpt><trkpt lat="41.793285655309326" lon="12.494869981334906"><ele>62.0</ele><time>2026-03-25T12:34:53.999Z</time></trkpt><trkpt lat="41.7933535282686" lon="12.495057183109713"><ele>60.0</ele><time>2026-03-25T12:34:55.999Z</time></trkpt><trkpt lat="41.793437152185916" lon="12.49519168909403"><ele>60.0</ele><time>2026-03-25T12:34:57.998Z</time></trkpt><trkpt lat="41.79348435064584" lon="12.495259184464627"><ele>60.0</ele><time>2026-03-25T12:34:58.998Z</time></trkpt><trkpt lat="41.793535652556265" lon="12.495321527494367"><ele>60.0</ele><time>2026-03-25T12:34:59.998Z</time></trkpt><trkpt lat="41.79359266853705" lon="12.495382255394683"><ele>60.0</ele><time>2026-03-25T12:35:00.998Z</time></trkpt><trkpt lat="41.79364888083068" lon="12.495441497220641"><ele>60.0</ele><time>2026-03-25T12:35:01.998Z</time></trkpt><trkpt lat="41.793707036464205" lon="12.495502786406467"><ele>60.0</ele><time>2026-03-25T12:35:02.998Z</time></trkpt><trkpt lat="41.79376614938534" lon="12.495565981639574"><ele>60.0</ele><time>2026-03-25T12:35:03.998Z</time></trkpt><trkpt lat="41.793825922760796" lon="12.495628946223027"><ele>60.2</ele><time>2026-03-25T12:35:04.998Z</time></trkpt><trkpt lat="41.79388654130826" lon="12.495688335925712"><ele>60.4</ele><time>2026-03-25T12:35:05.998Z</time></trkpt><trkpt lat="41.79394689385342" lon="12.495740691481446"><ele>60.599999999999994</ele><time>2026-03-25T12:35:06.998Z</time></trkpt><trkpt lat="41.7940107575854" lon="12.495785102838349"><ele>60.8</ele><time>2026-03-25T12:35:08Z</time></trkpt><trkpt lat="41.79412890296719" lon="12.495836881532282"><ele>61.0</ele><time>2026-03-25T12:35:10Z</time></trkpt><trkpt lat="41.79424174299644" lon="12.495870737927678"><ele>61.0</ele><time>2026-03-25T12:35:12Z</time></trkpt><trkpt lat="41.7943332868188" lon="12.495842241881984"><ele>61.0</ele><time>2026-03-25T12:35:14Z</time></trkpt><trkpt lat="41.79435371466353" lon="12.496233178604994"><ele>61.0</ele><time>2026-03-25T12:35:15Z</time></trkpt><trkpt lat="41.79445269882805" lon="12.496334850650003"><ele>61.25</ele><time>2026-03-25T12:35:17Z</time></trkpt><trkpt lat="41.794549691571916" lon="12.496440214470876"><ele>61.5</ele><time>2026-03-25T12:35:19Z</time></trkpt><trkpt lat="41.794654332792845" lon="12.496522368255448"><ele>61.75</ele><time>2026-03-25T12:35:21Z</time></trkpt><trkpt lat="41.79475186557498" lon="12.496621830239521"><ele>62.0</ele><time>2026-03-25T12:35:23Z</time></trkpt><trkpt lat="41.79484290784999" lon="12.496724044032879"><ele>62.0</ele><time>2026-03-25T12:35:25Z</time></trkpt><trkpt lat="41.79493512029602" lon="12.496810741068881"><ele>62.0</ele><time>2026-03-25T12:35:27Z</time></trkpt><trkpt lat="41.79503305201476" lon="12.496862193490585"><ele>62.0</ele><time>2026-03-25T12:35:29Z</time></trkpt><trkpt lat="41.795130374028474" lon="12.49676916407395"><ele>62.0</ele><time>2026-03-25T12:35:31Z</time></trkpt><trkpt lat="41.79514288999928" lon="12.496683764401086"><ele>62.0</ele><time>2026-03-25T12:35:32Z</time></trkpt><trkpt lat="41.795144367071686" lon="12.496521168589295"><ele>62.0</ele><time>2026-03-25T12:35:34Z</time></trkpt><trkpt lat="41.79516285789763" lon="12.496366024513028"><ele>62.0</ele><time>2026-03-25T12:35:36Z</time></trkpt><trkpt lat="41.7951735048326" lon="12.496205369863997"><ele>62.0</ele><time>2026-03-25T12:35:38Z</time></trkpt><trkpt lat="41.795186282616186" lon="12.496046271886348"><ele>62.0</ele><time>2026-03-25T12:35:40Z</time></trkpt><trkpt lat="41.79516809391847" lon="12.495881465478558"><ele>61.2</ele><time>2026-03-25T12:35:42Z</time></trkpt><trkpt lat="41.79516067293904" lon="12.495720507498033"><ele>60.400000000000006</ele><time>2026-03-25T12:35:44Z</time></trkpt><trkpt lat="41.795189189866385" lon="12.495561205245691"><ele>59.599999999999994</ele><time>2026-03-25T12:35:46Z</time></trkpt><trkpt lat="41.79520196424892" lon="12.495478341594197"><ele>58.8</ele><time>2026-03-25T12:35:47Z</time></trkpt><trkpt lat="41.79522887007946" lon="12.495317355594947"><ele>58.0</ele><time>2026-03-25T12:35:49Z</time></trkpt><trkpt lat="41.79524851484125" lon="12.4951549619025"><ele>57.75</ele><time>2026-03-25T12:35:51Z</time></trkpt><trkpt lat="41.79526429790397" lon="12.494996324510785"><ele>57.5</ele><time>2026-03-25T12:35:53Z</time></trkpt><trkpt lat="41.79527834513825" lon="12.494834630828695"><ele>57.25</ele><time>2026-03-25T12:35:54.999Z</time></trkpt><trkpt lat="41.79529351587092" lon="12.494671522580859"><ele>57.0</ele><time>2026-03-25T12:35:56.999Z</time></trkpt><trkpt lat="41.795313417759395" lon="12.494511526736366"><ele>57.0</ele><time>2026-03-25T12:35:58.999Z</time></trkpt><trkpt lat="41.79533026157911" lon="12.494347681021667"><ele>57.0</ele><time>2026-03-25T12:36:00.999Z</time></trkpt><trkpt lat="41.79522558680986" lon="12.494235147178413"><ele>57.0</ele><time>2026-03-25T12:36:01.999Z</time></trkpt><trkpt lat="41.79524957170331" lon="12.494074992163373"><ele>57.0</ele><time>2026-03-25T12:36:03.999Z</time></trkpt><trkpt lat="41.79527347931473" lon="12.493915351779211"><ele>57.0</ele><time>2026-03-25T12:36:05.999Z</time></trkpt><trkpt lat="41.79528609905407" lon="12.49383108486527"><ele>57.0</ele><time>2026-03-25T12:36:06.999Z</time></trkpt><trkpt lat="41.7953943446472" lon="12.493699531754316"><ele>57.0</ele><time>2026-03-25T12:36:08.999Z</time></trkpt><trkpt lat="41.795412203926176" lon="12.49355678443863"><ele>57.0</ele><time>2026-03-25T12:36:10.999Z</time></trkpt><trkpt lat="41.79542741010309" lon="12.493411182800571"><ele>57.0</ele><time>2026-03-25T12:36:12.999Z</time></trkpt><trkpt lat="41.79545479203349" lon="12.4932480237547"><ele>56.833333333333336</ele><time>2026-03-25T12:36:14.999Z</time></trkpt><trkpt lat="41.7954829764974" lon="12.49308986757134"><ele>56.66666666666667</ele><time>2026-03-25T12:36:16.999Z</time></trkpt><trkpt lat="41.79549460537607" lon="12.493006557056443"><ele>56.5</ele><time>2026-03-25T12:36:17.999Z</time></trkpt><trkpt lat="41.79550956802881" lon="12.492921700036204"><ele>56.333333333333336</ele><time>2026-03-25T12:36:18.999Z</time></trkpt><trkpt lat="41.79552632202984" lon="12.492836772257274"><ele>56.16666666666667</ele><time>2026-03-25T12:36:19.999Z</time></trkpt><trkpt lat="41.79554235240596" lon="12.492749365809614"><ele>56.0</ele><time>2026-03-25T12:36:20.999Z</time></trkpt><trkpt lat="41.79555536662593" lon="12.492659902385581"><ele>56.285714285714285</ele><time>2026-03-25T12:36:21.999Z</time></trkpt><trkpt lat="41.79556616599912" lon="12.49256928736129"><ele>56.57142857142857</ele><time>2026-03-25T12:36:22.999Z</time></trkpt><trkpt lat="41.79557721215004" lon="12.4924798073852"><ele>56.85714285714286</ele><time>2026-03-25T12:36:23.999Z</time></trkpt><trkpt lat="41.79558932485738" lon="12.492393538842828"><ele>57.142857142857146</ele><time>2026-03-25T12:36:24.999Z</time></trkpt><trkpt lat="41.79560186458788" lon="12.492304528230305"><ele>57.42857142857143</ele><time>2026-03-25T12:36:25.999Z</time></trkpt><trkpt lat="41.795614343001255" lon="12.492215434969353"><ele>57.71428571428572</ele><time>2026-03-25T12:36:26.999Z</time></trkpt><trkpt lat="41.79563033253878" lon="12.492129969073297"><ele>58.00000000000001</ele><time>2026-03-25T12:36:27.999Z</time></trkpt><trkpt lat="41.795654258657066" lon="12.491975214436291"><ele>58.0</ele><time>2026-03-25T12:36:29.999Z</time></trkpt><trkpt lat="41.795679176023725" lon="12.491826937524515"><ele>58.0</ele><time>2026-03-25T12:36:31.999Z</time></trkpt><trkpt lat="41.79570580543745" lon="12.491676076118008"><ele>58.0</ele><time>2026-03-25T12:36:33.999Z</time></trkpt><trkpt lat="41.79573159920098" lon="12.49152302838165"><ele>58.0</ele><time>2026-03-25T12:36:35.999Z</time></trkpt><trkpt lat="41.79575153679672" lon="12.491364987555553"><ele>57.8</ele><time>2026-03-25T12:36:37.999Z</time></trkpt><trkpt lat="41.795767952677515" lon="12.491213542551275"><ele>57.599999999999994</ele><time>2026-03-25T12:36:39.999Z</time></trkpt><trkpt lat="41.79577417549319" lon="12.491068361272246"><ele>57.400000000000006</ele><time>2026-03-25T12:36:41.999Z</time></trkpt><trkpt lat="41.795767092843946" lon="12.490942152899391"><ele>57.2</ele><time>2026-03-25T12:36:43.999Z</time></trkpt><trkpt lat="41.79576618533595" lon="12.490829490425387"><ele>57.0</ele><time>2026-03-25T12:36:45.999Z</time></trkpt><trkpt lat="41.79577374285266" lon="12.490715947074792"><ele>57.0</ele><time>2026-03-25T12:36:47.999Z</time></trkpt><trkpt lat="41.795779410335264" lon="12.490591869524284"><ele>57.0</ele><time>2026-03-25T12:36:49.999Z</time></trkpt><trkpt lat="41.795793918829496" lon="12.490462396413138"><ele>57.0</ele><time>2026-03-25T12:36:51.999Z</time></trkpt><trkpt lat="41.79585668082816" lon="12.49035149758765"><ele>57.0</ele><time>2026-03-25T12:36:53.999Z</time></trkpt><trkpt lat="41.79596850389055" lon="12.490341351066775"><ele>57.0</ele><time>2026-03-25T12:36:55.999Z</time></trkpt><trkpt lat="41.796093903215066" lon="12.490342965660814"><ele>55.400000000000006</ele><time>2026-03-25T12:36:57.999Z</time></trkpt><trkpt lat="41.796156995724346" lon="12.49034779980272"><ele>53.800000000000004</ele><time>2026-03-25T12:36:58.999Z</time></trkpt><trkpt lat="41.79628297022944" lon="12.490345533373755"><ele>52.2</ele><time>2026-03-25T12:37:00.999Z</time></trkpt><trkpt lat="41.79640616930179" lon="12.490345951926853"><ele>50.6</ele><time>2026-03-25T12:37:02.999Z</time></trkpt><trkpt lat="41.796531263890635" lon="12.490352652910316"><ele>49.0</ele><time>2026-03-25T12:37:04.999Z</time></trkpt><trkpt lat="41.796595753275575" lon="12.490353683702374"><ele>49.0</ele><time>2026-03-25T12:37:05.999Z</time></trkpt><trkpt lat="41.796658727492435" lon="12.490356833132045"><ele>49.0</ele><time>2026-03-25T12:37:06.998Z</time></trkpt><trkpt lat="41.79678872475035" lon="12.490360679509134"><ele>49.0</ele><time>2026-03-25T12:37:08.998Z</time></trkpt><trkpt lat="41.796918248740184" lon="12.490368340522288"><ele>49.0</ele><time>2026-03-25T12:37:10.998Z</time></trkpt><trkpt lat="41.796982077992276" lon="12.490369546644633"><ele>49.0</ele><time>2026-03-25T12:37:11.998Z</time></trkpt><trkpt lat="41.79704933209762" lon="12.49036899287099"><ele>49.400000000000006</ele><time>2026-03-25T12:37:12.998Z</time></trkpt><trkpt lat="41.79711476395866" lon="12.490373998780683"><ele>49.8</ele><time>2026-03-25T12:37:14Z</time></trkpt><trkpt lat="41.79723666764692" lon="12.490383542441432"><ele>50.2</ele><time>2026-03-25T12:37:16Z</time></trkpt><trkpt lat="41.79730255712202" lon="12.490337053540967"><ele>50.599999999999994</ele><time>2026-03-25T12:37:17Z</time></trkpt><trkpt lat="41.7974240467256" lon="12.490362932698053"><ele>51.0</ele><time>2026-03-25T12:37:19Z</time></trkpt><trkpt lat="41.79754898932267" lon="12.490378720890137"><ele>51.0</ele><time>2026-03-25T12:37:21Z</time></trkpt><trkpt lat="41.797612543740755" lon="12.49037779066966"><ele>51.0</ele><time>2026-03-25T12:37:22Z</time></trkpt><trkpt lat="41.79767639451967" lon="12.490385471412676"><ele>51.0</ele><time>2026-03-25T12:37:23Z</time></trkpt><trkpt lat="41.797740773169835" lon="12.490388030638771"><ele>51.0</ele><time>2026-03-25T12:37:24Z</time></trkpt><trkpt lat="41.797806745984396" lon="12.490395620422348"><ele>51.0</ele><time>2026-03-25T12:37:25Z</time></trkpt><trkpt lat="41.79787540948405" lon="12.490407593533465"><ele>51.0</ele><time>2026-03-25T12:37:26Z</time></trkpt><trkpt lat="41.797943558411376" lon="12.490418893919546"><ele>51.0</ele><time>2026-03-25T12:37:27Z</time></trkpt><trkpt lat="41.79801375452891" lon="12.490439036496317"><ele>52.0</ele><time>2026-03-25T12:37:28Z</time></trkpt><trkpt lat="41.79808599767408" lon="12.490463959963774"><ele>53.0</ele><time>2026-03-25T12:37:29Z</time></trkpt><trkpt lat="41.798162568204674" lon="12.490482005496716"><ele>54.0</ele><time>2026-03-25T12:37:30Z</time></trkpt><trkpt lat="41.79824079438931" lon="12.490498538639752"><ele>55.0</ele><time>2026-03-25T12:37:31Z</time></trkpt><trkpt lat="41.798316385315495" lon="12.490515505413837"><ele>56.0</ele><time>2026-03-25T12:37:32Z</time></trkpt><trkpt lat="41.79839400274332" lon="12.490533465884718"><ele>57.0</ele><time>2026-03-25T12:37:33Z</time></trkpt><trkpt lat="41.79847349763269" lon="12.490546860333447"><ele>56.166666666666664</ele><time>2026-03-25T12:37:34Z</time></trkpt><trkpt lat="41.798552058492156" lon="12.49056233511868"><ele>55.33333333333333</ele><time>2026-03-25T12:37:35Z</time></trkpt><trkpt lat="41.79863326154776" lon="12.490578618959434"><ele>54.5</ele><time>2026-03-25T12:37:36Z</time></trkpt><trkpt lat="41.79871725271552" lon="12.490594205489632"><ele>53.666666666666664</ele><time>2026-03-25T12:37:37Z</time></trkpt><trkpt lat="41.79879844707825" lon="12.490614165775492"><ele>52.83333333333333</ele><time>2026-03-25T12:37:38Z</time></trkpt><trkpt lat="41.79887903934779" lon="12.490635290362128"><ele>52.0</ele><time>2026-03-25T12:37:39Z</time></trkpt><trkpt lat="41.79896104325555" lon="12.49065243046174"><ele>51.99999999999999</ele><time>2026-03-25T12:37:40Z</time></trkpt><trkpt lat="41.79903900194965" lon="12.490666818462262"><ele>52.0</ele><time>2026-03-25T12:37:41Z</time></trkpt><trkpt lat="41.79911264360066" lon="12.49068153526055"><ele>52.0</ele><time>2026-03-25T12:37:42Z</time></trkpt><trkpt lat="41.79918381543382" lon="12.490698493358087"><ele>52.0</ele><time>2026-03-25T12:37:43Z</time></trkpt><trkpt lat="41.79925835736186" lon="12.49070291653565"><ele>51.99999999999999</ele><time>2026-03-25T12:37:44Z</time></trkpt><trkpt lat="41.79932800815898" lon="12.490724448675232"><ele>52.0</ele><time>2026-03-25T12:37:45Z</time></trkpt><trkpt lat="41.79944188916818" lon="12.490728170651483"><ele>50.5</ele><time>2026-03-25T12:37:47Z</time></trkpt><trkpt lat="41.7994856964493" lon="12.490901157850825"><ele>49.0</ele><time>2026-03-25T12:37:48Z</time></trkpt><trkpt lat="41.79957922993925" lon="12.49099717331712"><ele>47.5</ele><time>2026-03-25T12:37:50Z</time></trkpt><trkpt lat="41.79967812509238" lon="12.49096552811197"><ele>46.0</ele><time>2026-03-25T12:37:52Z</time></trkpt><trkpt lat="41.799764641554134" lon="12.49088385187938"><ele>46.0</ele><time>2026-03-25T12:37:54Z</time></trkpt><trkpt lat="41.799806599516614" lon="12.490758620604865"><ele>46.0</ele><time>2026-03-25T12:37:56Z</time></trkpt><trkpt lat="41.800003692336674" lon="12.49080320831076"><ele>46.0</ele><time>2026-03-25T12:37:58Z</time></trkpt><trkpt lat="41.800066873846426" lon="12.490772701036875"><ele>46.0</ele><time>2026-03-25T12:37:59Z</time></trkpt><trkpt lat="41.80018512097463" lon="12.490726410507692"><ele>46.199999999999996</ele><time>2026-03-25T12:38:01Z</time></trkpt><trkpt lat="41.80029002982624" lon="12.490645424183846"><ele>46.4</ele><time>2026-03-25T12:38:03Z</time></trkpt><trkpt lat="41.80038150600259" lon="12.490541757034732"><ele>46.6</ele><time>2026-03-25T12:38:04.999Z</time></trkpt><trkpt lat="41.800446756404085" lon="12.49042271744165"><ele>46.8</ele><time>2026-03-25T12:38:06.999Z</time></trkpt><trkpt lat="41.800484933011674" lon="12.490346130468572"><ele>47.0</ele><time>2026-03-25T12:38:07.999Z</time></trkpt><trkpt lat="41.800525322027525" lon="12.490261760242701"><ele>47.14285714285714</ele><time>2026-03-25T12:38:08.999Z</time></trkpt><trkpt lat="41.800564327620314" lon="12.490180588294056"><ele>47.285714285714285</ele><time>2026-03-25T12:38:09.999Z</time></trkpt><trkpt lat="41.80060426961795" lon="12.490097467611442"><ele>47.42857142857143</ele><time>2026-03-25T12:38:10.999Z</time></trkpt><trkpt lat="41.800650981079244" lon="12.490023684861239"><ele>47.57142857142857</ele><time>2026-03-25T12:38:11.999Z</time></trkpt><trkpt lat="41.80069683669836" lon="12.489938761588633"><ele>47.714285714285715</ele><time>2026-03-25T12:38:12.999Z</time></trkpt><trkpt lat="41.800736320378434" lon="12.489855185769803"><ele>47.857142857142854</ele><time>2026-03-25T12:38:13.999Z</time></trkpt><trkpt lat="41.800775360634475" lon="12.489771049465821"><ele>48.0</ele><time>2026-03-25T12:38:14.999Z</time></trkpt><trkpt lat="41.800809687332666" lon="12.489687293550078"><ele>48.0</ele><time>2026-03-25T12:38:15.999Z</time></trkpt><trkpt lat="41.80084585816679" lon="12.489606789646384"><ele>48.0</ele><time>2026-03-25T12:38:16.999Z</time></trkpt><trkpt lat="41.80086887780624" lon="12.489517281641694"><ele>48.0</ele><time>2026-03-25T12:38:17.999Z</time></trkpt><trkpt lat="41.800906564129164" lon="12.489438411748266"><ele>48.0</ele><time>2026-03-25T12:38:18.999Z</time></trkpt><trkpt lat="41.80097819544866" lon="12.489305016110956"><ele>48.0</ele><time>2026-03-25T12:38:20.999Z</time></trkpt><trkpt lat="41.80106656121887" lon="12.48918374019742"><ele>47.599999999999994</ele><time>2026-03-25T12:38:22.999Z</time></trkpt><trkpt lat="41.80112014821475" lon="12.489128431552116"><ele>47.199999999999996</ele><time>2026-03-25T12:38:23.999Z</time></trkpt><trkpt lat="41.801189292542375" lon="12.489071070822492"><ele>46.8</ele><time>2026-03-25T12:38:25.999Z</time></trkpt><trkpt lat="41.80124830124614" lon="12.48902165076801"><ele>46.4</ele><time>2026-03-25T12:38:27.999Z</time></trkpt><trkpt lat="41.801436557663195" lon="12.488893515036136"><ele>46.0</ele><time>2026-03-25T12:38:39.999Z</time></trkpt><trkpt lat="41.80147768782236" lon="12.488969512752023"><ele>46.0</ele><time>2026-03-25T12:38:40.999Z</time></trkpt><trkpt lat="41.80149591754018" lon="12.488812735500243"><ele>46.0</ele><time>2026-03-25T12:38:42.999Z</time></trkpt><trkpt lat="41.801509377594726" lon="12.488726277222264"><ele>46.0</ele><time>2026-03-25T12:38:43.999Z</time></trkpt><trkpt lat="41.80153154444639" lon="12.488637279786643"><ele>46.0</ele><time>2026-03-25T12:38:44.999Z</time></trkpt><trkpt lat="41.80155774632293" lon="12.488555660251038"><ele>46.0</ele><time>2026-03-25T12:38:45.999Z</time></trkpt><trkpt lat="41.80160904263308" lon="12.488407248959799"><ele>46.0</ele><time>2026-03-25T12:38:47.999Z</time></trkpt><trkpt lat="41.80165995738437" lon="12.488256764137564"><ele>46.0</ele><time>2026-03-25T12:38:49.999Z</time></trkpt><trkpt lat="41.80168658074262" lon="12.488177479789023"><ele>46.0</ele><time>2026-03-25T12:38:50.999Z</time></trkpt><trkpt lat="41.801713947910585" lon="12.488098799524412"><ele>46.0</ele><time>2026-03-25T12:38:51.999Z</time></trkpt><trkpt lat="41.80176744860495" lon="12.487946500821124"><ele>46.0</ele><time>2026-03-25T12:38:53.999Z</time></trkpt><trkpt lat="41.80179540270341" lon="12.487869135951138"><ele>46.0</ele><time>2026-03-25T12:38:54.999Z</time></trkpt><trkpt lat="41.801850121250226" lon="12.487722384747835"><ele>46.0</ele><time>2026-03-25T12:38:56.999Z</time></trkpt><trkpt lat="41.80190604307249" lon="12.487578698974243"><ele>46.199999999999996</ele><time>2026-03-25T12:38:58.999Z</time></trkpt><trkpt lat="41.801935824033826" lon="12.487503325532156"><ele>46.4</ele><time>2026-03-25T12:38:59.999Z</time></trkpt><trkpt lat="41.801966104493616" lon="12.48742690146979"><ele>46.6</ele><time>2026-03-25T12:39:00.999Z</time></trkpt><trkpt lat="41.80202301110334" lon="12.487285236872353"><ele>46.8</ele><time>2026-03-25T12:39:02.999Z</time></trkpt><trkpt lat="41.80208086971991" lon="12.487142176710154"><ele>47.0</ele><time>2026-03-25T12:39:04.999Z</time></trkpt><trkpt lat="41.80215181228618" lon="12.487014713200393"><ele>47.0</ele><time>2026-03-25T12:39:06.999Z</time></trkpt><trkpt lat="41.80220646578538" lon="12.486862475739402"><ele>47.0</ele><time>2026-03-25T12:39:08.999Z</time></trkpt><trkpt lat="41.802267378023274" lon="12.486713000944421"><ele>47.0</ele><time>2026-03-25T12:39:10.999Z</time></trkpt><trkpt lat="41.802316177619105" lon="12.486574342683383"><ele>47.0</ele><time>2026-03-25T12:39:12.999Z</time></trkpt><trkpt lat="41.802375200472945" lon="12.48643493651315"><ele>47.0</ele><time>2026-03-25T12:39:14.999Z</time></trkpt><trkpt lat="41.80247049776923" lon="12.486415019146186"><ele>47.0</ele><time>2026-03-25T12:39:15.999Z</time></trkpt><trkpt lat="41.80250501800121" lon="12.48633811637389"><ele>47.0</ele><time>2026-03-25T12:39:16.999Z</time></trkpt><trkpt lat="41.80253074391866" lon="12.486257797279475"><ele>47.0</ele><time>2026-03-25T12:39:17.998Z</time></trkpt><trkpt lat="41.802582274590826" lon="12.486106274280898"><ele>47.0</ele><time>2026-03-25T12:39:20Z</time></trkpt><trkpt lat="41.802614653589565" lon="12.48603202667838"><ele>47.0</ele><time>2026-03-25T12:39:21Z</time></trkpt><trkpt lat="41.802607474312936" lon="12.485940961682447"><ele>47.75</ele><time>2026-03-25T12:39:22Z</time></trkpt><trkpt lat="41.80264826562126" lon="12.485826814829124"><ele>48.5</ele><time>2026-03-25T12:39:24Z</time></trkpt><trkpt lat="41.80283556744178" lon="12.485899776183244"><ele>49.25</ele><time>2026-03-25T12:39:25Z</time></trkpt><trkpt lat="41.80290078694461" lon="12.485885699202429"><ele>50.0</ele><time>2026-03-25T12:39:26Z</time></trkpt><trkpt lat="41.80300780662549" lon="12.485941264059084"><ele>50.0</ele><time>2026-03-25T12:39:28Z</time></trkpt><trkpt lat="41.80310449789859" lon="12.485982458820176"><ele>50.0</ele><time>2026-03-25T12:39:30Z</time></trkpt><trkpt lat="41.80320224960086" lon="12.486010287617127"><ele>50.0</ele><time>2026-03-25T12:39:32Z</time></trkpt><trkpt lat="41.80330338174805" lon="12.486042011502034"><ele>50.0</ele><time>2026-03-25T12:39:34Z</time></trkpt><trkpt lat="41.80339802440217" lon="12.486072493028068"><ele>50.0</ele><time>2026-03-25T12:39:36Z</time></trkpt><trkpt lat="41.803472456781705" lon="12.486096939003724"><ele>49.8</ele><time>2026-03-25T12:39:38Z</time></trkpt><trkpt lat="41.803564339495715" lon="12.486127116396766"><ele>49.6</ele><time>2026-03-25T12:39:40Z</time></trkpt><trkpt lat="41.80365630546823" lon="12.486149816427355"><ele>49.400000000000006</ele><time>2026-03-25T12:39:42Z</time></trkpt><trkpt lat="41.803767824588135" lon="12.486182037053815"><ele>49.2</ele><time>2026-03-25T12:39:44Z</time></trkpt><trkpt lat="41.80387013018746" lon="12.486231559900222"><ele>49.0</ele><time>2026-03-25T12:39:46Z</time></trkpt><trkpt lat="41.80398326252873" lon="12.486255071207008"><ele>49.0</ele><time>2026-03-25T12:39:48Z</time></trkpt><trkpt lat="41.80409682672763" lon="12.486279852161244"><ele>49.0</ele><time>2026-03-25T12:39:50Z</time></trkpt><trkpt lat="41.80420727520139" lon="12.486340128205729"><ele>49.0</ele><time>2026-03-25T12:39:52Z</time></trkpt><trkpt lat="41.80430935347371" lon="12.486370918370232"><ele>49.0</ele><time>2026-03-25T12:39:54Z</time></trkpt><trkpt lat="41.804420899356366" lon="12.486402627308983"><ele>49.0</ele><time>2026-03-25T12:39:56Z</time></trkpt><trkpt lat="41.80448284026068" lon="12.486419147140568"><ele>49.0</ele><time>2026-03-25T12:39:57Z</time></trkpt><trkpt lat="41.80454677784487" lon="12.486434889980973"><ele>49.0</ele><time>2026-03-25T12:39:58Z</time></trkpt><trkpt lat="41.804648574786924" lon="12.486467428679733"><ele>49.0</ele><time>2026-03-25T12:40:00Z</time></trkpt><trkpt lat="41.804759599024734" lon="12.48650149330429"><ele>49.0</ele><time>2026-03-25T12:40:02Z</time></trkpt><trkpt lat="41.80487989453865" lon="12.486537127573582"><ele>49.0</ele><time>2026-03-25T12:40:04Z</time></trkpt><trkpt lat="41.804989573179775" lon="12.486573929146127"><ele>49.0</ele><time>2026-03-25T12:40:06Z</time></trkpt><trkpt lat="41.80508959785421" lon="12.486661354102148"><ele>49.0</ele><time>2026-03-25T12:40:08Z</time></trkpt><trkpt lat="41.80520079097542" lon="12.486695493866973"><ele>49.0</ele><time>2026-03-25T12:40:10Z</time></trkpt><trkpt lat="41.80530249745141" lon="12.486718427309324"><ele>49.33333333333333</ele><time>2026-03-25T12:40:12Z</time></trkpt><trkpt lat="41.805387656809515" lon="12.486740023641357"><ele>49.666666666666664</ele><time>2026-03-25T12:40:13.999Z</time></trkpt><trkpt lat="41.80545203063029" lon="12.486759433450016"><ele>50.0</ele><time>2026-03-25T12:40:15.999Z</time></trkpt><trkpt lat="41.80554156232875" lon="12.486774202312745"><ele>50.33333333333333</ele><time>2026-03-25T12:40:17.999Z</time></trkpt><trkpt lat="41.805612010630334" lon="12.486678557021516"><ele>50.666666666666664</ele><time>2026-03-25T12:40:18.999Z</time></trkpt><trkpt lat="41.80570306270821" lon="12.486701221770247"><ele>51.0</ele><time>2026-03-25T12:40:20.999Z</time></trkpt><trkpt lat="41.80580964493446" lon="12.486745787793508"><ele>51.0</ele><time>2026-03-25T12:40:23.999Z</time></trkpt><trkpt lat="41.80591905486054" lon="12.486834772593832"><ele>51.0</ele><time>2026-03-25T12:40:25.999Z</time></trkpt><trkpt lat="41.805974115532486" lon="12.486878716816934"><ele>51.0</ele><time>2026-03-25T12:40:26.999Z</time></trkpt><trkpt lat="41.80603500059358" lon="12.486900825454166"><ele>51.0</ele><time>2026-03-25T12:40:27.999Z</time></trkpt><trkpt lat="41.80615832639485" lon="12.486885159826286"><ele>51.0</ele><time>2026-03-25T12:40:29.999Z</time></trkpt><trkpt lat="41.80619132000522" lon="12.486802822782446"><ele>51.0</ele><time>2026-03-25T12:40:30.999Z</time></trkpt><trkpt lat="41.806280450651116" lon="12.486862164857685"><ele>50.4</ele><time>2026-03-25T12:40:31.999Z</time></trkpt><trkpt lat="41.8063877264827" lon="12.486869226320186"><ele>49.8</ele><time>2026-03-25T12:40:33.999Z</time></trkpt><trkpt lat="41.806450825905934" lon="12.486884926193236"><ele>49.199999999999996</ele><time>2026-03-25T12:40:34.999Z</time></trkpt><trkpt lat="41.80656700070065" lon="12.486915071031524"><ele>48.599999999999994</ele><time>2026-03-25T12:40:36.999Z</time></trkpt><trkpt lat="41.806687453697315" lon="12.486948470661824"><ele>48.0</ele><time>2026-03-25T12:40:38.999Z</time></trkpt><trkpt lat="41.806779959279254" lon="12.48694289111081"><ele>48.0</ele><time>2026-03-25T12:40:40.999Z</time></trkpt><trkpt lat="41.806891053149684" lon="12.486976035958358"><ele>48.0</ele><time>2026-03-25T12:40:42.999Z</time></trkpt><trkpt lat="41.807024936834196" lon="12.486994373187123"><ele>48.0</ele><time>2026-03-25T12:40:44.999Z</time></trkpt><trkpt lat="41.80714470021031" lon="12.487023712375377"><ele>48.0</ele><time>2026-03-25T12:40:46.999Z</time></trkpt><trkpt lat="41.8072656517045" lon="12.487051566247843"><ele>48.0</ele><time>2026-03-25T12:40:48.999Z</time></trkpt><trkpt lat="41.807327016526386" lon="12.48707066652536"><ele>48.0</ele><time>2026-03-25T12:40:49.999Z</time></trkpt><trkpt lat="41.807389074742055" lon="12.487086407416314"><ele>48.0</ele><time>2026-03-25T12:40:50.999Z</time></trkpt><trkpt lat="41.807507393372994" lon="12.487102065548031"><ele>48.0</ele><time>2026-03-25T12:40:52.999Z</time></trkpt><trkpt lat="41.80762176314119" lon="12.487111001308234"><ele>48.0</ele><time>2026-03-25T12:40:54.999Z</time></trkpt><trkpt lat="41.807741034905256" lon="12.487116471353316"><ele>48.75</ele><time>2026-03-25T12:40:56.999Z</time></trkpt><trkpt lat="41.807855701451544" lon="12.487106025508995"><ele>49.5</ele><time>2026-03-25T12:40:58.999Z</time></trkpt><trkpt lat="41.80797499175871" lon="12.487085591979444"><ele>50.25</ele><time>2026-03-25T12:41:00.999Z</time></trkpt><trkpt lat="41.80807623213648" lon="12.487035698844352"><ele>51.0</ele><time>2026-03-25T12:41:02.999Z</time></trkpt><trkpt lat="41.80819389629941" lon="12.48699224431955"><ele>51.0</ele><time>2026-03-25T12:41:04.999Z</time></trkpt><trkpt lat="41.80825579149471" lon="12.486968263339445"><ele>51.0</ele><time>2026-03-25T12:41:05.999Z</time></trkpt><trkpt lat="41.80831670818184" lon="12.486942510522464"><ele>51.0</ele><time>2026-03-25T12:41:06.999Z</time></trkpt><trkpt lat="41.80836888046657" lon="12.48688929817992"><ele>51.0</ele><time>2026-03-25T12:41:07.999Z</time></trkpt><trkpt lat="41.80847545745332" lon="12.486823381451478"><ele>51.0</ele><time>2026-03-25T12:41:09.999Z</time></trkpt><trkpt lat="41.808576351814814" lon="12.486777014092345"><ele>51.0</ele><time>2026-03-25T12:41:11.999Z</time></trkpt><trkpt lat="41.808668950531704" lon="12.486707317070715"><ele>51.199999999999996</ele><time>2026-03-25T12:41:13.999Z</time></trkpt><trkpt lat="41.80876119507907" lon="12.486621338125339"><ele>51.4</ele><time>2026-03-25T12:41:15.999Z</time></trkpt><trkpt lat="41.808843106219044" lon="12.486581003875925"><ele>51.6</ele><time>2026-03-25T12:41:17.999Z</time></trkpt><trkpt lat="41.80894971449264" lon="12.486539882235077"><ele>51.8</ele><time>2026-03-25T12:41:21.999Z</time></trkpt><trkpt lat="41.80905375176772" lon="12.486475799618058"><ele>52.0</ele><time>2026-03-25T12:41:23.999Z</time></trkpt><trkpt lat="41.80915969699186" lon="12.486399570746203"><ele>52.0</ele><time>2026-03-25T12:41:26Z</time></trkpt><trkpt lat="41.80921007796681" lon="12.486334142214357"><ele>52.0</ele><time>2026-03-25T12:41:27Z</time></trkpt><trkpt lat="41.80929318780799" lon="12.486199435834095"><ele>52.0</ele><time>2026-03-25T12:41:29Z</time></trkpt><trkpt lat="41.80930091184861" lon="12.48611069104842"><ele>52.0</ele><time>2026-03-25T12:41:30Z</time></trkpt><trkpt lat="41.8093476670736" lon="12.485965877329663"><ele>52.0</ele><time>2026-03-25T12:41:32Z</time></trkpt><trkpt lat="41.809378385705806" lon="12.485817544472678"><ele>52.0</ele><time>2026-03-25T12:41:34Z</time></trkpt><trkpt lat="41.809415564610255" lon="12.485674573792378"><ele>52.0</ele><time>2026-03-25T12:41:36Z</time></trkpt><trkpt lat="41.8094612950095" lon="12.48553435595331"><ele>52.0</ele><time>2026-03-25T12:41:38Z</time></trkpt><trkpt lat="41.80949634757597" lon="12.485400985569981"><ele>52.0</ele><time>2026-03-25T12:41:40Z</time></trkpt><trkpt lat="41.809585423720655" lon="12.485367881493982"><ele>52.0</ele><time>2026-03-25T12:41:42Z</time></trkpt><trkpt lat="41.809690003575405" lon="12.48536318965787"><ele>52.0</ele><time>2026-03-25T12:41:44Z</time></trkpt><trkpt lat="41.80978045583988" lon="12.485339755903306"><ele>52.0</ele><time>2026-03-25T12:41:46Z</time></trkpt><trkpt lat="41.80986827119814" lon="12.485356025959936"><ele>52.0</ele><time>2026-03-25T12:41:49Z</time></trkpt><trkpt lat="41.809952829554064" lon="12.485398558576158"><ele>52.0</ele><time>2026-03-25T12:41:51Z</time></trkpt><trkpt lat="41.81005458399021" lon="12.485451551922095"><ele>52.0</ele><time>2026-03-25T12:41:53Z</time></trkpt><trkpt lat="41.81014822767135" lon="12.485527289674891"><ele>52.0</ele><time>2026-03-25T12:41:55Z</time></trkpt><trkpt lat="41.810242186190685" lon="12.485603533842017"><ele>52.0</ele><time>2026-03-25T12:41:57Z</time></trkpt><trkpt lat="41.8103288639459" lon="12.485692052855041"><ele>52.0</ele><time>2026-03-25T12:41:59Z</time></trkpt><trkpt lat="41.8103953271608" lon="12.485833591754428"><ele>52.0</ele><time>2026-03-25T12:42:01Z</time></trkpt><trkpt lat="41.81044108906546" lon="12.485894126107132"><ele>52.0</ele><time>2026-03-25T12:42:02Z</time></trkpt><trkpt lat="41.81049357196699" lon="12.485946989773494"><ele>51.99999999999999</ele><time>2026-03-25T12:42:03Z</time></trkpt><trkpt lat="41.81054721301906" lon="12.485995941470367"><ele>52.0</ele><time>2026-03-25T12:42:04Z</time></trkpt><trkpt lat="41.81064847939525" lon="12.486094170480309"><ele>52.0</ele><time>2026-03-25T12:42:06Z</time></trkpt><trkpt lat="41.81069992871036" lon="12.48615082972433"><ele>52.0</ele><time>2026-03-25T12:42:07Z</time></trkpt><trkpt lat="41.81075681652662" lon="12.486208707048789"><ele>51.99999999999999</ele><time>2026-03-25T12:42:08Z</time></trkpt><trkpt lat="41.810812973240736" lon="12.486260012017567"><ele>52.0</ele><time>2026-03-25T12:42:09Z</time></trkpt><trkpt lat="41.810927025530624" lon="12.486329790425414"><ele>51.6</ele><time>2026-03-25T12:42:11Z</time></trkpt><trkpt lat="41.811035556740656" lon="12.48640044128815"><ele>51.2</ele><time>2026-03-25T12:42:13Z</time></trkpt><trkpt lat="41.81114895815373" lon="12.486456446235303"><ele>50.8</ele><time>2026-03-25T12:42:15Z</time></trkpt><trkpt lat="41.81120914862721" lon="12.48648165554531"><ele>50.4</ele><time>2026-03-25T12:42:16Z</time></trkpt><trkpt lat="41.811323084826064" lon="12.486510367532887"><ele>50.0</ele><time>2026-03-25T12:42:18Z</time></trkpt><trkpt lat="41.811439596189224" lon="12.486515609276793"><ele>50.0</ele><time>2026-03-25T12:42:19.999Z</time></trkpt><trkpt lat="41.811503494076085" lon="12.486466597113214"><ele>50.0</ele><time>2026-03-25T12:42:20.999Z</time></trkpt><trkpt lat="41.81161521936385" lon="12.486501334566356"><ele>50.0</ele><time>2026-03-25T12:42:22.999Z</time></trkpt><trkpt lat="41.81173475005806" lon="12.486489507559693"><ele>50.0</ele><time>2026-03-25T12:42:24.999Z</time></trkpt><trkpt lat="41.81179742276616" lon="12.4864788139307"><ele>50.0</ele><time>2026-03-25T12:42:25.999Z</time></trkpt><trkpt lat="41.811909462017525" lon="12.486445343551592"><ele>51.0</ele><time>2026-03-25T12:42:27.999Z</time></trkpt><trkpt lat="41.812021796487514" lon="12.486456113340461"><ele>52.0</ele><time>2026-03-25T12:42:29.999Z</time></trkpt><trkpt lat="41.812144783902134" lon="12.486455240143544"><ele>53.0</ele><time>2026-03-25T12:42:31.999Z</time></trkpt><trkpt lat="41.81226673775395" lon="12.48644586742935"><ele>54.0</ele><time>2026-03-25T12:42:33.999Z</time></trkpt><trkpt lat="41.81238919490996" lon="12.486452100231398"><ele>54.0</ele><time>2026-03-25T12:42:35.999Z</time></trkpt><trkpt lat="41.812452382220066" lon="12.486444503280218"><ele>54.00000000000001</ele><time>2026-03-25T12:42:36.999Z</time></trkpt><trkpt lat="41.81256246395394" lon="12.486428392928282"><ele>54.00000000000001</ele><time>2026-03-25T12:42:38.999Z</time></trkpt><trkpt lat="41.81267032814209" lon="12.486406501636264"><ele>54.0</ele><time>2026-03-25T12:42:40.999Z</time></trkpt><trkpt lat="41.812781259941026" lon="12.486358669022845"><ele>54.0</ele><time>2026-03-25T12:42:42.999Z</time></trkpt><trkpt lat="41.81288061711864" lon="12.486305665964194"><ele>53.800000000000004</ele><time>2026-03-25T12:42:44.999Z</time></trkpt><trkpt lat="41.812959467680656" lon="12.48623609691473"><ele>53.60000000000001</ele><time>2026-03-25T12:42:46.999Z</time></trkpt><trkpt lat="41.81304953243215" lon="12.486164736052533"><ele>53.4</ele><time>2026-03-25T12:42:48.999Z</time></trkpt><trkpt lat="41.81309442076726" lon="12.486103538813655"><ele>53.2</ele><time>2026-03-25T12:42:50.999Z</time></trkpt><trkpt lat="41.81317562713458" lon="12.486027929326994"><ele>53.0</ele><time>2026-03-25T12:42:55.999Z</time></trkpt><trkpt lat="41.81326652502491" lon="12.485966587912245"><ele>53.0</ele><time>2026-03-25T12:42:57.999Z</time></trkpt><trkpt lat="41.813317972989566" lon="12.48591417924543"><ele>53.0</ele><time>2026-03-25T12:42:58.999Z</time></trkpt><trkpt lat="41.81342921873804" lon="12.48582306763192"><ele>53.0</ele><time>2026-03-25T12:43:00.999Z</time></trkpt><trkpt lat="41.813530210448405" lon="12.485740285768907"><ele>53.0</ele><time>2026-03-25T12:43:02.999Z</time></trkpt><trkpt lat="41.81362212169929" lon="12.48566844545716"><ele>53.0</ele><time>2026-03-25T12:43:04.999Z</time></trkpt><trkpt lat="41.81371958119678" lon="12.485581050413055"><ele>53.0</ele><time>2026-03-25T12:43:06.999Z</time></trkpt><trkpt lat="41.81382130548979" lon="12.485501638408405"><ele>53.0</ele><time>2026-03-25T12:43:08.999Z</time></trkpt><trkpt lat="41.813916813987134" lon="12.485431754131744"><ele>53.0</ele><time>2026-03-25T12:43:10.999Z</time></trkpt><trkpt lat="41.813999367914846" lon="12.485365767048954"><ele>53.0</ele><time>2026-03-25T12:43:12.999Z</time></trkpt><trkpt lat="41.81406712233128" lon="12.485329035896001"><ele>53.0</ele><time>2026-03-25T12:43:15.999Z</time></trkpt><trkpt lat="41.814021122494296" lon="12.485207134807489"><ele>52.4</ele><time>2026-03-25T12:43:38Z</time></trkpt><trkpt lat="41.81396709676391" lon="12.485119028040698"><ele>51.8</ele><time>2026-03-25T12:43:40Z</time></trkpt><trkpt lat="41.813929744688274" lon="12.485003902363331"><ele>51.2</ele><time>2026-03-25T12:43:42Z</time></trkpt><trkpt lat="41.81398841640918" lon="12.48494143412239"><ele>50.6</ele><time>2026-03-25T12:43:44Z</time></trkpt><trkpt lat="41.81411012320953" lon="12.484885885435336"><ele>50.0</ele><time>2026-03-25T12:43:46Z</time></trkpt><trkpt lat="41.81421794340872" lon="12.484798740246715"><ele>50.0</ele><time>2026-03-25T12:43:48Z</time></trkpt><trkpt lat="41.814276198081515" lon="12.484763917195552"><ele>50.0</ele><time>2026-03-25T12:43:49Z</time></trkpt><trkpt lat="41.81439437930438" lon="12.484712233361574"><ele>50.0</ele><time>2026-03-25T12:43:51Z</time></trkpt><trkpt lat="41.81450772581259" lon="12.484650942993591"><ele>50.0</ele><time>2026-03-25T12:43:53Z</time></trkpt><trkpt lat="41.81456874210335" lon="12.484627238776739"><ele>50.0</ele><time>2026-03-25T12:43:54Z</time></trkpt><trkpt lat="41.81468222817706" lon="12.48457324468398"><ele>50.2</ele><time>2026-03-25T12:43:56Z</time></trkpt><trkpt lat="41.814801995552735" lon="12.484534873377356"><ele>50.4</ele><time>2026-03-25T12:43:58Z</time></trkpt><trkpt lat="41.81486348728418" lon="12.484510936645696"><ele>50.599999999999994</ele><time>2026-03-25T12:43:59Z</time></trkpt><trkpt lat="41.81498224971747" lon="12.484468543233922"><ele>50.8</ele><time>2026-03-25T12:44:01Z</time></trkpt><trkpt lat="41.81510052707464" lon="12.484411252685389"><ele>51.0</ele><time>2026-03-25T12:44:03Z</time></trkpt><trkpt lat="41.81521778829419" lon="12.484356879828727"><ele>51.0</ele><time>2026-03-25T12:44:05Z</time></trkpt><trkpt lat="41.815332671758235" lon="12.484303411449572"><ele>51.0</ele><time>2026-03-25T12:44:07Z</time></trkpt><trkpt lat="41.8154506382209" lon="12.484252325621107"><ele>51.0</ele><time>2026-03-25T12:44:09Z</time></trkpt><trkpt lat="41.81551282748627" lon="12.484227505913456"><ele>51.0</ele><time>2026-03-25T12:44:10Z</time></trkpt><trkpt lat="41.81562788572489" lon="12.484172974773164"><ele>51.0</ele><time>2026-03-25T12:44:12Z</time></trkpt><trkpt lat="41.815745077120326" lon="12.484124772637461"><ele>51.0</ele><time>2026-03-25T12:44:14Z</time></trkpt><trkpt lat="41.81586394033275" lon="12.484078793821224"><ele>51.0</ele><time>2026-03-25T12:44:16Z</time></trkpt><trkpt lat="41.81602757880032" lon="12.484224206951342"><ele>51.0</ele><time>2026-03-25T12:44:18Z</time></trkpt><trkpt lat="41.81613757284643" lon="12.484174932319164"><ele>51.0</ele><time>2026-03-25T12:44:20Z</time></trkpt><trkpt lat="41.816249121115064" lon="12.48413011020544"><ele>50.8</ele><time>2026-03-25T12:44:21.999Z</time></trkpt><trkpt lat="41.81637448124399" lon="12.484075771960343"><ele>50.599999999999994</ele><time>2026-03-25T12:44:23.999Z</time></trkpt><trkpt lat="41.81644439245757" lon="12.484038273826048"><ele>50.4</ele><time>2026-03-25T12:44:24.999Z</time></trkpt><trkpt lat="41.81650424866512" lon="12.483998646682476"><ele>50.2</ele><time>2026-03-25T12:44:25.999Z</time></trkpt><trkpt lat="41.81660469731915" lon="12.4839238962961"><ele>50.0</ele><time>2026-03-25T12:44:27.999Z</time></trkpt><trkpt lat="41.816711330756334" lon="12.48384724344475"><ele>50.0</ele><time>2026-03-25T12:44:29.999Z</time></trkpt><trkpt lat="41.8168199585066" lon="12.483770853818651"><ele>50.0</ele><time>2026-03-25T12:44:31.999Z</time></trkpt><trkpt lat="41.8169336206493" lon="12.483690923887513"><ele>50.0</ele><time>2026-03-25T12:44:33.999Z</time></trkpt><trkpt lat="41.81703934152082" lon="12.483614355810248"><ele>50.0</ele><time>2026-03-25T12:44:35.999Z</time></trkpt><trkpt lat="41.81712543334963" lon="12.483550054659112"><ele>50.0</ele><time>2026-03-25T12:44:37.999Z</time></trkpt><trkpt lat="41.81722400653844" lon="12.483474289020393"><ele>50.0</ele><time>2026-03-25T12:44:39.999Z</time></trkpt><trkpt lat="41.81730467651144" lon="12.483410602200925"><ele>50.0</ele><time>2026-03-25T12:44:41.999Z</time></trkpt><trkpt lat="41.81738135567772" lon="12.483350066017547"><ele>50.0</ele><time>2026-03-25T12:44:43.999Z</time></trkpt><trkpt lat="41.817480650596146" lon="12.48326829334107"><ele>50.0</ele><time>2026-03-25T12:44:45.999Z</time></trkpt><trkpt lat="41.81758128649093" lon="12.483183540954018"><ele>50.00000000000001</ele><time>2026-03-25T12:44:47.999Z</time></trkpt><trkpt lat="41.81765040256858" lon="12.483124434416744"><ele>50.0</ele><time>2026-03-25T12:44:49.999Z</time></trkpt><trkpt lat="41.817737209883006" lon="12.483048115032823"><ele>50.0</ele><time>2026-03-25T12:44:51.999Z</time></trkpt><trkpt lat="41.81779046263429" lon="12.482998747795275"><ele>50.0</ele><time>2026-03-25T12:44:52.999Z</time></trkpt><trkpt lat="41.817844607073646" lon="12.482948917752061"><ele>50.00000000000001</ele><time>2026-03-25T12:44:53.999Z</time></trkpt><trkpt lat="41.81789818979286" lon="12.482899604530948"><ele>50.0</ele><time>2026-03-25T12:44:54.999Z</time></trkpt><trkpt lat="41.817996438447516" lon="12.482811314254562"><ele>50.75</ele><time>2026-03-25T12:44:56.999Z</time></trkpt><trkpt lat="41.81809546993133" lon="12.48272518687494"><ele>51.5</ele><time>2026-03-25T12:44:58.999Z</time></trkpt><trkpt lat="41.81819478051431" lon="12.482640359739051"><ele>52.25</ele><time>2026-03-25T12:45:00.999Z</time></trkpt><trkpt lat="41.81830102329775" lon="12.482549636614737"><ele>53.0</ele><time>2026-03-25T12:45:02.999Z</time></trkpt><trkpt lat="41.81840505809701" lon="12.48245808598901"><ele>52.5</ele><time>2026-03-25T12:45:04.999Z</time></trkpt><trkpt lat="41.818501937936325" lon="12.482361910515548"><ele>52.0</ele><time>2026-03-25T12:45:06.999Z</time></trkpt><trkpt lat="41.81860502048874" lon="12.482277846916983"><ele>51.5</ele><time>2026-03-25T12:45:08.999Z</time></trkpt><trkpt lat="41.81871143020908" lon="12.482193313937731"><ele>51.0</ele><time>2026-03-25T12:45:10.999Z</time></trkpt><trkpt lat="41.818819022422495" lon="12.482103883278594"><ele>51.75</ele><time>2026-03-25T12:45:12.999Z</time></trkpt><trkpt lat="41.818919137680574" lon="12.48202009047595"><ele>52.5</ele><time>2026-03-25T12:45:14.999Z</time></trkpt><trkpt lat="41.81902396491403" lon="12.481922626550356"><ele>53.25</ele><time>2026-03-25T12:45:16.999Z</time></trkpt><trkpt lat="41.819116945703755" lon="12.481825980157002"><ele>54.0</ele><time>2026-03-25T12:45:18.999Z</time></trkpt><trkpt lat="41.81920524836458" lon="12.481762276375807"><ele>54.0</ele><time>2026-03-25T12:45:20.999Z</time></trkpt><trkpt lat="41.81929601672304" lon="12.481672473629871"><ele>54.00000000000001</ele><time>2026-03-25T12:45:22.999Z</time></trkpt><trkpt lat="41.81934772375968" lon="12.481621284868822"><ele>54.00000000000001</ele><time>2026-03-25T12:45:23.999Z</time></trkpt><trkpt lat="41.81942742687542" lon="12.481539514049604"><ele>54.0</ele><time>2026-03-25T12:45:25.999Z</time></trkpt><trkpt lat="41.81953322453743" lon="12.481460837484972"><ele>54.0</ele><time>2026-03-25T12:45:27.999Z</time></trkpt><trkpt lat="41.81962821308196" lon="12.481400669833281"><ele>53.666666666666664</ele><time>2026-03-25T12:45:29.999Z</time></trkpt><trkpt lat="41.81973160697793" lon="12.481384339367827"><ele>53.33333333333333</ele><time>2026-03-25T12:45:31.999Z</time></trkpt><trkpt lat="41.81984630260568" lon="12.481342018041447"><ele>53.0</ele><time>2026-03-25T12:45:33.998Z</time></trkpt><trkpt lat="41.819907462578485" lon="12.481320906572554"><ele>52.666666666666664</ele><time>2026-03-25T12:45:34.998Z</time></trkpt><trkpt lat="41.81997216796481" lon="12.481300275098508"><ele>52.33333333333333</ele><time>2026-03-25T12:45:35.998Z</time></trkpt><trkpt lat="41.82003748299308" lon="12.481279449334957"><ele>52.0</ele><time>2026-03-25T12:45:36.998Z</time></trkpt><trkpt lat="41.820138076767655" lon="12.481259515634186"><ele>52.0</ele><time>2026-03-25T12:45:39Z</time></trkpt><trkpt lat="41.82024609224803" lon="12.480854319354624"><ele>52.0</ele><time>2026-03-25T12:45:40Z</time></trkpt><trkpt lat="41.82026653361386" lon="12.480683680038737"><ele>52.0</ele><time>2026-03-25T12:45:42Z</time></trkpt><trkpt lat="41.82027845463688" lon="12.480595721565862"><ele>52.0</ele><time>2026-03-25T12:45:43Z</time></trkpt><trkpt lat="41.820323517497116" lon="12.480454063835532"><ele>52.0</ele><time>2026-03-25T12:45:45Z</time></trkpt><trkpt lat="41.82036888732904" lon="12.480301003339349"><ele>52.0</ele><time>2026-03-25T12:45:47Z</time></trkpt><trkpt lat="41.82039388109227" lon="12.480206027188009"><ele>52.0</ele><time>2026-03-25T12:45:52Z</time></trkpt><trkpt lat="41.82042683097693" lon="12.480075628501082"><ele>52.0</ele><time>2026-03-25T12:45:54Z</time></trkpt><trkpt lat="41.820451851354605" lon="12.479983727596244"><ele>51.83333333333333</ele><time>2026-03-25T12:45:56Z</time></trkpt><trkpt lat="41.820481928816186" lon="12.479874570850525"><ele>51.666666666666664</ele><time>2026-03-25T12:45:58Z</time></trkpt><trkpt lat="41.82050370546233" lon="12.479791868519612"><ele>51.5</ele><time>2026-03-25T12:45:59Z</time></trkpt><trkpt lat="41.820524993162806" lon="12.479711023075943"><ele>51.33333333333333</ele><time>2026-03-25T12:46:00Z</time></trkpt><trkpt lat="41.820546167573056" lon="12.479630607897116"><ele>51.166666666666664</ele><time>2026-03-25T12:46:01Z</time></trkpt><trkpt lat="41.82057110794874" lon="12.479541956876378"><ele>51.0</ele><time>2026-03-25T12:46:02Z</time></trkpt><trkpt lat="41.82060834186309" lon="12.479392806653212"><ele>51.0</ele><time>2026-03-25T12:46:04Z</time></trkpt><trkpt lat="41.82064374600125" lon="12.479259613889594"><ele>51.0</ele><time>2026-03-25T12:46:06Z</time></trkpt><trkpt lat="41.82066647624969" lon="12.479174101095325"><ele>51.0</ele><time>2026-03-25T12:46:08Z</time></trkpt><trkpt lat="41.820778996364" lon="12.479095538562133"><ele>51.0</ele><time>2026-03-25T12:46:26Z</time></trkpt><trkpt lat="41.82073226399274" lon="12.478994366126965"><ele>51.0</ele><time>2026-03-25T12:46:27Z</time></trkpt><trkpt lat="41.82076066875174" lon="12.478886863095147"><ele>51.0</ele><time>2026-03-25T12:46:28.999Z</time></trkpt><trkpt lat="41.82094726554226" lon="12.479000137082277"><ele>51.0</ele><time>2026-03-25T12:46:29.999Z</time></trkpt><trkpt lat="41.820931344577765" lon="12.479134997771297"><ele>51.0</ele><time>2026-03-25T12:46:30.999Z</time></trkpt><trkpt lat="41.82100006052159" lon="12.479167230312486"><ele>51.0</ele><time>2026-03-25T12:46:31.999Z</time></trkpt><trkpt lat="41.821062274294285" lon="12.479196137541539"><ele>51.0</ele><time>2026-03-25T12:46:32.999Z</time></trkpt><trkpt lat="41.82112969997497" lon="12.479227351863486"><ele>51.0</ele><time>2026-03-25T12:46:33.999Z</time></trkpt><trkpt lat="41.821199421544655" lon="12.479259629073347"><ele>51.0</ele><time>2026-03-25T12:46:34.999Z</time></trkpt><trkpt lat="41.82126675563702" lon="12.479291612753594"><ele>51.0</ele><time>2026-03-25T12:46:35.999Z</time></trkpt><trkpt lat="41.82133919338855" lon="12.479326267697708"><ele>51.0</ele><time>2026-03-25T12:46:36.999Z</time></trkpt><trkpt lat="41.82140876958232" lon="12.479357729621047"><ele>51.0</ele><time>2026-03-25T12:46:37.999Z</time></trkpt><trkpt lat="41.821488393322035" lon="12.479390801450013"><ele>51.0</ele><time>2026-03-25T12:46:38.999Z</time></trkpt><trkpt lat="41.821562132596355" lon="12.479418375158273"><ele>51.0</ele><time>2026-03-25T12:46:39.999Z</time></trkpt><trkpt lat="41.82163524459658" lon="12.47944295071722"><ele>51.0</ele><time>2026-03-25T12:46:40.999Z</time></trkpt><trkpt lat="41.82169809944409" lon="12.479463381625047"><ele>51.0</ele><time>2026-03-25T12:46:41.999Z</time></trkpt><trkpt lat="41.82179429080622" lon="12.479494648288066"><ele>51.0</ele><time>2026-03-25T12:46:43.999Z</time></trkpt><trkpt lat="41.82186433868762" lon="12.479509481543"><ele>51.0</ele><time>2026-03-25T12:46:44.999Z</time></trkpt><trkpt lat="41.821935317882726" lon="12.47952276865137"><ele>51.0</ele><time>2026-03-25T12:46:45.999Z</time></trkpt><trkpt lat="41.82200412953938" lon="12.479535498129907"><ele>50.0</ele><time>2026-03-25T12:46:46.999Z</time></trkpt><trkpt lat="41.822068834950905" lon="12.479545979875976"><ele>49.0</ele><time>2026-03-25T12:46:47.999Z</time></trkpt><trkpt lat="41.82213463878591" lon="12.479556135155455"><ele>48.0</ele><time>2026-03-25T12:46:48.999Z</time></trkpt><trkpt lat="41.822207970093025" lon="12.47956745198535"><ele>47.0</ele><time>2026-03-25T12:46:49.999Z</time></trkpt><trkpt lat="41.822273913440974" lon="12.479572650693738"><ele>46.0</ele><time>2026-03-25T12:46:50.999Z</time></trkpt><trkpt lat="41.82234401168705" lon="12.479581103578361"><ele>45.0</ele><time>2026-03-25T12:46:51.999Z</time></trkpt><trkpt lat="41.822416196169236" lon="12.47963652572251"><ele>44.0</ele><time>2026-03-25T12:46:53.999Z</time></trkpt><trkpt lat="41.822659376235094" lon="12.479599076740792"><ele>42.666666666666664</ele><time>2026-03-25T12:46:55.999Z</time></trkpt><trkpt lat="41.82272042342612" lon="12.47957589664345"><ele>41.33333333333333</ele><time>2026-03-25T12:46:56.999Z</time></trkpt><trkpt lat="41.822790209383776" lon="12.479556167572467"><ele>40.0</ele><time>2026-03-25T12:46:57.999Z</time></trkpt><trkpt lat="41.82291144806679" lon="12.47952686463076"><ele>38.666666666666664</ele><time>2026-03-25T12:46:59.999Z</time></trkpt><trkpt lat="41.82297599219732" lon="12.47951759638385"><ele>37.333333333333336</ele><time>2026-03-25T12:47:00.999Z</time></trkpt><trkpt lat="41.82306534053655" lon="12.479503183900087"><ele>36.0</ele><time>2026-03-25T12:47:02.999Z</time></trkpt><trkpt lat="41.82315871099489" lon="12.479486310406589"><ele>36.0</ele><time>2026-03-25T12:47:04.999Z</time></trkpt><trkpt lat="41.823274781591515" lon="12.479463422696663"><ele>36.0</ele><time>2026-03-25T12:47:06.999Z</time></trkpt><trkpt lat="41.823392652626445" lon="12.479440179981658"><ele>36.0</ele><time>2026-03-25T12:47:08.999Z</time></trkpt><trkpt lat="41.82350805290282" lon="12.479416931194658"><ele>36.0</ele><time>2026-03-25T12:47:10.999Z</time></trkpt><trkpt lat="41.823621394556525" lon="12.479393929633815"><ele>35.5</ele><time>2026-03-25T12:47:12.999Z</time></trkpt><trkpt lat="41.82370196316088" lon="12.479378048432883"><ele>35.0</ele><time>2026-03-25T12:47:14.999Z</time></trkpt><trkpt lat="41.82379413303823" lon="12.479360758802612"><ele>34.5</ele><time>2026-03-25T12:47:16.999Z</time></trkpt><trkpt lat="41.82390169948512" lon="12.479341602909177"><ele>34.0</ele><time>2026-03-25T12:47:18.999Z</time></trkpt><trkpt lat="41.82396467350858" lon="12.479330107249817"><ele>33.5</ele><time>2026-03-25T12:47:19.999Z</time></trkpt><trkpt lat="41.82403369603399" lon="12.479317507614327"><ele>33.0</ele><time>2026-03-25T12:47:20.999Z</time></trkpt><trkpt lat="41.82410363720313" lon="12.479304173066925"><ele>33.0</ele><time>2026-03-25T12:47:21.999Z</time></trkpt><trkpt lat="41.82417021698678" lon="12.479291638318946"><ele>33.0</ele><time>2026-03-25T12:47:22.999Z</time></trkpt><trkpt lat="41.824241056833245" lon="12.479278301541497"><ele>33.0</ele><time>2026-03-25T12:47:23.999Z</time></trkpt><trkpt lat="41.824304539039936" lon="12.479266349947471"><ele>33.0</ele><time>2026-03-25T12:47:24.999Z</time></trkpt><trkpt lat="41.82437022548118" lon="12.479253983391118"><ele>33.0</ele><time>2026-03-25T12:47:25.999Z</time></trkpt><trkpt lat="41.824441536094" lon="12.479240557978295"><ele>33.0</ele><time>2026-03-25T12:47:26.999Z</time></trkpt><trkpt lat="41.82450920753354" lon="12.479227817716067"><ele>33.0</ele><time>2026-03-25T12:47:27.999Z</time></trkpt><trkpt lat="41.82457850234828" lon="12.47921477180075"><ele>32.666666666666664</ele><time>2026-03-25T12:47:28.999Z</time></trkpt><trkpt lat="41.82471094783241" lon="12.479189836883268"><ele>32.333333333333336</ele><time>2026-03-25T12:47:30.999Z</time></trkpt><trkpt lat="41.824817746945136" lon="12.47916819871173"><ele>32.0</ele><time>2026-03-25T12:47:32.999Z</time></trkpt><trkpt lat="41.82488279737189" lon="12.479153554724512"><ele>31.666666666666668</ele><time>2026-03-25T12:47:35.999Z</time></trkpt><trkpt lat="41.82494489372647" lon="12.479139274960177"><ele>31.333333333333336</ele><time>2026-03-25T12:47:37.999Z</time></trkpt><trkpt lat="41.825009792586144" lon="12.479124359265112"><ele>31.0</ele><time>2026-03-25T12:47:39.998Z</time></trkpt><trkpt lat="41.82509687361434" lon="12.479105130703593"><ele>30.000000000000004</ele><time>2026-03-25T12:47:45Z</time></trkpt><trkpt lat="41.82517734523122" lon="12.479088710930801"><ele>29.0</ele><time>2026-03-25T12:47:47Z</time></trkpt><trkpt lat="41.825243972091364" lon="12.479074957271338"><ele>28.0</ele><time>2026-03-25T12:47:49Z</time></trkpt><trkpt lat="41.825307144857085" lon="12.47906191663077"><ele>27.0</ele><time>2026-03-25T12:47:51Z</time></trkpt><trkpt lat="41.825389135635604" lon="12.47904552206036"><ele>26.000000000000004</ele><time>2026-03-25T12:47:53Z</time></trkpt><trkpt lat="41.82550143669321" lon="12.479026510742786"><ele>25.0</ele><time>2026-03-25T12:47:55Z</time></trkpt><trkpt lat="41.82562450179548" lon="12.47900763667595"><ele>25.000000000000004</ele><time>2026-03-25T12:47:57Z</time></trkpt><trkpt lat="41.82568898317786" lon="12.478998129600289"><ele>25.0</ele><time>2026-03-25T12:47:58Z</time></trkpt><trkpt lat="41.825753172931385" lon="12.478988665569855"><ele>25.0</ele><time>2026-03-25T12:47:59Z</time></trkpt><trkpt lat="41.82586828530908" lon="12.478971894016805"><ele>25.0</ele><time>2026-03-25T12:48:01Z</time></trkpt><trkpt lat="41.82593152904422" lon="12.478962671570883"><ele>25.000000000000004</ele><time>2026-03-25T12:48:02Z</time></trkpt><trkpt lat="41.82603043619449" lon="12.47894656303282"><ele>25.0</ele><time>2026-03-25T12:48:04Z</time></trkpt><trkpt lat="41.826095503797326" lon="12.478935607781958"><ele>25.4</ele><time>2026-03-25T12:48:06Z</time></trkpt><trkpt lat="41.8261894773243" lon="12.4789197856975"><ele>25.8</ele><time>2026-03-25T12:48:08Z</time></trkpt><trkpt lat="41.82625922516742" lon="12.478907131526288"><ele>26.200000000000003</ele><time>2026-03-25T12:48:10Z</time></trkpt><trkpt lat="41.82632686836766" lon="12.47889449795211"><ele>26.6</ele><time>2026-03-25T12:48:12Z</time></trkpt><trkpt lat="41.82642933941011" lon="12.478875359638382"><ele>27.0</ele><time>2026-03-25T12:48:14Z</time></trkpt><trkpt lat="41.82654328942573" lon="12.478854077504725"><ele>27.0</ele><time>2026-03-25T12:48:16Z</time></trkpt><trkpt lat="41.82660864423315" lon="12.478841871600634"><ele>27.000000000000004</ele><time>2026-03-25T12:48:17Z</time></trkpt><trkpt lat="41.826715973411524" lon="12.4788187615953"><ele>27.000000000000004</ele><time>2026-03-25T12:48:19Z</time></trkpt><trkpt lat="41.82682287889168" lon="12.478799191242954"><ele>27.0</ele><time>2026-03-25T12:48:21Z</time></trkpt><trkpt lat="41.82692685506201" lon="12.478782721440359"><ele>27.0</ele><time>2026-03-25T12:48:23Z</time></trkpt><trkpt lat="41.827020410029135" lon="12.478769323636852"><ele>27.6</ele><time>2026-03-25T12:48:25Z</time></trkpt><trkpt lat="41.82711742344704" lon="12.47875808567703"><ele>28.200000000000003</ele><time>2026-03-25T12:48:27Z</time></trkpt><trkpt lat="41.82724931802088" lon="12.478749782777193"><ele>28.8</ele><time>2026-03-25T12:48:33Z</time></trkpt><trkpt lat="41.82732773340054" lon="12.478755465980838"><ele>29.4</ele><time>2026-03-25T12:48:34.999Z</time></trkpt><trkpt lat="41.827434042617796" lon="12.478773741101447"><ele>30.0</ele><time>2026-03-25T12:48:36.999Z</time></trkpt><trkpt lat="41.82753148188394" lon="12.478796806178913"><ele>30.0</ele><time>2026-03-25T12:48:38.999Z</time></trkpt><trkpt lat="41.8276083644073" lon="12.478818123886008"><ele>30.0</ele><time>2026-03-25T12:48:40.999Z</time></trkpt><trkpt lat="41.82772091438899" lon="12.478856533124114"><ele>30.0</ele><time>2026-03-25T12:48:42.999Z</time></trkpt><trkpt lat="41.827822095750825" lon="12.478894786771129"><ele>30.0</ele><time>2026-03-25T12:48:44.999Z</time></trkpt><trkpt lat="41.827912837351846" lon="12.478932149165777"><ele>30.0</ele><time>2026-03-25T12:48:46.999Z</time></trkpt><trkpt lat="41.82800840707951" lon="12.478981718792172"><ele>30.8</ele><time>2026-03-25T12:48:48.999Z</time></trkpt><trkpt lat="41.828082308296516" lon="12.479022266985133"><ele>31.6</ele><time>2026-03-25T12:48:51.999Z</time></trkpt><trkpt lat="41.82817766743464" lon="12.479080682335695"><ele>32.4</ele><time>2026-03-25T12:48:53.999Z</time></trkpt><trkpt lat="41.828280262381746" lon="12.479158294596559"><ele>33.2</ele><time>2026-03-25T12:48:55.999Z</time></trkpt><trkpt lat="41.82837591473638" lon="12.479236867188563"><ele>34.0</ele><time>2026-03-25T12:48:57.999Z</time></trkpt><trkpt lat="41.82846883779234" lon="12.47932025972791"><ele>35.0</ele><time>2026-03-25T12:48:59.999Z</time></trkpt><trkpt lat="41.828559650735606" lon="12.479406639305859"><ele>36.0</ele><time>2026-03-25T12:49:01.999Z</time></trkpt><trkpt lat="41.82865344220716" lon="12.47949834754948"><ele>37.0</ele><time>2026-03-25T12:49:03.999Z</time></trkpt><trkpt lat="41.828737910199436" lon="12.479584720781988"><ele>38.0</ele><time>2026-03-25T12:49:05.999Z</time></trkpt><trkpt lat="41.82882975891108" lon="12.479680683760044"><ele>38.0</ele><time>2026-03-25T12:49:07.999Z</time></trkpt><trkpt lat="41.828912867903725" lon="12.47976751553827"><ele>38.0</ele><time>2026-03-25T12:49:09.999Z</time></trkpt><trkpt lat="41.829001245961926" lon="12.479855982162368"><ele>38.0</ele><time>2026-03-25T12:49:11.999Z</time></trkpt><trkpt lat="41.829082259683524" lon="12.479934637994846"><ele>38.0</ele><time>2026-03-25T12:49:13.999Z</time></trkpt><trkpt lat="41.829176022544935" lon="12.480018237384533"><ele>38.0</ele><time>2026-03-25T12:49:15.999Z</time></trkpt><trkpt lat="41.829270542920895" lon="12.480093491972184"><ele>39.25</ele><time>2026-03-25T12:49:17.999Z</time></trkpt><trkpt lat="41.82937553388003" lon="12.480165539064457"><ele>40.5</ele><time>2026-03-25T12:49:19.999Z</time></trkpt><trkpt lat="41.82947265942092" lon="12.480226250801126"><ele>41.75</ele><time>2026-03-25T12:49:21.999Z</time></trkpt><trkpt lat="41.82957401699912" lon="12.480283005780189"><ele>43.0</ele><time>2026-03-25T12:49:23.999Z</time></trkpt><trkpt lat="41.82968288018135" lon="12.48034143522055"><ele>43.0</ele><time>2026-03-25T12:49:25.999Z</time></trkpt><trkpt lat="41.82975147574342" lon="12.480371118215658"><ele>43.0</ele><time>2026-03-25T12:49:26.999Z</time></trkpt><trkpt lat="41.82986005033069" lon="12.480406470595778"><ele>43.0</ele><time>2026-03-25T12:49:28.999Z</time></trkpt><trkpt lat="41.82997729535256" lon="12.480438118764555"><ele>43.0</ele><time>2026-03-25T12:49:30.999Z</time></trkpt><trkpt lat="41.83004368181395" lon="12.480452754776794"><ele>43.0</ele><time>2026-03-25T12:49:31.999Z</time></trkpt><trkpt lat="41.8301500345476" lon="12.480472320857489"><ele>43.599999999999994</ele><time>2026-03-25T12:49:33.999Z</time></trkpt><trkpt lat="41.83025751448415" lon="12.480491176993521"><ele>44.199999999999996</ele><time>2026-03-25T12:49:35.999Z</time></trkpt><trkpt lat="41.83033960433579" lon="12.480503007402847"><ele>44.8</ele><time>2026-03-25T12:49:37.999Z</time></trkpt><trkpt lat="41.83043053060729" lon="12.48051503244422"><ele>45.4</ele><time>2026-03-25T12:49:40.999Z</time></trkpt><trkpt lat="41.8305133051684" lon="12.480525979429174"><ele>46.0</ele><time>2026-03-25T12:49:42.999Z</time></trkpt><trkpt lat="41.83062757135558" lon="12.480541091220447"><ele>46.0</ele><time>2026-03-25T12:49:44.999Z</time></trkpt><trkpt lat="41.83075370166976" lon="12.480557705635793"><ele>46.0</ele><time>2026-03-25T12:49:46.998Z</time></trkpt><trkpt lat="41.83081672290674" lon="12.48056599880063"><ele>46.0</ele><time>2026-03-25T12:49:47.998Z</time></trkpt><trkpt lat="41.83093017929374" lon="12.480581273951724"><ele>46.0</ele><time>2026-03-25T12:49:50Z</time></trkpt><trkpt lat="41.83104942249394" lon="12.480598525912683"><ele>46.0</ele><time>2026-03-25T12:49:52Z</time></trkpt><trkpt lat="41.83111265599289" lon="12.480607674446423"><ele>45.25</ele><time>2026-03-25T12:49:53Z</time></trkpt><trkpt lat="41.83123323603509" lon="12.480624376636413"><ele>44.5</ele><time>2026-03-25T12:49:55Z</time></trkpt><trkpt lat="41.83135398929541" lon="12.480640979090884"><ele>43.75</ele><time>2026-03-25T12:49:57Z</time></trkpt><trkpt lat="41.83146957366855" lon="12.480656870876874"><ele>43.0</ele><time>2026-03-25T12:49:59Z</time></trkpt><trkpt lat="41.8315810757514" lon="12.480672201378523"><ele>43.0</ele><time>2026-03-25T12:50:01Z</time></trkpt><trkpt lat="41.831645534586016" lon="12.480681063859862"><ele>43.0</ele><time>2026-03-25T12:50:02Z</time></trkpt><trkpt lat="41.831748774143755" lon="12.480695258351588"><ele>43.0</ele><time>2026-03-25T12:50:04Z</time></trkpt><trkpt lat="41.83185344597163" lon="12.48070944390099"><ele>43.0</ele><time>2026-03-25T12:50:06Z</time></trkpt><trkpt lat="41.83193046683999" lon="12.48071971849839"><ele>43.0</ele><time>2026-03-25T12:50:08Z</time></trkpt><trkpt lat="41.8320178440336" lon="12.48073137453341"><ele>43.0</ele><time>2026-03-25T12:50:10Z</time></trkpt><trkpt lat="41.83212603789428" lon="12.480745573455405"><ele>42.833333333333336</ele><time>2026-03-25T12:50:12Z</time></trkpt><trkpt lat="41.832212099060754" lon="12.48075693665142"><ele>42.66666666666667</ele><time>2026-03-25T12:50:14Z</time></trkpt><trkpt lat="41.83228531569362" lon="12.480766805105992"><ele>42.5</ele><time>2026-03-25T12:50:16Z</time></trkpt><trkpt lat="41.832358921424294" lon="12.480776726008363"><ele>42.333333333333336</ele><time>2026-03-25T12:50:19Z</time></trkpt><trkpt lat="41.832423028621186" lon="12.480785366660259"><ele>42.166666666666664</ele><time>2026-03-25T12:50:22Z</time></trkpt><trkpt lat="41.832509490128864" lon="12.480797947460932"><ele>42.0</ele><time>2026-03-25T12:50:24Z</time></trkpt><trkpt lat="41.8325933207037" lon="12.480809778611192"><ele>42.166666666666664</ele><time>2026-03-25T12:50:26Z</time></trkpt><trkpt lat="41.83265912750418" lon="12.480818824669342"><ele>42.333333333333336</ele><time>2026-03-25T12:50:28Z</time></trkpt><trkpt lat="41.832738669766655" lon="12.480830331909146"><ele>42.5</ele><time>2026-03-25T12:50:30Z</time></trkpt><trkpt lat="41.83287290776852" lon="12.480849642308238"><ele>42.66666666666667</ele><time>2026-03-25T12:50:32Z</time></trkpt><trkpt lat="41.83293946869905" lon="12.48085896894856"><ele>42.833333333333336</ele><time>2026-03-25T12:50:33Z</time></trkpt><trkpt lat="41.83301005183763" lon="12.480868859167241"><ele>43.0</ele><time>2026-03-25T12:50:34Z</time></trkpt><trkpt lat="41.83308018597321" lon="12.480878686511918"><ele>43.0</ele><time>2026-03-25T12:50:35Z</time></trkpt><trkpt lat="41.83314528563173" lon="12.480885884592329"><ele>43.0</ele><time>2026-03-25T12:50:36Z</time></trkpt><trkpt lat="41.833231838894335" lon="12.480895538629335"><ele>43.0</ele><time>2026-03-25T12:50:38Z</time></trkpt><trkpt lat="41.83332879127427" lon="12.48090628549381"><ele>43.0</ele><time>2026-03-25T12:50:40Z</time></trkpt><trkpt lat="41.83345009589996" lon="12.480917155359595"><ele>43.0</ele><time>2026-03-25T12:50:41.999Z</time></trkpt><trkpt lat="41.83351939587004" lon="12.480922290677855"><ele>43.0</ele><time>2026-03-25T12:50:42.999Z</time></trkpt><trkpt lat="41.83359936149113" lon="12.480926580263942"><ele>43.5</ele><time>2026-03-25T12:50:44.999Z</time></trkpt><trkpt lat="41.833708896861715" lon="12.480933824692833"><ele>44.0</ele><time>2026-03-25T12:50:46.999Z</time></trkpt><trkpt lat="41.83379307365845" lon="12.480933555123514"><ele>44.5</ele><time>2026-03-25T12:50:47.999Z</time></trkpt><trkpt lat="41.833860918992684" lon="12.480934387472372"><ele>45.0</ele><time>2026-03-25T12:50:48.999Z</time></trkpt><trkpt lat="41.8339343862665" lon="12.480934186904536"><ele>45.5</ele><time>2026-03-25T12:50:49.999Z</time></trkpt><trkpt lat="41.83400161112253" lon="12.480932833517224"><ele>46.0</ele><time>2026-03-25T12:50:50.999Z</time></trkpt><trkpt lat="41.834074756395125" lon="12.480931360938838"><ele>46.0</ele><time>2026-03-25T12:50:51.999Z</time></trkpt><trkpt lat="41.834138189846584" lon="12.480930083886198"><ele>46.0</ele><time>2026-03-25T12:50:52.999Z</time></trkpt><trkpt lat="41.834211857988635" lon="12.480928600774792"><ele>46.0</ele><time>2026-03-25T12:50:53.999Z</time></trkpt><trkpt lat="41.83428139573662" lon="12.480927084343516"><ele>46.0</ele><time>2026-03-25T12:50:54.999Z</time></trkpt><trkpt lat="41.83435175463234" lon="12.480925335212138"><ele>46.0</ele><time>2026-03-25T12:50:55.999Z</time></trkpt><trkpt lat="41.834426444042705" lon="12.48092347841819"><ele>46.0</ele><time>2026-03-25T12:50:56.999Z</time></trkpt><trkpt lat="41.83449590682113" lon="12.480921751557213"><ele>46.0</ele><time>2026-03-25T12:50:57.999Z</time></trkpt><trkpt lat="41.83460770749651" lon="12.480918972186371"><ele>44.833333333333336</ele><time>2026-03-25T12:50:59.999Z</time></trkpt><trkpt lat="41.83467104872718" lon="12.480917171477254"><ele>43.66666666666667</ele><time>2026-03-25T12:51:00.999Z</time></trkpt><trkpt lat="41.83479592822273" lon="12.48091377070307"><ele>42.5</ele><time>2026-03-25T12:51:02.999Z</time></trkpt><trkpt lat="41.83486308964863" lon="12.480911966005284"><ele>41.333333333333336</ele><time>2026-03-25T12:51:03.999Z</time></trkpt><trkpt lat="41.83493396466853" lon="12.480910061522552"><ele>40.166666666666664</ele><time>2026-03-25T12:51:04.999Z</time></trkpt><trkpt lat="41.834998924037365" lon="12.480908315997752"><ele>39.0</ele><time>2026-03-25T12:51:05.999Z</time></trkpt><trkpt lat="41.83506567682386" lon="12.480906522288402"><ele>39.0</ele><time>2026-03-25T12:51:06.999Z</time></trkpt><trkpt lat="41.83512960732289" lon="12.4809048044118"><ele>39.0</ele><time>2026-03-25T12:51:07.999Z</time></trkpt><trkpt lat="41.83519579810362" lon="12.480903025793863"><ele>39.0</ele><time>2026-03-25T12:51:08.999Z</time></trkpt><trkpt lat="41.835329428708114" lon="12.480899435002367"><ele>39.0</ele><time>2026-03-25T12:51:10.999Z</time></trkpt><trkpt lat="41.83539291640446" lon="12.48089772902882"><ele>39.0</ele><time>2026-03-25T12:51:11.999Z</time></trkpt><trkpt lat="41.83545808050054" lon="12.480895978002662"><ele>39.0</ele><time>2026-03-25T12:51:12.999Z</time></trkpt><trkpt lat="41.83552905935991" lon="12.480894070733747"><ele>37.5</ele><time>2026-03-25T12:51:13.999Z</time></trkpt><trkpt lat="41.83559773697101" lon="12.480892225295333"><ele>36.0</ele><time>2026-03-25T12:51:14.999Z</time></trkpt><trkpt lat="41.83566388150833" lon="12.480890975743145"><ele>34.5</ele><time>2026-03-25T12:51:15.999Z</time></trkpt><trkpt lat="41.83572993531719" lon="12.48089009632349"><ele>33.0</ele><time>2026-03-25T12:51:16.999Z</time></trkpt><trkpt lat="41.83579776076588" lon="12.480889193318268"><ele>31.5</ele><time>2026-03-25T12:51:17.999Z</time></trkpt><trkpt lat="41.835908434692286" lon="12.48088930253707"><ele>30.0</ele><time>2026-03-25T12:51:19.999Z</time></trkpt><trkpt lat="41.83601964369262" lon="12.480890020339805"><ele>29.666666666666668</ele><time>2026-03-25T12:51:21.999Z</time></trkpt><trkpt lat="41.83608941898839" lon="12.480891519139513"><ele>29.333333333333336</ele><time>2026-03-25T12:51:23.999Z</time></trkpt><trkpt lat="41.83615607839527" lon="12.480893562486358"><ele>29.0</ele><time>2026-03-25T12:51:25.999Z</time></trkpt><trkpt lat="41.83624200859027" lon="12.480896404922184"><ele>28.666666666666668</ele><time>2026-03-25T12:51:31.999Z</time></trkpt><trkpt lat="41.836340435360015" lon="12.480900338091448"><ele>28.333333333333336</ele><time>2026-03-25T12:51:33.999Z</time></trkpt><trkpt lat="41.83644691037413" lon="12.480904592866851"><ele>28.0</ele><time>2026-03-25T12:51:35.999Z</time></trkpt><trkpt lat="41.8365275659797" lon="12.480907390478384"><ele>28.0</ele><time>2026-03-25T12:51:36.999Z</time></trkpt><trkpt lat="41.836596161956955" lon="12.480905459207547"><ele>28.0</ele><time>2026-03-25T12:51:37.999Z</time></trkpt><trkpt lat="41.83666635002639" lon="12.480901625726657"><ele>28.0</ele><time>2026-03-25T12:51:38.999Z</time></trkpt><trkpt lat="41.836735163012186" lon="12.480897186305931"><ele>28.0</ele><time>2026-03-25T12:51:39.999Z</time></trkpt><trkpt lat="41.836805361288114" lon="12.48088733470801"><ele>28.0</ele><time>2026-03-25T12:51:40.999Z</time></trkpt><trkpt lat="41.83687712120842" lon="12.480875533027222"><ele>28.0</ele><time>2026-03-25T12:51:41.999Z</time></trkpt><trkpt lat="41.836947164178454" lon="12.48086140933112"><ele>28.0</ele><time>2026-03-25T12:51:42.999Z</time></trkpt><trkpt lat="41.8370143366656" lon="12.480847868953758"><ele>27.2</ele><time>2026-03-25T12:51:43.999Z</time></trkpt><trkpt lat="41.837103828585526" lon="12.480829308623889"><ele>26.4</ele><time>2026-03-25T12:51:46.999Z</time></trkpt><trkpt lat="41.837186637543" lon="12.480812246454686"><ele>25.599999999999998</ele><time>2026-03-25T12:51:48.999Z</time></trkpt><trkpt lat="41.837280665131004" lon="12.480794002789448"><ele>24.799999999999997</ele><time>2026-03-25T12:51:50.998Z</time></trkpt><trkpt lat="41.83735629611149" lon="12.480769078574136"><ele>24.0</ele><time>2026-03-25T12:51:52.998Z</time></trkpt><trkpt lat="41.83731264154754" lon="12.480331113604853"><ele>24.0</ele><time>2026-03-25T12:51:53.998Z</time></trkpt><trkpt lat="41.83724392885316" lon="12.480414009231788"><ele>24.0</ele><time>2026-03-25T12:51:57Z</time></trkpt><trkpt lat="41.83721275446096" lon="12.480511107400535"><ele>24.0</ele><time>2026-03-25T12:51:59Z</time></trkpt><trkpt lat="41.83713954709704" lon="12.480584151336933"><ele>24.0</ele><time>2026-03-25T12:52:01Z</time></trkpt><trkpt lat="41.83705999976312" lon="12.480570218623587"><ele>24.0</ele><time>2026-03-25T12:52:03Z</time></trkpt><trkpt lat="41.837039840065316" lon="12.480443330610127"><ele>24.0</ele><time>2026-03-25T12:52:05Z</time></trkpt><trkpt lat="41.83707965771424" lon="12.480344659723324"><ele>24.0</ele><time>2026-03-25T12:52:07Z</time></trkpt><trkpt lat="41.837118530531214" lon="12.480270470713219"><ele>24.0</ele><time>2026-03-25T12:52:09Z</time></trkpt><trkpt lat="41.83716363545091" lon="12.480203736482594"><ele>24.0</ele><time>2026-03-25T12:52:11Z</time></trkpt><trkpt lat="41.83724642929256" lon="12.480257341399835"><ele>24.0</ele><time>2026-03-25T12:52:13Z</time></trkpt><trkpt lat="41.837320366715105" lon="12.480303208247744"><ele>24.0</ele><time>2026-03-25T12:52:15Z</time></trkpt><trkpt lat="41.83738511624282" lon="12.480342652466952"><ele>24.0</ele><time>2026-03-25T12:52:20Z</time></trkpt><trkpt lat="41.83730983025988" lon="12.480297089479292"><ele>24.0</ele><time>2026-03-25T12:52:26Z</time></trkpt><trkpt lat="41.83724427131905" lon="12.48025993277042"><ele>24.0</ele><time>2026-03-25T12:52:27Z</time></trkpt><trkpt lat="41.83717887501856" lon="12.480097944073233"><ele>24.0</ele><time>2026-03-25T12:52:29Z</time></trkpt><trkpt lat="41.8370784562329" lon="12.480304269098724"><ele>24.0</ele><time>2026-03-25T12:52:31Z</time></trkpt><trkpt lat="41.8370403284118" lon="12.480464684990404"><ele>24.0</ele><time>2026-03-25T12:52:33Z</time></trkpt><trkpt lat="41.83708279454951" lon="12.480610063250339"><ele>24.0</ele><time>2026-03-25T12:52:35Z</time></trkpt><trkpt lat="41.837158380174756" lon="12.480611132599153"><ele>24.0</ele><time>2026-03-25T12:52:36Z</time></trkpt><trkpt lat="41.83721188518518" lon="12.480543230494957"><ele>24.0</ele><time>2026-03-25T12:52:37Z</time></trkpt><trkpt lat="41.83724840926708" lon="12.480462565195038"><ele>24.0</ele><time>2026-03-25T12:52:38Z</time></trkpt><trkpt lat="41.83727639299402" lon="12.480385114723436"><ele>24.0</ele><time>2026-03-25T12:52:39Z</time></trkpt><trkpt lat="41.83731261177115" lon="12.480314695682843"><ele>24.0</ele><time>2026-03-25T12:52:40Z</time></trkpt><trkpt lat="41.837349738157194" lon="12.480242774255029"><ele>24.0</ele><time>2026-03-25T12:52:41Z</time></trkpt><trkpt lat="41.83738312982341" lon="12.480080781513951"><ele>24.0</ele><time>2026-03-25T12:52:43Z</time></trkpt><trkpt lat="41.83743063352252" lon="12.47995016826591"><ele>24.0</ele><time>2026-03-25T12:52:45Z</time></trkpt><trkpt lat="41.83745986497023" lon="12.479816279236413"><ele>24.0</ele><time>2026-03-25T12:52:46.999Z</time></trkpt><trkpt lat="41.837505781916704" lon="12.479672082043075"><ele>24.666666666666668</ele><time>2026-03-25T12:52:48.999Z</time></trkpt><trkpt lat="41.83753282927197" lon="12.47959377459011"><ele>25.333333333333336</ele><time>2026-03-25T12:52:49.999Z</time></trkpt><trkpt lat="41.83755768927098" lon="12.479515592637688"><ele>26.0</ele><time>2026-03-25T12:52:50.999Z</time></trkpt><trkpt lat="41.837583611128906" lon="12.479436128094711"><ele>26.666666666666668</ele><time>2026-03-25T12:52:51.999Z</time></trkpt><trkpt lat="41.83762461836625" lon="12.479278784898641"><ele>27.333333333333336</ele><time>2026-03-25T12:52:53.999Z</time></trkpt><trkpt lat="41.83767618325797" lon="12.479132942844497"><ele>28.0</ele><time>2026-03-25T12:52:55.999Z</time></trkpt><trkpt lat="41.837718865671064" lon="12.478980739263866"><ele>26.2</ele><time>2026-03-25T12:52:57.999Z</time></trkpt><trkpt lat="41.83776628533414" lon="12.478831509954176"><ele>24.4</ele><time>2026-03-25T12:52:59.999Z</time></trkpt><trkpt lat="41.83779149662321" lon="12.47875271485517"><ele>22.599999999999998</ele><time>2026-03-25T12:53:00.999Z</time></trkpt><trkpt lat="41.8378310774338" lon="12.478616089246973"><ele>20.799999999999997</ele><time>2026-03-25T12:53:02.999Z</time></trkpt><trkpt lat="41.83790096281217" lon="12.47858096432008"><ele>19.0</ele><time>2026-03-25T12:53:03.999Z</time></trkpt><trkpt lat="41.8379349158347" lon="12.478463672084253"><ele>18.833333333333332</ele><time>2026-03-25T12:53:05.999Z</time></trkpt><trkpt lat="41.83796321606734" lon="12.47836590770559"><ele>18.666666666666664</ele><time>2026-03-25T12:53:07.999Z</time></trkpt><trkpt lat="41.83798772546841" lon="12.478281238799969"><ele>18.5</ele><time>2026-03-25T12:53:09.999Z</time></trkpt><trkpt lat="41.8380154460992" lon="12.478185048535897"><ele>18.333333333333332</ele><time>2026-03-25T12:53:12.999Z</time></trkpt><trkpt lat="41.83803482394048" lon="12.478272706141862"><ele>18.166666666666668</ele><time>2026-03-25T12:53:25.999Z</time></trkpt><trkpt lat="41.83801659501414" lon="12.478354727426785"><ele>18.0</ele><time>2026-03-25T12:53:26.999Z</time></trkpt><trkpt lat="41.8376901947213" lon="12.478361788757448"><ele>18.0</ele><time>2026-03-25T12:53:28.999Z</time></trkpt><trkpt lat="41.83796467393021" lon="12.47860349108566"><ele>18.0</ele><time>2026-03-25T12:53:29.999Z</time></trkpt><trkpt lat="41.83794768045367" lon="12.47868932767698"><ele>18.0</ele><time>2026-03-25T12:53:30.999Z</time></trkpt><trkpt lat="41.8379172572803" lon="12.47884105642569"><ele>18.2</ele><time>2026-03-25T12:53:32.999Z</time></trkpt><trkpt lat="41.83789397186451" lon="12.479003734976951"><ele>18.4</ele><time>2026-03-25T12:53:34.999Z</time></trkpt><trkpt lat="41.83789217038007" lon="12.479089490536454"><ele>18.599999999999998</ele><time>2026-03-25T12:53:35.999Z</time></trkpt><trkpt lat="41.837737940226496" lon="12.479142572036555"><ele>18.8</ele><time>2026-03-25T12:53:36.999Z</time></trkpt><trkpt lat="41.83772936174679" lon="12.479228000206888"><ele>19.0</ele><time>2026-03-25T12:53:37.999Z</time></trkpt><trkpt lat="41.83772367311653" lon="12.479323584623195"><ele>19.0</ele><time>2026-03-25T12:53:38.999Z</time></trkpt><trkpt lat="41.837723264270025" lon="12.479422959535746"><ele>19.0</ele><time>2026-03-25T12:53:39.999Z</time></trkpt><trkpt lat="41.83772867859522" lon="12.4795159702547"><ele>19.0</ele><time>2026-03-25T12:53:40.999Z</time></trkpt><trkpt lat="41.837737510968836" lon="12.479609341847995"><ele>19.0</ele><time>2026-03-25T12:53:41.999Z</time></trkpt><trkpt lat="41.83775097567704" lon="12.479704578953275"><ele>19.0</ele><time>2026-03-25T12:53:42.999Z</time></trkpt><trkpt lat="41.83776472502537" lon="12.479789078531157"><ele>19.0</ele><time>2026-03-25T12:53:43.999Z</time></trkpt><trkpt lat="41.837790653848565" lon="12.479943298586871"><ele>19.2</ele><time>2026-03-25T12:53:45.999Z</time></trkpt><trkpt lat="41.8378156413075" lon="12.480092665361372"><ele>19.4</ele><time>2026-03-25T12:53:47.999Z</time></trkpt><trkpt lat="41.837837207407055" lon="12.480222872133421"><ele>19.6</ele><time>2026-03-25T12:53:49.999Z</time></trkpt><trkpt lat="41.83787323271804" lon="12.480321906586086"><ele>19.8</ele><time>2026-03-25T12:53:51.999Z</time></trkpt><trkpt lat="41.837918292950754" lon="12.480405048959613"><ele>20.0</ele><time>2026-03-25T12:53:53.999Z</time></trkpt><trkpt lat="41.83845393283191" lon="12.480261524760055"><ele>19.25</ele><time>2026-03-25T12:53:54.999Z</time></trkpt><trkpt lat="41.83855699612518" lon="12.480219558759512"><ele>18.5</ele><time>2026-03-25T12:53:56.998Z</time></trkpt><trkpt lat="41.83867540432552" lon="12.480232958200355"><ele>17.75</ele><time>2026-03-25T12:53:58.998Z</time></trkpt><trkpt lat="41.83878443530709" lon="12.480267526827694"><ele>17.0</ele><time>2026-03-25T12:54:01Z</time></trkpt><trkpt lat="41.83888999769961" lon="12.480317853376608"><ele>17.0</ele><time>2026-03-25T12:54:03Z</time></trkpt><trkpt lat="41.83900005399434" lon="12.480378230185782"><ele>17.0</ele><time>2026-03-25T12:54:05Z</time></trkpt><trkpt lat="41.8391049610164" lon="12.48044238189363"><ele>17.0</ele><time>2026-03-25T12:54:07Z</time></trkpt><trkpt lat="41.8392078881736" lon="12.480501091184797"><ele>17.0</ele><time>2026-03-25T12:54:09Z</time></trkpt><trkpt lat="41.839319071468594" lon="12.480562142233914"><ele>17.6</ele><time>2026-03-25T12:54:11Z</time></trkpt><trkpt lat="41.839421781860175" lon="12.480612453602054"><ele>18.2</ele><time>2026-03-25T12:54:13Z</time></trkpt><trkpt lat="41.83949137035048" lon="12.48061872990162"><ele>18.8</ele><time>2026-03-25T12:54:14Z</time></trkpt><trkpt lat="41.83955873927542" lon="12.480620440478603"><ele>19.4</ele><time>2026-03-25T12:54:15Z</time></trkpt><trkpt lat="41.83962077821232" lon="12.480776987740754"><ele>20.0</ele><time>2026-03-25T12:54:16Z</time></trkpt><trkpt lat="41.83972721315201" lon="12.480776173405625"><ele>20.0</ele><time>2026-03-25T12:54:18Z</time></trkpt><trkpt lat="41.83984169495322" lon="12.480774634062385"><ele>20.0</ele><time>2026-03-25T12:54:20Z</time></trkpt><trkpt lat="41.83994928119853" lon="12.480773176804433"><ele>20.0</ele><time>2026-03-25T12:54:22Z</time></trkpt><trkpt lat="41.84007160454768" lon="12.480771473479763"><ele>20.0</ele><time>2026-03-25T12:54:24Z</time></trkpt><trkpt lat="41.84014146389457" lon="12.48077049929282"><ele>20.0</ele><time>2026-03-25T12:54:25Z</time></trkpt><trkpt lat="41.840213735410806" lon="12.480769487951477"><ele>20.0</ele><time>2026-03-25T12:54:26Z</time></trkpt><trkpt lat="41.84028823704398" lon="12.480768354367845"><ele>20.0</ele><time>2026-03-25T12:54:27Z</time></trkpt><trkpt lat="41.840359824557886" lon="12.4807665581502"><ele>20.0</ele><time>2026-03-25T12:54:28Z</time></trkpt><trkpt lat="41.84043285194312" lon="12.480765057583383"><ele>20.0</ele><time>2026-03-25T12:54:29Z</time></trkpt><trkpt lat="41.84050384846352" lon="12.48076359875514"><ele>20.0</ele><time>2026-03-25T12:54:30Z</time></trkpt><trkpt lat="41.84056794132312" lon="12.480762281777793"><ele>20.0</ele><time>2026-03-25T12:54:31Z</time></trkpt><trkpt lat="41.84067237588885" lon="12.480759185009854"><ele>20.0</ele><time>2026-03-25T12:54:33Z</time></trkpt><trkpt lat="41.84076317350004" lon="12.480755911645147"><ele>20.0</ele><time>2026-03-25T12:54:35Z</time></trkpt><trkpt lat="41.840838082076715" lon="12.480753211098547"><ele>20.0</ele><time>2026-03-25T12:54:37Z</time></trkpt><trkpt lat="41.84092859996292" lon="12.48074994784385"><ele>20.0</ele><time>2026-03-25T12:54:39Z</time></trkpt><trkpt lat="41.84102227197855" lon="12.4807452653542"><ele>20.0</ele><time>2026-03-25T12:54:41Z</time></trkpt><trkpt lat="41.84112460211796" lon="12.480740413894576"><ele>21.0</ele><time>2026-03-25T12:54:43Z</time></trkpt><trkpt lat="41.8412357518614" lon="12.480736928840328"><ele>22.0</ele><time>2026-03-25T12:54:45Z</time></trkpt><trkpt lat="41.84134931407895" lon="12.480734944996918"><ele>23.0</ele><time>2026-03-25T12:54:47Z</time></trkpt><trkpt lat="41.84147501431986" lon="12.480733433293315"><ele>24.0</ele><time>2026-03-25T12:54:49Z</time></trkpt><trkpt lat="41.84159433835396" lon="12.48073199826673"><ele>24.0</ele><time>2026-03-25T12:54:51Z</time></trkpt><trkpt lat="41.84171123027115" lon="12.480730588828873"><ele>24.0</ele><time>2026-03-25T12:54:52.999Z</time></trkpt><trkpt lat="41.84177858068181" lon="12.480729629356599"><ele>24.0</ele><time>2026-03-25T12:54:53.999Z</time></trkpt><trkpt lat="41.84189476101677" lon="12.480727974252765"><ele>24.0</ele><time>2026-03-25T12:54:55.999Z</time></trkpt><trkpt lat="41.84201235289925" lon="12.480726159145318"><ele>24.0</ele><time>2026-03-25T12:54:57.999Z</time></trkpt><trkpt lat="41.84213018432952" lon="12.48072321116686"><ele>25.75</ele><time>2026-03-25T12:54:59.999Z</time></trkpt><trkpt lat="41.84223948265977" lon="12.48072047667409"><ele>27.5</ele><time>2026-03-25T12:55:01.999Z</time></trkpt><trkpt lat="41.84236237588934" lon="12.480716884121273"><ele>29.25</ele><time>2026-03-25T12:55:03.999Z</time></trkpt><trkpt lat="41.842484004141966" lon="12.48071318159452"><ele>31.0</ele><time>2026-03-25T12:55:05.999Z</time></trkpt><trkpt lat="41.84259808319975" lon="12.480709923925764"><ele>33.25</ele><time>2026-03-25T12:55:07.999Z</time></trkpt><trkpt lat="41.84271675727869" lon="12.480706263560954"><ele>35.5</ele><time>2026-03-25T12:55:09.999Z</time></trkpt><trkpt lat="41.84283607945099" lon="12.480702437541023"><ele>37.75</ele><time>2026-03-25T12:55:11.999Z</time></trkpt><trkpt lat="41.842956755581206" lon="12.480698568103284"><ele>40.0</ele><time>2026-03-25T12:55:13.999Z</time></trkpt><trkpt lat="41.84308065881088" lon="12.480689928063377"><ele>40.0</ele><time>2026-03-25T12:55:15.999Z</time></trkpt><trkpt lat="41.84319938206394" lon="12.480675040986977"><ele>40.0</ele><time>2026-03-25T12:55:17.999Z</time></trkpt><trkpt lat="41.84332226758281" lon="12.480653732345472"><ele>40.0</ele><time>2026-03-25T12:55:19.999Z</time></trkpt><trkpt lat="41.843385614993736" lon="12.48063938034963"><ele>40.0</ele><time>2026-03-25T12:55:20.999Z</time></trkpt><trkpt lat="41.843505281708794" lon="12.480607646903017"><ele>40.0</ele><time>2026-03-25T12:55:22.999Z</time></trkpt><trkpt lat="41.84362564486246" lon="12.480572607656372"><ele>40.333333333333336</ele><time>2026-03-25T12:55:24.999Z</time></trkpt><trkpt lat="41.8437375609548" lon="12.48053459491067"><ele>40.66666666666667</ele><time>2026-03-25T12:55:26.999Z</time></trkpt><trkpt lat="41.843798201807104" lon="12.480509859495628"><ele>41.0</ele><time>2026-03-25T12:55:27.999Z</time></trkpt><trkpt lat="41.84391967390815" lon="12.480454542355101"><ele>41.333333333333336</ele><time>2026-03-25T12:55:29.999Z</time></trkpt><trkpt lat="41.843980987474204" lon="12.480424705095748"><ele>41.666666666666664</ele><time>2026-03-25T12:55:30.999Z</time></trkpt><trkpt lat="41.84404002605317" lon="12.480394530556916"><ele>42.0</ele><time>2026-03-25T12:55:31.999Z</time></trkpt><trkpt lat="41.84415135131741" lon="12.48033187348112"><ele>42.0</ele><time>2026-03-25T12:55:33.999Z</time></trkpt><trkpt lat="41.84425605715853" lon="12.480267067090878"><ele>42.0</ele><time>2026-03-25T12:55:35.999Z</time></trkpt><trkpt lat="41.84431413642722" lon="12.48022820761115"><ele>42.0</ele><time>2026-03-25T12:55:36.999Z</time></trkpt><trkpt lat="41.844412303320155" lon="12.480161870757918"><ele>42.0</ele><time>2026-03-25T12:55:38.999Z</time></trkpt><trkpt lat="41.84451480746939" lon="12.480093615418102"><ele>42.0</ele><time>2026-03-25T12:55:40.999Z</time></trkpt><trkpt lat="41.844629614381695" lon="12.48001711358445"><ele>41.2</ele><time>2026-03-25T12:55:42.999Z</time></trkpt><trkpt lat="41.84473282267096" lon="12.479947725795382"><ele>40.400000000000006</ele><time>2026-03-25T12:55:44.999Z</time></trkpt><trkpt lat="41.84480687657291" lon="12.479897682512297"><ele>39.599999999999994</ele><time>2026-03-25T12:55:46.999Z</time></trkpt><trkpt lat="41.84483342771601" lon="12.479998078681115"><ele>38.8</ele><time>2026-03-25T12:56:05.998Z</time></trkpt><trkpt lat="41.84496249100075" lon="12.479942771619564"><ele>38.0</ele><time>2026-03-25T12:56:09Z</time></trkpt><trkpt lat="41.845022449476744" lon="12.479905346881429"><ele>38.0</ele><time>2026-03-25T12:56:10Z</time></trkpt><trkpt lat="41.84507772295041" lon="12.479854010276831"><ele>38.0</ele><time>2026-03-25T12:56:11Z</time></trkpt><trkpt lat="41.845195403049765" lon="12.479795225018588"><ele>38.0</ele><time>2026-03-25T12:56:13Z</time></trkpt><trkpt lat="41.84525544576548" lon="12.47975793583075"><ele>38.0</ele><time>2026-03-25T12:56:14Z</time></trkpt><trkpt lat="41.84530814737866" lon="12.479711454114707"><ele>38.0</ele><time>2026-03-25T12:56:15Z</time></trkpt><trkpt lat="41.845364169132175" lon="12.479672273503091"><ele>38.0</ele><time>2026-03-25T12:56:16Z</time></trkpt><trkpt lat="41.845475124759304" lon="12.479597890847973"><ele>37.33333333333333</ele><time>2026-03-25T12:56:18Z</time></trkpt><trkpt lat="41.84553850348753" lon="12.479567524774032"><ele>36.666666666666664</ele><time>2026-03-25T12:56:19Z</time></trkpt><trkpt lat="41.84559731544334" lon="12.479537156794699"><ele>36.0</ele><time>2026-03-25T12:56:20Z</time></trkpt><trkpt lat="41.84569233575459" lon="12.47944705765212"><ele>35.333333333333336</ele><time>2026-03-25T12:56:22Z</time></trkpt><trkpt lat="41.8457549129931" lon="12.47941360222195"><ele>34.66666666666667</ele><time>2026-03-25T12:56:23Z</time></trkpt><trkpt lat="41.84579607588746" lon="12.479349599833297"><ele>34.0</ele><time>2026-03-25T12:56:24Z</time></trkpt><trkpt lat="41.84588947014038" lon="12.479282213043966"><ele>34.0</ele><time>2026-03-25T12:56:26Z</time></trkpt><trkpt lat="41.845965679346435" lon="12.479230528474101"><ele>34.0</ele><time>2026-03-25T12:56:28Z</time></trkpt><trkpt lat="41.846060601597365" lon="12.479351961752965"><ele>34.0</ele><time>2026-03-25T12:56:31Z</time></trkpt><trkpt lat="41.84611326503941" lon="12.479487820319243"><ele>34.0</ele><time>2026-03-25T12:56:33Z</time></trkpt><trkpt lat="41.84615633878696" lon="12.479562790430835"><ele>34.0</ele><time>2026-03-25T12:56:34Z</time></trkpt><trkpt lat="41.84620472925728" lon="12.479637582356068"><ele>34.0</ele><time>2026-03-25T12:56:35Z</time></trkpt><trkpt lat="41.84625245998539" lon="12.479704223604523"><ele>34.0</ele><time>2026-03-25T12:56:36Z</time></trkpt><trkpt lat="41.8462954360923" lon="12.479775024489168"><ele>34.0</ele><time>2026-03-25T12:56:37Z</time></trkpt><trkpt lat="41.84634212036437" lon="12.47984587612769"><ele>34.0</ele><time>2026-03-25T12:56:38Z</time></trkpt><trkpt lat="41.84645887295815" lon="12.479823902110114"><ele>34.0</ele><time>2026-03-25T12:56:39Z</time></trkpt><trkpt lat="41.84643460239441" lon="12.479983553043107"><ele>34.0</ele><time>2026-03-25T12:56:40Z</time></trkpt><trkpt lat="41.84647891675578" lon="12.480052384744718"><ele>34.0</ele><time>2026-03-25T12:56:41Z</time></trkpt><trkpt lat="41.846521464784395" lon="12.480116803813699"><ele>34.0</ele><time>2026-03-25T12:56:42Z</time></trkpt><trkpt lat="41.846686291042175" lon="12.48013371746947"><ele>34.0</ele><time>2026-03-25T12:56:44Z</time></trkpt><trkpt lat="41.8467313673224" lon="12.480196581137628"><ele>34.0</ele><time>2026-03-25T12:56:45Z</time></trkpt><trkpt lat="41.84681515366638" lon="12.480313430077208"><ele>34.0</ele><time>2026-03-25T12:56:47Z</time></trkpt><trkpt lat="41.8468940797237" lon="12.480423500814323"><ele>33.0</ele><time>2026-03-25T12:56:49Z</time></trkpt><trkpt lat="41.84698374845156" lon="12.480548395849285"><ele>32.0</ele><time>2026-03-25T12:56:51Z</time></trkpt><trkpt lat="41.847032443766615" lon="12.480617218553808"><ele>31.0</ele><time>2026-03-25T12:56:52Z</time></trkpt><trkpt lat="41.8470771804631" lon="12.48068021985308"><ele>30.0</ele><time>2026-03-25T12:56:53Z</time></trkpt><trkpt lat="41.84716338850825" lon="12.480801506062525"><ele>29.0</ele><time>2026-03-25T12:56:54.999Z</time></trkpt><trkpt lat="41.84720952732699" lon="12.480866418835607"><ele>28.999999999999996</ele><time>2026-03-25T12:56:55.999Z</time></trkpt><trkpt lat="41.847256193844736" lon="12.480932074047617"><ele>29.0</ele><time>2026-03-25T12:56:56.999Z</time></trkpt><trkpt lat="41.847302483328676" lon="12.480997198766367"><ele>29.0</ele><time>2026-03-25T12:56:57.999Z</time></trkpt><trkpt lat="41.84735159747969" lon="12.481066298276536"><ele>29.0</ele><time>2026-03-25T12:56:58.999Z</time></trkpt><trkpt lat="41.84731884749993" lon="12.481242505066767"><ele>28.999999999999996</ele><time>2026-03-25T12:56:59.999Z</time></trkpt><trkpt lat="41.847377644758055" lon="12.481280057391622"><ele>29.0</ele><time>2026-03-25T12:57:00.999Z</time></trkpt><trkpt lat="41.847471263496026" lon="12.481389887931567"><ele>28.333333333333332</ele><time>2026-03-25T12:57:02.999Z</time></trkpt><trkpt lat="41.84755586402475" lon="12.481521521821978"><ele>27.666666666666664</ele><time>2026-03-25T12:57:04.999Z</time></trkpt><trkpt lat="41.847602522526394" lon="12.481583102148115"><ele>27.0</ele><time>2026-03-25T12:57:05.999Z</time></trkpt><trkpt lat="41.84765079464135" lon="12.481647579171502"><ele>26.333333333333336</ele><time>2026-03-25T12:57:06.999Z</time></trkpt><trkpt lat="41.84769538581629" lon="12.481717720847804"><ele>25.666666666666668</ele><time>2026-03-25T12:57:07.999Z</time></trkpt><trkpt lat="41.847743462933394" lon="12.48177826831827"><ele>25.0</ele><time>2026-03-25T12:57:08.999Z</time></trkpt><trkpt lat="41.84779056072578" lon="12.481839629860715"><ele>24.833333333333336</ele><time>2026-03-25T12:57:09.999Z</time></trkpt><trkpt lat="41.8478327427586" lon="12.48190243332627"><ele>24.666666666666668</ele><time>2026-03-25T12:57:10.999Z</time></trkpt><trkpt lat="41.847937870329616" lon="12.4818806158452"><ele>24.5</ele><time>2026-03-25T12:57:11.999Z</time></trkpt><trkpt lat="41.8479145359014" lon="12.482029818021728"><ele>24.333333333333336</ele><time>2026-03-25T12:57:12.999Z</time></trkpt><trkpt lat="41.84795705795468" lon="12.482092163555592"><ele>24.166666666666668</ele><time>2026-03-25T12:57:13.999Z</time></trkpt><trkpt lat="41.848007959628056" lon="12.482149016444959"><ele>24.0</ele><time>2026-03-25T12:57:14.999Z</time></trkpt><trkpt lat="41.84805847964702" lon="12.482205096289714"><ele>24.0</ele><time>2026-03-25T12:57:15.999Z</time></trkpt><trkpt lat="41.84815858876515" lon="12.482192632120807"><ele>24.0</ele><time>2026-03-25T12:57:16.999Z</time></trkpt><trkpt lat="41.848150422402604" lon="12.482326194789923"><ele>24.0</ele><time>2026-03-25T12:57:17.999Z</time></trkpt><trkpt lat="41.84819444556636" lon="12.482388660099236"><ele>24.0</ele><time>2026-03-25T12:57:18.999Z</time></trkpt><trkpt lat="41.848278511571024" lon="12.482516404550843"><ele>24.0</ele><time>2026-03-25T12:57:20.999Z</time></trkpt><trkpt lat="41.84832200341271" lon="12.482584532995924"><ele>24.0</ele><time>2026-03-25T12:57:21.999Z</time></trkpt><trkpt lat="41.84836766360927" lon="12.482651253536396"><ele>24.0</ele><time>2026-03-25T12:57:22.999Z</time></trkpt><trkpt lat="41.848514084439" lon="12.4826923684886"><ele>24.0</ele><time>2026-03-25T12:57:24.999Z</time></trkpt><trkpt lat="41.848598433051656" lon="12.482812073583831"><ele>24.0</ele><time>2026-03-25T12:57:26.999Z</time></trkpt><trkpt lat="41.8486854973944" lon="12.482935632751783"><ele>24.2</ele><time>2026-03-25T12:57:28.999Z</time></trkpt><trkpt lat="41.84872924355984" lon="12.482997715997875"><ele>24.4</ele><time>2026-03-25T12:57:29.999Z</time></trkpt><trkpt lat="41.848812381138146" lon="12.48311581959963"><ele>24.6</ele><time>2026-03-25T12:57:31.999Z</time></trkpt><trkpt lat="41.848856483782725" lon="12.483177369407565"><ele>24.8</ele><time>2026-03-25T12:57:32.999Z</time></trkpt><trkpt lat="41.84886993732316" lon="12.483396261904334"><ele>25.0</ele><time>2026-03-25T12:57:34.999Z</time></trkpt><trkpt lat="41.84896217496887" lon="12.483500167459999"><ele>25.0</ele><time>2026-03-25T12:57:36.999Z</time></trkpt><trkpt lat="41.84904496258667" lon="12.483621814070743"><ele>25.0</ele><time>2026-03-25T12:57:38.999Z</time></trkpt><trkpt lat="41.84908864193817" lon="12.483685230221736"><ele>25.0</ele><time>2026-03-25T12:57:39.999Z</time></trkpt><trkpt lat="41.84913350721955" lon="12.483749837063659"><ele>25.0</ele><time>2026-03-25T12:57:40.999Z</time></trkpt><trkpt lat="41.849244908452924" lon="12.483719755396878"><ele>25.0</ele><time>2026-03-25T12:57:41.999Z</time></trkpt><trkpt lat="41.849216848348554" lon="12.483869697091455"><ele>25.5</ele><time>2026-03-25T12:57:42.999Z</time></trkpt><trkpt lat="41.84929736509731" lon="12.48398207592852"><ele>26.0</ele><time>2026-03-25T12:57:44.999Z</time></trkpt><trkpt lat="41.8493739278371" lon="12.484093016408943"><ele>26.5</ele><time>2026-03-25T12:57:46.999Z</time></trkpt><trkpt lat="41.84946156430861" lon="12.484216831056159"><ele>27.0</ele><time>2026-03-25T12:57:48.999Z</time></trkpt><trkpt lat="41.84954034131952" lon="12.484333336647955"><ele>27.0</ele><time>2026-03-25T12:57:50.999Z</time></trkpt><trkpt lat="41.84961508500025" lon="12.484441582207698"><ele>27.0</ele><time>2026-03-25T12:57:52.999Z</time></trkpt><trkpt lat="41.84972756728388" lon="12.484393392016118"><ele>27.0</ele><time>2026-03-25T12:57:53.999Z</time></trkpt><trkpt lat="41.84981356352703" lon="12.48451297925517"><ele>27.0</ele><time>2026-03-25T12:57:55.999Z</time></trkpt><trkpt lat="41.84988674974839" lon="12.484614752442429"><ele>26.6</ele><time>2026-03-25T12:57:57.999Z</time></trkpt><trkpt lat="41.84993601088618" lon="12.484684125193972"><ele>26.200000000000003</ele><time>2026-03-25T12:57:59.999Z</time></trkpt><trkpt lat="41.85000509351369" lon="12.48478131465021"><ele>25.8</ele><time>2026-03-25T12:58:01.999Z</time></trkpt><trkpt lat="41.850091935045924" lon="12.484903768060525"><ele>25.4</ele><time>2026-03-25T12:58:03.998Z</time></trkpt><trkpt lat="41.85018032563481" lon="12.485029131850194"><ele>25.0</ele><time>2026-03-25T12:58:05.998Z</time></trkpt><trkpt lat="41.85022400794187" lon="12.485091340477979"><ele>25.42857142857143</ele><time>2026-03-25T12:58:06.998Z</time></trkpt><trkpt lat="41.85026898571253" lon="12.48515451249632"><ele>25.857142857142858</ele><time>2026-03-25T12:58:07.998Z</time></trkpt><trkpt lat="41.85031358473884" lon="12.485217152624234"><ele>26.285714285714285</ele><time>2026-03-25T12:58:08.998Z</time></trkpt><trkpt lat="41.85035729283267" lon="12.48527854141345"><ele>26.714285714285715</ele><time>2026-03-25T12:58:09.998Z</time></trkpt><trkpt lat="41.85044321484293" lon="12.48539838116312"><ele>27.142857142857142</ele><time>2026-03-25T12:58:11.998Z</time></trkpt><trkpt lat="41.85048762727307" lon="12.485459896848944"><ele>27.571428571428573</ele><time>2026-03-25T12:58:13Z</time></trkpt><trkpt lat="41.850532617730295" lon="12.485522213241914"><ele>28.0</ele><time>2026-03-25T12:58:14Z</time></trkpt><trkpt lat="41.85057680485609" lon="12.48558341693115"><ele>28.000000000000004</ele><time>2026-03-25T12:58:15Z</time></trkpt><trkpt lat="41.85066055167716" lon="12.48569941488337"><ele>28.0</ele><time>2026-03-25T12:58:17Z</time></trkpt><trkpt lat="41.85070668266754" lon="12.48576331094702"><ele>28.0</ele><time>2026-03-25T12:58:18Z</time></trkpt><trkpt lat="41.850752030948804" lon="12.485826327215328"><ele>28.0</ele><time>2026-03-25T12:58:19Z</time></trkpt><trkpt lat="41.85079639325532" lon="12.485889846883216"><ele>28.000000000000004</ele><time>2026-03-25T12:58:20Z</time></trkpt><trkpt lat="41.85086239431006" lon="12.485984376033086"><ele>28.0</ele><time>2026-03-25T12:58:22Z</time></trkpt><trkpt lat="41.85092222006015" lon="12.48607019205836"><ele>27.666666666666668</ele><time>2026-03-25T12:58:24Z</time></trkpt><trkpt lat="41.851005882713736" lon="12.486195299064942"><ele>27.333333333333336</ele><time>2026-03-25T12:58:26Z</time></trkpt><trkpt lat="41.85104992029802" lon="12.486259499725067"><ele>27.0</ele><time>2026-03-25T12:58:27Z</time></trkpt><trkpt lat="41.851092730916655" lon="12.486322691794737"><ele>26.666666666666664</ele><time>2026-03-25T12:58:28Z</time></trkpt><trkpt lat="41.8511363500088" lon="12.486387077238952"><ele>26.333333333333332</ele><time>2026-03-25T12:58:29Z</time></trkpt><trkpt lat="41.85121752410196" lon="12.486503979247935"><ele>26.0</ele><time>2026-03-25T12:58:31Z</time></trkpt><trkpt lat="41.851298594464915" lon="12.486620121753287"><ele>26.0</ele><time>2026-03-25T12:58:33Z</time></trkpt><trkpt lat="41.85137832496123" lon="12.486728551580999"><ele>26.0</ele><time>2026-03-25T12:58:35Z</time></trkpt><trkpt lat="41.8514669415378" lon="12.486846628143027"><ele>26.0</ele><time>2026-03-25T12:58:37Z</time></trkpt><trkpt lat="41.85151298839559" lon="12.486907590050004"><ele>26.0</ele><time>2026-03-25T12:58:38Z</time></trkpt><trkpt lat="41.85145854662342" lon="12.487096500674822"><ele>26.75</ele><time>2026-03-25T12:58:39Z</time></trkpt><trkpt lat="41.85153329475806" lon="12.487216580745617"><ele>27.5</ele><time>2026-03-25T12:58:41Z</time></trkpt><trkpt lat="41.85160897659808" lon="12.487337437117528"><ele>28.25</ele><time>2026-03-25T12:58:43Z</time></trkpt><trkpt lat="41.851768948740265" lon="12.487254311160665"><ele>29.0</ele><time>2026-03-25T12:58:44Z</time></trkpt><trkpt lat="41.85181460216255" lon="12.487317644978551"><ele>29.0</ele><time>2026-03-25T12:58:45Z</time></trkpt><trkpt lat="41.851859084164985" lon="12.487379353715648"><ele>29.0</ele><time>2026-03-25T12:58:46Z</time></trkpt><trkpt lat="41.851839531476294" lon="12.487513239054651"><ele>29.0</ele><time>2026-03-25T12:58:47Z</time></trkpt><trkpt lat="41.85199004090915" lon="12.487566260335466"><ele>29.0</ele><time>2026-03-25T12:58:49Z</time></trkpt><trkpt lat="41.85203462901475" lon="12.487628637791278"><ele>29.0</ele><time>2026-03-25T12:58:50Z</time></trkpt><trkpt lat="41.852117985877555" lon="12.487745251615426"><ele>29.000000000000004</ele><time>2026-03-25T12:58:52Z</time></trkpt><trkpt lat="41.85216515148441" lon="12.487811100683569"><ele>29.0</ele><time>2026-03-25T12:58:53Z</time></trkpt><trkpt lat="41.8522099721827" lon="12.48787365575571"><ele>29.000000000000004</ele><time>2026-03-25T12:58:54Z</time></trkpt><trkpt lat="41.85228751064431" lon="12.487981874402829"><ele>29.000000000000004</ele><time>2026-03-25T12:58:56Z</time></trkpt><trkpt lat="41.85233263369282" lon="12.488044890409064"><ele>29.0</ele><time>2026-03-25T12:58:57Z</time></trkpt><trkpt lat="41.85237839144887" lon="12.488108943674398"><ele>29.000000000000004</ele><time>2026-03-25T12:58:58Z</time></trkpt><trkpt lat="41.8524244834252" lon="12.488173464730295"><ele>29.000000000000004</ele><time>2026-03-25T12:58:59Z</time></trkpt><trkpt lat="41.852396634858565" lon="12.488339108668294"><ele>27.666666666666664</ele><time>2026-03-25T12:58:59.999Z</time></trkpt><trkpt lat="41.852441305146506" lon="12.488406067476296"><ele>26.333333333333332</ele><time>2026-03-25T12:59:00.999Z</time></trkpt><trkpt lat="41.852490737744674" lon="12.488464773080047"><ele>25.0</ele><time>2026-03-25T12:59:01.999Z</time></trkpt><trkpt lat="41.852640871658686" lon="12.488486120184538"><ele>23.666666666666664</ele><time>2026-03-25T12:59:03.999Z</time></trkpt><trkpt lat="41.85268546848883" lon="12.488551968297356"><ele>22.333333333333332</ele><time>2026-03-25T12:59:04.999Z</time></trkpt><trkpt lat="41.852728394170185" lon="12.488615348965821"><ele>21.0</ele><time>2026-03-25T12:59:05.999Z</time></trkpt><trkpt lat="41.8528131685105" lon="12.488738264282965"><ele>21.0</ele><time>2026-03-25T12:59:07.999Z</time></trkpt><trkpt lat="41.85285649686437" lon="12.488800621461037"><ele>21.0</ele><time>2026-03-25T12:59:08.999Z</time></trkpt><trkpt lat="41.85290110730706" lon="12.488864825212612"><ele>21.0</ele><time>2026-03-25T12:59:09.999Z</time></trkpt><trkpt lat="41.85295056059039" lon="12.488930987349034"><ele>21.0</ele><time>2026-03-25T12:59:10.999Z</time></trkpt><trkpt lat="41.85300265123218" lon="12.489002383170623"><ele>21.0</ele><time>2026-03-25T12:59:11.999Z</time></trkpt><trkpt lat="41.85304973858479" lon="12.489066390836545"><ele>21.0</ele><time>2026-03-25T12:59:12.999Z</time></trkpt><trkpt lat="41.853100985046375" lon="12.48913562548899"><ele>21.0</ele><time>2026-03-25T12:59:13.999Z</time></trkpt><trkpt lat="41.853149185242984" lon="12.489200744554031"><ele>21.0</ele><time>2026-03-25T12:59:14.999Z</time></trkpt><trkpt lat="41.85319936483117" lon="12.489268669571642"><ele>21.0</ele><time>2026-03-25T12:59:15.999Z</time></trkpt><trkpt lat="41.85318123927832" lon="12.489422154726471"><ele>21.0</ele><time>2026-03-25T12:59:16.999Z</time></trkpt><trkpt lat="41.85323368781457" lon="12.489479142469504"><ele>21.0</ele><time>2026-03-25T12:59:17.999Z</time></trkpt><trkpt lat="41.853283413485016" lon="12.48953859266168"><ele>21.0</ele><time>2026-03-25T12:59:18.999Z</time></trkpt><trkpt lat="41.85337289277645" lon="12.489657067343222"><ele>21.0</ele><time>2026-03-25T12:59:20.999Z</time></trkpt><trkpt lat="41.85345961269084" lon="12.48976736964291"><ele>20.833333333333332</ele><time>2026-03-25T12:59:22.999Z</time></trkpt><trkpt lat="41.85353356836631" lon="12.489887451689404"><ele>20.666666666666668</ele><time>2026-03-25T12:59:24.999Z</time></trkpt><trkpt lat="41.85357741267618" lon="12.489948227673183"><ele>20.5</ele><time>2026-03-25T12:59:25.999Z</time></trkpt><trkpt lat="41.85362038812639" lon="12.490012308429806"><ele>20.333333333333336</ele><time>2026-03-25T12:59:26.999Z</time></trkpt><trkpt lat="41.853663789303475" lon="12.490074081388705"><ele>20.166666666666668</ele><time>2026-03-25T12:59:27.999Z</time></trkpt><trkpt lat="41.85374887063539" lon="12.490191470284014"><ele>20.0</ele><time>2026-03-25T12:59:29.999Z</time></trkpt><trkpt lat="41.85383356559774" lon="12.490309189679282"><ele>20.0</ele><time>2026-03-25T12:59:31.999Z</time></trkpt><trkpt lat="41.853922418933415" lon="12.49042581989033"><ele>20.0</ele><time>2026-03-25T12:59:33.999Z</time></trkpt><trkpt lat="41.85406248406063" lon="12.490470356120362"><ele>20.0</ele><time>2026-03-25T12:59:35.999Z</time></trkpt><trkpt lat="41.85414663702284" lon="12.49058670398126"><ele>20.0</ele><time>2026-03-25T12:59:37.999Z</time></trkpt><trkpt lat="41.85412837626231" lon="12.490719062199318"><ele>20.0</ele><time>2026-03-25T12:59:38.999Z</time></trkpt><trkpt lat="41.85419809174999" lon="12.490823140282583"><ele>20.0</ele><time>2026-03-25T12:59:40.999Z</time></trkpt><trkpt lat="41.85426379927279" lon="12.490920210220493"><ele>20.0</ele><time>2026-03-25T12:59:42.999Z</time></trkpt><trkpt lat="41.85433417711943" lon="12.491010338303875"><ele>20.0</ele><time>2026-03-25T12:59:44.999Z</time></trkpt><trkpt lat="41.854434194576314" lon="12.490988781551456"><ele>20.0</ele><time>2026-03-25T12:59:45.999Z</time></trkpt><trkpt lat="41.854501813511824" lon="12.491086588881503"><ele>21.4</ele><time>2026-03-25T12:59:47.999Z</time></trkpt><trkpt lat="41.85458411031778" lon="12.491207864362305"><ele>22.8</ele><time>2026-03-25T12:59:49.999Z</time></trkpt><trkpt lat="41.854667879616116" lon="12.491328851452206"><ele>24.200000000000003</ele><time>2026-03-25T12:59:51.999Z</time></trkpt><trkpt lat="41.85475142260364" lon="12.491446967406322"><ele>25.6</ele><time>2026-03-25T12:59:53.999Z</time></trkpt><trkpt lat="41.854795995579614" lon="12.491507193962528"><ele>27.0</ele><time>2026-03-25T12:59:54.999Z</time></trkpt><trkpt lat="41.85484061554787" lon="12.491567103549057"><ele>27.0</ele><time>2026-03-25T12:59:55.999Z</time></trkpt><trkpt lat="41.85492505556429" lon="12.491680478119996"><ele>27.000000000000004</ele><time>2026-03-25T12:59:57.999Z</time></trkpt><trkpt lat="41.85501322857001" lon="12.491798864323766"><ele>27.000000000000004</ele><time>2026-03-25T12:59:59.999Z</time></trkpt><trkpt lat="41.85509681152158" lon="12.491912723826632"><ele>27.0</ele><time>2026-03-25T13:00:01.999Z</time></trkpt><trkpt lat="41.855141303506464" lon="12.491973297605343"><ele>27.0</ele><time>2026-03-25T13:00:02.999Z</time></trkpt><trkpt lat="41.855224055871524" lon="12.49209068372056"><ele>28.200000000000003</ele><time>2026-03-25T13:00:04.999Z</time></trkpt><trkpt lat="41.8552672169064" lon="12.492152418068505"><ele>29.400000000000002</ele><time>2026-03-25T13:00:05.999Z</time></trkpt><trkpt lat="41.85533828788774" lon="12.492283709294085"><ele>30.599999999999998</ele><time>2026-03-25T13:00:07.999Z</time></trkpt><trkpt lat="41.85542693950345" lon="12.49239880566602"><ele>31.799999999999997</ele><time>2026-03-25T13:00:09.998Z</time></trkpt><trkpt lat="41.855510360981846" lon="12.492514213679028"><ele>33.0</ele><time>2026-03-25T13:00:11.998Z</time></trkpt><trkpt lat="41.85558643848998" lon="12.49261691268319"><ele>33.0</ele><time>2026-03-25T13:00:13.998Z</time></trkpt><trkpt lat="41.855670313335224" lon="12.492738627042264"><ele>33.0</ele><time>2026-03-25T13:00:15.998Z</time></trkpt><trkpt lat="41.85575256089005" lon="12.492854282601774"><ele>33.0</ele><time>2026-03-25T13:00:17.998Z</time></trkpt><trkpt lat="41.8558242300182" lon="12.492953503782386"><ele>33.0</ele><time>2026-03-25T13:00:20Z</time></trkpt><trkpt lat="41.85588939128092" lon="12.493029637915757"><ele>33.0</ele><time>2026-03-25T13:00:22Z</time></trkpt><trkpt lat="41.85589604419025" lon="12.493159962302306"><ele>32.166666666666664</ele><time>2026-03-25T13:00:24Z</time></trkpt><trkpt lat="41.85588148154464" lon="12.493251683295753"><ele>31.333333333333336</ele><time>2026-03-25T13:00:26Z</time></trkpt><trkpt lat="41.856005502452994" lon="12.493187239535285"><ele>30.5</ele><time>2026-03-25T13:00:28Z</time></trkpt><trkpt lat="41.856046072235365" lon="12.493071666123033"><ele>29.666666666666668</ele><time>2026-03-25T13:00:33Z</time></trkpt><trkpt lat="41.85609196026721" lon="12.493010449598087"><ele>28.833333333333336</ele><time>2026-03-25T13:00:34Z</time></trkpt><trkpt lat="41.856141178579904" lon="12.492954067160976"><ele>28.0</ele><time>2026-03-25T13:00:35Z</time></trkpt><trkpt lat="41.85612888218771" lon="12.492830513044245"><ele>28.0</ele><time>2026-03-25T13:00:36Z</time></trkpt><trkpt lat="41.8562125382767" lon="12.492728131443915"><ele>27.999999999999996</ele><time>2026-03-25T13:00:38Z</time></trkpt><trkpt lat="41.85632273414067" lon="12.492786479629613"><ele>27.999999999999996</ele><time>2026-03-25T13:00:39Z</time></trkpt><trkpt lat="41.856408203824444" lon="12.492712489796439"><ele>28.0</ele><time>2026-03-25T13:00:41Z</time></trkpt><trkpt lat="41.856492780804814" lon="12.492689833724604"><ele>28.0</ele><time>2026-03-25T13:00:48Z</time></trkpt><trkpt lat="41.85648217475264" lon="12.492861160965978"><ele>28.0</ele><time>2026-03-25T13:00:50Z</time></trkpt><trkpt lat="41.85657590136697" lon="12.49299123159132"><ele>27.999999999999996</ele><time>2026-03-25T13:00:52Z</time></trkpt><trkpt lat="41.856622619178275" lon="12.493052389657933"><ele>27.999999999999996</ele><time>2026-03-25T13:00:53Z</time></trkpt><trkpt lat="41.856715276289975" lon="12.49316101302556"><ele>28.0</ele><time>2026-03-25T13:00:55Z</time></trkpt><trkpt lat="41.856803377714144" lon="12.493273119261518"><ele>28.0</ele><time>2026-03-25T13:00:57Z</time></trkpt><trkpt lat="41.85688910264559" lon="12.493383784676837"><ele>28.25</ele><time>2026-03-25T13:00:59Z</time></trkpt><trkpt lat="41.85697638957509" lon="12.49350218822006"><ele>28.5</ele><time>2026-03-25T13:01:01Z</time></trkpt><trkpt lat="41.857062216262506" lon="12.493618613507815"><ele>28.75</ele><time>2026-03-25T13:01:03Z</time></trkpt><trkpt lat="41.85714785503682" lon="12.493624121214904"><ele>29.0</ele><time>2026-03-25T13:01:04Z</time></trkpt><trkpt lat="41.85723336263275" lon="12.493742645686345"><ele>30.0</ele><time>2026-03-25T13:01:05.999Z</time></trkpt><trkpt lat="41.857268360140445" lon="12.493930385483775"><ele>31.0</ele><time>2026-03-25T13:01:07.999Z</time></trkpt><trkpt lat="41.85740601966398" lon="12.493971132386845"><ele>32.0</ele><time>2026-03-25T13:01:09.999Z</time></trkpt><trkpt lat="41.857485381982045" lon="12.494089235263937"><ele>33.0</ele><time>2026-03-25T13:01:11.999Z</time></trkpt><trkpt lat="41.85753215360949" lon="12.494151474935205"><ele>33.0</ele><time>2026-03-25T13:01:12.999Z</time></trkpt><trkpt lat="41.857520808304365" lon="12.494274367270496"><ele>33.0</ele><time>2026-03-25T13:01:13.999Z</time></trkpt><trkpt lat="41.857608745986205" lon="12.494391114445554"><ele>33.0</ele><time>2026-03-25T13:01:15.999Z</time></trkpt><trkpt lat="41.85765548673558" lon="12.494452894810554"><ele>33.0</ele><time>2026-03-25T13:01:16.999Z</time></trkpt><trkpt lat="41.85773316472177" lon="12.494557018065022"><ele>33.0</ele><time>2026-03-25T13:01:18.999Z</time></trkpt><trkpt lat="41.857820271237266" lon="12.494678957019316"><ele>35.599999999999994</ele><time>2026-03-25T13:01:20.999Z</time></trkpt><trkpt lat="41.85790116654301" lon="12.494798680436537"><ele>38.199999999999996</ele><time>2026-03-25T13:01:22.999Z</time></trkpt><trkpt lat="41.85796809127667" lon="12.49490063249493"><ele>40.8</ele><time>2026-03-25T13:01:24.999Z</time></trkpt><trkpt lat="41.85802301894936" lon="12.49498591194758"><ele>43.4</ele><time>2026-03-25T13:01:26.999Z</time></trkpt><trkpt lat="41.85803466632982" lon="12.495105344752227"><ele>46.0</ele><time>2026-03-25T13:01:30.999Z</time></trkpt><trkpt lat="41.858112563616" lon="12.495190021127913"><ele>46.0</ele><time>2026-03-25T13:01:31.999Z</time></trkpt><trkpt lat="41.85818574473639" lon="12.495183513614675"><ele>46.0</ele><time>2026-03-25T13:01:34.999Z</time></trkpt><trkpt lat="41.85826629225386" lon="12.49521072673132"><ele>46.0</ele><time>2026-03-25T13:01:36.999Z</time></trkpt><trkpt lat="41.85825185896661" lon="12.495325510827158"><ele>46.0</ele><time>2026-03-25T13:01:37.999Z</time></trkpt><trkpt lat="41.858333622380464" lon="12.495444798215493"><ele>46.0</ele><time>2026-03-25T13:01:39.999Z</time></trkpt><trkpt lat="41.8584075000117" lon="12.495548766010282"><ele>44.599999999999994</ele><time>2026-03-25T13:01:41.999Z</time></trkpt><trkpt lat="41.85849183681089" lon="12.495612355870533"><ele>43.199999999999996</ele><time>2026-03-25T13:01:43.999Z</time></trkpt><trkpt lat="41.85855349843227" lon="12.495643954892465"><ele>41.8</ele><time>2026-03-25T13:01:45.999Z</time></trkpt><trkpt lat="41.858619684058986" lon="12.495702953883944"><ele>40.4</ele><time>2026-03-25T13:01:47.999Z</time></trkpt><trkpt lat="41.8587046420259" lon="12.495786975815973"><ele>39.0</ele><time>2026-03-25T13:01:49.999Z</time></trkpt><trkpt lat="41.85867889129597" lon="12.495924317283745"><ele>39.0</ele><time>2026-03-25T13:01:50.999Z</time></trkpt><trkpt lat="41.85873503639382" lon="12.496002127209364"><ele>39.0</ele><time>2026-03-25T13:01:52.999Z</time></trkpt><trkpt lat="41.85878204641048" lon="12.496067277080789"><ele>39.0</ele><time>2026-03-25T13:01:54.999Z</time></trkpt><trkpt lat="41.85884371506999" lon="12.496200326970365"><ele>39.0</ele><time>2026-03-25T13:01:56.999Z</time></trkpt><trkpt lat="41.85891433039938" lon="12.496239276986108"><ele>39.0</ele><time>2026-03-25T13:01:57.999Z</time></trkpt><trkpt lat="41.85897250889834" lon="12.496283598883064"><ele>39.0</ele><time>2026-03-25T13:01:58.999Z</time></trkpt><trkpt lat="41.859045463058145" lon="12.496417030185375"><ele>38.6</ele><time>2026-03-25T13:02:00.999Z</time></trkpt><trkpt lat="41.8590926756551" lon="12.496479752685977"><ele>38.2</ele><time>2026-03-25T13:02:01.999Z</time></trkpt><trkpt lat="41.85922574281281" lon="12.496436780486953"><ele>37.800000000000004</ele><time>2026-03-25T13:02:02.999Z</time></trkpt><trkpt lat="41.85929936863663" lon="12.4965408918898"><ele>37.4</ele><time>2026-03-25T13:02:04.999Z</time></trkpt><trkpt lat="41.85934777586637" lon="12.496609343952258"><ele>37.0</ele><time>2026-03-25T13:02:08.999Z</time></trkpt><trkpt lat="41.85940109004284" lon="12.496684734827253"><ele>37.25</ele><time>2026-03-25T13:02:10.999Z</time></trkpt><trkpt lat="41.8593109432568" lon="12.496858079026378"><ele>37.5</ele><time>2026-03-25T13:02:11.999Z</time></trkpt><trkpt lat="41.85932519002749" lon="12.497000549740699"><ele>37.75</ele><time>2026-03-25T13:02:13.999Z</time></trkpt><trkpt lat="41.8593396300213" lon="12.497144919676492"><ele>38.0</ele><time>2026-03-25T13:02:15.998Z</time></trkpt><trkpt lat="41.85962565341684" lon="12.497223224452984"><ele>38.0</ele><time>2026-03-25T13:02:17.998Z</time></trkpt><trkpt lat="41.859711160338186" lon="12.497335921160248"><ele>38.0</ele><time>2026-03-25T13:02:19.998Z</time></trkpt><trkpt lat="41.85980689770316" lon="12.497435834694219"><ele>38.0</ele><time>2026-03-25T13:02:21.998Z</time></trkpt><trkpt lat="41.85987516301084" lon="12.497430141115226"><ele>38.0</ele><time>2026-03-25T13:02:22.998Z</time></trkpt><trkpt lat="41.85994431897174" lon="12.49744706992719"><ele>38.0</ele><time>2026-03-25T13:02:23.998Z</time></trkpt><trkpt lat="41.86000733557982" lon="12.497492264361208"><ele>38.0</ele><time>2026-03-25T13:02:25Z</time></trkpt><trkpt lat="41.86006146868905" lon="12.497538368313428"><ele>38.0</ele><time>2026-03-25T13:02:26Z</time></trkpt><trkpt lat="41.86011562453116" lon="12.497584320236234"><ele>38.0</ele><time>2026-03-25T13:02:27Z</time></trkpt><trkpt lat="41.86017481133217" lon="12.497620654512557"><ele>38.0</ele><time>2026-03-25T13:02:28Z</time></trkpt><trkpt lat="41.86029277190518" lon="12.49766683395201"><ele>38.0</ele><time>2026-03-25T13:02:30Z</time></trkpt><trkpt lat="41.86041505957284" lon="12.49770943032059"><ele>38.0</ele><time>2026-03-25T13:02:32Z</time></trkpt><trkpt lat="41.86053427300988" lon="12.497727198784988"><ele>38.42857142857142</ele><time>2026-03-25T13:02:34Z</time></trkpt><trkpt lat="41.860599234208486" lon="12.4977341122245"><ele>38.85714285714286</ele><time>2026-03-25T13:02:35Z</time></trkpt><trkpt lat="41.86066600387703" lon="12.497735333255887"><ele>39.285714285714285</ele><time>2026-03-25T13:02:36Z</time></trkpt><trkpt lat="41.86077817297094" lon="12.497729546437672"><ele>39.71428571428571</ele><time>2026-03-25T13:02:38Z</time></trkpt><trkpt lat="41.86084105424636" lon="12.497717190391874"><ele>40.14285714285714</ele><time>2026-03-25T13:02:39Z</time></trkpt><trkpt lat="41.86090378014709" lon="12.49770429647928"><ele>40.57142857142857</ele><time>2026-03-25T13:02:40Z</time></trkpt><trkpt lat="41.860969751330394" lon="12.497690129828163"><ele>41.0</ele><time>2026-03-25T13:02:41Z</time></trkpt><trkpt lat="41.861033171124696" lon="12.497677457256"><ele>41.0</ele><time>2026-03-25T13:02:42Z</time></trkpt><trkpt lat="41.861095020395744" lon="12.497656395235063"><ele>41.0</ele><time>2026-03-25T13:02:43Z</time></trkpt><trkpt lat="41.86121306996795" lon="12.49762067485739"><ele>41.0</ele><time>2026-03-25T13:02:45Z</time></trkpt><trkpt lat="41.861333100055774" lon="12.497600873089503"><ele>41.0</ele><time>2026-03-25T13:02:47Z</time></trkpt><trkpt lat="41.86139570825108" lon="12.497581127327514"><ele>41.0</ele><time>2026-03-25T13:02:48Z</time></trkpt><trkpt lat="41.86151668854004" lon="12.497546544237107"><ele>41.0</ele><time>2026-03-25T13:02:50Z</time></trkpt><trkpt lat="41.86157736482416" lon="12.497523388006625"><ele>41.0</ele><time>2026-03-25T13:02:51Z</time></trkpt><trkpt lat="41.861642472078216" lon="12.497506403918077"><ele>41.0</ele><time>2026-03-25T13:02:52Z</time></trkpt><trkpt lat="41.86170534800056" lon="12.497481997825442"><ele>41.0</ele><time>2026-03-25T13:02:53Z</time></trkpt><trkpt lat="41.86177810684462" lon="12.49756956995302"><ele>41.0</ele><time>2026-03-25T13:02:54Z</time></trkpt><trkpt lat="41.86189527643651" lon="12.49753497882053"><ele>41.0</ele><time>2026-03-25T13:02:56Z</time></trkpt><trkpt lat="41.86200090691355" lon="12.49750379431167"><ele>40.0</ele><time>2026-03-25T13:02:58Z</time></trkpt><trkpt lat="41.86212862496458" lon="12.497466355819364"><ele>39.0</ele><time>2026-03-25T13:03:00Z</time></trkpt><trkpt lat="41.8622450264436" lon="12.497433200056182"><ele>38.0</ele><time>2026-03-25T13:03:02Z</time></trkpt><trkpt lat="41.862361599207695" lon="12.497399995484507"><ele>37.0</ele><time>2026-03-25T13:03:04Z</time></trkpt><trkpt lat="41.862424511188074" lon="12.497382075432244"><ele>36.0</ele><time>2026-03-25T13:03:05Z</time></trkpt><trkpt lat="41.86249541038958" lon="12.49736219777721"><ele>36.0</ele><time>2026-03-25T13:03:06Z</time></trkpt><trkpt lat="41.86256294331579" lon="12.497343125891277"><ele>36.0</ele><time>2026-03-25T13:03:07Z</time></trkpt><trkpt lat="41.862680498555" lon="12.497308249245707"><ele>36.0</ele><time>2026-03-25T13:03:09Z</time></trkpt><trkpt lat="41.862741908161624" lon="12.4972895568247"><ele>36.0</ele><time>2026-03-25T13:03:10Z</time></trkpt><trkpt lat="41.862851872816364" lon="12.497253949239965"><ele>36.0</ele><time>2026-03-25T13:03:12Z</time></trkpt><trkpt lat="41.86295705399394" lon="12.497219890564917"><ele>36.5</ele><time>2026-03-25T13:03:13.999Z</time></trkpt><trkpt lat="41.86306222749068" lon="12.497185834379618"><ele>37.0</ele><time>2026-03-25T13:03:15.999Z</time></trkpt><trkpt lat="41.8631283582146" lon="12.497164420628085"><ele>37.5</ele><time>2026-03-25T13:03:16.999Z</time></trkpt><trkpt lat="41.86319863600077" lon="12.497142434608419"><ele>38.0</ele><time>2026-03-25T13:03:17.999Z</time></trkpt><trkpt lat="41.86326537099641" lon="12.49712308938817"><ele>38.5</ele><time>2026-03-25T13:03:18.999Z</time></trkpt><trkpt lat="41.86338729034793" lon="12.497087747268026"><ele>39.0</ele><time>2026-03-25T13:03:20.999Z</time></trkpt><trkpt lat="41.86350993130863" lon="12.497049042058562"><ele>39.0</ele><time>2026-03-25T13:03:22.999Z</time></trkpt><trkpt lat="41.86357071907996" lon="12.49702188669352"><ele>39.0</ele><time>2026-03-25T13:03:23.999Z</time></trkpt><trkpt lat="41.863630290986244" lon="12.496993170247002"><ele>39.0</ele><time>2026-03-25T13:03:25.999Z</time></trkpt><trkpt lat="41.86366960775584" lon="12.497180163842621"><ele>39.0</ele><time>2026-03-25T13:03:29.999Z</time></trkpt><trkpt lat="41.863684061288374" lon="12.497265956500744"><ele>39.0</ele><time>2026-03-25T13:03:30.999Z</time></trkpt><trkpt lat="41.86369930361522" lon="12.497356432192312"><ele>39.0</ele><time>2026-03-25T13:03:31.999Z</time></trkpt><trkpt lat="41.86373942279093" lon="12.497435907374339"><ele>39.6</ele><time>2026-03-25T13:03:32.999Z</time></trkpt><trkpt lat="41.86376426383265" lon="12.497586309047335"><ele>40.2</ele><time>2026-03-25T13:03:34.999Z</time></trkpt><trkpt lat="41.86378655622491" lon="12.497711287393873"><ele>40.800000000000004</ele><time>2026-03-25T13:03:36.999Z</time></trkpt><trkpt lat="41.86389657443999" lon="12.49771990492063"><ele>41.4</ele><time>2026-03-25T13:04:02.999Z</time></trkpt><trkpt lat="41.86394278617707" lon="12.49786413441139"><ele>42.0</ele><time>2026-03-25T13:04:05.999Z</time></trkpt><trkpt lat="41.86404993213109" lon="12.497834093363531"><ele>42.0</ele><time>2026-03-25T13:04:07.999Z</time></trkpt><trkpt lat="41.8641183676504" lon="12.497790726599167"><ele>42.0</ele><time>2026-03-25T13:04:08.999Z</time></trkpt><trkpt lat="41.86418718876589" lon="12.497777560030789"><ele>42.0</ele><time>2026-03-25T13:04:09.999Z</time></trkpt><trkpt lat="41.864255512925894" lon="12.497765397362294"><ele>42.0</ele><time>2026-03-25T13:04:10.999Z</time></trkpt><trkpt lat="41.8643230075484" lon="12.497749945014425"><ele>42.0</ele><time>2026-03-25T13:04:11.999Z</time></trkpt><trkpt lat="41.86438711552675" lon="12.497725629557168"><ele>42.0</ele><time>2026-03-25T13:04:12.999Z</time></trkpt><trkpt lat="41.86445189889874" lon="12.497695890447016"><ele>42.0</ele><time>2026-03-25T13:04:13.999Z</time></trkpt><trkpt lat="41.86451849240721" lon="12.4976837007923"><ele>41.57142857142857</ele><time>2026-03-25T13:04:14.999Z</time></trkpt><trkpt lat="41.864581999643875" lon="12.497667108380211"><ele>41.14285714285714</ele><time>2026-03-25T13:04:15.999Z</time></trkpt><trkpt lat="41.86464712929098" lon="12.497656930689399"><ele>40.714285714285715</ele><time>2026-03-25T13:04:16.999Z</time></trkpt><trkpt lat="41.86471294086369" lon="12.49762702760042"><ele>40.285714285714285</ele><time>2026-03-25T13:04:17.999Z</time></trkpt><trkpt lat="41.86477662177264" lon="12.497602505907135"><ele>39.857142857142854</ele><time>2026-03-25T13:04:18.999Z</time></trkpt><trkpt lat="41.864839388187434" lon="12.497591453353754"><ele>39.42857142857143</ele><time>2026-03-25T13:04:19.999Z</time></trkpt><trkpt lat="41.86490528470523" lon="12.497569809102234"><ele>39.0</ele><time>2026-03-25T13:04:20.999Z</time></trkpt><trkpt lat="41.86497781525816" lon="12.497545321441986"><ele>39.0</ele><time>2026-03-25T13:04:21.999Z</time></trkpt><trkpt lat="41.86504954442861" lon="12.497525729254333"><ele>39.0</ele><time>2026-03-25T13:04:22.998Z</time></trkpt><trkpt lat="41.86511622525968" lon="12.497506424283713"><ele>39.0</ele><time>2026-03-25T13:04:23.998Z</time></trkpt><trkpt lat="41.865191750896486" lon="12.49748890486183"><ele>39.0</ele><time>2026-03-25T13:04:24.998Z</time></trkpt><trkpt lat="41.86526386319392" lon="12.497469573459004"><ele>39.0</ele><time>2026-03-25T13:04:25.998Z</time></trkpt><trkpt lat="41.86533518336901" lon="12.497469382642048"><ele>39.0</ele><time>2026-03-25T13:04:26.998Z</time></trkpt><trkpt lat="41.86547071337207" lon="12.497450499387414"><ele>38.57142857142858</ele><time>2026-03-25T13:04:28.998Z</time></trkpt><trkpt lat="41.86556144005704" lon="12.497386745445118"><ele>38.14285714285714</ele><time>2026-03-25T13:04:31Z</time></trkpt><trkpt lat="41.8656283193004" lon="12.497378431116267"><ele>37.714285714285715</ele><time>2026-03-25T13:04:32Z</time></trkpt><trkpt lat="41.86569720890306" lon="12.497364328019925"><ele>37.28571428571429</ele><time>2026-03-25T13:04:33Z</time></trkpt><trkpt lat="41.865762179709584" lon="12.497345217177136"><ele>36.85714285714286</ele><time>2026-03-25T13:04:34Z</time></trkpt><trkpt lat="41.86583279372957" lon="12.497315160623323"><ele>36.42857142857143</ele><time>2026-03-25T13:04:35Z</time></trkpt><trkpt lat="41.86589695959635" lon="12.49729144549098"><ele>36.0</ele><time>2026-03-25T13:04:36Z</time></trkpt><trkpt lat="41.865964984134344" lon="12.497288405651311"><ele>34.666666666666664</ele><time>2026-03-25T13:04:37Z</time></trkpt><trkpt lat="41.866030973722005" lon="12.497265068504653"><ele>33.333333333333336</ele><time>2026-03-25T13:04:38Z</time></trkpt><trkpt lat="41.866098273708744" lon="12.497247137639999"><ele>32.0</ele><time>2026-03-25T13:04:39Z</time></trkpt><trkpt lat="41.86616660070032" lon="12.497216292448678"><ele>30.666666666666668</ele><time>2026-03-25T13:04:40Z</time></trkpt><trkpt lat="41.86628385163195" lon="12.497194903099363"><ele>29.333333333333336</ele><time>2026-03-25T13:04:42Z</time></trkpt><trkpt lat="41.866353984010864" lon="12.497115489453419"><ele>28.0</ele><time>2026-03-25T13:04:45Z</time></trkpt><trkpt lat="41.866458916723715" lon="12.497075111720381"><ele>28.000000000000004</ele><time>2026-03-25T13:04:47Z</time></trkpt><trkpt lat="41.866525844759984" lon="12.49705928306687"><ele>28.0</ele><time>2026-03-25T13:04:48Z</time></trkpt><trkpt lat="41.866605308738876" lon="12.497046532184807"><ele>28.0</ele><time>2026-03-25T13:04:49Z</time></trkpt><trkpt lat="41.866667542296604" lon="12.497032346938584"><ele>28.0</ele><time>2026-03-25T13:04:50Z</time></trkpt><trkpt lat="41.86678690634559" lon="12.497015283435552"><ele>28.000000000000004</ele><time>2026-03-25T13:04:52Z</time></trkpt><trkpt lat="41.86689652552422" lon="12.496975228938737"><ele>28.0</ele><time>2026-03-25T13:04:54Z</time></trkpt><trkpt lat="41.86698897499422" lon="12.496897685392742"><ele>27.0</ele><time>2026-03-25T13:04:56Z</time></trkpt><trkpt lat="41.86707211013461" lon="12.496826732562242"><ele>25.999999999999996</ele><time>2026-03-25T13:04:58Z</time></trkpt><trkpt lat="41.8671426230662" lon="12.49685014483887"><ele>25.0</ele><time>2026-03-25T13:04:59Z</time></trkpt><trkpt lat="41.86721074188497" lon="12.496852415050155"><ele>24.0</ele><time>2026-03-25T13:05:00Z</time></trkpt><trkpt lat="41.86732972779069" lon="12.49683430101865"><ele>23.0</ele><time>2026-03-25T13:05:02Z</time></trkpt><trkpt lat="41.86744284224699" lon="12.496815707733365"><ele>23.0</ele><time>2026-03-25T13:05:04Z</time></trkpt><trkpt lat="41.86756424986311" lon="12.49679711219968"><ele>23.0</ele><time>2026-03-25T13:05:06Z</time></trkpt><trkpt lat="41.86762946392981" lon="12.496775451402067"><ele>23.0</ele><time>2026-03-25T13:05:07Z</time></trkpt><trkpt lat="41.86769765530504" lon="12.49674055958143"><ele>23.0</ele><time>2026-03-25T13:05:08Z</time></trkpt><trkpt lat="41.86774133099471" lon="12.496545077881809"><ele>23.0</ele><time>2026-03-25T13:05:09Z</time></trkpt><trkpt lat="41.86785974347372" lon="12.496530223588957"><ele>22.5</ele><time>2026-03-25T13:05:11Z</time></trkpt><trkpt lat="41.867927152387566" lon="12.496521683983397"><ele>22.0</ele><time>2026-03-25T13:05:12Z</time></trkpt><trkpt lat="41.86799429207858" lon="12.496513178477004"><ele>21.5</ele><time>2026-03-25T13:05:13Z</time></trkpt><trkpt lat="41.86805744092428" lon="12.496505178551939"><ele>21.0</ele><time>2026-03-25T13:05:14Z</time></trkpt><trkpt lat="41.86818255767307" lon="12.496488165204417"><ele>20.5</ele><time>2026-03-25T13:05:16Z</time></trkpt><trkpt lat="41.86829600207326" lon="12.496466240867061"><ele>20.0</ele><time>2026-03-25T13:05:18Z</time></trkpt><trkpt lat="41.868368856167024" lon="12.49645855853828"><ele>19.75</ele><time>2026-03-25T13:05:19Z</time></trkpt><trkpt lat="41.86849873982897" lon="12.496450162647744"><ele>19.5</ele><time>2026-03-25T13:05:20.999Z</time></trkpt><trkpt lat="41.86862672643548" lon="12.496449450687589"><ele>19.25</ele><time>2026-03-25T13:05:22.999Z</time></trkpt><trkpt lat="41.868751618908135" lon="12.496451601260475"><ele>19.0</ele><time>2026-03-25T13:05:24.999Z</time></trkpt><trkpt lat="41.86881905604784" lon="12.496455400364075"><ele>19.0</ele><time>2026-03-25T13:05:25.999Z</time></trkpt><trkpt lat="41.868936047729385" lon="12.496462601501205"><ele>19.0</ele><time>2026-03-25T13:05:27.999Z</time></trkpt><trkpt lat="41.8690647255645" lon="12.496471292439638"><ele>19.0</ele><time>2026-03-25T13:05:29.999Z</time></trkpt><trkpt lat="41.86918105544061" lon="12.496479475593308"><ele>19.0</ele><time>2026-03-25T13:05:31.999Z</time></trkpt><trkpt lat="41.86929053639026" lon="12.496487176964722"><ele>19.799999999999997</ele><time>2026-03-25T13:05:33.999Z</time></trkpt><trkpt lat="41.86935670945309" lon="12.496492682601973"><ele>20.599999999999998</ele><time>2026-03-25T13:05:34.999Z</time></trkpt><trkpt lat="41.869420510803295" lon="12.496498680469344"><ele>21.4</ele><time>2026-03-25T13:05:35.999Z</time></trkpt><trkpt lat="41.869536106039384" lon="12.49650868695435"><ele>22.2</ele><time>2026-03-25T13:05:37.999Z</time></trkpt><trkpt lat="41.86964856907302" lon="12.496518165887537"><ele>23.0</ele><time>2026-03-25T13:05:39.999Z</time></trkpt><trkpt lat="41.86975173765269" lon="12.496525300758138"><ele>23.0</ele><time>2026-03-25T13:05:41.999Z</time></trkpt><trkpt lat="41.86985766414577" lon="12.496532474757805"><ele>23.0</ele><time>2026-03-25T13:05:43.999Z</time></trkpt><trkpt lat="41.869962382460926" lon="12.496540114279197"><ele>23.0</ele><time>2026-03-25T13:05:45.999Z</time></trkpt><trkpt lat="41.87006781649187" lon="12.49654780601657"><ele>23.0</ele><time>2026-03-25T13:05:47.999Z</time></trkpt><trkpt lat="41.87011253881908" lon="12.496685782253204"><ele>23.0</ele><time>2026-03-25T13:05:48.999Z</time></trkpt><trkpt lat="41.870212703976506" lon="12.49666842329037"><ele>24.2</ele><time>2026-03-25T13:05:50.999Z</time></trkpt><trkpt lat="41.870312703041314" lon="12.496642301525675"><ele>25.4</ele><time>2026-03-25T13:05:52.999Z</time></trkpt><trkpt lat="41.87040068744081" lon="12.496650789119276"><ele>26.599999999999998</ele><time>2026-03-25T13:05:54.999Z</time></trkpt><trkpt lat="41.870515220763096" lon="12.496658471953461"><ele>27.799999999999997</ele><time>2026-03-25T13:05:56.999Z</time></trkpt><trkpt lat="41.87063605155211" lon="12.496667741734452"><ele>29.0</ele><time>2026-03-25T13:05:58.999Z</time></trkpt><trkpt lat="41.8707001538904" lon="12.49667795428224"><ele>29.0</ele><time>2026-03-25T13:05:59.999Z</time></trkpt><trkpt lat="41.87082066680894" lon="12.49668539024956"><ele>29.0</ele><time>2026-03-25T13:06:01.999Z</time></trkpt><trkpt lat="41.870928142720864" lon="12.496703064148493"><ele>29.0</ele><time>2026-03-25T13:06:03.999Z</time></trkpt><trkpt lat="41.871026573878574" lon="12.49670942139959"><ele>29.0</ele><time>2026-03-25T13:06:05.999Z</time></trkpt><trkpt lat="41.871060829697" lon="12.4966225880701"><ele>29.0</ele><time>2026-03-25T13:06:07.999Z</time></trkpt><trkpt lat="41.87106521223284" lon="12.49674713533548"><ele>30.6</ele><time>2026-03-25T13:06:08.999Z</time></trkpt><trkpt lat="41.87115811932637" lon="12.496761336609678"><ele>32.2</ele><time>2026-03-25T13:06:14.999Z</time></trkpt><trkpt lat="41.871259162731825" lon="12.496741092363425"><ele>33.800000000000004</ele><time>2026-03-25T13:06:16.999Z</time></trkpt><trkpt lat="41.871366051379916" lon="12.496747327185375"><ele>35.4</ele><time>2026-03-25T13:06:18.999Z</time></trkpt><trkpt lat="41.871462056048905" lon="12.49676236619288"><ele>37.0</ele><time>2026-03-25T13:06:21.999Z</time></trkpt><trkpt lat="41.87157956400128" lon="12.4967646383017"><ele>37.0</ele><time>2026-03-25T13:06:23.999Z</time></trkpt><trkpt lat="41.87164485489719" lon="12.496752434553123"><ele>37.0</ele><time>2026-03-25T13:06:24.999Z</time></trkpt><trkpt lat="41.87176391136279" lon="12.496762872953367"><ele>37.0</ele><time>2026-03-25T13:06:26.999Z</time></trkpt><trkpt lat="41.87183148993499" lon="12.496764031405334"><ele>37.0</ele><time>2026-03-25T13:06:27.999Z</time></trkpt><trkpt lat="41.87194296725224" lon="12.496800024418398"><ele>37.0</ele><time>2026-03-25T13:06:29.998Z</time></trkpt><trkpt lat="41.872004595815206" lon="12.496819225159996"><ele>37.0</ele><time>2026-03-25T13:06:30.998Z</time></trkpt><trkpt lat="41.87206903811097" lon="12.496833161211883"><ele>37.75</ele><time>2026-03-25T13:06:31.998Z</time></trkpt><trkpt lat="41.872184814349296" lon="12.496853261834369"><ele>38.5</ele><time>2026-03-25T13:06:33.998Z</time></trkpt><trkpt lat="41.87230812779256" lon="12.496852197495516"><ele>39.25</ele><time>2026-03-25T13:06:35.998Z</time></trkpt><trkpt lat="41.87243205800744" lon="12.49686778441866"><ele>40.0</ele><time>2026-03-25T13:06:38Z</time></trkpt><trkpt lat="41.872556397346" lon="12.496873190491748"><ele>39.6</ele><time>2026-03-25T13:06:40Z</time></trkpt><trkpt lat="41.872621873213134" lon="12.496761085715065"><ele>39.2</ele><time>2026-03-25T13:06:41Z</time></trkpt><trkpt lat="41.87271926422831" lon="12.496883410729286"><ele>38.8</ele><time>2026-03-25T13:06:43Z</time></trkpt><trkpt lat="41.8728082333022" lon="12.49688737412807"><ele>38.4</ele><time>2026-03-25T13:06:45Z</time></trkpt><trkpt lat="41.872857808655596" lon="12.496778756828158"><ele>38.0</ele><time>2026-03-25T13:06:47Z</time></trkpt><trkpt lat="41.872952814618706" lon="12.496785872625145"><ele>38.0</ele><time>2026-03-25T13:06:49Z</time></trkpt><trkpt lat="41.87301045688689" lon="12.496915641119719"><ele>38.0</ele><time>2026-03-25T13:06:50Z</time></trkpt><trkpt lat="41.87311434331625" lon="12.496902930529338"><ele>38.0</ele><time>2026-03-25T13:06:52Z</time></trkpt><trkpt lat="41.87317744728987" lon="12.496910966346984"><ele>38.0</ele><time>2026-03-25T13:06:54Z</time></trkpt><trkpt lat="41.87328882323095" lon="12.496887097276657"><ele>38.0</ele><time>2026-03-25T13:07:00Z</time></trkpt><trkpt lat="41.87340117004766" lon="12.496904121052193"><ele>38.199999999999996</ele><time>2026-03-25T13:07:02Z</time></trkpt><trkpt lat="41.87346524801905" lon="12.496924298193226"><ele>38.4</ele><time>2026-03-25T13:07:03Z</time></trkpt><trkpt lat="41.873532195540854" lon="12.496929918008878"><ele>38.599999999999994</ele><time>2026-03-25T13:07:04Z</time></trkpt><trkpt lat="41.8736559020476" lon="12.496938376464302"><ele>38.8</ele><time>2026-03-25T13:07:06Z</time></trkpt><trkpt lat="41.873779379892795" lon="12.496949672151201"><ele>39.0</ele><time>2026-03-25T13:07:08Z</time></trkpt><trkpt lat="41.87390369944845" lon="12.496932324614615"><ele>39.0</ele><time>2026-03-25T13:07:10Z</time></trkpt><trkpt lat="41.87396286337556" lon="12.496883450826921"><ele>39.0</ele><time>2026-03-25T13:07:11Z</time></trkpt><trkpt lat="41.874019442620146" lon="12.496944197271368"><ele>39.0</ele><time>2026-03-25T13:07:12Z</time></trkpt><trkpt lat="41.87408702824828" lon="12.49695590538134"><ele>39.0</ele><time>2026-03-25T13:07:13Z</time></trkpt><trkpt lat="41.8741529192755" lon="12.496958900649712"><ele>39.0</ele><time>2026-03-25T13:07:14Z</time></trkpt><trkpt lat="41.874277505913874" lon="12.496952071007312"><ele>39.0</ele><time>2026-03-25T13:07:16Z</time></trkpt><trkpt lat="41.87440221864876" lon="12.4969322251184"><ele>39.6</ele><time>2026-03-25T13:07:18Z</time></trkpt><trkpt lat="41.87452752971615" lon="12.496913999454563"><ele>40.2</ele><time>2026-03-25T13:07:20Z</time></trkpt><trkpt lat="41.87458957648254" lon="12.496899334116366"><ele>40.800000000000004</ele><time>2026-03-25T13:07:21Z</time></trkpt><trkpt lat="41.87465195105463" lon="12.496884569260445"><ele>41.4</ele><time>2026-03-25T13:07:22Z</time></trkpt><trkpt lat="41.874772756049865" lon="12.496855434917727"><ele>42.0</ele><time>2026-03-25T13:07:24Z</time></trkpt><trkpt lat="41.874891817850724" lon="12.496806789366435"><ele>42.0</ele><time>2026-03-25T13:07:26Z</time></trkpt><trkpt lat="41.875012667348884" lon="12.49677218217956"><ele>42.0</ele><time>2026-03-25T13:07:27.999Z</time></trkpt><trkpt lat="41.87507487416325" lon="12.496758305035872"><ele>42.0</ele><time>2026-03-25T13:07:28.999Z</time></trkpt><trkpt lat="41.87519082784544" lon="12.496702415984624"><ele>42.0</ele><time>2026-03-25T13:07:30.999Z</time></trkpt><trkpt lat="41.875306322556966" lon="12.496636106786593"><ele>42.0</ele><time>2026-03-25T13:07:32.999Z</time></trkpt><trkpt lat="41.87535529402149" lon="12.49654426814906"><ele>42.333333333333336</ele><time>2026-03-25T13:07:33.999Z</time></trkpt><trkpt lat="41.87548070175323" lon="12.496486413011187"><ele>42.666666666666664</ele><time>2026-03-25T13:07:35.999Z</time></trkpt><trkpt lat="41.87554121975133" lon="12.4964584938669"><ele>43.0</ele><time>2026-03-25T13:07:36.999Z</time></trkpt><trkpt lat="41.8756039979633" lon="12.496429532010032"><ele>43.33333333333333</ele><time>2026-03-25T13:07:37.999Z</time></trkpt><trkpt lat="41.87566557119761" lon="12.496401126032636"><ele>43.666666666666664</ele><time>2026-03-25T13:07:38.999Z</time></trkpt><trkpt lat="41.875777708664195" lon="12.496348317880841"><ele>44.0</ele><time>2026-03-25T13:07:40.999Z</time></trkpt><trkpt lat="41.8758440450602" lon="12.49634949910375"><ele>44.0</ele><time>2026-03-25T13:07:41.999Z</time></trkpt><trkpt lat="41.87591186752997" lon="12.496318435128211"><ele>44.0</ele><time>2026-03-25T13:07:42.999Z</time></trkpt><trkpt lat="41.875969762658436" lon="12.496280679151003"><ele>44.0</ele><time>2026-03-25T13:07:43.999Z</time></trkpt><trkpt lat="41.87603492589833" lon="12.49626104536284"><ele>44.0</ele><time>2026-03-25T13:07:44.999Z</time></trkpt><trkpt lat="41.87609914437026" lon="12.496236063845855"><ele>44.0</ele><time>2026-03-25T13:07:45.999Z</time></trkpt><trkpt lat="41.87616692135229" lon="12.496206370711052"><ele>44.0</ele><time>2026-03-25T13:07:46.999Z</time></trkpt><trkpt lat="41.876231639723244" lon="12.4961811134793"><ele>44.0</ele><time>2026-03-25T13:07:47.999Z</time></trkpt><trkpt lat="41.87629190655275" lon="12.496109884332471"><ele>43.166666666666664</ele><time>2026-03-25T13:07:48.999Z</time></trkpt><trkpt lat="41.87635494735088" lon="12.496080799056632"><ele>42.33333333333333</ele><time>2026-03-25T13:07:49.999Z</time></trkpt><trkpt lat="41.876432514780035" lon="12.496086458189362"><ele>41.5</ele><time>2026-03-25T13:07:50.999Z</time></trkpt><trkpt lat="41.87649231719051" lon="12.496029610736322"><ele>40.666666666666664</ele><time>2026-03-25T13:07:51.999Z</time></trkpt><trkpt lat="41.87655652630956" lon="12.495990732595637"><ele>39.833333333333336</ele><time>2026-03-25T13:07:52.999Z</time></trkpt><trkpt lat="41.87667566680701" lon="12.495950643912627"><ele>39.0</ele><time>2026-03-25T13:07:54.999Z</time></trkpt><trkpt lat="41.876742328934725" lon="12.495927875198152"><ele>38.833333333333336</ele><time>2026-03-25T13:07:55.999Z</time></trkpt><trkpt lat="41.87680674956028" lon="12.495898692770691"><ele>38.666666666666664</ele><time>2026-03-25T13:07:56.999Z</time></trkpt><trkpt lat="41.8768736948399" lon="12.495872966636291"><ele>38.5</ele><time>2026-03-25T13:07:57.999Z</time></trkpt><trkpt lat="41.87693956941762" lon="12.495840544171708"><ele>38.33333333333333</ele><time>2026-03-25T13:07:58.999Z</time></trkpt><trkpt lat="41.877014139863746" lon="12.495811800357702"><ele>38.166666666666664</ele><time>2026-03-25T13:07:59.999Z</time></trkpt><trkpt lat="41.87714008355505" lon="12.495756324853858"><ele>38.0</ele><time>2026-03-25T13:08:01.999Z</time></trkpt><trkpt lat="41.87720721495892" lon="12.495726535867128"><ele>38.0</ele><time>2026-03-25T13:08:02.999Z</time></trkpt><trkpt lat="41.877278592885915" lon="12.495701668895048"><ele>38.0</ele><time>2026-03-25T13:08:03.999Z</time></trkpt><trkpt lat="41.87734942074298" lon="12.495679390995102"><ele>38.0</ele><time>2026-03-25T13:08:04.999Z</time></trkpt><trkpt lat="41.8774293912167" lon="12.495655207634917"><ele>38.0</ele><time>2026-03-25T13:08:05.999Z</time></trkpt><trkpt lat="41.87750072098367" lon="12.4956479943623"><ele>38.0</ele><time>2026-03-25T13:08:06.999Z</time></trkpt><trkpt lat="41.87757890224028" lon="12.495641978671804"><ele>38.0</ele><time>2026-03-25T13:08:07.999Z</time></trkpt><trkpt lat="41.87765410769877" lon="12.495635950134407"><ele>37.33333333333333</ele><time>2026-03-25T13:08:08.999Z</time></trkpt><trkpt lat="41.87773653825281" lon="12.495635948286294"><ele>36.666666666666664</ele><time>2026-03-25T13:08:09.999Z</time></trkpt><trkpt lat="41.87781736680184" lon="12.49564818847291"><ele>36.0</ele><time>2026-03-25T13:08:10.999Z</time></trkpt><trkpt lat="41.87789415633221" lon="12.495658049313118"><ele>35.333333333333336</ele><time>2026-03-25T13:08:11.999Z</time></trkpt><trkpt lat="41.877982842431344" lon="12.495664475256199"><ele>34.66666666666667</ele><time>2026-03-25T13:08:12.999Z</time></trkpt><trkpt lat="41.87806152593653" lon="12.495671444287574"><ele>34.0</ele><time>2026-03-25T13:08:13.999Z</time></trkpt><trkpt lat="41.878141803278986" lon="12.495672788423814"><ele>34.0</ele><time>2026-03-25T13:08:14.999Z</time></trkpt><trkpt lat="41.87822036512844" lon="12.495675669209605"><ele>34.0</ele><time>2026-03-25T13:08:15.999Z</time></trkpt><trkpt lat="41.87829846116429" lon="12.495679673141705"><ele>34.0</ele><time>2026-03-25T13:08:16.999Z</time></trkpt><trkpt lat="41.878381640743804" lon="12.495681269267182"><ele>34.0</ele><time>2026-03-25T13:08:17.999Z</time></trkpt><trkpt lat="41.878457174034516" lon="12.495689426825523"><ele>34.0</ele><time>2026-03-25T13:08:18.999Z</time></trkpt><trkpt lat="41.87854071870448" lon="12.495696586973791"><ele>34.0</ele><time>2026-03-25T13:08:19.999Z</time></trkpt><trkpt lat="41.878619256958444" lon="12.49569623008188"><ele>33.0</ele><time>2026-03-25T13:08:20.999Z</time></trkpt><trkpt lat="41.87869866477292" lon="12.49570321580662"><ele>32.0</ele><time>2026-03-25T13:08:21.999Z</time></trkpt><trkpt lat="41.87877054674735" lon="12.495702526728783"><ele>31.0</ele><time>2026-03-25T13:08:22.999Z</time></trkpt><trkpt lat="41.878888105873685" lon="12.495662338706273"><ele>30.0</ele><time>2026-03-25T13:08:24.999Z</time></trkpt><trkpt lat="41.87895539235222" lon="12.495665149387637"><ele>29.000000000000004</ele><time>2026-03-25T13:08:25.999Z</time></trkpt><trkpt lat="41.87902379551908" lon="12.495683132892689"><ele>28.0</ele><time>2026-03-25T13:08:26.999Z</time></trkpt><trkpt lat="41.879089317394715" lon="12.495691001140111"><ele>28.0</ele><time>2026-03-25T13:08:27.999Z</time></trkpt><trkpt lat="41.879160097568686" lon="12.495695731376864"><ele>28.0</ele><time>2026-03-25T13:08:28.999Z</time></trkpt><trkpt lat="41.879229294213175" lon="12.495699071929828"><ele>28.0</ele><time>2026-03-25T13:08:29.999Z</time></trkpt><trkpt lat="41.879294924824144" lon="12.495700517864938"><ele>28.0</ele><time>2026-03-25T13:08:30.999Z</time></trkpt><trkpt lat="41.87936114166461" lon="12.495710746537075"><ele>28.0</ele><time>2026-03-25T13:08:31.999Z</time></trkpt><trkpt lat="41.87942326271768" lon="12.495739974737143"><ele>28.0</ele><time>2026-03-25T13:08:32.999Z</time></trkpt><trkpt lat="41.87947655661722" lon="12.495786353732493"><ele>28.0</ele><time>2026-03-25T13:08:33.999Z</time></trkpt><trkpt lat="41.87951813627956" lon="12.495851253942634"><ele>27.75</ele><time>2026-03-25T13:08:34.999Z</time></trkpt><trkpt lat="41.879592903681605" lon="12.495833467536762"><ele>27.5</ele><time>2026-03-25T13:09:28Z</time></trkpt><trkpt lat="41.879714267876075" lon="12.49560430214304"><ele>27.25</ele><time>2026-03-25T13:09:32.999Z</time></trkpt><trkpt lat="41.87971131733831" lon="12.495491604794417"><ele>27.0</ele><time>2026-03-25T13:09:35.999Z</time></trkpt><trkpt lat="41.8795691846351" lon="12.495514377335748"><ele>28.333333333333336</ele><time>2026-03-25T13:09:37.999Z</time></trkpt><trkpt lat="41.87945431861449" lon="12.49529664167506"><ele>29.666666666666668</ele><time>2026-03-25T13:09:39.999Z</time></trkpt><trkpt lat="41.879419798935466" lon="12.49516278257092"><ele>31.0</ele><time>2026-03-25T13:09:41.999Z</time></trkpt><trkpt lat="41.87968015713174" lon="12.494957955571238"><ele>31.0</ele><time>2026-03-25T13:09:43.999Z</time></trkpt><trkpt lat="41.879779559034894" lon="12.49484760657119"><ele>31.0</ele><time>2026-03-25T13:09:45.999Z</time></trkpt><trkpt lat="41.879742426750475" lon="12.494674690729534"><ele>31.0</ele><time>2026-03-25T13:09:46.999Z</time></trkpt><trkpt lat="41.87990724084842" lon="12.49467880326601"><ele>31.0</ele><time>2026-03-25T13:09:48.999Z</time></trkpt><trkpt lat="41.879991040404946" lon="12.494551955219096"><ele>30.666666666666668</ele><time>2026-03-25T13:09:50.999Z</time></trkpt><trkpt lat="41.88006387997092" lon="12.494428649444817"><ele>30.333333333333336</ele><time>2026-03-25T13:09:52.999Z</time></trkpt><trkpt lat="41.88010133771565" lon="12.494359730772352"><ele>30.0</ele><time>2026-03-25T13:09:53.999Z</time></trkpt><trkpt lat="41.880144679008126" lon="12.494288654412399"><ele>29.666666666666664</ele><time>2026-03-25T13:09:54.999Z</time></trkpt><trkpt lat="41.880185445591266" lon="12.49422414685583"><ele>29.333333333333332</ele><time>2026-03-25T13:09:55.999Z</time></trkpt><trkpt lat="41.88026048034151" lon="12.494104891660383"><ele>29.0</ele><time>2026-03-25T13:09:57.999Z</time></trkpt><trkpt lat="41.880295576164734" lon="12.493933125934529"><ele>28.799999999999997</ele><time>2026-03-25T13:09:59.999Z</time></trkpt><trkpt lat="41.88034261819004" lon="12.493869927511357"><ele>28.599999999999998</ele><time>2026-03-25T13:10:00.999Z</time></trkpt><trkpt lat="41.880387824641154" lon="12.493809195085701"><ele>28.4</ele><time>2026-03-25T13:10:01.999Z</time></trkpt><trkpt lat="41.88046148722191" lon="12.493710233530695"><ele>28.2</ele><time>2026-03-25T13:10:03.999Z</time></trkpt><trkpt lat="41.88051543600834" lon="12.493637756740416"><ele>28.0</ele><time>2026-03-25T13:10:05.999Z</time></trkpt><trkpt lat="41.880844231209835" lon="12.4938980366938"><ele>29.0</ele><time>2026-03-25T13:10:07.999Z</time></trkpt><trkpt lat="41.88095317687405" lon="12.493842782178668"><ele>29.999999999999996</ele><time>2026-03-25T13:10:09.999Z</time></trkpt><trkpt lat="41.8810408702667" lon="12.493752564220166"><ele>30.999999999999996</ele><time>2026-03-25T13:10:11.999Z</time></trkpt><trkpt lat="41.88111384006253" lon="12.493618542193634"><ele>32.0</ele><time>2026-03-25T13:10:13.999Z</time></trkpt><trkpt lat="41.88114515274371" lon="12.493541947450376"><ele>33.0</ele><time>2026-03-25T13:10:14.999Z</time></trkpt><trkpt lat="41.88121847139096" lon="12.493404626402818"><ele>33.6</ele><time>2026-03-25T13:10:16.999Z</time></trkpt><trkpt lat="41.881291029233175" lon="12.49330268352255"><ele>34.199999999999996</ele><time>2026-03-25T13:10:18.999Z</time></trkpt><trkpt lat="41.88135062754663" lon="12.493201686363463"><ele>34.8</ele><time>2026-03-25T13:10:20.999Z</time></trkpt><trkpt lat="41.881429850728814" lon="12.493095355786396"><ele>35.4</ele><time>2026-03-25T13:10:22.999Z</time></trkpt><trkpt lat="41.881477841334636" lon="12.49302191316287"><ele>36.0</ele><time>2026-03-25T13:10:23.999Z</time></trkpt><trkpt lat="41.88152201006457" lon="12.492959104737661"><ele>34.0</ele><time>2026-03-25T13:10:24.999Z</time></trkpt><trkpt lat="41.88160175127553" lon="12.492842094003988"><ele>32.0</ele><time>2026-03-25T13:10:26.999Z</time></trkpt><trkpt lat="41.881683324163916" lon="12.492721890320661"><ele>30.0</ele><time>2026-03-25T13:10:28.999Z</time></trkpt><trkpt lat="41.881763080242735" lon="12.492589604163793"><ele>28.0</ele><time>2026-03-25T13:10:30.999Z</time></trkpt><trkpt lat="41.881836415767225" lon="12.49246961469466"><ele>28.0</ele><time>2026-03-25T13:10:32.999Z</time></trkpt><trkpt lat="41.88190273508091" lon="12.492358957802825"><ele>27.999999999999996</ele><time>2026-03-25T13:10:34.999Z</time></trkpt><trkpt lat="41.88197213317514" lon="12.492248471494882"><ele>27.999999999999996</ele><time>2026-03-25T13:10:36.999Z</time></trkpt><trkpt lat="41.88201024072621" lon="12.492180267738318"><ele>28.0</ele><time>2026-03-25T13:10:37.999Z</time></trkpt><trkpt lat="41.88208992444929" lon="12.492055839122074"><ele>28.0</ele><time>2026-03-25T13:10:39.999Z</time></trkpt><trkpt lat="41.882119196233546" lon="12.491869993625043"><ele>27.799999999999997</ele><time>2026-03-25T13:10:41.998Z</time></trkpt><trkpt lat="41.88216290576319" lon="12.491807480200999"><ele>27.599999999999998</ele><time>2026-03-25T13:10:42.998Z</time></trkpt><trkpt lat="41.88224579414355" lon="12.491688933157631"><ele>27.400000000000002</ele><time>2026-03-25T13:10:44.998Z</time></trkpt><trkpt lat="41.88232746563359" lon="12.49157212663682"><ele>27.200000000000003</ele><time>2026-03-25T13:10:46.998Z</time></trkpt><trkpt lat="41.88237232932221" lon="12.491507962988374"><ele>27.0</ele><time>2026-03-25T13:10:47.998Z</time></trkpt><trkpt lat="41.88244857128832" lon="12.49139892239757"><ele>27.0</ele><time>2026-03-25T13:10:50Z</time></trkpt><trkpt lat="41.882534430465675" lon="12.49127612735582"><ele>27.000000000000004</ele><time>2026-03-25T13:10:52Z</time></trkpt><trkpt lat="41.88258710141344" lon="12.491226489196112"><ele>27.000000000000004</ele><time>2026-03-25T13:10:53Z</time></trkpt><trkpt lat="41.88265551703726" lon="12.49112146145131"><ele>27.0</ele><time>2026-03-25T13:10:55Z</time></trkpt><trkpt lat="41.882695182353764" lon="12.491009423233114"><ele>27.0</ele><time>2026-03-25T13:10:57Z</time></trkpt><trkpt lat="41.88269360252699" lon="12.490849285588686"><ele>27.400000000000002</ele><time>2026-03-25T13:10:59Z</time></trkpt><trkpt lat="41.882701622889364" lon="12.490718879350657"><ele>27.800000000000004</ele><time>2026-03-25T13:11:01Z</time></trkpt><trkpt lat="41.88279424959453" lon="12.490669836263343"><ele>28.2</ele><time>2026-03-25T13:11:04Z</time></trkpt><trkpt lat="41.88287938524609" lon="12.490647113519115"><ele>28.6</ele><time>2026-03-25T13:11:06Z</time></trkpt><trkpt lat="41.882925902965226" lon="12.490588390041307"><ele>29.0</ele><time>2026-03-25T13:11:13Z</time></trkpt><trkpt lat="41.88290403230873" lon="12.490450985588705"><ele>27.75</ele><time>2026-03-25T13:11:16Z</time></trkpt><trkpt lat="41.88293826644746" lon="12.490286526019332"><ele>26.5</ele><time>2026-03-25T13:11:18Z</time></trkpt><trkpt lat="41.88299480300686" lon="12.490154120442805"><ele>25.25</ele><time>2026-03-25T13:11:20Z</time></trkpt><trkpt lat="41.88313221839896" lon="12.490277350673432"><ele>24.0</ele><time>2026-03-25T13:11:22Z</time></trkpt><trkpt lat="41.883211262226" lon="12.490251582513093"><ele>24.0</ele><time>2026-03-25T13:11:23Z</time></trkpt><trkpt lat="41.88330320735807" lon="12.490184792067298"><ele>24.0</ele><time>2026-03-25T13:11:25Z</time></trkpt><trkpt lat="41.883373346258146" lon="12.49015302577892"><ele>24.0</ele><time>2026-03-25T13:11:27Z</time></trkpt><trkpt lat="41.88344698247669" lon="12.490144708644063"><ele>24.0</ele><time>2026-03-25T13:11:32Z</time></trkpt><trkpt lat="41.88355677552176" lon="12.490164295224805"><ele>24.0</ele><time>2026-03-25T13:11:35Z</time></trkpt><trkpt lat="41.88379511086534" lon="12.4899696425063"><ele>24.0</ele><time>2026-03-25T13:11:36Z</time></trkpt><trkpt lat="41.88385115700946" lon="12.489891708617627"><ele>24.0</ele><time>2026-03-25T13:11:36.999Z</time></trkpt><trkpt lat="41.88392636348951" lon="12.489780038623541"><ele>24.0</ele><time>2026-03-25T13:11:38.999Z</time></trkpt><trkpt lat="41.88400644972058" lon="12.489669966133038"><ele>24.0</ele><time>2026-03-25T13:11:40.999Z</time></trkpt><trkpt lat="41.884070544405915" lon="12.489593026616824"><ele>24.0</ele><time>2026-03-25T13:11:42.999Z</time></trkpt><trkpt lat="41.884129878207425" lon="12.489538024817103"><ele>24.0</ele><time>2026-03-25T13:11:44.999Z</time></trkpt><trkpt lat="41.88421092944509" lon="12.48948062190788"><ele>24.0</ele><time>2026-03-25T13:11:47.999Z</time></trkpt><trkpt lat="41.88393280533641" lon="12.48890773899808"><ele>24.0</ele><time>2026-03-25T13:11:50.999Z</time></trkpt><trkpt lat="41.88400068156791" lon="12.488876383244145"><ele>24.0</ele><time>2026-03-25T13:12:30.999Z</time></trkpt><trkpt lat="41.884064139198166" lon="12.488787909343351"><ele>24.0</ele><time>2026-03-25T13:12:32.999Z</time></trkpt><trkpt lat="41.884126752583924" lon="12.488692693358997"><ele>24.0</ele><time>2026-03-25T13:12:34.999Z</time></trkpt><trkpt lat="41.884187887832226" lon="12.488617308546575"><ele>24.0</ele><time>2026-03-25T13:12:36.999Z</time></trkpt><trkpt lat="41.88427571149299" lon="12.488611698716747"><ele>24.0</ele><time>2026-03-25T13:12:38.999Z</time></trkpt><trkpt lat="41.88434321829663" lon="12.488715807934087"><ele>24.25</ele><time>2026-03-25T13:12:40.999Z</time></trkpt><trkpt lat="41.884267572986396" lon="12.488990687586062"><ele>24.5</ele><time>2026-03-25T13:12:41.999Z</time></trkpt><trkpt lat="41.88433494985173" lon="12.489051833039824"><ele>24.75</ele><time>2026-03-25T13:12:42.999Z</time></trkpt><trkpt lat="41.88441677398808" lon="12.489111297033588"><ele>25.0</ele><time>2026-03-25T13:12:43.999Z</time></trkpt><trkpt lat="41.88453098186405" lon="12.489182775025492"><ele>25.0</ele><time>2026-03-25T13:12:45.999Z</time></trkpt><trkpt lat="41.884591099546235" lon="12.489218057000235"><ele>25.0</ele><time>2026-03-25T13:12:46.999Z</time></trkpt><trkpt lat="41.884699807959265" lon="12.48928420448967"><ele>25.0</ele><time>2026-03-25T13:12:48.998Z</time></trkpt><trkpt lat="41.884799970389686" lon="12.489345524954537"><ele>25.0</ele><time>2026-03-25T13:12:50.998Z</time></trkpt><trkpt lat="41.88504218591412" lon="12.488983552823385"><ele>25.0</ele><time>2026-03-25T13:12:51.998Z</time></trkpt><trkpt lat="41.88509440313797" lon="12.488815346275139"><ele>25.0</ele><time>2026-03-25T13:12:53.998Z</time></trkpt><trkpt lat="41.885134541360166" lon="12.488745099307248"><ele>25.0</ele><time>2026-03-25T13:12:55Z</time></trkpt><trkpt lat="41.88520737164772" lon="12.488614812025665"><ele>25.0</ele><time>2026-03-25T13:12:57Z</time></trkpt><trkpt lat="41.8852773359831" lon="12.488490730492472"><ele>25.0</ele><time>2026-03-25T13:12:59Z</time></trkpt><trkpt lat="41.88532156166977" lon="12.48842903563334"><ele>25.333333333333336</ele><time>2026-03-25T13:13:00Z</time></trkpt><trkpt lat="41.88535605948859" lon="12.48835625696562"><ele>25.666666666666668</ele><time>2026-03-25T13:13:01Z</time></trkpt><trkpt lat="41.88539574452299" lon="12.488283290708685"><ele>26.0</ele><time>2026-03-25T13:13:02Z</time></trkpt><trkpt lat="41.88545895499569" lon="12.48816916752455"><ele>26.333333333333336</ele><time>2026-03-25T13:13:04Z</time></trkpt><trkpt lat="41.885532113424226" lon="12.48803455993"><ele>26.666666666666668</ele><time>2026-03-25T13:13:06Z</time></trkpt><trkpt lat="41.88557161208155" lon="12.487964062822416"><ele>27.0</ele><time>2026-03-25T13:13:07Z</time></trkpt><trkpt lat="41.88563764774156" lon="12.487838946931022"><ele>26.200000000000003</ele><time>2026-03-25T13:13:09Z</time></trkpt><trkpt lat="41.88569834407417" lon="12.487730709257013"><ele>25.400000000000002</ele><time>2026-03-25T13:13:11Z</time></trkpt><trkpt lat="41.88575094310503" lon="12.487635800191088"><ele>24.6</ele><time>2026-03-25T13:13:13Z</time></trkpt><trkpt lat="41.88578905996976" lon="12.487552753666543"><ele>23.799999999999997</ele><time>2026-03-25T13:13:15Z</time></trkpt><trkpt lat="41.88581319841535" lon="12.48747204032585"><ele>23.0</ele><time>2026-03-25T13:13:18Z</time></trkpt><trkpt lat="41.88572071093482" lon="12.487308112567758"><ele>23.0</ele><time>2026-03-25T13:13:20Z</time></trkpt><trkpt lat="41.88574589135002" lon="12.487172967510197"><ele>23.0</ele><time>2026-03-25T13:13:22Z</time></trkpt><trkpt lat="41.885827374381684" lon="12.48705212804442"><ele>23.0</ele><time>2026-03-25T13:13:24Z</time></trkpt><trkpt lat="41.885917436770605" lon="12.486936869620513"><ele>23.0</ele><time>2026-03-25T13:13:26Z</time></trkpt><trkpt lat="41.88600149784263" lon="12.486821503431324"><ele>23.799999999999997</ele><time>2026-03-25T13:13:28Z</time></trkpt><trkpt lat="41.8860704639211" lon="12.486697915685587"><ele>24.6</ele><time>2026-03-25T13:13:30Z</time></trkpt><trkpt lat="41.88613837914766" lon="12.48656683757173"><ele>25.400000000000002</ele><time>2026-03-25T13:13:32Z</time></trkpt><trkpt lat="41.88617642981387" lon="12.486494394038038"><ele>26.200000000000003</ele><time>2026-03-25T13:13:33Z</time></trkpt><trkpt lat="41.88624296748819" lon="12.486372408965202"><ele>27.0</ele><time>2026-03-25T13:13:35Z</time></trkpt><trkpt lat="41.886319916600414" lon="12.486237588237325"><ele>27.0</ele><time>2026-03-25T13:13:37Z</time></trkpt><trkpt lat="41.88639182940616" lon="12.48610991862247"><ele>27.0</ele><time>2026-03-25T13:13:39Z</time></trkpt><trkpt lat="41.88646644033726" lon="12.485979732072703"><ele>27.0</ele><time>2026-03-25T13:13:41Z</time></trkpt><trkpt lat="41.886531946228615" lon="12.485846695350235"><ele>27.0</ele><time>2026-03-25T13:13:43Z</time></trkpt><trkpt lat="41.886599951663854" lon="12.485716341619097"><ele>27.0</ele><time>2026-03-25T13:13:44.999Z</time></trkpt><trkpt lat="41.88665162445865" lon="12.485607324643981"><ele>27.000000000000004</ele><time>2026-03-25T13:13:46.999Z</time></trkpt><trkpt lat="41.88672065152218" lon="12.485473232097291"><ele>27.000000000000004</ele><time>2026-03-25T13:13:48.999Z</time></trkpt><trkpt lat="41.88675831778108" lon="12.48540471795591"><ele>27.0</ele><time>2026-03-25T13:13:49.999Z</time></trkpt><trkpt lat="41.88682060282738" lon="12.48527927543263"><ele>27.0</ele><time>2026-03-25T13:13:51.999Z</time></trkpt><trkpt lat="41.88689883020613" lon="12.485142600336589"><ele>27.0</ele><time>2026-03-25T13:13:53.999Z</time></trkpt><trkpt lat="41.886939891484275" lon="12.485074351679987"><ele>27.000000000000004</ele><time>2026-03-25T13:13:54.999Z</time></trkpt><trkpt lat="41.887015427910846" lon="12.484959908595853"><ele>27.000000000000004</ele><time>2026-03-25T13:13:56.999Z</time></trkpt><trkpt lat="41.887081051971265" lon="12.484854417511173"><ele>27.0</ele><time>2026-03-25T13:13:58.999Z</time></trkpt><trkpt lat="41.8871366379994" lon="12.484746282340074"><ele>27.0</ele><time>2026-03-25T13:14:00.999Z</time></trkpt><trkpt lat="41.88719818288049" lon="12.484616219016038"><ele>26.400000000000002</ele><time>2026-03-25T13:14:02.999Z</time></trkpt><trkpt lat="41.88723981869613" lon="12.484547369128245"><ele>25.800000000000004</ele><time>2026-03-25T13:14:03.999Z</time></trkpt><trkpt lat="41.88731126424654" lon="12.48441776286557"><ele>25.2</ele><time>2026-03-25T13:14:05.999Z</time></trkpt><trkpt lat="41.887369829204495" lon="12.484306781704593"><ele>24.6</ele><time>2026-03-25T13:14:07.999Z</time></trkpt><trkpt lat="41.88744340310361" lon="12.48418213182325"><ele>24.0</ele><time>2026-03-25T13:14:09.999Z</time></trkpt><trkpt lat="41.88748945238308" lon="12.484115952239941"><ele>24.0</ele><time>2026-03-25T13:14:10.999Z</time></trkpt><trkpt lat="41.88753169274594" lon="12.484049199473526"><ele>24.0</ele><time>2026-03-25T13:14:11.999Z</time></trkpt><trkpt lat="41.887677126170104" lon="12.484105389406617"><ele>24.0</ele><time>2026-03-25T13:14:12.999Z</time></trkpt><trkpt lat="41.887744792394415" lon="12.483989150419655"><ele>24.0</ele><time>2026-03-25T13:14:14.999Z</time></trkpt><trkpt lat="41.88778729289229" lon="12.483916141846752"><ele>24.0</ele><time>2026-03-25T13:14:15.999Z</time></trkpt><trkpt lat="41.88782668924807" lon="12.483848465618719"><ele>24.2</ele><time>2026-03-25T13:14:16.999Z</time></trkpt><trkpt lat="41.8878945070155" lon="12.48373192309821"><ele>24.4</ele><time>2026-03-25T13:14:18.999Z</time></trkpt><trkpt lat="41.88795530070101" lon="12.483627494451962"><ele>24.6</ele><time>2026-03-25T13:14:20.999Z</time></trkpt><trkpt lat="41.888017264070946" lon="12.483522253879476"><ele>24.8</ele><time>2026-03-25T13:14:22.999Z</time></trkpt><trkpt lat="41.88806359721454" lon="12.483443560196521"><ele>25.0</ele><time>2026-03-25T13:14:24.999Z</time></trkpt><trkpt lat="41.888110521279714" lon="12.483363862981024"><ele>25.0</ele><time>2026-03-25T13:14:27.999Z</time></trkpt><trkpt lat="41.888006173674604" lon="12.48305702621433"><ele>25.0</ele><time>2026-03-25T13:14:29.999Z</time></trkpt><trkpt lat="41.8879249205442" lon="12.482976551219634"><ele>25.0</ele><time>2026-03-25T13:14:31.999Z</time></trkpt><trkpt lat="41.887869173242834" lon="12.482921330949965"><ele>25.0</ele><time>2026-03-25T13:14:34.999Z</time></trkpt><trkpt lat="41.888102601088015" lon="12.483077582575504"><ele>25.0</ele><time>2026-03-25T13:14:38.999Z</time></trkpt><trkpt lat="41.88798052849586" lon="12.482964128320528"><ele>25.0</ele><time>2026-03-25T13:14:39.999Z</time></trkpt><trkpt lat="41.88803754085827" lon="12.483030888575954"><ele>25.0</ele><time>2026-03-25T13:14:40.999Z</time></trkpt><trkpt lat="41.888122271026624" lon="12.483106615290199"><ele>25.0</ele><time>2026-03-25T13:14:42.999Z</time></trkpt><trkpt lat="41.888196119439385" lon="12.483052927030654"><ele>25.0</ele><time>2026-03-25T13:14:43.999Z</time></trkpt><trkpt lat="41.88827627634293" lon="12.48302626411316"><ele>25.000000000000004</ele><time>2026-03-25T13:14:45.999Z</time></trkpt><trkpt lat="41.88834383427684" lon="12.48300292338759"><ele>25.0</ele><time>2026-03-25T13:14:46.999Z</time></trkpt><trkpt lat="41.888445415291464" lon="12.48289354182387"><ele>25.0</ele><time>2026-03-25T13:14:48.999Z</time></trkpt><trkpt lat="41.888497924433814" lon="12.48282853125167"><ele>25.0</ele><time>2026-03-25T13:14:49.999Z</time></trkpt><trkpt lat="41.88854571423603" lon="12.482767551088102"><ele>25.000000000000004</ele><time>2026-03-25T13:14:50.999Z</time></trkpt><trkpt lat="41.88859724677868" lon="12.482699731710868"><ele>25.0</ele><time>2026-03-25T13:14:51.999Z</time></trkpt><trkpt lat="41.88864307377746" lon="12.482632616795211"><ele>25.166666666666668</ele><time>2026-03-25T13:14:52.999Z</time></trkpt><trkpt lat="41.8886900818138" lon="12.482575479053594"><ele>25.333333333333336</ele><time>2026-03-25T13:14:53.999Z</time></trkpt><trkpt lat="41.88873092570694" lon="12.482508022981902"><ele>25.5</ele><time>2026-03-25T13:14:54.999Z</time></trkpt><trkpt lat="41.88877043331886" lon="12.48243867553057"><ele>25.666666666666664</ele><time>2026-03-25T13:14:55.998Z</time></trkpt><trkpt lat="41.888825114316106" lon="12.48237367275326"><ele>25.833333333333332</ele><time>2026-03-25T13:14:56.998Z</time></trkpt><trkpt lat="41.88886606303534" lon="12.482306907601368"><ele>26.0</ele><time>2026-03-25T13:14:57.998Z</time></trkpt><trkpt lat="41.88895379894626" lon="12.482178110136843"><ele>25.200000000000003</ele><time>2026-03-25T13:14:59.998Z</time></trkpt><trkpt lat="41.8890331669447" lon="12.482045988718513"><ele>24.400000000000002</ele><time>2026-03-25T13:15:02Z</time></trkpt><trkpt lat="41.889064403265" lon="12.48196201155485"><ele>23.6</ele><time>2026-03-25T13:15:03Z</time></trkpt><trkpt lat="41.88907437730928" lon="12.481875978051718"><ele>22.8</ele><time>2026-03-25T13:15:04Z</time></trkpt><trkpt lat="41.88912731117556" lon="12.481734397992476"><ele>22.0</ele><time>2026-03-25T13:15:06Z</time></trkpt><trkpt lat="41.889183741976304" lon="12.481605645210989"><ele>22.0</ele><time>2026-03-25T13:15:08Z</time></trkpt><trkpt lat="41.88925578521659" lon="12.481472017484963"><ele>22.0</ele><time>2026-03-25T13:15:10Z</time></trkpt><trkpt lat="41.88933776231527" lon="12.481362272381517"><ele>22.0</ele><time>2026-03-25T13:15:12Z</time></trkpt><trkpt lat="41.889435318378005" lon="12.481290205574744"><ele>22.0</ele><time>2026-03-25T13:15:14Z</time></trkpt><trkpt lat="41.889473058992074" lon="12.481185281614762"><ele>22.0</ele><time>2026-03-25T13:15:15Z</time></trkpt><trkpt lat="41.88958484708886" lon="12.481139286587853"><ele>21.8</ele><time>2026-03-25T13:15:17Z</time></trkpt><trkpt lat="41.88970598645316" lon="12.48108757478839"><ele>21.6</ele><time>2026-03-25T13:15:19Z</time></trkpt><trkpt lat="41.8898241358463" lon="12.481037307127002"><ele>21.400000000000002</ele><time>2026-03-25T13:15:21Z</time></trkpt><trkpt lat="41.88993366191676" lon="12.480987350176617"><ele>21.200000000000003</ele><time>2026-03-25T13:15:23Z</time></trkpt><trkpt lat="41.88999882552542" lon="12.480957415552943"><ele>21.0</ele><time>2026-03-25T13:15:24Z</time></trkpt><trkpt lat="41.890062981882195" lon="12.480929698274894"><ele>20.6</ele><time>2026-03-25T13:15:25Z</time></trkpt><trkpt lat="41.89018099394255" lon="12.48088179237779"><ele>20.200000000000003</ele><time>2026-03-25T13:15:27Z</time></trkpt><trkpt lat="41.89024590558024" lon="12.480856570993984"><ele>19.799999999999997</ele><time>2026-03-25T13:15:28Z</time></trkpt><trkpt lat="41.89030816192216" lon="12.480840783948723"><ele>19.4</ele><time>2026-03-25T13:15:29Z</time></trkpt><trkpt lat="41.8904287563134" lon="12.480796128668997"><ele>19.0</ele><time>2026-03-25T13:15:31Z</time></trkpt><trkpt lat="41.89054268998066" lon="12.480743664298535"><ele>19.0</ele><time>2026-03-25T13:15:33Z</time></trkpt><trkpt lat="41.890635497702796" lon="12.48073066038575"><ele>19.0</ele><time>2026-03-25T13:15:35Z</time></trkpt><trkpt lat="41.89072707574839" lon="12.480689230385094"><ele>19.0</ele><time>2026-03-25T13:15:37Z</time></trkpt><trkpt lat="41.89080228634316" lon="12.48063950236865"><ele>19.0</ele><time>2026-03-25T13:15:39Z</time></trkpt><trkpt lat="41.89086494949235" lon="12.480613039554951"><ele>19.0</ele><time>2026-03-25T13:15:42Z</time></trkpt><trkpt lat="41.89091934482085" lon="12.480789673120492"><ele>20.2</ele><time>2026-03-25T13:15:46Z</time></trkpt><trkpt lat="41.89094633099407" lon="12.480578672191932"><ele>21.4</ele><time>2026-03-25T13:15:48Z</time></trkpt><trkpt lat="41.891061303495945" lon="12.480529301318006"><ele>22.6</ele><time>2026-03-25T13:15:51.999Z</time></trkpt><trkpt lat="41.89113354263387" lon="12.48049865347858"><ele>23.8</ele><time>2026-03-25T13:15:52.999Z</time></trkpt><trkpt lat="41.89119494991258" lon="12.480472923950517"><ele>25.0</ele><time>2026-03-25T13:15:53.999Z</time></trkpt><trkpt lat="41.89131297075576" lon="12.480426372267138"><ele>25.000000000000004</ele><time>2026-03-25T13:15:55.999Z</time></trkpt><trkpt lat="41.8913754421898" lon="12.480403397644519"><ele>25.0</ele><time>2026-03-25T13:15:56.999Z</time></trkpt><trkpt lat="41.89149356366363" lon="12.480363893818282"><ele>25.0</ele><time>2026-03-25T13:15:58.999Z</time></trkpt><trkpt lat="41.891557563793356" lon="12.480347008630732"><ele>25.0</ele><time>2026-03-25T13:15:59.999Z</time></trkpt><trkpt lat="41.89168254986808" lon="12.480326370505733"><ele>25.000000000000004</ele><time>2026-03-25T13:16:01.999Z</time></trkpt><trkpt lat="41.89174706113694" lon="12.48032448813314"><ele>25.0</ele><time>2026-03-25T13:16:02.999Z</time></trkpt><trkpt lat="41.89181070895836" lon="12.480329981121644"><ele>24.8</ele><time>2026-03-25T13:16:03.999Z</time></trkpt><trkpt lat="41.891925874212404" lon="12.48036263266865"><ele>24.6</ele><time>2026-03-25T13:16:05.999Z</time></trkpt><trkpt lat="41.892037608302694" lon="12.480409557493449"><ele>24.4</ele><time>2026-03-25T13:16:07.999Z</time></trkpt><trkpt lat="41.892139763093304" lon="12.48045309361994"><ele>24.2</ele><time>2026-03-25T13:16:09.999Z</time></trkpt><trkpt lat="41.892217008585106" lon="12.48048601394311"><ele>24.0</ele><time>2026-03-25T13:16:11.999Z</time></trkpt><trkpt lat="41.89229151817891" lon="12.480517845629418"><ele>24.0</ele><time>2026-03-25T13:16:14.999Z</time></trkpt><trkpt lat="41.892516686011994" lon="12.480471851452364"><ele>24.0</ele><time>2026-03-25T13:16:19.999Z</time></trkpt><trkpt lat="41.89246682204111" lon="12.48055482144065"><ele>24.0</ele><time>2026-03-25T13:16:22.999Z</time></trkpt><trkpt lat="41.89257303887511" lon="12.480373409730214"><ele>25.6</ele><time>2026-03-25T13:16:23.999Z</time></trkpt><trkpt lat="41.892635739314436" lon="12.480246293159787"><ele>27.2</ele><time>2026-03-25T13:16:25.999Z</time></trkpt><trkpt lat="41.89270080041503" lon="12.48015087873798"><ele>28.800000000000004</ele><time>2026-03-25T13:16:27.999Z</time></trkpt><trkpt lat="41.892760586733914" lon="12.480095558451923"><ele>30.400000000000002</ele><time>2026-03-25T13:16:29.999Z</time></trkpt><trkpt lat="41.8928223377777" lon="12.480023519680534"><ele>32.0</ele><time>2026-03-25T13:16:31.999Z</time></trkpt><trkpt lat="41.892883544664244" lon="12.479939710931786"><ele>32.0</ele><time>2026-03-25T13:16:33.999Z</time></trkpt><trkpt lat="41.89294616462754" lon="12.479859208590717"><ele>31.999999999999996</ele><time>2026-03-25T13:16:35.999Z</time></trkpt><trkpt lat="41.89299531956366" lon="12.479800246464086"><ele>32.0</ele><time>2026-03-25T13:16:37.999Z</time></trkpt><trkpt lat="41.89304792661613" lon="12.479740041453594"><ele>32.0</ele><time>2026-03-25T13:16:39.999Z</time></trkpt><trkpt lat="41.893097344274814" lon="12.479657912830138"><ele>31.999999999999996</ele><time>2026-03-25T13:16:42.999Z</time></trkpt><trkpt lat="41.89316246368186" lon="12.479595599541327"><ele>32.0</ele><time>2026-03-25T13:16:47.999Z</time></trkpt><trkpt lat="41.893210957887035" lon="12.479534514552027"><ele>32.0</ele><time>2026-03-25T13:16:50.999Z</time></trkpt><trkpt lat="41.8932674486328" lon="12.479477519920021"><ele>32.2</ele><time>2026-03-25T13:16:53.999Z</time></trkpt><trkpt lat="41.89330523384561" lon="12.479404431490822"><ele>32.400000000000006</ele><time>2026-03-25T13:17:04.998Z</time></trkpt><trkpt lat="41.8933681373703" lon="12.479358488447245"><ele>32.599999999999994</ele><time>2026-03-25T13:17:09Z</time></trkpt><trkpt lat="41.89342427407854" lon="12.479285581125259"><ele>32.8</ele><time>2026-03-25T13:17:13Z</time></trkpt><trkpt lat="41.89347220968479" lon="12.479211633751262"><ele>33.0</ele><time>2026-03-25T13:17:28Z</time></trkpt><trkpt lat="41.8936517344894" lon="12.479267980074779"><ele>32.8</ele><time>2026-03-25T13:17:36Z</time></trkpt><trkpt lat="41.89373061922235" lon="12.479327542890577"><ele>32.599999999999994</ele><time>2026-03-25T13:17:38Z</time></trkpt><trkpt lat="41.89381153014935" lon="12.479397549175557"><ele>32.400000000000006</ele><time>2026-03-25T13:17:40Z</time></trkpt><trkpt lat="41.89385824650057" lon="12.479456675737724"><ele>32.2</ele><time>2026-03-25T13:17:41Z</time></trkpt><trkpt lat="41.8939365920395" lon="12.479557424706288"><ele>32.0</ele><time>2026-03-25T13:17:43Z</time></trkpt><trkpt lat="41.89401594574218" lon="12.47965159486635"><ele>32.0</ele><time>2026-03-25T13:17:45Z</time></trkpt><trkpt lat="41.894092511826166" lon="12.479743904054116"><ele>32.0</ele><time>2026-03-25T13:17:47Z</time></trkpt><trkpt lat="41.89414839906985" lon="12.479835079715468"><ele>32.0</ele><time>2026-03-25T13:17:49Z</time></trkpt><trkpt lat="41.894187600115835" lon="12.479924325336292"><ele>32.0</ele><time>2026-03-25T13:17:52Z</time></trkpt><trkpt lat="41.8943341488694" lon="12.479774029312606"><ele>31.666666666666664</ele><time>2026-03-25T13:17:59.999Z</time></trkpt><trkpt lat="41.894382351655175" lon="12.479716364564872"><ele>31.333333333333332</ele><time>2026-03-25T13:18:04.999Z</time></trkpt><trkpt lat="41.89445002215646" lon="12.479685104572015"><ele>31.0</ele><time>2026-03-25T13:18:07.999Z</time></trkpt><trkpt lat="41.89451641171966" lon="12.479649761467002"><ele>30.666666666666664</ele><time>2026-03-25T13:18:09.999Z</time></trkpt><trkpt lat="41.89459639668698" lon="12.4795868413034"><ele>30.333333333333332</ele><time>2026-03-25T13:18:11.999Z</time></trkpt><trkpt lat="41.89465033236492" lon="12.479533073703392"><ele>30.0</ele><time>2026-03-25T13:18:12.999Z</time></trkpt><trkpt lat="41.89475142044461" lon="12.479504539645069"><ele>30.0</ele><time>2026-03-25T13:18:14.999Z</time></trkpt><trkpt lat="41.894828792303244" lon="12.479481484157898"><ele>30.0</ele><time>2026-03-25T13:18:16.999Z</time></trkpt><trkpt lat="41.894893178272" lon="12.479505309309435"><ele>30.0</ele><time>2026-03-25T13:18:18.999Z</time></trkpt><trkpt lat="41.894930620205" lon="12.479288706967951"><ele>30.0</ele><time>2026-03-25T13:18:24.999Z</time></trkpt><trkpt lat="41.89491388934325" lon="12.479195947355697"><ele>30.0</ele><time>2026-03-25T13:18:27.999Z</time></trkpt><trkpt lat="41.89494400218769" lon="12.479094091997103"><ele>30.0</ele><time>2026-03-25T13:18:36.999Z</time></trkpt><trkpt lat="41.89500116374181" lon="12.47904380292772"><ele>30.0</ele><time>2026-03-25T13:18:39.999Z</time></trkpt><trkpt lat="41.89503895831161" lon="12.478924529340082"><ele>30.0</ele><time>2026-03-25T13:18:42.999Z</time></trkpt><trkpt lat="41.89502815432717" lon="12.478811981424453"><ele>30.0</ele><time>2026-03-25T13:18:44.999Z</time></trkpt><trkpt lat="41.895029899819356" lon="12.478668892217621"><ele>30.0</ele><time>2026-03-25T13:18:46.999Z</time></trkpt><trkpt lat="41.89501700597643" lon="12.47854951807399"><ele>30.0</ele><time>2026-03-25T13:18:48.999Z</time></trkpt><trkpt lat="41.89500613434693" lon="12.478441584147427"><ele>30.0</ele><time>2026-03-25T13:18:50.999Z</time></trkpt><trkpt lat="41.89499120944377" lon="12.478337855832628"><ele>30.0</ele><time>2026-03-25T13:18:52.999Z</time></trkpt><trkpt lat="41.894999615729574" lon="12.478212176915667"><ele>30.0</ele><time>2026-03-25T13:18:55.999Z</time></trkpt><trkpt lat="41.89498065719096" lon="12.478080859194177"><ele>30.0</ele><time>2026-03-25T13:18:58.999Z</time></trkpt><trkpt lat="41.89498387957937" lon="12.477995374481011"><ele>30.0</ele><time>2026-03-25T13:19:01.999Z</time></trkpt><trkpt lat="41.895000808937624" lon="12.477899725123441"><ele>30.0</ele><time>2026-03-25T13:19:04.999Z</time></trkpt><trkpt lat="41.89500026673288" lon="12.477781042840125"><ele>29.8</ele><time>2026-03-25T13:19:06.998Z</time></trkpt><trkpt lat="41.89499828265803" lon="12.477666095784402"><ele>29.6</ele><time>2026-03-25T13:19:08.998Z</time></trkpt><trkpt lat="41.894981320801584" lon="12.47756542788988"><ele>29.4</ele><time>2026-03-25T13:19:10.998Z</time></trkpt><trkpt lat="41.89497788580745" lon="12.477443700637211"><ele>29.2</ele><time>2026-03-25T13:19:14Z</time></trkpt><trkpt lat="41.89497525606084" lon="12.477357518295166"><ele>29.0</ele><time>2026-03-25T13:19:16Z</time></trkpt><trkpt lat="41.895145023533644" lon="12.477330477768007"><ele>28.833333333333332</ele><time>2026-03-25T13:19:18Z</time></trkpt><trkpt lat="41.8952313784881" lon="12.477349287655743"><ele>28.666666666666664</ele><time>2026-03-25T13:19:20Z</time></trkpt><trkpt lat="41.895363431911505" lon="12.477348067834214"><ele>28.5</ele><time>2026-03-25T13:19:23Z</time></trkpt><trkpt lat="41.89543513657271" lon="12.477335187179056"><ele>28.333333333333336</ele><time>2026-03-25T13:19:25Z</time></trkpt><trkpt lat="41.895503687710445" lon="12.477312633155687"><ele>28.166666666666668</ele><time>2026-03-25T13:19:27Z</time></trkpt><trkpt lat="41.89558024778796" lon="12.477304746935932"><ele>28.0</ele><time>2026-03-25T13:19:29Z</time></trkpt><trkpt lat="41.895648139199714" lon="12.477308934132548"><ele>28.0</ele><time>2026-03-25T13:19:31Z</time></trkpt><trkpt lat="41.895719495686144" lon="12.47730678513486"><ele>28.0</ele><time>2026-03-25T13:19:33Z</time></trkpt><trkpt lat="41.895784246282496" lon="12.477311607708147"><ele>28.0</ele><time>2026-03-25T13:19:35Z</time></trkpt><trkpt lat="41.89585393849926" lon="12.477302562402897"><ele>28.0</ele><time>2026-03-25T13:19:37Z</time></trkpt><trkpt lat="41.8959246869718" lon="12.477287168160915"><ele>28.0</ele><time>2026-03-25T13:21:04.999Z</time></trkpt><trkpt lat="41.89599081931268" lon="12.477310436648471"><ele>28.0</ele><time>2026-03-25T13:21:06.999Z</time></trkpt><trkpt lat="41.896073230236766" lon="12.477334991716779"><ele>28.0</ele><time>2026-03-25T13:21:09.999Z</time></trkpt><trkpt lat="41.89613959721724" lon="12.477368113933352"><ele>28.57142857142857</ele><time>2026-03-25T13:21:12.999Z</time></trkpt><trkpt lat="41.89620555276173" lon="12.477334257041036"><ele>29.142857142857142</ele><time>2026-03-25T13:21:15.998Z</time></trkpt><trkpt lat="41.89628523035244" lon="12.477322066677324"><ele>29.714285714285715</ele><time>2026-03-25T13:21:17.998Z</time></trkpt><trkpt lat="41.896351155127356" lon="12.47729585163115"><ele>30.285714285714285</ele><time>2026-03-25T13:21:20Z</time></trkpt><trkpt lat="41.896421634870194" lon="12.477318167399442"><ele>30.857142857142854</ele><time>2026-03-25T13:21:23Z</time></trkpt><trkpt lat="41.896492436822356" lon="12.477308558897429"><ele>31.428571428571427</ele><time>2026-03-25T13:21:27Z</time></trkpt><trkpt lat="41.89656746994543" lon="12.477336353616206"><ele>32.0</ele><time>2026-03-25T13:21:30Z</time></trkpt><trkpt lat="41.89663571984582" lon="12.47735703690168"><ele>31.999999999999996</ele><time>2026-03-25T13:21:32Z</time></trkpt><trkpt lat="41.89671504133597" lon="12.477399713890707"><ele>32.0</ele><time>2026-03-25T13:21:35Z</time></trkpt><trkpt lat="41.896773837404595" lon="12.477430605734225"><ele>32.0</ele><time>2026-03-25T13:21:38Z</time></trkpt><trkpt lat="41.89684904455196" lon="12.477486517533464"><ele>32.0</ele><time>2026-03-25T13:21:41Z</time></trkpt><trkpt lat="41.896938554496195" lon="12.477446780528606"><ele>31.999999999999996</ele><time>2026-03-25T13:21:46Z</time></trkpt><trkpt lat="41.89701436165411" lon="12.47751900117714"><ele>32.0</ele><time>2026-03-25T13:21:53Z</time></trkpt><trkpt lat="41.89704510687753" lon="12.477641990144809"><ele>31.999999999999996</ele><time>2026-03-25T13:21:55Z</time></trkpt><trkpt lat="41.897041492320355" lon="12.477739367467757"><ele>32.0</ele><time>2026-03-25T13:21:57Z</time></trkpt><trkpt lat="41.8970431821179" lon="12.477855880350571"><ele>32.0</ele><time>2026-03-25T13:22:00Z</time></trkpt><trkpt lat="41.897053055599706" lon="12.477972652181323"><ele>32.0</ele><time>2026-03-25T13:22:03Z</time></trkpt><trkpt lat="41.89708590482036" lon="12.478044951955466"><ele>31.999999999999996</ele><time>2026-03-25T13:22:06Z</time></trkpt><trkpt lat="41.89717140887111" lon="12.478052936820589"><ele>32.0</ele><time>2026-03-25T13:22:08.999Z</time></trkpt><trkpt lat="41.897231634151815" lon="12.478025750622145"><ele>31.999999999999996</ele><time>2026-03-25T13:22:10.999Z</time></trkpt><trkpt lat="41.8973414205345" lon="12.477981335346383"><ele>32.0</ele><time>2026-03-25T13:22:17.999Z</time></trkpt><trkpt lat="41.89740593828588" lon="12.478051320933924"><ele>32.0</ele><time>2026-03-25T13:22:21.999Z</time></trkpt><trkpt lat="41.897484129519704" lon="12.478037962182267"><ele>32.0</ele><time>2026-03-25T13:22:25.999Z</time></trkpt><trkpt lat="41.89756463456371" lon="12.478031124107375"><ele>31.999999999999996</ele><time>2026-03-25T13:24:21.999Z</time></trkpt><trkpt lat="41.89750350990008" lon="12.477978949614899"><ele>32.0</ele><time>2026-03-25T13:25:13.999Z</time></trkpt><trkpt lat="41.897579571064604" lon="12.477997233912918"><ele>31.999999999999996</ele><time>2026-03-25T13:25:43Z</time></trkpt><trkpt lat="41.89764696885465" lon="12.478045088273273"><ele>32.0</ele><time>2026-03-25T13:25:46Z</time></trkpt><trkpt lat="41.89768884007518" lon="12.478125526766444"><ele>32.0</ele><time>2026-03-25T13:25:50Z</time></trkpt><trkpt lat="41.897700243789494" lon="12.478248955176815"><ele>32.0</ele><time>2026-03-25T13:25:52Z</time></trkpt><trkpt lat="41.897639793207425" lon="12.47833079738927"><ele>31.999999999999996</ele><time>2026-03-25T13:25:54Z</time></trkpt><trkpt lat="41.89760102686551" lon="12.478462751601624"><ele>32.0</ele><time>2026-03-25T13:25:56Z</time></trkpt><trkpt lat="41.89755825562182" lon="12.47855945683247"><ele>32.0</ele><time>2026-03-25T13:25:58Z</time></trkpt><trkpt lat="41.89752466977292" lon="12.478659645034151"><ele>32.0</ele><time>2026-03-25T13:26:00Z</time></trkpt><trkpt lat="41.897536178696505" lon="12.478787804076372"><ele>32.0</ele><time>2026-03-25T13:26:02Z</time></trkpt><trkpt lat="41.89754538567413" lon="12.478924558020246"><ele>32.0</ele><time>2026-03-25T13:26:04Z</time></trkpt><trkpt lat="41.89758355218064" lon="12.479078555833954"><ele>32.0</ele><time>2026-03-25T13:26:06Z</time></trkpt><trkpt lat="41.89762023764388" lon="12.479201759284898"><ele>32.2</ele><time>2026-03-25T13:26:08Z</time></trkpt><trkpt lat="41.89765094762405" lon="12.479308532422579"><ele>32.400000000000006</ele><time>2026-03-25T13:26:10Z</time></trkpt><trkpt lat="41.897676402336295" lon="12.479400079921337"><ele>32.599999999999994</ele><time>2026-03-25T13:26:12Z</time></trkpt><trkpt lat="41.89767814973154" lon="12.479490958013113"><ele>32.8</ele><time>2026-03-25T13:26:17Z</time></trkpt><trkpt lat="41.897490399170806" lon="12.479476546247351"><ele>33.0</ele><time>2026-03-25T13:26:22.999Z</time></trkpt><trkpt lat="41.89739808894663" lon="12.479483763566178"><ele>32.5</ele><time>2026-03-25T13:26:24.999Z</time></trkpt><trkpt lat="41.897318517043615" lon="12.479536291591169"><ele>32.0</ele><time>2026-03-25T13:26:26.999Z</time></trkpt><trkpt lat="41.897248971240906" lon="12.479582541914882"><ele>31.5</ele><time>2026-03-25T13:26:28.999Z</time></trkpt><trkpt lat="41.89717695671921" lon="12.479609519694465"><ele>31.0</ele><time>2026-03-25T13:26:31.999Z</time></trkpt><trkpt lat="41.89708774307671" lon="12.479598110957708"><ele>30.5</ele><time>2026-03-25T13:26:34.999Z</time></trkpt><trkpt lat="41.897016392074555" lon="12.479545555798621"><ele>30.0</ele><time>2026-03-25T13:26:36.999Z</time></trkpt><trkpt lat="41.897005544801836" lon="12.479407301872712"><ele>30.0</ele><time>2026-03-25T13:26:37.999Z</time></trkpt><trkpt lat="41.89694643450836" lon="12.479296273286103"><ele>30.0</ele><time>2026-03-25T13:26:38.999Z</time></trkpt><trkpt lat="41.89687709646111" lon="12.479230337354345"><ele>30.0</ele><time>2026-03-25T13:26:39.999Z</time></trkpt><trkpt lat="41.896834542634764" lon="12.479149904320678"><ele>30.0</ele><time>2026-03-25T13:26:40.999Z</time></trkpt><trkpt lat="41.896815124357666" lon="12.479054772689569"><ele>30.0</ele><time>2026-03-25T13:26:41.999Z</time></trkpt><trkpt lat="41.89682785818983" lon="12.478889451932874"><ele>30.0</ele><time>2026-03-25T13:26:43.999Z</time></trkpt><trkpt lat="41.896766896614956" lon="12.478792450929289"><ele>30.0</ele><time>2026-03-25T13:26:45.999Z</time></trkpt><trkpt lat="41.896804696444114" lon="12.478724018645854"><ele>30.0</ele><time>2026-03-25T13:26:59.999Z</time></trkpt><trkpt lat="41.89686037712532" lon="12.478675681812293"><ele>30.0</ele><time>2026-03-25T13:27:14.999Z</time></trkpt><trkpt lat="41.896941301335275" lon="12.478734271850515"><ele>30.0</ele><time>2026-03-25T13:27:16.999Z</time></trkpt><trkpt lat="41.89700492185679" lon="12.47873076047088"><ele>30.0</ele><time>2026-03-25T13:27:18.999Z</time></trkpt><trkpt lat="41.89706059542137" lon="12.47868870354596"><ele>30.0</ele><time>2026-03-25T13:27:20.999Z</time></trkpt><trkpt lat="41.897038009478145" lon="12.478416792783259"><ele>30.333333333333332</ele><time>2026-03-25T13:27:27.999Z</time></trkpt><trkpt lat="41.89706172308813" lon="12.478269691833768"><ele>30.666666666666664</ele><time>2026-03-25T13:27:29.999Z</time></trkpt><trkpt lat="41.897104069462635" lon="12.478170041863986"><ele>31.0</ele><time>2026-03-25T13:27:32.999Z</time></trkpt><trkpt lat="41.89717814105972" lon="12.478194805230837"><ele>31.333333333333332</ele><time>2026-03-25T13:27:37Z</time></trkpt><trkpt lat="41.89713032108921" lon="12.478129600109284"><ele>31.666666666666664</ele><time>2026-03-25T13:27:46Z</time></trkpt><trkpt lat="41.89709402188783" lon="12.478202387327775"><ele>32.0</ele><time>2026-03-25T13:27:49Z</time></trkpt><trkpt lat="41.89703374396586" lon="12.478113719875914"><ele>31.999999999999996</ele><time>2026-03-25T13:27:53Z</time></trkpt><trkpt lat="41.89704728885088" lon="12.478029988497093"><ele>32.0</ele><time>2026-03-25T13:27:55Z</time></trkpt><trkpt lat="41.89712282397479" lon="12.478044526191844"><ele>32.0</ele><time>2026-03-25T13:27:58Z</time></trkpt><trkpt lat="41.897208900510755" lon="12.47802288069929"><ele>32.0</ele><time>2026-03-25T13:28:01Z</time></trkpt><trkpt lat="41.89725532607246" lon="12.477963730771174"><ele>31.999999999999996</ele><time>2026-03-25T13:28:05Z</time></trkpt><trkpt lat="41.897359167106984" lon="12.477949810986056"><ele>32.0</ele><time>2026-03-25T13:28:09Z</time></trkpt><trkpt lat="41.897434709758535" lon="12.47795839914432"><ele>31.999999999999996</ele><time>2026-03-25T13:28:11Z</time></trkpt><trkpt lat="41.89750127853913" lon="12.477978384766958"><ele>32.0</ele><time>2026-03-25T13:28:13Z</time></trkpt><trkpt lat="41.89758407100552" lon="12.478018900649955"><ele>32.0</ele><time>2026-03-25T13:28:15Z</time></trkpt><trkpt lat="41.89765586816372" lon="12.478038995707637"><ele>32.0</ele><time>2026-03-25T13:28:17Z</time></trkpt><trkpt lat="41.89772801147536" lon="12.478045852186861"><ele>31.999999999999996</ele><time>2026-03-25T13:28:20Z</time></trkpt><trkpt lat="41.8977492411917" lon="12.478148401843855"><ele>32.0</ele><time>2026-03-25T13:28:25Z</time></trkpt><trkpt lat="41.897724522340646" lon="12.478255177561257"><ele>31.999999999999996</ele><time>2026-03-25T13:28:27Z</time></trkpt><trkpt lat="41.897682457792705" lon="12.478355072576583"><ele>32.0</ele><time>2026-03-25T13:28:29Z</time></trkpt><trkpt lat="41.897640942488835" lon="12.478429896093072"><ele>32.0</ele><time>2026-03-25T13:28:31Z</time></trkpt><trkpt lat="41.897619956773255" lon="12.478513378163804"><ele>32.0</ele><time>2026-03-25T13:28:32.999Z</time></trkpt><trkpt lat="41.897611462261715" lon="12.478611966577278"><ele>31.999999999999996</ele><time>2026-03-25T13:28:34.999Z</time></trkpt><trkpt lat="41.897589010235166" lon="12.478712069691262"><ele>32.0</ele><time>2026-03-25T13:28:36.999Z</time></trkpt><trkpt lat="41.897507994592075" lon="12.478716803763572"><ele>31.999999999999996</ele><time>2026-03-25T13:28:39.999Z</time></trkpt><trkpt lat="41.897417766269" lon="12.478730440965188"><ele>32.0</ele><time>2026-03-25T13:28:41.999Z</time></trkpt><trkpt lat="41.89733560724008" lon="12.478788155827116"><ele>32.0</ele><time>2026-03-25T13:28:43.999Z</time></trkpt><trkpt lat="41.89735061673917" lon="12.478674367575746"><ele>32.0</ele><time>2026-03-25T13:29:35.999Z</time></trkpt><trkpt lat="41.89727819233917" lon="12.478578321502253"><ele>31.999999999999996</ele><time>2026-03-25T13:29:38.999Z</time></trkpt><trkpt lat="41.89721028409733" lon="12.478574039991976"><ele>32.0</ele><time>2026-03-25T13:29:41.999Z</time></trkpt><trkpt lat="41.8971143973" lon="12.47861522407553"><ele>31.999999999999996</ele><time>2026-03-25T13:29:44Z</time></trkpt><trkpt lat="41.897152048553416" lon="12.478435677578902"><ele>32.0</ele><time>2026-03-25T13:29:53Z</time></trkpt><trkpt lat="41.89715246156756" lon="12.47833886034222"><ele>32.0</ele><time>2026-03-25T13:29:55Z</time></trkpt><trkpt lat="41.897150866169376" lon="12.478251655406208"><ele>32.0</ele><time>2026-03-25T13:29:57Z</time></trkpt><trkpt lat="41.89713361217718" lon="12.478154525730432"><ele>31.999999999999996</ele><time>2026-03-25T13:29:59Z</time></trkpt><trkpt lat="41.897100774035344" lon="12.478071416692794"><ele>32.0</ele><time>2026-03-25T13:30:01Z</time></trkpt><trkpt lat="41.89716433206796" lon="12.478055469559383"><ele>31.999999999999996</ele><time>2026-03-25T13:30:02Z</time></trkpt><trkpt lat="41.89723769824811" lon="12.478080504016942"><ele>32.0</ele><time>2026-03-25T13:30:04Z</time></trkpt><trkpt lat="41.89729500463024" lon="12.477946785173327"><ele>32.0</ele><time>2026-03-25T13:30:16Z</time></trkpt><trkpt lat="41.89722559618342" lon="12.477941192649517"><ele>32.0</ele><time>2026-03-25T13:30:38Z</time></trkpt><trkpt lat="41.897105219972715" lon="12.47797627338518"><ele>31.999999999999996</ele><time>2026-03-25T13:31:07.999Z</time></trkpt><trkpt lat="41.8970495772583" lon="12.478017349743167"><ele>32.0</ele><time>2026-03-25T13:31:13.999Z</time></trkpt><trkpt lat="41.89703719775472" lon="12.47814653420345"><ele>31.999999999999996</ele><time>2026-03-25T13:31:21.999Z</time></trkpt><trkpt lat="41.897061782886944" lon="12.4782554214729"><ele>32.0</ele><time>2026-03-25T13:31:23.999Z</time></trkpt><trkpt lat="41.89705131333947" lon="12.47836893572674"><ele>32.0</ele><time>2026-03-25T13:31:26.999Z</time></trkpt><trkpt lat="41.89703804909269" lon="12.478476227996154"><ele>32.0</ele><time>2026-03-25T13:31:28.999Z</time></trkpt><trkpt lat="41.89702881884335" lon="12.478564185803059"><ele>31.999999999999996</ele><time>2026-03-25T13:31:30.999Z</time></trkpt><trkpt lat="41.897012397806584" lon="12.478665497891997"><ele>32.0</ele><time>2026-03-25T13:31:33.999Z</time></trkpt><trkpt lat="41.89689551501947" lon="12.478691247236444"><ele>31.999999999999996</ele><time>2026-03-25T13:31:39.999Z</time></trkpt><trkpt lat="41.89681463128476" lon="12.478671192578116"><ele>32.0</ele><time>2026-03-25T13:31:41.999Z</time></trkpt><trkpt lat="41.896735013895494" lon="12.478689986775448"><ele>32.0</ele><time>2026-03-25T13:31:43.999Z</time></trkpt><trkpt lat="41.896663137798576" lon="12.478715044592885"><ele>32.0</ele><time>2026-03-25T13:31:45.999Z</time></trkpt><trkpt lat="41.89657164351072" lon="12.478754399260286"><ele>31.999999999999996</ele><time>2026-03-25T13:31:50Z</time></trkpt><trkpt lat="41.896459785878704" lon="12.478752630665968"><ele>32.0</ele><time>2026-03-25T13:31:52Z</time></trkpt><trkpt lat="41.89638653792178" lon="12.478762600110633"><ele>32.666666666666664</ele><time>2026-03-25T13:31:54Z</time></trkpt><trkpt lat="41.896327424000646" lon="12.478803536097015"><ele>33.33333333333333</ele><time>2026-03-25T13:31:55Z</time></trkpt><trkpt lat="41.89623174492189" lon="12.478823450441919"><ele>34.0</ele><time>2026-03-25T13:31:57Z</time></trkpt><trkpt lat="41.89615980582188" lon="12.478885744971542"><ele>34.666666666666664</ele><time>2026-03-25T13:31:59Z</time></trkpt><trkpt lat="41.896095665153794" lon="12.478824157118623"><ele>35.333333333333336</ele><time>2026-03-25T13:32:01Z</time></trkpt><trkpt lat="41.89599770212003" lon="12.478841444473925"><ele>36.0</ele><time>2026-03-25T13:32:07Z</time></trkpt><trkpt lat="41.89593266528877" lon="12.478920957960893"><ele>36.0</ele><time>2026-03-25T13:32:11Z</time></trkpt><trkpt lat="41.89609997878704" lon="12.479223750655256"><ele>36.0</ele><time>2026-03-25T13:32:12Z</time></trkpt><trkpt lat="41.89610662724091" lon="12.479340769790157"><ele>36.0</ele><time>2026-03-25T13:32:14Z</time></trkpt><trkpt lat="41.89611486360089" lon="12.479439525543167"><ele>36.0</ele><time>2026-03-25T13:32:17Z</time></trkpt><trkpt lat="41.896124656454724" lon="12.479536785742134"><ele>36.0</ele><time>2026-03-25T13:32:20Z</time></trkpt><trkpt lat="41.89613985807943" lon="12.479654177379835"><ele>36.0</ele><time>2026-03-25T13:32:22Z</time></trkpt><trkpt lat="41.89617947266995" lon="12.479736234444555"><ele>36.0</ele><time>2026-03-25T13:32:24Z</time></trkpt><trkpt lat="41.89619210311805" lon="12.479830151566823"><ele>36.0</ele><time>2026-03-25T13:32:26Z</time></trkpt><trkpt lat="41.89624063550115" lon="12.479915598588802"><ele>36.0</ele><time>2026-03-25T13:32:32Z</time></trkpt><trkpt lat="41.8962443629039" lon="12.480010034581689"><ele>36.0</ele><time>2026-03-25T13:32:35Z</time></trkpt><trkpt lat="41.89626977012197" lon="12.480094792873157"><ele>36.0</ele><time>2026-03-25T13:32:37Z</time></trkpt><trkpt lat="41.89629850726207" lon="12.480190411264843"><ele>36.0</ele><time>2026-03-25T13:32:39Z</time></trkpt><trkpt lat="41.89634770778439" lon="12.480273317997515"><ele>36.0</ele><time>2026-03-25T13:32:43Z</time></trkpt><trkpt lat="41.8963059717053" lon="12.480343023824812"><ele>36.0</ele><time>2026-03-25T13:32:48.999Z</time></trkpt><trkpt lat="41.896228022147575" lon="12.480288733729836"><ele>36.0</ele><time>2026-03-25T13:32:50.999Z</time></trkpt><trkpt lat="41.896129080039515" lon="12.480281703266197"><ele>36.0</ele><time>2026-03-25T13:32:52.999Z</time></trkpt><trkpt lat="41.896068210955036" lon="12.480315953442105"><ele>36.0</ele><time>2026-03-25T13:32:53.999Z</time></trkpt><trkpt lat="41.89600944464115" lon="12.48035259617641"><ele>36.0</ele><time>2026-03-25T13:32:54.999Z</time></trkpt><trkpt lat="41.89594501588101" lon="12.480381206197183"><ele>36.0</ele><time>2026-03-25T13:32:55.999Z</time></trkpt><trkpt lat="41.89587140372899" lon="12.480384850416247"><ele>36.0</ele><time>2026-03-25T13:32:56.999Z</time></trkpt><trkpt lat="41.89575132667658" lon="12.480424053654644"><ele>36.0</ele><time>2026-03-25T13:32:58.999Z</time></trkpt><trkpt lat="41.89565457385128" lon="12.480467356432813"><ele>36.0</ele><time>2026-03-25T13:33:00.999Z</time></trkpt><trkpt lat="41.895530050225176" lon="12.480510888728341"><ele>35.2</ele><time>2026-03-25T13:33:02.999Z</time></trkpt><trkpt lat="41.895419306781115" lon="12.480554539469399"><ele>34.400000000000006</ele><time>2026-03-25T13:33:04.999Z</time></trkpt><trkpt lat="41.89532117591782" lon="12.480587687244086"><ele>33.6</ele><time>2026-03-25T13:33:06.999Z</time></trkpt><trkpt lat="41.89522809362354" lon="12.480624637312758"><ele>32.800000000000004</ele><time>2026-03-25T13:33:08.999Z</time></trkpt><trkpt lat="41.895155996836735" lon="12.480662047574043"><ele>32.0</ele><time>2026-03-25T13:33:10.999Z</time></trkpt><trkpt lat="41.89507719377925" lon="12.480697562929583"><ele>32.0</ele><time>2026-03-25T13:33:13.999Z</time></trkpt><trkpt lat="41.89512876774324" lon="12.48084118896797"><ele>32.0</ele><time>2026-03-25T13:33:14.999Z</time></trkpt><trkpt lat="41.89513615527015" lon="12.480938268827305"><ele>32.0</ele><time>2026-03-25T13:33:16.999Z</time></trkpt><trkpt lat="41.89514163212832" lon="12.481048296202221"><ele>32.0</ele><time>2026-03-25T13:33:18.999Z</time></trkpt><trkpt lat="41.89489568420299" lon="12.48113501854689"><ele>31.8</ele><time>2026-03-25T13:33:19.999Z</time></trkpt><trkpt lat="41.89477371033686" lon="12.4811212748904"><ele>31.6</ele><time>2026-03-25T13:33:21.999Z</time></trkpt><trkpt lat="41.89470727393286" lon="12.481127208326452"><ele>31.400000000000002</ele><time>2026-03-25T13:33:22.999Z</time></trkpt><trkpt lat="41.89458426100213" lon="12.48111197131507"><ele>31.200000000000003</ele><time>2026-03-25T13:33:24.999Z</time></trkpt><trkpt lat="41.894465429530655" lon="12.48116714736838"><ele>31.0</ele><time>2026-03-25T13:33:26.999Z</time></trkpt><trkpt lat="41.894353784564395" lon="12.481240982470956"><ele>31.333333333333336</ele><time>2026-03-25T13:33:28.999Z</time></trkpt><trkpt lat="41.89429446301326" lon="12.481288963446914"><ele>31.666666666666668</ele><time>2026-03-25T13:33:29.999Z</time></trkpt><trkpt lat="41.89418983216358" lon="12.48135083888241"><ele>32.0</ele><time>2026-03-25T13:33:31.999Z</time></trkpt><trkpt lat="41.89409137939286" lon="12.481440980836815"><ele>32.333333333333336</ele><time>2026-03-25T13:33:33.999Z</time></trkpt><trkpt lat="41.89403445592754" lon="12.481488447586859"><ele>32.666666666666664</ele><time>2026-03-25T13:33:34.999Z</time></trkpt><trkpt lat="41.893982991666334" lon="12.481546439032318"><ele>33.0</ele><time>2026-03-25T13:33:35.999Z</time></trkpt><trkpt lat="41.89392157629296" lon="12.481649388587197"><ele>33.0</ele><time>2026-03-25T13:33:37.999Z</time></trkpt><trkpt lat="41.89386388521164" lon="12.481760872415052"><ele>33.0</ele><time>2026-03-25T13:33:39.999Z</time></trkpt><trkpt lat="41.89379186263583" lon="12.48182865161273"><ele>33.0</ele><time>2026-03-25T13:33:41.999Z</time></trkpt><trkpt lat="41.89373265790636" lon="12.481770818913176"><ele>33.0</ele><time>2026-03-25T13:33:42.999Z</time></trkpt><trkpt lat="41.893631290288745" lon="12.481772387013567"><ele>33.0</ele><time>2026-03-25T13:33:44.999Z</time></trkpt><trkpt lat="41.89358105271824" lon="12.481720742563779"><ele>33.0</ele><time>2026-03-25T13:33:45.999Z</time></trkpt><trkpt lat="41.89352646388449" lon="12.481669740695402"><ele>33.0</ele><time>2026-03-25T13:33:46.999Z</time></trkpt><trkpt lat="41.893467876617784" lon="12.481606790755231"><ele>33.0</ele><time>2026-03-25T13:33:47.999Z</time></trkpt><trkpt lat="41.89341787012226" lon="12.481553390897584"><ele>33.0</ele><time>2026-03-25T13:33:48.999Z</time></trkpt><trkpt lat="41.89336678737995" lon="12.481498047511883"><ele>33.0</ele><time>2026-03-25T13:33:49.999Z</time></trkpt><trkpt lat="41.89332018626951" lon="12.481433415821332"><ele>33.0</ele><time>2026-03-25T13:33:50.999Z</time></trkpt><trkpt lat="41.89326667721331" lon="12.481376357064015"><ele>33.0</ele><time>2026-03-25T13:33:51.999Z</time></trkpt><trkpt lat="41.893216581551265" lon="12.481322012800089"><ele>33.0</ele><time>2026-03-25T13:33:52.999Z</time></trkpt><trkpt lat="41.893131224520225" lon="12.481215933258802"><ele>32.833333333333336</ele><time>2026-03-25T13:33:55Z</time></trkpt><trkpt lat="41.893037920031766" lon="12.481107112669859"><ele>32.666666666666664</ele><time>2026-03-25T13:33:57Z</time></trkpt><trkpt lat="41.892990226410895" lon="12.481051211877151"><ele>32.5</ele><time>2026-03-25T13:33:58Z</time></trkpt><trkpt lat="41.89294246410364" lon="12.480987079116018"><ele>32.33333333333333</ele><time>2026-03-25T13:33:59Z</time></trkpt><trkpt lat="41.89289979439775" lon="12.480916129695625"><ele>32.166666666666664</ele><time>2026-03-25T13:34:00Z</time></trkpt><trkpt lat="41.89281411774226" lon="12.48079902899663"><ele>32.0</ele><time>2026-03-25T13:34:02Z</time></trkpt><trkpt lat="41.89277126148199" lon="12.48073204180722"><ele>32.0</ele><time>2026-03-25T13:34:03Z</time></trkpt><trkpt lat="41.89272982235769" lon="12.480665630457391"><ele>31.999999999999996</ele><time>2026-03-25T13:34:04Z</time></trkpt><trkpt lat="41.89266891219697" lon="12.480631537553139"><ele>32.0</ele><time>2026-03-25T13:34:05Z</time></trkpt><trkpt lat="41.892613256626376" lon="12.480590247136243"><ele>32.0</ele><time>2026-03-25T13:34:06Z</time></trkpt><trkpt lat="41.89255662501244" lon="12.480551791746144"><ele>31.999999999999996</ele><time>2026-03-25T13:34:07Z</time></trkpt><trkpt lat="41.89249581767367" lon="12.4805195517446"><ele>32.0</ele><time>2026-03-25T13:34:08Z</time></trkpt><trkpt lat="41.8924304881338" lon="12.480484349801849"><ele>32.0</ele><time>2026-03-25T13:34:09Z</time></trkpt><trkpt lat="41.892367475231424" lon="12.480457120303726"><ele>30.857142857142854</ele><time>2026-03-25T13:34:10Z</time></trkpt><trkpt lat="41.89230451249709" lon="12.480429769056288"><ele>29.71428571428571</ele><time>2026-03-25T13:34:11Z</time></trkpt><trkpt lat="41.89224124011253" lon="12.480402763493197"><ele>28.57142857142857</ele><time>2026-03-25T13:34:12Z</time></trkpt><trkpt lat="41.89217779748611" lon="12.480375725671076"><ele>27.428571428571427</ele><time>2026-03-25T13:34:13Z</time></trkpt><trkpt lat="41.892115787874985" lon="12.480349298525542"><ele>26.285714285714285</ele><time>2026-03-25T13:34:14Z</time></trkpt><trkpt lat="41.89204999545351" lon="12.480321259227889"><ele>25.14285714285714</ele><time>2026-03-25T13:34:15Z</time></trkpt><trkpt lat="41.89198459709881" lon="12.480294214999319"><ele>24.0</ele><time>2026-03-25T13:34:16Z</time></trkpt><trkpt lat="41.891923034631766" lon="12.480270306869153"><ele>24.0</ele><time>2026-03-25T13:34:17Z</time></trkpt><trkpt lat="41.89185460433608" lon="12.480249404837483"><ele>24.0</ele><time>2026-03-25T13:34:18Z</time></trkpt><trkpt lat="41.891789561032745" lon="12.480235835083093"><ele>24.0</ele><time>2026-03-25T13:34:19Z</time></trkpt><trkpt lat="41.89166652655036" lon="12.48023905814399"><ele>24.0</ele><time>2026-03-25T13:34:21Z</time></trkpt><trkpt lat="41.89153761434732" lon="12.48025948437597"><ele>24.0</ele><time>2026-03-25T13:34:23Z</time></trkpt><trkpt lat="41.89146622607727" lon="12.480280676281119"><ele>24.2</ele><time>2026-03-25T13:34:24Z</time></trkpt><trkpt lat="41.8913389937226" lon="12.480305311202937"><ele>24.4</ele><time>2026-03-25T13:34:26Z</time></trkpt><trkpt lat="41.89127501135046" lon="12.480330139882861"><ele>24.6</ele><time>2026-03-25T13:34:27Z</time></trkpt><trkpt lat="41.89115659948791" lon="12.480381072814781"><ele>24.8</ele><time>2026-03-25T13:34:29Z</time></trkpt><trkpt lat="41.89105549074841" lon="12.480422986872867"><ele>25.0</ele><time>2026-03-25T13:34:31Z</time></trkpt><trkpt lat="41.89090405367835" lon="12.4806390091522"><ele>23.8</ele><time>2026-03-25T13:34:34Z</time></trkpt><trkpt lat="41.89092049264976" lon="12.48075894731324"><ele>22.6</ele><time>2026-03-25T13:34:36Z</time></trkpt><trkpt lat="41.89086274594902" lon="12.480547743082433"><ele>21.4</ele><time>2026-03-25T13:34:39Z</time></trkpt><trkpt lat="41.890767919696145" lon="12.480583891747731"><ele>20.2</ele><time>2026-03-25T13:34:41Z</time></trkpt><trkpt lat="41.890707323557294" lon="12.480609415319524"><ele>19.0</ele><time>2026-03-25T13:34:43Z</time></trkpt><trkpt lat="41.89060813326845" lon="12.48064877533344"><ele>19.0</ele><time>2026-03-25T13:34:45Z</time></trkpt><trkpt lat="41.89050576523375" lon="12.480688180230027"><ele>19.0</ele><time>2026-03-25T13:34:47Z</time></trkpt><trkpt lat="41.89041662486927" lon="12.48072205896317"><ele>19.0</ele><time>2026-03-25T13:34:48.999Z</time></trkpt><trkpt lat="41.890325027798305" lon="12.480756912968994"><ele>19.0</ele><time>2026-03-25T13:34:50.999Z</time></trkpt><trkpt lat="41.890216404368026" lon="12.480798277300968"><ele>19.0</ele><time>2026-03-25T13:34:52.999Z</time></trkpt><trkpt lat="41.89015057710566" lon="12.480824257737847"><ele>19.333333333333332</ele><time>2026-03-25T13:34:54.999Z</time></trkpt><trkpt lat="41.89008474252864" lon="12.480850982666984"><ele>19.666666666666664</ele><time>2026-03-25T13:35:00.999Z</time></trkpt><trkpt lat="41.89001959952268" lon="12.480877168829425"><ele>20.0</ele><time>2026-03-25T13:35:03.999Z</time></trkpt><trkpt lat="41.889931543653525" lon="12.48091762007654"><ele>20.333333333333332</ele><time>2026-03-25T13:35:05.999Z</time></trkpt><trkpt lat="41.88985564330031" lon="12.480952486837522"><ele>20.666666666666668</ele><time>2026-03-25T13:35:07.999Z</time></trkpt><trkpt lat="41.889753478894605" lon="12.480997197389277"><ele>21.0</ele><time>2026-03-25T13:35:09.999Z</time></trkpt><trkpt lat="41.889635691875625" lon="12.48104731085414"><ele>21.0</ele><time>2026-03-25T13:35:11.999Z</time></trkpt><trkpt lat="41.88952633095963" lon="12.481093840435575"><ele>21.0</ele><time>2026-03-25T13:35:13.999Z</time></trkpt><trkpt lat="41.88942881872829" lon="12.481133523223157"><ele>21.0</ele><time>2026-03-25T13:35:15.999Z</time></trkpt><trkpt lat="41.88933699079621" lon="12.481171590901397"><ele>21.0</ele><time>2026-03-25T13:35:17.999Z</time></trkpt><trkpt lat="41.889261936723976" lon="12.48120276139153"><ele>21.0</ele><time>2026-03-25T13:35:19.999Z</time></trkpt><trkpt lat="41.88919179726928" lon="12.481229866389365"><ele>21.166666666666668</ele><time>2026-03-25T13:35:22.999Z</time></trkpt><trkpt lat="41.88911076508261" lon="12.481262392242268"><ele>21.333333333333332</ele><time>2026-03-25T13:35:27.999Z</time></trkpt><trkpt lat="41.8890047107177" lon="12.481306736765452"><ele>21.5</ele><time>2026-03-25T13:35:29.999Z</time></trkpt><trkpt lat="41.888955750858564" lon="12.481369916386683"><ele>21.666666666666664</ele><time>2026-03-25T13:35:31.999Z</time></trkpt><trkpt lat="41.88885586840822" lon="12.481369759767107"><ele>21.833333333333332</ele><time>2026-03-25T13:35:33.999Z</time></trkpt><trkpt lat="41.88878030767976" lon="12.48139967228093"><ele>22.0</ele><time>2026-03-25T13:35:36.999Z</time></trkpt><trkpt lat="41.88869590779539" lon="12.481428014176275"><ele>22.0</ele><time>2026-03-25T13:35:39.999Z</time></trkpt><trkpt lat="41.88877081597759" lon="12.48181495791364"><ele>22.0</ele><time>2026-03-25T13:35:41.999Z</time></trkpt><trkpt lat="41.88881600292332" lon="12.481901308623764"><ele>22.0</ele><time>2026-03-25T13:35:43.999Z</time></trkpt><trkpt lat="41.88892978091077" lon="12.481916194943098"><ele>22.0</ele><time>2026-03-25T13:35:45.999Z</time></trkpt><trkpt lat="41.88896152337634" lon="12.48199262365623"><ele>22.0</ele><time>2026-03-25T13:35:47.999Z</time></trkpt><trkpt lat="41.88879995184511" lon="12.48223704321273"><ele>22.0</ele><time>2026-03-25T13:35:48.999Z</time></trkpt><trkpt lat="41.88870329458066" lon="12.482345703193982"><ele>22.0</ele><time>2026-03-25T13:35:50.999Z</time></trkpt><trkpt lat="41.88862290289187" lon="12.482463259145902"><ele>22.5</ele><time>2026-03-25T13:35:52.999Z</time></trkpt><trkpt lat="41.888549762233204" lon="12.482564859754726"><ele>23.0</ele><time>2026-03-25T13:35:54.999Z</time></trkpt><trkpt lat="41.88850211702028" lon="12.482642113245541"><ele>23.5</ele><time>2026-03-25T13:35:56.999Z</time></trkpt><trkpt lat="41.88848511025576" lon="12.482739496972567"><ele>24.0</ele><time>2026-03-25T13:35:58.999Z</time></trkpt><trkpt lat="41.8885132038467" lon="12.482827773724486"><ele>24.500000000000004</ele><time>2026-03-25T13:36:06Z</time></trkpt><trkpt lat="41.88849034029752" lon="12.4829246818204"><ele>25.0</ele><time>2026-03-25T13:36:09Z</time></trkpt><trkpt lat="41.88844400665675" lon="12.482986176223898"><ele>25.000000000000004</ele><time>2026-03-25T13:36:10Z</time></trkpt><trkpt lat="41.88837629020433" lon="12.483099894181597"><ele>25.0</ele><time>2026-03-25T13:36:12Z</time></trkpt><trkpt lat="41.8883292032712" lon="12.483167713564924"><ele>25.0</ele><time>2026-03-25T13:36:14Z</time></trkpt><trkpt lat="41.88827563824418" lon="12.483234017333887"><ele>25.0</ele><time>2026-03-25T13:36:18Z</time></trkpt><trkpt lat="41.88820683312039" lon="12.48321092139563"><ele>25.000000000000004</ele><time>2026-03-25T13:36:27Z</time></trkpt><trkpt lat="41.888139002973205" lon="12.48327590323209"><ele>25.0</ele><time>2026-03-25T13:36:29Z</time></trkpt><trkpt lat="41.88805311550355" lon="12.483261443951546"><ele>25.0</ele><time>2026-03-25T13:36:31Z</time></trkpt><trkpt lat="41.888058577921484" lon="12.483105216680038"><ele>25.0</ele><time>2026-03-25T13:36:32Z</time></trkpt><trkpt lat="41.88796532563664" lon="12.483016572785191"><ele>25.0</ele><time>2026-03-25T13:36:34Z</time></trkpt><trkpt lat="41.88791109640653" lon="12.482962856388498"><ele>25.0</ele><time>2026-03-25T13:36:35Z</time></trkpt><trkpt lat="41.887765326516465" lon="12.483143594374063"><ele>25.0</ele><time>2026-03-25T13:36:38Z</time></trkpt><trkpt lat="41.887702993372216" lon="12.48327137280354"><ele>25.0</ele><time>2026-03-25T13:36:40Z</time></trkpt><trkpt lat="41.88772852862629" lon="12.483352798222132"><ele>25.0</ele><time>2026-03-25T13:36:42Z</time></trkpt><trkpt lat="41.88777506472383" lon="12.483466006694771"><ele>25.0</ele><time>2026-03-25T13:36:44Z</time></trkpt><trkpt lat="41.887736657582366" lon="12.483592702357738"><ele>25.0</ele><time>2026-03-25T13:36:46Z</time></trkpt><trkpt lat="41.88766913664328" lon="12.483733574506278"><ele>24.8</ele><time>2026-03-25T13:36:48Z</time></trkpt><trkpt lat="41.887628346726295" lon="12.483805697147485"><ele>24.6</ele><time>2026-03-25T13:36:49Z</time></trkpt><trkpt lat="41.88754826005142" lon="12.483923962001107"><ele>24.4</ele><time>2026-03-25T13:36:51Z</time></trkpt><trkpt lat="41.88747709611148" lon="12.484054563056281"><ele>24.2</ele><time>2026-03-25T13:36:53Z</time></trkpt><trkpt lat="41.88741189559116" lon="12.484177038321226"><ele>24.0</ele><time>2026-03-25T13:36:55Z</time></trkpt><trkpt lat="41.88735177909557" lon="12.484325590207742"><ele>24.0</ele><time>2026-03-25T13:36:56.999Z</time></trkpt><trkpt lat="41.88732988255225" lon="12.484405628331064"><ele>24.0</ele><time>2026-03-25T13:36:57.999Z</time></trkpt><trkpt lat="41.88728351497419" lon="12.484543991791043"><ele>24.0</ele><time>2026-03-25T13:36:59.999Z</time></trkpt><trkpt lat="41.88724713680495" lon="12.484617255885256"><ele>24.0</ele><time>2026-03-25T13:37:00.999Z</time></trkpt><trkpt lat="41.88721405289555" lon="12.484689864412312"><ele>24.0</ele><time>2026-03-25T13:37:01.999Z</time></trkpt><trkpt lat="41.887132417634895" lon="12.48478909776584"><ele>24.0</ele><time>2026-03-25T13:37:03.999Z</time></trkpt><trkpt lat="41.88707891796675" lon="12.484836263052213"><ele>24.6</ele><time>2026-03-25T13:37:04.999Z</time></trkpt><trkpt lat="41.88701726360599" lon="12.484868738778378"><ele>25.2</ele><time>2026-03-25T13:37:05.999Z</time></trkpt><trkpt lat="41.886941281919846" lon="12.484968978514413"><ele>25.800000000000004</ele><time>2026-03-25T13:37:07.999Z</time></trkpt><trkpt lat="41.88689781213192" lon="12.485121916229772"><ele>26.400000000000002</ele><time>2026-03-25T13:37:09.999Z</time></trkpt><trkpt lat="41.88684495788734" lon="12.48525556157417"><ele>27.0</ele><time>2026-03-25T13:37:11.999Z</time></trkpt><trkpt lat="41.886787996054565" lon="12.48538156641053"><ele>27.0</ele><time>2026-03-25T13:37:13.999Z</time></trkpt><trkpt lat="41.886739574277925" lon="12.485437133423048"><ele>27.000000000000004</ele><time>2026-03-25T13:37:14.999Z</time></trkpt><trkpt lat="41.886655162138894" lon="12.48553405920606"><ele>27.000000000000004</ele><time>2026-03-25T13:37:16.999Z</time></trkpt><trkpt lat="41.886590918945" lon="12.485666405906542"><ele>27.0</ele><time>2026-03-25T13:37:18.999Z</time></trkpt><trkpt lat="41.88655895455304" lon="12.485744932140273"><ele>27.0</ele><time>2026-03-25T13:37:19.999Z</time></trkpt><trkpt lat="41.88647546273023" lon="12.485850427736255"><ele>27.0</ele><time>2026-03-25T13:37:21.999Z</time></trkpt><trkpt lat="41.88641388355874" lon="12.485959261047125"><ele>27.000000000000004</ele><time>2026-03-25T13:37:23.999Z</time></trkpt><trkpt lat="41.886382775159575" lon="12.486045399436756"><ele>27.000000000000004</ele><time>2026-03-25T13:37:24.999Z</time></trkpt><trkpt lat="41.886344200179416" lon="12.486119896225325"><ele>27.0</ele><time>2026-03-25T13:37:25.999Z</time></trkpt><trkpt lat="41.886276672675365" lon="12.486243662647741"><ele>27.0</ele><time>2026-03-25T13:37:27.999Z</time></trkpt><trkpt lat="41.88620250256003" lon="12.486386832309721"><ele>28.0</ele><time>2026-03-25T13:37:29.999Z</time></trkpt><trkpt lat="41.88616174857631" lon="12.486455718298771"><ele>29.0</ele><time>2026-03-25T13:37:30.999Z</time></trkpt><trkpt lat="41.886081680347594" lon="12.486574637668593"><ele>30.0</ele><time>2026-03-25T13:37:32.999Z</time></trkpt><trkpt lat="41.88604254412738" lon="12.486651221975313"><ele>31.0</ele><time>2026-03-25T13:37:33.999Z</time></trkpt><trkpt lat="41.88600865628857" lon="12.486723495702694"><ele>32.0</ele><time>2026-03-25T13:37:34.999Z</time></trkpt><trkpt lat="41.88594303307982" lon="12.48684668293815"><ele>33.0</ele><time>2026-03-25T13:37:36.999Z</time></trkpt><trkpt lat="41.885873570483234" lon="12.486958681720973"><ele>31.0</ele><time>2026-03-25T13:37:38.999Z</time></trkpt><trkpt lat="41.88583275916661" lon="12.487023889232217"><ele>28.999999999999996</ele><time>2026-03-25T13:37:39.999Z</time></trkpt><trkpt lat="41.885766151741294" lon="12.487155521211935"><ele>27.0</ele><time>2026-03-25T13:37:41.999Z</time></trkpt><trkpt lat="41.885699924189126" lon="12.487250796753013"><ele>25.0</ele><time>2026-03-25T13:37:43.999Z</time></trkpt><trkpt lat="41.88565990591511" lon="12.48735872765088"><ele>23.0</ele><time>2026-03-25T13:37:45.999Z</time></trkpt><trkpt lat="41.88569459530784" lon="12.487481303514862"><ele>23.0</ele><time>2026-03-25T13:37:47.999Z</time></trkpt><trkpt lat="41.8857443944745" lon="12.487535665002882"><ele>23.0</ele><time>2026-03-25T13:37:52.999Z</time></trkpt><trkpt lat="41.88570316283402" lon="12.48760019597192"><ele>23.0</ele><time>2026-03-25T13:37:56.999Z</time></trkpt><trkpt lat="41.88564751156447" lon="12.487691042035712"><ele>23.0</ele><time>2026-03-25T13:37:58.999Z</time></trkpt><trkpt lat="41.88558056385171" lon="12.487813337156165"><ele>23.0</ele><time>2026-03-25T13:38:00.999Z</time></trkpt><trkpt lat="41.885545896447056" lon="12.487884822931198"><ele>23.0</ele><time>2026-03-25T13:38:01.999Z</time></trkpt><trkpt lat="41.885504971573425" lon="12.4879600135228"><ele>23.666666666666668</ele><time>2026-03-25T13:38:02.999Z</time></trkpt><trkpt lat="41.88546506774833" lon="12.488029774902264"><ele>24.333333333333336</ele><time>2026-03-25T13:38:03.999Z</time></trkpt><trkpt lat="41.88539880634531" lon="12.488155605503962"><ele>25.0</ele><time>2026-03-25T13:38:05.999Z</time></trkpt><trkpt lat="41.885333625883135" lon="12.488275012958646"><ele>25.666666666666668</ele><time>2026-03-25T13:38:08Z</time></trkpt><trkpt lat="41.88529693168222" lon="12.488348627175824"><ele>26.333333333333332</ele><time>2026-03-25T13:38:09Z</time></trkpt><trkpt lat="41.8852550706925" lon="12.488445208628024"><ele>27.0</ele><time>2026-03-25T13:38:11Z</time></trkpt><trkpt lat="41.88520838170039" lon="12.488544218451322"><ele>27.0</ele><time>2026-03-25T13:38:14Z</time></trkpt><trkpt lat="41.885134337027196" lon="12.48863473038501"><ele>27.000000000000004</ele><time>2026-03-25T13:38:16Z</time></trkpt><trkpt lat="41.88510225990896" lon="12.488711112219553"><ele>27.000000000000004</ele><time>2026-03-25T13:38:18Z</time></trkpt><trkpt lat="41.88505593125474" lon="12.488828169414733"><ele>27.0</ele><time>2026-03-25T13:38:22Z</time></trkpt><trkpt lat="41.88496368976637" lon="12.48891618213926"><ele>27.0</ele><time>2026-03-25T13:38:24Z</time></trkpt><trkpt lat="41.88483979136122" lon="12.488949139229195"><ele>26.666666666666668</ele><time>2026-03-25T13:38:26Z</time></trkpt><trkpt lat="41.884771934892306" lon="12.488943908008682"><ele>26.333333333333336</ele><time>2026-03-25T13:38:27Z</time></trkpt><trkpt lat="41.884659775183806" lon="12.488948191106322"><ele>26.0</ele><time>2026-03-25T13:38:29Z</time></trkpt><trkpt lat="41.88456699320866" lon="12.488900301504167"><ele>25.666666666666668</ele><time>2026-03-25T13:38:31Z</time></trkpt><trkpt lat="41.884496121311955" lon="12.488843880929037"><ele>25.333333333333336</ele><time>2026-03-25T13:38:33Z</time></trkpt><trkpt lat="41.88443192123182" lon="12.488788148239408"><ele>25.0</ele><time>2026-03-25T13:38:35Z</time></trkpt><trkpt lat="41.88434209822904" lon="12.488722296542047"><ele>24.857142857142858</ele><time>2026-03-25T13:38:37Z</time></trkpt><trkpt lat="41.884278104917584" lon="12.488711223245616"><ele>24.714285714285715</ele><time>2026-03-25T13:38:38Z</time></trkpt><trkpt lat="41.88421285292541" lon="12.488740597851125"><ele>24.57142857142857</ele><time>2026-03-25T13:38:39Z</time></trkpt><trkpt lat="41.884156201564544" lon="12.488785337304883"><ele>24.42857142857143</ele><time>2026-03-25T13:38:40Z</time></trkpt><trkpt lat="41.88406016734584" lon="12.488875392658962"><ele>24.285714285714285</ele><time>2026-03-25T13:38:42Z</time></trkpt><trkpt lat="41.88401766636962" lon="12.488942051040626"><ele>24.142857142857142</ele><time>2026-03-25T13:38:43Z</time></trkpt><trkpt lat="41.88398717669641" lon="12.489021892463432"><ele>24.0</ele><time>2026-03-25T13:38:44Z</time></trkpt><trkpt lat="41.883950887662984" lon="12.48909278178522"><ele>24.0</ele><time>2026-03-25T13:38:45Z</time></trkpt><trkpt lat="41.8838758003454" lon="12.489203983595443"><ele>24.0</ele><time>2026-03-25T13:38:47Z</time></trkpt><trkpt lat="41.883785496496344" lon="12.48932774779386"><ele>24.0</ele><time>2026-03-25T13:38:49Z</time></trkpt><trkpt lat="41.883714889470916" lon="12.489453673171928"><ele>24.0</ele><time>2026-03-25T13:38:51Z</time></trkpt><trkpt lat="41.883670982839" lon="12.489585885042436"><ele>24.0</ele><time>2026-03-25T13:38:53Z</time></trkpt><trkpt lat="41.883622290905734" lon="12.489652672666413"><ele>24.0</ele><time>2026-03-25T13:38:55Z</time></trkpt><trkpt lat="41.88356699069459" lon="12.489728693198375"><ele>24.0</ele><time>2026-03-25T13:38:57Z</time></trkpt><trkpt lat="41.88347389746497" lon="12.48984122199252"><ele>24.0</ele><time>2026-03-25T13:38:59Z</time></trkpt><trkpt lat="41.883422853589245" lon="12.489905638281924"><ele>24.0</ele><time>2026-03-25T13:39:00Z</time></trkpt><trkpt lat="41.88338009348932" lon="12.489979548658718"><ele>24.0</ele><time>2026-03-25T13:39:01Z</time></trkpt><trkpt lat="41.883328114284325" lon="12.490028033691479"><ele>24.0</ele><time>2026-03-25T13:39:01.999Z</time></trkpt><trkpt lat="41.88324569971493" lon="12.490101545802982"><ele>24.0</ele><time>2026-03-25T13:39:03.999Z</time></trkpt><trkpt lat="41.88317797198438" lon="12.490127917348826"><ele>24.0</ele><time>2026-03-25T13:39:06.999Z</time></trkpt><trkpt lat="41.88309522423574" lon="12.490183564903933"><ele>24.0</ele><time>2026-03-25T13:39:11.999Z</time></trkpt><trkpt lat="41.883005993389375" lon="12.490203424959578"><ele>24.0</ele><time>2026-03-25T13:39:13.999Z</time></trkpt><trkpt lat="41.882983027138806" lon="12.49033542648606"><ele>24.0</ele><time>2026-03-25T13:39:16.999Z</time></trkpt><trkpt lat="41.88290528754684" lon="12.490392874181069"><ele>24.0</ele><time>2026-03-25T13:39:18.999Z</time></trkpt><trkpt lat="41.88297689491657" lon="12.49055852673693"><ele>24.0</ele><time>2026-03-25T13:39:21.999Z</time></trkpt><trkpt lat="41.882946172603766" lon="12.490741274550404"><ele>24.0</ele><time>2026-03-25T13:39:23.999Z</time></trkpt><trkpt lat="41.88288353568144" lon="12.490843820325702"><ele>24.5</ele><time>2026-03-25T13:39:25.999Z</time></trkpt><trkpt lat="41.88282107518158" lon="12.49094364013991"><ele>25.0</ele><time>2026-03-25T13:39:27.999Z</time></trkpt><trkpt lat="41.88277902060209" lon="12.491010848652095"><ele>25.5</ele><time>2026-03-25T13:39:29.999Z</time></trkpt><trkpt lat="41.88272716557348" lon="12.491093719507186"><ele>26.0</ele><time>2026-03-25T13:39:31.999Z</time></trkpt><trkpt lat="41.88267760249583" lon="12.491172927540351"><ele>26.5</ele><time>2026-03-25T13:39:33.999Z</time></trkpt><trkpt lat="41.88259986181886" lon="12.4912971669248"><ele>27.0</ele><time>2026-03-25T13:39:35.999Z</time></trkpt><trkpt lat="41.88252323816905" lon="12.491419621195547"><ele>27.0</ele><time>2026-03-25T13:39:37.999Z</time></trkpt><trkpt lat="41.882451150633536" lon="12.49153863341466"><ele>27.000000000000004</ele><time>2026-03-25T13:39:39.999Z</time></trkpt><trkpt lat="41.88239597783094" lon="12.491596074278531"><ele>27.000000000000004</ele><time>2026-03-25T13:39:40.999Z</time></trkpt><trkpt lat="41.8823510335064" lon="12.491669412206294"><ele>27.0</ele><time>2026-03-25T13:39:41.999Z</time></trkpt><trkpt lat="41.88227241732658" lon="12.491793925090066"><ele>27.0</ele><time>2026-03-25T13:39:43.999Z</time></trkpt><trkpt lat="41.882191683158645" lon="12.491920624981793"><ele>27.0</ele><time>2026-03-25T13:39:45.999Z</time></trkpt><trkpt lat="41.88211815803952" lon="12.492048788226539"><ele>27.000000000000004</ele><time>2026-03-25T13:39:47.999Z</time></trkpt><trkpt lat="41.882073904168244" lon="12.492109993552788"><ele>27.000000000000004</ele><time>2026-03-25T13:39:48.999Z</time></trkpt><trkpt lat="41.8819918487631" lon="12.492226208195058"><ele>27.0</ele><time>2026-03-25T13:39:50.999Z</time></trkpt><trkpt lat="41.88194971495103" lon="12.492291026890545"><ele>27.0</ele><time>2026-03-25T13:39:51.999Z</time></trkpt><trkpt lat="41.881871608416944" lon="12.492422832037647"><ele>27.25</ele><time>2026-03-25T13:39:53.999Z</time></trkpt><trkpt lat="41.881793783658864" lon="12.49255556191952"><ele>27.5</ele><time>2026-03-25T13:39:55.999Z</time></trkpt><trkpt lat="41.88172242233424" lon="12.492679705029621"><ele>27.75</ele><time>2026-03-25T13:39:57.999Z</time></trkpt><trkpt lat="41.88166593391623" lon="12.492813792728422"><ele>28.0</ele><time>2026-03-25T13:39:59.999Z</time></trkpt><trkpt lat="41.88158683298493" lon="12.492942190341104"><ele>29.599999999999998</ele><time>2026-03-25T13:40:01.999Z</time></trkpt><trkpt lat="41.881509082273375" lon="12.49307039280806"><ele>31.199999999999996</ele><time>2026-03-25T13:40:03.999Z</time></trkpt><trkpt lat="41.881445281909265" lon="12.493177368361446"><ele>32.8</ele><time>2026-03-25T13:40:05.999Z</time></trkpt><trkpt lat="41.88138608179537" lon="12.493278297033338"><ele>34.4</ele><time>2026-03-25T13:40:07.999Z</time></trkpt><trkpt lat="41.88132172653279" lon="12.493388507890574"><ele>36.0</ele><time>2026-03-25T13:40:09.999Z</time></trkpt><trkpt lat="41.88124501537178" lon="12.493519878688453"><ele>36.0</ele><time>2026-03-25T13:40:11.999Z</time></trkpt><trkpt lat="41.881203404101704" lon="12.493591139555843"><ele>36.0</ele><time>2026-03-25T13:40:13Z</time></trkpt><trkpt lat="41.88113289681922" lon="12.493710157182331"><ele>36.0</ele><time>2026-03-25T13:40:15Z</time></trkpt><trkpt lat="41.88106661312067" lon="12.493820018366229"><ele>36.0</ele><time>2026-03-25T13:40:17Z</time></trkpt><trkpt lat="41.88102367516317" lon="12.493890068698516"><ele>36.0</ele><time>2026-03-25T13:40:18Z</time></trkpt><trkpt lat="41.88098265257178" lon="12.493957219077853"><ele>36.0</ele><time>2026-03-25T13:40:19Z</time></trkpt><trkpt lat="41.880922223754965" lon="12.494053562367741"><ele>33.333333333333336</ele><time>2026-03-25T13:40:21Z</time></trkpt><trkpt lat="41.880859069138445" lon="12.494124475593352"><ele>30.666666666666668</ele><time>2026-03-25T13:40:23Z</time></trkpt><trkpt lat="41.88058978470013" lon="12.493893555079307"><ele>28.0</ele><time>2026-03-25T13:40:24Z</time></trkpt><trkpt lat="41.88046933990248" lon="12.493917629610303"><ele>28.0</ele><time>2026-03-25T13:40:26Z</time></trkpt><trkpt lat="41.880409192556186" lon="12.49394888971615"><ele>27.999999999999996</ele><time>2026-03-25T13:40:27Z</time></trkpt><trkpt lat="41.88030586943493" lon="12.494046541688391"><ele>27.999999999999996</ele><time>2026-03-25T13:40:29Z</time></trkpt><trkpt lat="41.88022092871631" lon="12.494171444574858"><ele>28.0</ele><time>2026-03-25T13:40:31Z</time></trkpt><trkpt lat="41.88013828214587" lon="12.494291028568634"><ele>28.0</ele><time>2026-03-25T13:40:33Z</time></trkpt><trkpt lat="41.88007044960549" lon="12.494427795904963"><ele>28.2</ele><time>2026-03-25T13:40:35Z</time></trkpt><trkpt lat="41.880031201359294" lon="12.494494441673409"><ele>28.4</ele><time>2026-03-25T13:40:36Z</time></trkpt><trkpt lat="41.87994787470481" lon="12.494615534052878"><ele>28.599999999999998</ele><time>2026-03-25T13:40:38Z</time></trkpt><trkpt lat="41.879904330820935" lon="12.494676837853563"><ele>28.799999999999997</ele><time>2026-03-25T13:40:39Z</time></trkpt><trkpt lat="41.879823845618944" lon="12.49478400413905"><ele>29.0</ele><time>2026-03-25T13:40:41Z</time></trkpt><trkpt lat="41.87975840329917" lon="12.494871306333108"><ele>29.333333333333332</ele><time>2026-03-25T13:40:43Z</time></trkpt><trkpt lat="41.879694647829794" lon="12.494954788272066"><ele>29.666666666666664</ele><time>2026-03-25T13:40:45Z</time></trkpt><trkpt lat="41.87963834970108" lon="12.49502426140715"><ele>30.0</ele><time>2026-03-25T13:40:47Z</time></trkpt><trkpt lat="41.87960440477503" lon="12.495137397810185"><ele>30.333333333333336</ele><time>2026-03-25T13:40:49Z</time></trkpt><trkpt lat="41.87958942860631" lon="12.495277579140215"><ele>30.666666666666668</ele><time>2026-03-25T13:40:51Z</time></trkpt><trkpt lat="41.87959068577554" lon="12.495380714054846"><ele>31.0</ele><time>2026-03-25T13:41:00Z</time></trkpt><trkpt lat="41.879634443939125" lon="12.495453380394927"><ele>30.333333333333336</ele><time>2026-03-25T13:41:02Z</time></trkpt><trkpt lat="41.879681323836856" lon="12.495524854686026"><ele>29.666666666666668</ele><time>2026-03-25T13:41:04Z</time></trkpt><trkpt lat="41.87972615302308" lon="12.495587159011306"><ele>29.0</ele><time>2026-03-25T13:41:06.999Z</time></trkpt><trkpt lat="41.87967684533911" lon="12.495669420944651"><ele>28.333333333333336</ele><time>2026-03-25T13:43:41.999Z</time></trkpt><trkpt lat="41.87960142744092" lon="12.495809854463188"><ele>27.666666666666668</ele><time>2026-03-25T13:43:43.999Z</time></trkpt><trkpt lat="41.879576558856655" lon="12.49589694262868"><ele>27.0</ele><time>2026-03-25T13:43:44.999Z</time></trkpt><trkpt lat="41.879534195114886" lon="12.49598942560925"><ele>27.0</ele><time>2026-03-25T13:43:46.999Z</time></trkpt><trkpt lat="41.879563814957905" lon="12.495600518741586"><ele>27.0</ele><time>2026-03-25T13:43:48.999Z</time></trkpt><trkpt lat="41.87946640822354" lon="12.495518940232214"><ele>27.0</ele><time>2026-03-25T13:43:50.999Z</time></trkpt><trkpt lat="41.87939066380916" lon="12.495475211157379"><ele>27.0</ele><time>2026-03-25T13:43:51.999Z</time></trkpt><trkpt lat="41.879279873122385" lon="12.495436294070174"><ele>27.0</ele><time>2026-03-25T13:43:52.999Z</time></trkpt><trkpt lat="41.879206703018916" lon="12.495427141813368"><ele>27.0</ele><time>2026-03-25T13:43:53.999Z</time></trkpt><trkpt lat="41.87914287094189" lon="12.495421844366001"><ele>27.0</ele><time>2026-03-25T13:43:54.999Z</time></trkpt><trkpt lat="41.879026791396385" lon="12.49541418373235"><ele>27.0</ele><time>2026-03-25T13:43:56.999Z</time></trkpt><trkpt lat="41.87896284546682" lon="12.495411415510812"><ele>27.0</ele><time>2026-03-25T13:43:57.999Z</time></trkpt><trkpt lat="41.87885761744652" lon="12.495406760600922"><ele>27.0</ele><time>2026-03-25T13:43:59.999Z</time></trkpt><trkpt lat="41.87879324051476" lon="12.495403784267765"><ele>27.000000000000004</ele><time>2026-03-25T13:44:00.999Z</time></trkpt><trkpt lat="41.87868271754187" lon="12.49539707769115"><ele>27.000000000000004</ele><time>2026-03-25T13:44:02.999Z</time></trkpt><trkpt lat="41.87856584313159" lon="12.495389647174356"><ele>27.0</ele><time>2026-03-25T13:44:04.999Z</time></trkpt><trkpt lat="41.87845313494194" lon="12.495382182096392"><ele>27.0</ele><time>2026-03-25T13:44:06.999Z</time></trkpt><trkpt lat="41.87834956115589" lon="12.49537766913543"><ele>28.0</ele><time>2026-03-25T13:44:08.999Z</time></trkpt><trkpt lat="41.87823786672619" lon="12.495372802346651"><ele>29.000000000000004</ele><time>2026-03-25T13:44:10.999Z</time></trkpt><trkpt lat="41.87812646737019" lon="12.495367948412014"><ele>30.000000000000004</ele><time>2026-03-25T13:44:12.999Z</time></trkpt><trkpt lat="41.878023469855336" lon="12.495362691701501"><ele>31.0</ele><time>2026-03-25T13:44:14.999Z</time></trkpt><trkpt lat="41.87793257639202" lon="12.495357184387471"><ele>32.0</ele><time>2026-03-25T13:44:16.999Z</time></trkpt><trkpt lat="41.87781605623236" lon="12.49535165840119"><ele>32.0</ele><time>2026-03-25T13:44:18.999Z</time></trkpt><trkpt lat="41.87769734595751" lon="12.495349713830342"><ele>32.0</ele><time>2026-03-25T13:44:20.999Z</time></trkpt><trkpt lat="41.87758494441119" lon="12.495351333332943"><ele>32.0</ele><time>2026-03-25T13:44:22.998Z</time></trkpt><trkpt lat="41.877521434432246" lon="12.495356247822857"><ele>32.0</ele><time>2026-03-25T13:44:23.998Z</time></trkpt><trkpt lat="41.87740782797909" lon="12.495373778401298"><ele>32.0</ele><time>2026-03-25T13:44:26Z</time></trkpt><trkpt lat="41.8772854288089" lon="12.49540786372561"><ele>33.2</ele><time>2026-03-25T13:44:28Z</time></trkpt><trkpt lat="41.877175652521316" lon="12.49544961660459"><ele>34.400000000000006</ele><time>2026-03-25T13:44:30Z</time></trkpt><trkpt lat="41.87706831922534" lon="12.495494114607602"><ele>35.599999999999994</ele><time>2026-03-25T13:44:32Z</time></trkpt><trkpt lat="41.87696289284385" lon="12.495540265246246"><ele>36.8</ele><time>2026-03-25T13:44:34Z</time></trkpt><trkpt lat="41.87686599242939" lon="12.495584724621247"><ele>38.0</ele><time>2026-03-25T13:44:36Z</time></trkpt><trkpt lat="41.87678695615555" lon="12.495620987666442"><ele>38.199999999999996</ele><time>2026-03-25T13:44:38Z</time></trkpt><trkpt lat="41.876679683660896" lon="12.495670205908516"><ele>38.4</ele><time>2026-03-25T13:44:40Z</time></trkpt><trkpt lat="41.876587169517414" lon="12.495712652791694"><ele>38.599999999999994</ele><time>2026-03-25T13:44:42Z</time></trkpt><trkpt lat="41.87647735810847" lon="12.495763035925682"><ele>38.8</ele><time>2026-03-25T13:44:44Z</time></trkpt><trkpt lat="41.87637778157419" lon="12.495808723141847"><ele>39.0</ele><time>2026-03-25T13:44:46Z</time></trkpt><trkpt lat="41.8762696948359" lon="12.49585831498356"><ele>39.0</ele><time>2026-03-25T13:44:48Z</time></trkpt><trkpt lat="41.87616367728252" lon="12.495906957467177"><ele>39.0</ele><time>2026-03-25T13:44:50Z</time></trkpt><trkpt lat="41.87606804397499" lon="12.495952849820092"><ele>39.0</ele><time>2026-03-25T13:44:52Z</time></trkpt><trkpt lat="41.87596799695546" lon="12.495999304031914"><ele>39.0</ele><time>2026-03-25T13:44:54Z</time></trkpt><trkpt lat="41.87586811215237" lon="12.49604546882538"><ele>39.0</ele><time>2026-03-25T13:44:56Z</time></trkpt><trkpt lat="41.875756149249334" lon="12.496097215882465"><ele>39.0</ele><time>2026-03-25T13:44:58Z</time></trkpt><trkpt lat="41.875662153929845" lon="12.496140634775053"><ele>39.0</ele><time>2026-03-25T13:45:00Z</time></trkpt><trkpt lat="41.8755617128423" lon="12.49618694024167"><ele>39.0</ele><time>2026-03-25T13:45:02Z</time></trkpt><trkpt lat="41.87544627198022" lon="12.49624016092728"><ele>39.0</ele><time>2026-03-25T13:45:04Z</time></trkpt><trkpt lat="41.87535880665641" lon="12.496280485850255"><ele>39.0</ele><time>2026-03-25T13:45:06Z</time></trkpt><trkpt lat="41.87525438081083" lon="12.496328826801706"><ele>39.6</ele><time>2026-03-25T13:45:08Z</time></trkpt><trkpt lat="41.8751673275824" lon="12.496369603807363"><ele>40.2</ele><time>2026-03-25T13:45:10Z</time></trkpt><trkpt lat="41.87508378765732" lon="12.496408735375566"><ele>40.800000000000004</ele><time>2026-03-25T13:45:12Z</time></trkpt><trkpt lat="41.87497155408312" lon="12.496461307745268"><ele>41.4</ele><time>2026-03-25T13:45:13.999Z</time></trkpt><trkpt lat="41.87487464827848" lon="12.496457865255062"><ele>42.0</ele><time>2026-03-25T13:45:15.999Z</time></trkpt><trkpt lat="41.87477395237205" lon="12.49648893407569"><ele>42.0</ele><time>2026-03-25T13:45:17.999Z</time></trkpt><trkpt lat="41.874669320378224" lon="12.49651376017779"><ele>42.0</ele><time>2026-03-25T13:45:19.999Z</time></trkpt><trkpt lat="41.87457101544395" lon="12.496531911688974"><ele>42.0</ele><time>2026-03-25T13:45:21.999Z</time></trkpt><trkpt lat="41.87447200388956" lon="12.496543132699282"><ele>42.0</ele><time>2026-03-25T13:45:23.999Z</time></trkpt><trkpt lat="41.8743597192166" lon="12.496551490751106"><ele>42.0</ele><time>2026-03-25T13:45:25.999Z</time></trkpt><trkpt lat="41.8742485824825" lon="12.496555580865245"><ele>41.25</ele><time>2026-03-25T13:45:27.999Z</time></trkpt><trkpt lat="41.87413390674323" lon="12.496555878202365"><ele>40.5</ele><time>2026-03-25T13:45:29.999Z</time></trkpt><trkpt lat="41.87402697889155" lon="12.496554429478554"><ele>39.75</ele><time>2026-03-25T13:45:31.999Z</time></trkpt><trkpt lat="41.87392441033651" lon="12.496553069953553"><ele>39.0</ele><time>2026-03-25T13:45:33.999Z</time></trkpt><trkpt lat="41.873795689776045" lon="12.496550396422107"><ele>39.0</ele><time>2026-03-25T13:45:35.999Z</time></trkpt><trkpt lat="41.87373012880145" lon="12.49654889056386"><ele>39.0</ele><time>2026-03-25T13:45:36.999Z</time></trkpt><trkpt lat="41.87361426528678" lon="12.496546229319046"><ele>39.0</ele><time>2026-03-25T13:45:38.999Z</time></trkpt><trkpt lat="41.87350324233324" lon="12.496543543696694"><ele>39.0</ele><time>2026-03-25T13:45:40.999Z</time></trkpt><trkpt lat="41.873410700190135" lon="12.496541292995737"><ele>39.0</ele><time>2026-03-25T13:45:42.999Z</time></trkpt><trkpt lat="41.87332680429583" lon="12.49653925257896"><ele>38.833333333333336</ele><time>2026-03-25T13:45:44.999Z</time></trkpt><trkpt lat="41.8732577642719" lon="12.496537573468617"><ele>38.666666666666664</ele><time>2026-03-25T13:45:46.999Z</time></trkpt><trkpt lat="41.8731934702731" lon="12.496535878263362"><ele>38.5</ele><time>2026-03-25T13:45:51.999Z</time></trkpt><trkpt lat="41.87309286725058" lon="12.496532868264696"><ele>38.33333333333333</ele><time>2026-03-25T13:45:59.999Z</time></trkpt><trkpt lat="41.872994602028626" lon="12.496529928198418"><ele>38.166666666666664</ele><time>2026-03-25T13:46:01.999Z</time></trkpt><trkpt lat="41.87288718452222" lon="12.49651489372965"><ele>38.0</ele><time>2026-03-25T13:46:03.999Z</time></trkpt><trkpt lat="41.87281421883197" lon="12.496508791858858"><ele>38.0</ele><time>2026-03-25T13:46:04.999Z</time></trkpt><trkpt lat="41.87269910296484" lon="12.496499165120838"><ele>38.0</ele><time>2026-03-25T13:46:06.999Z</time></trkpt><trkpt lat="41.872593905136334" lon="12.49649003801918"><ele>38.0</ele><time>2026-03-25T13:46:08.999Z</time></trkpt><trkpt lat="41.87247683130892" lon="12.496479970401571"><ele>38.0</ele><time>2026-03-25T13:46:10.999Z</time></trkpt><trkpt lat="41.87240496549095" lon="12.496474091039293"><ele>38.0</ele><time>2026-03-25T13:46:11.999Z</time></trkpt><trkpt lat="41.872275092944385" lon="12.496463466102739"><ele>38.4</ele><time>2026-03-25T13:46:13.999Z</time></trkpt><trkpt lat="41.87216980853465" lon="12.496454427174712"><ele>38.8</ele><time>2026-03-25T13:46:15.999Z</time></trkpt><trkpt lat="41.87210668307094" lon="12.496449248475153"><ele>39.2</ele><time>2026-03-25T13:46:16.999Z</time></trkpt><trkpt lat="41.872038652606754" lon="12.496443667379673"><ele>39.6</ele><time>2026-03-25T13:46:17.999Z</time></trkpt><trkpt lat="41.87191468761475" lon="12.496433497513232"><ele>40.0</ele><time>2026-03-25T13:46:19.999Z</time></trkpt><trkpt lat="41.871784930163756" lon="12.496422937642006"><ele>39.5</ele><time>2026-03-25T13:46:21.999Z</time></trkpt><trkpt lat="41.87172097267811" lon="12.496417877503898"><ele>39.0</ele><time>2026-03-25T13:46:22.999Z</time></trkpt><trkpt lat="41.871657812769854" lon="12.496412880459493"><ele>38.5</ele><time>2026-03-25T13:46:23.999Z</time></trkpt><trkpt lat="41.87159200066208" lon="12.496407690491528"><ele>38.0</ele><time>2026-03-25T13:46:24.999Z</time></trkpt><trkpt lat="41.871476361464936" lon="12.496398595275544"><ele>37.5</ele><time>2026-03-25T13:46:26.998Z</time></trkpt><trkpt lat="41.87135986062079" lon="12.496388892384745"><ele>37.0</ele><time>2026-03-25T13:46:28.998Z</time></trkpt><trkpt lat="41.87124445695284" lon="12.49638001605818"><ele>37.0</ele><time>2026-03-25T13:46:31Z</time></trkpt><trkpt lat="41.87115841060813" lon="12.496372919093778"><ele>37.0</ele><time>2026-03-25T13:46:33Z</time></trkpt><trkpt lat="41.87103300937731" lon="12.4963625761965"><ele>37.0</ele><time>2026-03-25T13:46:35Z</time></trkpt><trkpt lat="41.87096424473818" lon="12.496691984919337"><ele>34.333333333333336</ele><time>2026-03-25T13:46:36Z</time></trkpt><trkpt lat="41.87084284013819" lon="12.496687539814623"><ele>31.666666666666664</ele><time>2026-03-25T13:46:38Z</time></trkpt><trkpt lat="41.870792712292086" lon="12.496342239243388"><ele>29.0</ele><time>2026-03-25T13:46:39Z</time></trkpt><trkpt lat="41.870681028123464" lon="12.496333657544286"><ele>29.0</ele><time>2026-03-25T13:46:41Z</time></trkpt><trkpt lat="41.87060909194277" lon="12.496327115192676"><ele>29.0</ele><time>2026-03-25T13:46:42Z</time></trkpt><trkpt lat="41.87048639843471" lon="12.496316871428645"><ele>29.0</ele><time>2026-03-25T13:46:44Z</time></trkpt><trkpt lat="41.87036076410716" lon="12.496643856141127"><ele>28.999999999999996</ele><time>2026-03-25T13:46:46Z</time></trkpt><trkpt lat="41.87023449523765" lon="12.496644436446552"><ele>29.0</ele><time>2026-03-25T13:46:48Z</time></trkpt><trkpt lat="41.87016419221966" lon="12.49667039285939"><ele>29.0</ele><time>2026-03-25T13:46:49Z</time></trkpt><trkpt lat="41.870097135365306" lon="12.496685015236126"><ele>29.0</ele><time>2026-03-25T13:46:50Z</time></trkpt><trkpt lat="41.87002719297555" lon="12.496689064246391"><ele>28.999999999999996</ele><time>2026-03-25T13:46:51Z</time></trkpt><trkpt lat="41.86995745129587" lon="12.49670072954187"><ele>29.0</ele><time>2026-03-25T13:46:52Z</time></trkpt><trkpt lat="41.86988615297377" lon="12.496710337118417"><ele>27.999999999999996</ele><time>2026-03-25T13:46:53Z</time></trkpt><trkpt lat="41.86981283116824" lon="12.49670680149926"><ele>27.0</ele><time>2026-03-25T13:46:54Z</time></trkpt><trkpt lat="41.869744733998466" lon="12.496692473297072"><ele>26.0</ele><time>2026-03-25T13:46:55Z</time></trkpt><trkpt lat="41.86966995398583" lon="12.496686548031159"><ele>25.0</ele><time>2026-03-25T13:46:56Z</time></trkpt><trkpt lat="41.86959278860524" lon="12.496679578727893"><ele>24.0</ele><time>2026-03-25T13:46:57Z</time></trkpt><trkpt lat="41.86950976013127" lon="12.496674671854445"><ele>23.0</ele><time>2026-03-25T13:46:58Z</time></trkpt><trkpt lat="41.86942660003324" lon="12.496683657778599"><ele>23.0</ele><time>2026-03-25T13:46:59Z</time></trkpt><trkpt lat="41.869349479205106" lon="12.496690835596747"><ele>23.0</ele><time>2026-03-25T13:47:00Z</time></trkpt><trkpt lat="41.86926693234108" lon="12.496679077062245"><ele>23.0</ele><time>2026-03-25T13:47:01Z</time></trkpt><trkpt lat="41.86918887417848" lon="12.49666932361374"><ele>23.0</ele><time>2026-03-25T13:47:02Z</time></trkpt><trkpt lat="41.86911218652479" lon="12.496667421363012"><ele>23.0</ele><time>2026-03-25T13:47:03Z</time></trkpt><trkpt lat="41.86903958125663" lon="12.496662283690316"><ele>23.0</ele><time>2026-03-25T13:47:04Z</time></trkpt><trkpt lat="41.86896254730108" lon="12.496648257706026"><ele>22.333333333333336</ele><time>2026-03-25T13:47:05Z</time></trkpt><trkpt lat="41.868894248065196" lon="12.496639406592342"><ele>21.666666666666668</ele><time>2026-03-25T13:47:06Z</time></trkpt><trkpt lat="41.86882227494513" lon="12.496638395295088"><ele>21.0</ele><time>2026-03-25T13:47:07Z</time></trkpt><trkpt lat="41.86874445309519" lon="12.496638474151696"><ele>20.333333333333332</ele><time>2026-03-25T13:47:08Z</time></trkpt><trkpt lat="41.868677740396585" lon="12.496631366015402"><ele>19.666666666666664</ele><time>2026-03-25T13:47:09Z</time></trkpt><trkpt lat="41.868612342708154" lon="12.496635981315526"><ele>19.0</ele><time>2026-03-25T13:47:10Z</time></trkpt><trkpt lat="41.86849486868071" lon="12.496636507585848"><ele>19.2</ele><time>2026-03-25T13:47:12Z</time></trkpt><trkpt lat="41.86839175152779" lon="12.496646492376781"><ele>19.4</ele><time>2026-03-25T13:47:14Z</time></trkpt><trkpt lat="41.868289390342966" lon="12.496651273965275"><ele>19.6</ele><time>2026-03-25T13:47:16Z</time></trkpt><trkpt lat="41.86819084854105" lon="12.496646715015004"><ele>19.8</ele><time>2026-03-25T13:47:18Z</time></trkpt><trkpt lat="41.86809406236098" lon="12.49665150460134"><ele>20.0</ele><time>2026-03-25T13:47:20Z</time></trkpt><trkpt lat="41.86800041858298" lon="12.496650228792104"><ele>20.0</ele><time>2026-03-25T13:47:21.999Z</time></trkpt><trkpt lat="41.86787477144826" lon="12.496662563493743"><ele>20.0</ele><time>2026-03-25T13:47:23.999Z</time></trkpt><trkpt lat="41.86780967857216" lon="12.49666368315342"><ele>20.0</ele><time>2026-03-25T13:47:24.999Z</time></trkpt><trkpt lat="41.86770457990253" lon="12.496723221910866"><ele>20.0</ele><time>2026-03-25T13:47:26.999Z</time></trkpt><trkpt lat="41.8676000080753" lon="12.496775276561133"><ele>20.0</ele><time>2026-03-25T13:47:28.999Z</time></trkpt><trkpt lat="41.86753814025302" lon="12.496793595461169"><ele>20.6</ele><time>2026-03-25T13:47:29.999Z</time></trkpt><trkpt lat="41.86742309497895" lon="12.496808840140256"><ele>21.2</ele><time>2026-03-25T13:47:31.999Z</time></trkpt><trkpt lat="41.86730503009924" lon="12.496810271443886"><ele>21.799999999999997</ele><time>2026-03-25T13:47:33.999Z</time></trkpt><trkpt lat="41.867237619683735" lon="12.496820634895041"><ele>22.4</ele><time>2026-03-25T13:47:34.999Z</time></trkpt><trkpt lat="41.867174725098025" lon="12.496833155811876"><ele>23.0</ele><time>2026-03-25T13:47:35.999Z</time></trkpt><trkpt lat="41.86706505589176" lon="12.496868541219142"><ele>23.0</ele><time>2026-03-25T13:47:37.999Z</time></trkpt><trkpt lat="41.86700804493579" lon="12.496910800944413"><ele>23.0</ele><time>2026-03-25T13:47:38.999Z</time></trkpt><trkpt lat="41.86693055631196" lon="12.496997076328306"><ele>23.0</ele><time>2026-03-25T13:47:40.999Z</time></trkpt><trkpt lat="41.86683527498692" lon="12.496989955444802"><ele>23.0</ele><time>2026-03-25T13:47:42.999Z</time></trkpt><trkpt lat="41.86676902790356" lon="12.49699654443049"><ele>23.0</ele><time>2026-03-25T13:47:43.999Z</time></trkpt><trkpt lat="41.86666609519638" lon="12.496990444479442"><ele>23.0</ele><time>2026-03-25T13:47:45.999Z</time></trkpt><trkpt lat="41.86654903230047" lon="12.497024474656758"><ele>24.0</ele><time>2026-03-25T13:47:47.999Z</time></trkpt><trkpt lat="41.86642714787876" lon="12.497052562870858"><ele>25.0</ele><time>2026-03-25T13:47:49.999Z</time></trkpt><trkpt lat="41.8663288525988" lon="12.497114403995804"><ele>25.999999999999996</ele><time>2026-03-25T13:47:51.999Z</time></trkpt><trkpt lat="41.866244170543816" lon="12.49720353434861"><ele>27.0</ele><time>2026-03-25T13:47:53.999Z</time></trkpt><trkpt lat="41.86613698489868" lon="12.49721290763788"><ele>28.0</ele><time>2026-03-25T13:47:55.999Z</time></trkpt><trkpt lat="41.86602039187628" lon="12.497250050628885"><ele>30.0</ele><time>2026-03-25T13:47:57.999Z</time></trkpt><trkpt lat="41.86590901048927" lon="12.49728230759464"><ele>32.0</ele><time>2026-03-25T13:47:59.999Z</time></trkpt><trkpt lat="41.86579600075288" lon="12.49732933858768"><ele>34.0</ele><time>2026-03-25T13:48:01.999Z</time></trkpt><trkpt lat="41.86568269479978" lon="12.497358432781356"><ele>36.0</ele><time>2026-03-25T13:48:03.999Z</time></trkpt><trkpt lat="41.86556666082326" lon="12.497418726042175"><ele>36.0</ele><time>2026-03-25T13:48:05.999Z</time></trkpt><trkpt lat="41.865474426696586" lon="12.497452181198373"><ele>36.0</ele><time>2026-03-25T13:48:07.999Z</time></trkpt><trkpt lat="41.86540870533424" lon="12.497462840687875"><ele>36.0</ele><time>2026-03-25T13:48:09.999Z</time></trkpt><trkpt lat="41.86532527643282" lon="12.497465628618269"><ele>36.0</ele><time>2026-03-25T13:48:11.999Z</time></trkpt><trkpt lat="41.86521812808226" lon="12.497494769415454"><ele>36.0</ele><time>2026-03-25T13:48:13.999Z</time></trkpt><trkpt lat="41.86511700954348" lon="12.497529195957986"><ele>36.6</ele><time>2026-03-25T13:48:15.999Z</time></trkpt><trkpt lat="41.86500435475916" lon="12.497561863765869"><ele>37.2</ele><time>2026-03-25T13:48:17.999Z</time></trkpt><trkpt lat="41.864900334071336" lon="12.49760514870219"><ele>37.8</ele><time>2026-03-25T13:48:19.999Z</time></trkpt><trkpt lat="41.864786914936076" lon="12.497630718944468"><ele>38.4</ele><time>2026-03-25T13:48:21.999Z</time></trkpt><trkpt lat="41.86467881037227" lon="12.49765474920633"><ele>39.0</ele><time>2026-03-25T13:48:23.999Z</time></trkpt><trkpt lat="41.86458180384841" lon="12.497708006597524"><ele>39.0</ele><time>2026-03-25T13:48:25.999Z</time></trkpt><trkpt lat="41.864472486984106" lon="12.497750116132249"><ele>39.0</ele><time>2026-03-25T13:48:27.999Z</time></trkpt><trkpt lat="41.86436743895874" lon="12.497768222046789"><ele>39.0</ele><time>2026-03-25T13:48:29.999Z</time></trkpt><trkpt lat="41.86426271629154" lon="12.497811414180852"><ele>39.0</ele><time>2026-03-25T13:48:31.999Z</time></trkpt><trkpt lat="41.86417792318878" lon="12.497850885753259"><ele>39.0</ele><time>2026-03-25T13:48:33.998Z</time></trkpt><trkpt lat="41.86406829546836" lon="12.497870841759234"><ele>39.5</ele><time>2026-03-25T13:48:35.998Z</time></trkpt><trkpt lat="41.86398375281355" lon="12.497922982885086"><ele>40.0</ele><time>2026-03-25T13:48:38Z</time></trkpt><trkpt lat="41.86392022059033" lon="12.497863464463194"><ele>40.5</ele><time>2026-03-25T13:48:40Z</time></trkpt><trkpt lat="41.86393197000932" lon="12.497778105964429"><ele>41.0</ele><time>2026-03-25T13:48:42Z</time></trkpt><trkpt lat="41.863874726434766" lon="12.497708015861123"><ele>41.5</ele><time>2026-03-25T13:48:55Z</time></trkpt><trkpt lat="41.86378390808073" lon="12.497745255055841"><ele>42.0</ele><time>2026-03-25T13:48:57Z</time></trkpt><trkpt lat="41.863734096442336" lon="12.497680126831655"><ele>42.0</ele><time>2026-03-25T13:48:59Z</time></trkpt><trkpt lat="41.86371460235617" lon="12.497595658840595"><ele>42.0</ele><time>2026-03-25T13:49:00Z</time></trkpt><trkpt lat="41.863690386602165" lon="12.497427369563963"><ele>42.0</ele><time>2026-03-25T13:49:02Z</time></trkpt><trkpt lat="41.86367919280339" lon="12.497333064634462"><ele>42.0</ele><time>2026-03-25T13:49:03Z</time></trkpt><trkpt lat="41.863668478303026" lon="12.49724395192948"><ele>42.0</ele><time>2026-03-25T13:49:04Z</time></trkpt><trkpt lat="41.8636245758725" lon="12.49710470886707"><ele>42.0</ele><time>2026-03-25T13:49:06Z</time></trkpt><trkpt lat="41.86361789044256" lon="12.496972994578904"><ele>41.5</ele><time>2026-03-25T13:49:08Z</time></trkpt><trkpt lat="41.86354793220752" lon="12.49689941421144"><ele>41.0</ele><time>2026-03-25T13:49:10Z</time></trkpt><trkpt lat="41.86344588029485" lon="12.496964636940525"><ele>40.5</ele><time>2026-03-25T13:49:12Z</time></trkpt><trkpt lat="41.863383530256634" lon="12.496981912136878"><ele>40.0</ele><time>2026-03-25T13:49:13Z</time></trkpt><trkpt lat="41.8633156203105" lon="12.496997060566763"><ele>39.5</ele><time>2026-03-25T13:49:14Z</time></trkpt><trkpt lat="41.86325322124252" lon="12.497020424713483"><ele>39.0</ele><time>2026-03-25T13:49:15Z</time></trkpt><trkpt lat="41.86313838624129" lon="12.497055293014904"><ele>39.0</ele><time>2026-03-25T13:49:17Z</time></trkpt><trkpt lat="41.863013279469605" lon="12.497088108183691"><ele>39.0</ele><time>2026-03-25T13:49:19Z</time></trkpt><trkpt lat="41.86288796787384" lon="12.497130974182504"><ele>39.0</ele><time>2026-03-25T13:49:21Z</time></trkpt><trkpt lat="41.862776474886566" lon="12.497164794458254"><ele>39.0</ele><time>2026-03-25T13:49:23Z</time></trkpt><trkpt lat="41.8627142496261" lon="12.49718610860072"><ele>39.0</ele><time>2026-03-25T13:49:24Z</time></trkpt><trkpt lat="41.86265098955732" lon="12.49720544089006"><ele>38.4</ele><time>2026-03-25T13:49:25Z</time></trkpt><trkpt lat="41.86258900078003" lon="12.497220540979818"><ele>37.8</ele><time>2026-03-25T13:49:26Z</time></trkpt><trkpt lat="41.862491341397174" lon="12.497245964941458"><ele>37.2</ele><time>2026-03-25T13:49:28Z</time></trkpt><trkpt lat="41.86237020013471" lon="12.497275773264658"><ele>36.6</ele><time>2026-03-25T13:49:29.999Z</time></trkpt><trkpt lat="41.86227530410061" lon="12.497356231786474"><ele>36.0</ele><time>2026-03-25T13:49:31.999Z</time></trkpt><trkpt lat="41.86216615179593" lon="12.497387322702236"><ele>36.0</ele><time>2026-03-25T13:49:33.999Z</time></trkpt><trkpt lat="41.86203994993546" lon="12.497423813997623"><ele>36.0</ele><time>2026-03-25T13:49:35.999Z</time></trkpt><trkpt lat="41.86197522368845" lon="12.497442922654024"><ele>36.0</ele><time>2026-03-25T13:49:36.999Z</time></trkpt><trkpt lat="41.861911358022816" lon="12.497461777250795"><ele>36.0</ele><time>2026-03-25T13:49:37.999Z</time></trkpt><trkpt lat="41.86179826392042" lon="12.49749516520707"><ele>36.0</ele><time>2026-03-25T13:49:39.999Z</time></trkpt><trkpt lat="41.86169304537031" lon="12.497525738699894"><ele>36.833333333333336</ele><time>2026-03-25T13:49:41.999Z</time></trkpt><trkpt lat="41.86159930653454" lon="12.497551699929897"><ele>37.666666666666664</ele><time>2026-03-25T13:49:43.999Z</time></trkpt><trkpt lat="41.86151487991932" lon="12.497574094534986"><ele>38.5</ele><time>2026-03-25T13:49:45.999Z</time></trkpt><trkpt lat="41.86144000434051" lon="12.49759336711784"><ele>39.33333333333333</ele><time>2026-03-25T13:49:47.999Z</time></trkpt><trkpt lat="41.861361127978256" lon="12.497594799097865"><ele>40.166666666666664</ele><time>2026-03-25T13:49:49.999Z</time></trkpt><trkpt lat="41.86129654038141" lon="12.497615271756894"><ele>41.0</ele><time>2026-03-25T13:49:51.999Z</time></trkpt><trkpt lat="41.86120641393216" lon="12.497643931676608"><ele>41.0</ele><time>2026-03-25T13:49:54.999Z</time></trkpt><trkpt lat="41.861144236437475" lon="12.497659466031"><ele>41.0</ele><time>2026-03-25T13:49:56.999Z</time></trkpt><trkpt lat="41.86105243052965" lon="12.497684879227446"><ele>41.0</ele><time>2026-03-25T13:49:58.999Z</time></trkpt><trkpt lat="41.860962153071775" lon="12.497706622597713"><ele>41.0</ele><time>2026-03-25T13:50:00.999Z</time></trkpt><trkpt lat="41.8608830562185" lon="12.497729002498353"><ele>41.0</ele><time>2026-03-25T13:50:02.999Z</time></trkpt><trkpt lat="41.860805897824015" lon="12.49774900876094"><ele>41.0</ele><time>2026-03-25T13:50:04.999Z</time></trkpt><trkpt lat="41.860719852216796" lon="12.497765426683182"><ele>41.83333333333333</ele><time>2026-03-25T13:50:06.999Z</time></trkpt><trkpt lat="41.86064506883709" lon="12.497766762491196"><ele>42.666666666666664</ele><time>2026-03-25T13:50:08.999Z</time></trkpt><trkpt lat="41.860531583398014" lon="12.497769222700063"><ele>43.5</ele><time>2026-03-25T13:50:10.999Z</time></trkpt><trkpt lat="41.86046402607558" lon="12.497759860054009"><ele>44.333333333333336</ele><time>2026-03-25T13:50:11.999Z</time></trkpt><trkpt lat="41.86040004538973" lon="12.49773963525969"><ele>45.16666666666667</ele><time>2026-03-25T13:50:12.999Z</time></trkpt><trkpt lat="41.86029638864107" lon="12.497694911741611"><ele>46.0</ele><time>2026-03-25T13:50:14.999Z</time></trkpt><trkpt lat="41.860204292200486" lon="12.497657387306916"><ele>46.0</ele><time>2026-03-25T13:50:16.999Z</time></trkpt><trkpt lat="41.860141054718675" lon="12.497619443122137"><ele>46.0</ele><time>2026-03-25T13:50:18.999Z</time></trkpt><trkpt lat="41.86004940896053" lon="12.497579791619685"><ele>46.0</ele><time>2026-03-25T13:50:20.999Z</time></trkpt><trkpt lat="41.85995622539437" lon="12.497485430506673"><ele>46.0</ele><time>2026-03-25T13:50:22.999Z</time></trkpt><trkpt lat="41.85989774973781" lon="12.497446333252071"><ele>46.0</ele><time>2026-03-25T13:50:23.999Z</time></trkpt><trkpt lat="41.85981199351864" lon="12.497433664879495"><ele>46.0</ele><time>2026-03-25T13:50:25.999Z</time></trkpt><trkpt lat="41.85974925480519" lon="12.497348162741854"><ele>45.199999999999996</ele><time>2026-03-25T13:50:27.999Z</time></trkpt><trkpt lat="41.85970478670142" lon="12.49728483310025"><ele>44.4</ele><time>2026-03-25T13:50:28.999Z</time></trkpt><trkpt lat="41.859653821894256" lon="12.497215845807041"><ele>43.6</ele><time>2026-03-25T13:50:29.999Z</time></trkpt><trkpt lat="41.85955248224205" lon="12.497107044223023"><ele>42.8</ele><time>2026-03-25T13:50:31.999Z</time></trkpt><trkpt lat="41.8594737900965" lon="12.496994824966109"><ele>42.0</ele><time>2026-03-25T13:50:33.999Z</time></trkpt><trkpt lat="41.859431825284915" lon="12.496921107143924"><ele>42.0</ele><time>2026-03-25T13:50:34.999Z</time></trkpt><trkpt lat="41.85938293117472" lon="12.496858810731528"><ele>42.0</ele><time>2026-03-25T13:50:35.999Z</time></trkpt><trkpt lat="41.85933543303241" lon="12.496797925659536"><ele>42.0</ele><time>2026-03-25T13:50:36.999Z</time></trkpt><trkpt lat="41.85925513928761" lon="12.496678608549459"><ele>42.0</ele><time>2026-03-25T13:50:38.999Z</time></trkpt><trkpt lat="41.8591743188679" lon="12.496563007705904"><ele>42.0</ele><time>2026-03-25T13:50:40.998Z</time></trkpt><trkpt lat="41.85909323759012" lon="12.496446343381551"><ele>41.4</ele><time>2026-03-25T13:50:43Z</time></trkpt><trkpt lat="41.85905429834993" lon="12.49637884238975"><ele>40.800000000000004</ele><time>2026-03-25T13:50:44Z</time></trkpt><trkpt lat="41.85900736748297" lon="12.496322439482412"><ele>40.2</ele><time>2026-03-25T13:50:45Z</time></trkpt><trkpt lat="41.85894411248824" lon="12.49621577775208"><ele>39.6</ele><time>2026-03-25T13:50:47Z</time></trkpt><trkpt lat="41.85882211158132" lon="12.496186652248628"><ele>39.0</ele><time>2026-03-25T13:50:52Z</time></trkpt><trkpt lat="41.858766302999555" lon="12.496052263685849"><ele>39.0</ele><time>2026-03-25T13:50:54Z</time></trkpt><trkpt lat="41.85876052212313" lon="12.49590543191816"><ele>39.0</ele><time>2026-03-25T13:50:56Z</time></trkpt><trkpt lat="41.858962374083866" lon="12.495856610743681"><ele>39.0</ele><time>2026-03-25T13:50:57Z</time></trkpt><trkpt lat="41.85871499975801" lon="12.495769636051504"><ele>39.0</ele><time>2026-03-25T13:50:58Z</time></trkpt><trkpt lat="41.85861982455675" lon="12.495698329465204"><ele>39.0</ele><time>2026-03-25T13:51:00Z</time></trkpt><trkpt lat="41.85853635498419" lon="12.495610195102968"><ele>39.0</ele><time>2026-03-25T13:51:02Z</time></trkpt><trkpt lat="41.8584645661397" lon="12.495477999804352"><ele>39.0</ele><time>2026-03-25T13:51:04Z</time></trkpt><trkpt lat="41.858435518634025" lon="12.495400239325221"><ele>39.0</ele><time>2026-03-25T13:51:05Z</time></trkpt><trkpt lat="41.858368940485626" lon="12.495299766384107"><ele>40.4</ele><time>2026-03-25T13:51:07Z</time></trkpt><trkpt lat="41.85827148869558" lon="12.495192506460633"><ele>41.8</ele><time>2026-03-25T13:51:09Z</time></trkpt><trkpt lat="41.85822125427212" lon="12.495138726695641"><ele>43.199999999999996</ele><time>2026-03-25T13:51:10Z</time></trkpt><trkpt lat="41.85810895944497" lon="12.495092286312282"><ele>44.599999999999994</ele><time>2026-03-25T13:51:12Z</time></trkpt><trkpt lat="41.858042784662636" lon="12.494984544995216"><ele>46.0</ele><time>2026-03-25T13:51:13Z</time></trkpt><trkpt lat="41.857997880560966" lon="12.494878509375756"><ele>46.0</ele><time>2026-03-25T13:51:15Z</time></trkpt><trkpt lat="41.85795590736744" lon="12.494814299481593"><ele>46.0</ele><time>2026-03-25T13:51:16Z</time></trkpt><trkpt lat="41.85791257715871" lon="12.494749071764556"><ele>46.0</ele><time>2026-03-25T13:51:17Z</time></trkpt><trkpt lat="41.857869997835685" lon="12.49468592150751"><ele>46.0</ele><time>2026-03-25T13:51:18Z</time></trkpt><trkpt lat="41.85778846806545" lon="12.494569598504917"><ele>46.0</ele><time>2026-03-25T13:51:20Z</time></trkpt><trkpt lat="41.85770778659591" lon="12.494457649445504"><ele>46.0</ele><time>2026-03-25T13:51:22Z</time></trkpt><trkpt lat="41.857620262066476" lon="12.49434369193204"><ele>43.4</ele><time>2026-03-25T13:51:24Z</time></trkpt><trkpt lat="41.857529759463446" lon="12.494222956849079"><ele>40.8</ele><time>2026-03-25T13:51:26Z</time></trkpt><trkpt lat="41.85748358701805" lon="12.494160042972553"><ele>38.199999999999996</ele><time>2026-03-25T13:51:27Z</time></trkpt><trkpt lat="41.85743473174617" lon="12.493994976457012"><ele>35.599999999999994</ele><time>2026-03-25T13:51:29Z</time></trkpt><trkpt lat="41.85735209338204" lon="12.493881055178756"><ele>33.0</ele><time>2026-03-25T13:51:31Z</time></trkpt><trkpt lat="41.857216261329036" lon="12.493825661808332"><ele>32.199999999999996</ele><time>2026-03-25T13:51:32.999Z</time></trkpt><trkpt lat="41.85712672958332" lon="12.493694959371794"><ele>31.4</ele><time>2026-03-25T13:51:34.999Z</time></trkpt><trkpt lat="41.85708549310098" lon="12.49362333180405"><ele>30.599999999999998</ele><time>2026-03-25T13:51:35.999Z</time></trkpt><trkpt lat="41.85704600034523" lon="12.493551459416793"><ele>29.799999999999997</ele><time>2026-03-25T13:51:36.999Z</time></trkpt><trkpt lat="41.857009002147784" lon="12.493476767775151"><ele>29.0</ele><time>2026-03-25T13:51:37.999Z</time></trkpt><trkpt lat="41.856924104320285" lon="12.493367801555971"><ele>29.0</ele><time>2026-03-25T13:51:39.999Z</time></trkpt><trkpt lat="41.856839167059064" lon="12.493257271900886"><ele>29.0</ele><time>2026-03-25T13:51:41.999Z</time></trkpt><trkpt lat="41.85675384532814" lon="12.493147949964811"><ele>29.0</ele><time>2026-03-25T13:51:43.999Z</time></trkpt><trkpt lat="41.85670250013086" lon="12.492994204871257"><ele>29.0</ele><time>2026-03-25T13:51:45.999Z</time></trkpt><trkpt lat="41.85662725675861" lon="12.492871244244416"><ele>28.833333333333332</ele><time>2026-03-25T13:51:47.999Z</time></trkpt><trkpt lat="41.85658383940511" lon="12.492805908374235"><ele>28.666666666666664</ele><time>2026-03-25T13:51:48.999Z</time></trkpt><trkpt lat="41.8564922524866" lon="12.492689555137144"><ele>28.5</ele><time>2026-03-25T13:51:50.999Z</time></trkpt><trkpt lat="41.856412453732105" lon="12.492651541736924"><ele>28.333333333333336</ele><time>2026-03-25T13:51:52.999Z</time></trkpt><trkpt lat="41.85636265963582" lon="12.492587194475318"><ele>28.166666666666668</ele><time>2026-03-25T13:51:55.999Z</time></trkpt><trkpt lat="41.85632073411603" lon="12.492491603705075"><ele>28.0</ele><time>2026-03-25T13:51:58.999Z</time></trkpt><trkpt lat="41.856153423628875" lon="12.49255861136026"><ele>28.000000000000004</ele><time>2026-03-25T13:52:01.999Z</time></trkpt><trkpt lat="41.856170575483524" lon="12.492468129096318"><ele>28.0</ele><time>2026-03-25T13:52:04.999Z</time></trkpt><trkpt lat="41.85614632317059" lon="12.492384205261324"><ele>28.0</ele><time>2026-03-25T13:52:06.999Z</time></trkpt><trkpt lat="41.85606112597079" lon="12.492304176174953"><ele>28.0</ele><time>2026-03-25T13:52:08.999Z</time></trkpt><trkpt lat="41.855985117796976" lon="12.492165856077607"><ele>28.000000000000004</ele><time>2026-03-25T13:52:10.999Z</time></trkpt><trkpt lat="41.85593908407956" lon="12.492091970134341"><ele>28.0</ele><time>2026-03-25T13:52:11.999Z</time></trkpt><trkpt lat="41.8558942264258" lon="12.492018983803623"><ele>30.333333333333336</ele><time>2026-03-25T13:52:12.999Z</time></trkpt><trkpt lat="41.85584085072045" lon="12.491958097950791"><ele>32.66666666666667</ele><time>2026-03-25T13:52:13.999Z</time></trkpt><trkpt lat="41.85579491756955" lon="12.491899051693812"><ele>35.0</ele><time>2026-03-25T13:52:14.999Z</time></trkpt><trkpt lat="41.855774302204836" lon="12.49177794763617"><ele>37.333333333333336</ele><time>2026-03-25T13:52:16.999Z</time></trkpt><trkpt lat="41.85572076126885" lon="12.491640158964813"><ele>39.666666666666664</ele><time>2026-03-25T13:52:18.999Z</time></trkpt><trkpt lat="41.85566863885321" lon="12.491579587877885"><ele>42.0</ele><time>2026-03-25T13:52:19.999Z</time></trkpt><trkpt lat="41.855614730315644" lon="12.491520521267212"><ele>42.0</ele><time>2026-03-25T13:52:20.999Z</time></trkpt><trkpt lat="41.855557134481096" lon="12.491473662279706"><ele>42.0</ele><time>2026-03-25T13:52:21.999Z</time></trkpt><trkpt lat="41.85550792098581" lon="12.491416792889705"><ele>42.0</ele><time>2026-03-25T13:52:22.999Z</time></trkpt><trkpt lat="41.85546166493249" lon="12.49135552144009"><ele>42.0</ele><time>2026-03-25T13:52:23.999Z</time></trkpt><trkpt lat="41.855383226873506" lon="12.491224584427192"><ele>42.0</ele><time>2026-03-25T13:52:25.999Z</time></trkpt><trkpt lat="41.8553420383489" lon="12.49115759419561"><ele>42.0</ele><time>2026-03-25T13:52:26.999Z</time></trkpt><trkpt lat="41.85530274693587" lon="12.49099611906384"><ele>42.0</ele><time>2026-03-25T13:52:28.999Z</time></trkpt><trkpt lat="41.855263585440895" lon="12.491143259312578"><ele>42.0</ele><time>2026-03-25T13:52:30.999Z</time></trkpt><trkpt lat="41.85524214885553" lon="12.491262550227438"><ele>42.0</ele><time>2026-03-25T13:52:31.999Z</time></trkpt><trkpt lat="41.85522293809563" lon="12.491365620419321"><ele>42.0</ele><time>2026-03-25T13:52:32.999Z</time></trkpt><trkpt lat="41.85522608969094" lon="12.49118510115183"><ele>42.0</ele><time>2026-03-25T13:52:34.999Z</time></trkpt><trkpt lat="41.855144023586604" lon="12.49101903218463"><ele>40.5</ele><time>2026-03-25T13:52:35.999Z</time></trkpt><trkpt lat="41.85503271588227" lon="12.490877799754534"><ele>39.0</ele><time>2026-03-25T13:52:36.999Z</time></trkpt><trkpt lat="41.8549148861653" lon="12.490864122369626"><ele>37.5</ele><time>2026-03-25T13:52:37.999Z</time></trkpt><trkpt lat="41.85478953944871" lon="12.490846614218771"><ele>36.0</ele><time>2026-03-25T13:52:38.999Z</time></trkpt><trkpt lat="41.85471147477429" lon="12.490739825720302"><ele>36.0</ele><time>2026-03-25T13:52:40.999Z</time></trkpt><trkpt lat="41.85466153417308" lon="12.490671509415467"><ele>36.0</ele><time>2026-03-25T13:52:41.999Z</time></trkpt><trkpt lat="41.85460480493311" lon="12.490593906594544"><ele>36.0</ele><time>2026-03-25T13:52:42.999Z</time></trkpt><trkpt lat="41.854549934646485" lon="12.490517552141972"><ele>36.0</ele><time>2026-03-25T13:52:43.999Z</time></trkpt><trkpt lat="41.85459303930016" lon="12.490631679969923"><ele>36.0</ele><time>2026-03-25T13:52:45.998Z</time></trkpt><trkpt lat="41.85455913551802" lon="12.490394552108008"><ele>36.0</ele><time>2026-03-25T13:52:46.998Z</time></trkpt><trkpt lat="41.85451187446216" lon="12.490453528773775"><ele>36.0</ele><time>2026-03-25T13:52:50Z</time></trkpt><trkpt lat="41.85444051358635" lon="12.490545449538958"><ele>36.0</ele><time>2026-03-25T13:52:52Z</time></trkpt><trkpt lat="41.85443360599341" lon="12.490656416899876"><ele>36.0</ele><time>2026-03-25T13:52:53Z</time></trkpt><trkpt lat="41.854383980895214" lon="12.490720250936564"><ele>36.0</ele><time>2026-03-25T13:52:54Z</time></trkpt><trkpt lat="41.85433164538811" lon="12.490787878224966"><ele>36.0</ele><time>2026-03-25T13:52:55Z</time></trkpt><trkpt lat="41.854285079301185" lon="12.490848009319222"><ele>30.666666666666668</ele><time>2026-03-25T13:52:56Z</time></trkpt><trkpt lat="41.85422652018441" lon="12.490922493460486"><ele>25.333333333333336</ele><time>2026-03-25T13:52:58Z</time></trkpt><trkpt lat="41.853882185671154" lon="12.490945305253337"><ele>20.0</ele><time>2026-03-25T13:53:00Z</time></trkpt><trkpt lat="41.8538355193043" lon="12.49088010939121"><ele>20.0</ele><time>2026-03-25T13:53:01Z</time></trkpt><trkpt lat="41.85378755679712" lon="12.490813560982984"><ele>20.0</ele><time>2026-03-25T13:53:02Z</time></trkpt><trkpt lat="41.853742269311034" lon="12.490750998858319"><ele>20.0</ele><time>2026-03-25T13:53:03Z</time></trkpt><trkpt lat="41.85369515901767" lon="12.490686085243244"><ele>20.0</ele><time>2026-03-25T13:53:04Z</time></trkpt><trkpt lat="41.85361305462235" lon="12.49057295294084"><ele>20.0</ele><time>2026-03-25T13:53:06Z</time></trkpt><trkpt lat="41.8535308084081" lon="12.49045962291124"><ele>20.0</ele><time>2026-03-25T13:53:08Z</time></trkpt><trkpt lat="41.853485295457176" lon="12.49039690898128"><ele>20.0</ele><time>2026-03-25T13:53:09Z</time></trkpt><trkpt lat="41.853437861243385" lon="12.490331547643434"><ele>20.0</ele><time>2026-03-25T13:53:10Z</time></trkpt><trkpt lat="41.85357407554875" lon="12.489956131223002"><ele>20.0</ele><time>2026-03-25T13:53:12Z</time></trkpt><trkpt lat="41.85353746328077" lon="12.489884721714537"><ele>20.0</ele><time>2026-03-25T13:53:13Z</time></trkpt><trkpt lat="41.85344611139253" lon="12.489766756689155"><ele>20.0</ele><time>2026-03-25T13:53:15Z</time></trkpt><trkpt lat="41.853324983285326" lon="12.489802522043194"><ele>20.0</ele><time>2026-03-25T13:53:16Z</time></trkpt><trkpt lat="41.85324143936998" lon="12.489686245923348"><ele>20.0</ele><time>2026-03-25T13:53:18Z</time></trkpt><trkpt lat="41.853157423294384" lon="12.48957192941384"><ele>20.0</ele><time>2026-03-25T13:53:20Z</time></trkpt><trkpt lat="41.853073026442345" lon="12.489457805462637"><ele>20.166666666666668</ele><time>2026-03-25T13:53:22Z</time></trkpt><trkpt lat="41.85302771296534" lon="12.489396531236661"><ele>20.333333333333336</ele><time>2026-03-25T13:53:23Z</time></trkpt><trkpt lat="41.85301702955915" lon="12.489202553235396"><ele>20.5</ele><time>2026-03-25T13:53:25Z</time></trkpt><trkpt lat="41.852978679611724" lon="12.489135492957551"><ele>20.666666666666668</ele><time>2026-03-25T13:53:26Z</time></trkpt><trkpt lat="41.852936867329866" lon="12.489068078250089"><ele>20.833333333333332</ele><time>2026-03-25T13:53:27Z</time></trkpt><trkpt lat="41.85286477943807" lon="12.488968765441467"><ele>21.0</ele><time>2026-03-25T13:53:29Z</time></trkpt><trkpt lat="41.85279259435048" lon="12.488856469528837"><ele>21.0</ele><time>2026-03-25T13:53:31Z</time></trkpt><trkpt lat="41.85270627804405" lon="12.488769584416204"><ele>21.0</ele><time>2026-03-25T13:53:33Z</time></trkpt><trkpt lat="41.852624172976334" lon="12.48864759995573"><ele>21.0</ele><time>2026-03-25T13:53:35Z</time></trkpt><trkpt lat="41.85254262925376" lon="12.488538726586311"><ele>21.0</ele><time>2026-03-25T13:53:37Z</time></trkpt><trkpt lat="41.852471796237396" lon="12.488431391547124"><ele>21.0</ele><time>2026-03-25T13:53:38.999Z</time></trkpt><trkpt lat="41.85237601903063" lon="12.488299007651507"><ele>21.0</ele><time>2026-03-25T13:53:40.999Z</time></trkpt><trkpt lat="41.85232758939011" lon="12.48823461094738"><ele>21.0</ele><time>2026-03-25T13:53:41.999Z</time></trkpt><trkpt lat="41.852248844329225" lon="12.48813625335715"><ele>21.0</ele><time>2026-03-25T13:53:43.999Z</time></trkpt><trkpt lat="41.85215563611989" lon="12.488041176458278"><ele>21.0</ele><time>2026-03-25T13:53:45.999Z</time></trkpt><trkpt lat="41.85209952892975" lon="12.488001408172076"><ele>21.0</ele><time>2026-03-25T13:53:46.999Z</time></trkpt><trkpt lat="41.85204020020901" lon="12.48796744324439"><ele>21.0</ele><time>2026-03-25T13:53:47.999Z</time></trkpt><trkpt lat="41.851957613245936" lon="12.487860435029164"><ele>21.0</ele><time>2026-03-25T13:53:49.999Z</time></trkpt><trkpt lat="41.851885402499676" lon="12.487731950804541"><ele>21.0</ele><time>2026-03-25T13:53:51.999Z</time></trkpt><trkpt lat="41.851811182367705" lon="12.487610465995461"><ele>21.0</ele><time>2026-03-25T13:53:53.999Z</time></trkpt><trkpt lat="41.85173662143884" lon="12.487488348296653"><ele>21.0</ele><time>2026-03-25T13:53:55.999Z</time></trkpt><trkpt lat="41.85166264836582" lon="12.487370773674881"><ele>21.0</ele><time>2026-03-25T13:53:57.999Z</time></trkpt><trkpt lat="41.851588180108656" lon="12.487254151061462"><ele>21.0</ele><time>2026-03-25T13:53:59.999Z</time></trkpt><trkpt lat="41.85151306818779" lon="12.487138443677605"><ele>21.0</ele><time>2026-03-25T13:54:01.999Z</time></trkpt><trkpt lat="41.85143739798243" lon="12.487022175070178"><ele>22.0</ele><time>2026-03-25T13:54:03.999Z</time></trkpt><trkpt lat="41.851363746378816" lon="12.486906174735074"><ele>23.0</ele><time>2026-03-25T13:54:05.999Z</time></trkpt><trkpt lat="41.85129134959928" lon="12.486792682089723"><ele>24.0</ele><time>2026-03-25T13:54:07.999Z</time></trkpt><trkpt lat="41.85121935192568" lon="12.48668549727643"><ele>25.0</ele><time>2026-03-25T13:54:09.999Z</time></trkpt><trkpt lat="41.851155442720824" lon="12.486579148426417"><ele>26.0</ele><time>2026-03-25T13:54:11.999Z</time></trkpt><trkpt lat="41.85106951974256" lon="12.486462357979297"><ele>26.0</ele><time>2026-03-25T13:54:13.999Z</time></trkpt><trkpt lat="41.850992836185604" lon="12.486346249821327"><ele>26.0</ele><time>2026-03-25T13:54:15.999Z</time></trkpt><trkpt lat="41.85092185157322" lon="12.486244788479185"><ele>26.0</ele><time>2026-03-25T13:54:17.999Z</time></trkpt><trkpt lat="41.85086257482157" lon="12.486171821329458"><ele>26.0</ele><time>2026-03-25T13:54:19.999Z</time></trkpt><trkpt lat="41.850816365698456" lon="12.486083322942713"><ele>26.0</ele><time>2026-03-25T13:54:21.999Z</time></trkpt><trkpt lat="41.85075611856564" lon="12.485959917762017"><ele>26.4</ele><time>2026-03-25T13:54:23.999Z</time></trkpt><trkpt lat="41.850672953792206" lon="12.485849793584462"><ele>26.8</ele><time>2026-03-25T13:54:25.999Z</time></trkpt><trkpt lat="41.85062620231255" lon="12.485786603136784"><ele>27.199999999999996</ele><time>2026-03-25T13:54:26.999Z</time></trkpt><trkpt lat="41.85055336699806" lon="12.485688895552519"><ele>27.599999999999998</ele><time>2026-03-25T13:54:28.999Z</time></trkpt><trkpt lat="41.85047347104595" lon="12.485576205280871"><ele>28.0</ele><time>2026-03-25T13:54:30.999Z</time></trkpt><trkpt lat="41.85043062781658" lon="12.485514196080603"><ele>28.0</ele><time>2026-03-25T13:54:31.999Z</time></trkpt><trkpt lat="41.85038714709993" lon="12.485451678604418"><ele>27.999999999999996</ele><time>2026-03-25T13:54:32.999Z</time></trkpt><trkpt lat="41.85031051061474" lon="12.48534875001446"><ele>27.999999999999996</ele><time>2026-03-25T13:54:34.999Z</time></trkpt><trkpt lat="41.85023090124183" lon="12.485242606528415"><ele>28.0</ele><time>2026-03-25T13:54:36.999Z</time></trkpt><trkpt lat="41.850149412688424" lon="12.48512230879523"><ele>28.0</ele><time>2026-03-25T13:54:38.999Z</time></trkpt><trkpt lat="41.850070976552125" lon="12.485017622419681"><ele>27.799999999999997</ele><time>2026-03-25T13:54:40.999Z</time></trkpt><trkpt lat="41.850005951575596" lon="12.484928375627817"><ele>27.599999999999998</ele><time>2026-03-25T13:54:42.999Z</time></trkpt><trkpt lat="41.849922161706985" lon="12.4848088870879"><ele>27.400000000000002</ele><time>2026-03-25T13:54:44.999Z</time></trkpt><trkpt lat="41.84986759658156" lon="12.484763906030702"><ele>27.200000000000003</ele><time>2026-03-25T13:54:45.999Z</time></trkpt><trkpt lat="41.84978153409681" lon="12.48467162621217"><ele>27.0</ele><time>2026-03-25T13:54:47.999Z</time></trkpt><trkpt lat="41.84970503734785" lon="12.484566583368643"><ele>27.0</ele><time>2026-03-25T13:54:49.998Z</time></trkpt><trkpt lat="41.84963784457636" lon="12.484472673826584"><ele>27.0</ele><time>2026-03-25T13:54:51.998Z</time></trkpt><trkpt lat="41.849567051705996" lon="12.484370975120425"><ele>27.0</ele><time>2026-03-25T13:54:53.998Z</time></trkpt><trkpt lat="41.849524687577855" lon="12.484306525904437"><ele>27.0</ele><time>2026-03-25T13:54:55Z</time></trkpt><trkpt lat="41.84947992877149" lon="12.484243753185899"><ele>27.0</ele><time>2026-03-25T13:54:56Z</time></trkpt><trkpt lat="41.84941293542562" lon="12.484125799888437"><ele>27.0</ele><time>2026-03-25T13:54:58Z</time></trkpt><trkpt lat="41.84933332160058" lon="12.484000484875562"><ele>27.0</ele><time>2026-03-25T13:55:00Z</time></trkpt><trkpt lat="41.849259362391514" lon="12.483893597737188"><ele>27.000000000000004</ele><time>2026-03-25T13:55:02Z</time></trkpt><trkpt lat="41.84921324891952" lon="12.483828795018521"><ele>27.000000000000004</ele><time>2026-03-25T13:55:03Z</time></trkpt><trkpt lat="41.84913407715787" lon="12.483702992217765"><ele>27.0</ele><time>2026-03-25T13:55:05Z</time></trkpt><trkpt lat="41.84905302700363" lon="12.48360172401466"><ele>27.0</ele><time>2026-03-25T13:55:07Z</time></trkpt><trkpt lat="41.84897345374592" lon="12.48347878697514"><ele>26.6</ele><time>2026-03-25T13:55:09Z</time></trkpt><trkpt lat="41.848931389978866" lon="12.483414444404572"><ele>26.200000000000003</ele><time>2026-03-25T13:55:10Z</time></trkpt><trkpt lat="41.84883664682489" lon="12.483324855659244"><ele>25.8</ele><time>2026-03-25T13:55:12Z</time></trkpt><trkpt lat="41.848736470631884" lon="12.483229964021646"><ele>25.4</ele><time>2026-03-25T13:55:14Z</time></trkpt><trkpt lat="41.84863400825603" lon="12.483141223322288"><ele>25.0</ele><time>2026-03-25T13:55:16Z</time></trkpt><trkpt lat="41.848547423792226" lon="12.483026004976605"><ele>24.8</ele><time>2026-03-25T13:55:18Z</time></trkpt><trkpt lat="41.84850499528672" lon="12.482907812124507"><ele>24.6</ele><time>2026-03-25T13:55:20Z</time></trkpt><trkpt lat="41.84844269909408" lon="12.48277207142588"><ele>24.4</ele><time>2026-03-25T13:55:22Z</time></trkpt><trkpt lat="41.84840471943359" lon="12.482674483660759"><ele>24.2</ele><time>2026-03-25T13:55:24Z</time></trkpt><trkpt lat="41.84833254229185" lon="12.482567432912619"><ele>24.0</ele><time>2026-03-25T13:55:26Z</time></trkpt><trkpt lat="41.84829042218327" lon="12.482500641062293"><ele>24.0</ele><time>2026-03-25T13:55:27Z</time></trkpt><trkpt lat="41.848220778113365" lon="12.482411877941002"><ele>24.0</ele><time>2026-03-25T13:55:29Z</time></trkpt><trkpt lat="41.84814516171384" lon="12.482309280101724"><ele>24.0</ele><time>2026-03-25T13:55:31Z</time></trkpt><trkpt lat="41.848066474095056" lon="12.48221388332718"><ele>24.0</ele><time>2026-03-25T13:55:33Z</time></trkpt><trkpt lat="41.847995388045085" lon="12.482109041204899"><ele>24.0</ele><time>2026-03-25T13:55:35Z</time></trkpt><trkpt lat="41.84792237799661" lon="12.482005187966285"><ele>24.2</ele><time>2026-03-25T13:55:37Z</time></trkpt><trkpt lat="41.84787929205422" lon="12.481942258308116"><ele>24.4</ele><time>2026-03-25T13:55:38Z</time></trkpt><trkpt lat="41.8478125634453" lon="12.481831279320437"><ele>24.6</ele><time>2026-03-25T13:55:40Z</time></trkpt><trkpt lat="41.84772352897585" lon="12.48170030861575"><ele>24.8</ele><time>2026-03-25T13:55:42Z</time></trkpt><trkpt lat="41.84764158090347" lon="12.481599827967932"><ele>25.0</ele><time>2026-03-25T13:55:44Z</time></trkpt><trkpt lat="41.8475671505703" lon="12.481489509035816"><ele>25.000000000000004</ele><time>2026-03-25T13:55:46Z</time></trkpt><trkpt lat="41.84748271732321" lon="12.481374037094447"><ele>25.0</ele><time>2026-03-25T13:55:47.999Z</time></trkpt><trkpt lat="41.84741411317434" lon="12.481279094655784"><ele>25.0</ele><time>2026-03-25T13:55:49.999Z</time></trkpt><trkpt lat="41.84734879004244" lon="12.481228539335328"><ele>25.0</ele><time>2026-03-25T13:55:51.999Z</time></trkpt><trkpt lat="41.8472843314835" lon="12.481191430878892"><ele>25.000000000000004</ele><time>2026-03-25T13:56:13.999Z</time></trkpt><trkpt lat="41.84724220097475" lon="12.481124225117476"><ele>25.0</ele><time>2026-03-25T13:56:15.999Z</time></trkpt><trkpt lat="41.8471887737689" lon="12.481039774311203"><ele>25.8</ele><time>2026-03-25T13:56:17.999Z</time></trkpt><trkpt lat="41.84712430351424" lon="12.480926668635194"><ele>26.6</ele><time>2026-03-25T13:56:19.999Z</time></trkpt><trkpt lat="41.847044405167246" lon="12.480814364781155"><ele>27.4</ele><time>2026-03-25T13:56:21.999Z</time></trkpt><trkpt lat="41.846964166095674" lon="12.480702274421262"><ele>28.2</ele><time>2026-03-25T13:56:23.999Z</time></trkpt><trkpt lat="41.84689110123496" lon="12.480601089530635"><ele>29.0</ele><time>2026-03-25T13:56:25.999Z</time></trkpt><trkpt lat="41.84680751626703" lon="12.480496716308732"><ele>30.25</ele><time>2026-03-25T13:56:27.999Z</time></trkpt><trkpt lat="41.846723026309256" lon="12.480371804784442"><ele>31.5</ele><time>2026-03-25T13:56:29.999Z</time></trkpt><trkpt lat="41.84663928340052" lon="12.480257192679304"><ele>32.75</ele><time>2026-03-25T13:56:31.999Z</time></trkpt><trkpt lat="41.84656180918435" lon="12.480140310687624"><ele>34.0</ele><time>2026-03-25T13:56:33.999Z</time></trkpt><trkpt lat="41.846480862616176" lon="12.480028303019337"><ele>34.0</ele><time>2026-03-25T13:56:35.999Z</time></trkpt><trkpt lat="41.8464383334385" lon="12.479960917228121"><ele>34.0</ele><time>2026-03-25T13:56:36.999Z</time></trkpt><trkpt lat="41.846358986305155" lon="12.479848994170037"><ele>34.0</ele><time>2026-03-25T13:56:38.999Z</time></trkpt><trkpt lat="41.84628750247141" lon="12.479743475896667"><ele>34.0</ele><time>2026-03-25T13:56:40.999Z</time></trkpt><trkpt lat="41.84622181689688" lon="12.479636668647675"><ele>34.0</ele><time>2026-03-25T13:56:42.999Z</time></trkpt><trkpt lat="41.84614884351504" lon="12.479515135676102"><ele>34.0</ele><time>2026-03-25T13:56:44.999Z</time></trkpt><trkpt lat="41.84608354427785" lon="12.479398652566038"><ele>34.0</ele><time>2026-03-25T13:56:46.999Z</time></trkpt><trkpt lat="41.84602274920855" lon="12.479285188568607"><ele>34.0</ele><time>2026-03-25T13:56:48.999Z</time></trkpt><trkpt lat="41.84595691752174" lon="12.479196399848542"><ele>34.0</ele><time>2026-03-25T13:56:50.999Z</time></trkpt><trkpt lat="41.8458841019979" lon="12.479106399172442"><ele>34.0</ele><time>2026-03-25T13:56:52.999Z</time></trkpt><trkpt lat="41.84581796536505" lon="12.479035107370116"><ele>34.0</ele><time>2026-03-25T13:56:54.999Z</time></trkpt><trkpt lat="41.84574645325015" lon="12.478943200357516"><ele>34.0</ele><time>2026-03-25T13:56:56.998Z</time></trkpt><trkpt lat="41.84568049913732" lon="12.479013276444709"><ele>34.0</ele><time>2026-03-25T13:56:58.998Z</time></trkpt><trkpt lat="41.84567030383513" lon="12.479105131299681"><ele>34.0</ele><time>2026-03-25T13:56:59.998Z</time></trkpt><trkpt lat="41.84556999450512" lon="12.479184802173663"><ele>34.0</ele><time>2026-03-25T13:57:02Z</time></trkpt><trkpt lat="41.845472918040535" lon="12.479263818022897"><ele>34.0</ele><time>2026-03-25T13:57:04Z</time></trkpt><trkpt lat="41.84538806879481" lon="12.479346163408149"><ele>34.0</ele><time>2026-03-25T13:57:06Z</time></trkpt><trkpt lat="41.84528020310747" lon="12.479398146300364"><ele>34.0</ele><time>2026-03-25T13:57:08Z</time></trkpt><trkpt lat="41.84517646674765" lon="12.479474715334216"><ele>34.0</ele><time>2026-03-25T13:57:10Z</time></trkpt><trkpt lat="41.84507559508577" lon="12.479537412304879"><ele>34.0</ele><time>2026-03-25T13:57:12Z</time></trkpt><trkpt lat="41.8449879452075" lon="12.479600537830862"><ele>35.0</ele><time>2026-03-25T13:57:14Z</time></trkpt><trkpt lat="41.84488361251486" lon="12.47967949701464"><ele>36.0</ele><time>2026-03-25T13:57:16Z</time></trkpt><trkpt lat="41.844778969267665" lon="12.47975015527542"><ele>37.0</ele><time>2026-03-25T13:57:18Z</time></trkpt><trkpt lat="41.844688937512686" lon="12.479810821213933"><ele>38.0</ele><time>2026-03-25T13:57:20Z</time></trkpt><trkpt lat="41.844585743980204" lon="12.479888948199148"><ele>38.0</ele><time>2026-03-25T13:57:22Z</time></trkpt><trkpt lat="41.844529640107034" lon="12.479933530196387"><ele>38.0</ele><time>2026-03-25T13:57:23Z</time></trkpt><trkpt lat="41.84443033713069" lon="12.480004248516737"><ele>38.0</ele><time>2026-03-25T13:57:25Z</time></trkpt><trkpt lat="41.84433778560561" lon="12.4800770945074"><ele>38.0</ele><time>2026-03-25T13:57:27Z</time></trkpt><trkpt lat="41.844246758026976" lon="12.480138333494981"><ele>38.0</ele><time>2026-03-25T13:57:29Z</time></trkpt><trkpt lat="41.84418935666209" lon="12.480173493441105"><ele>38.666666666666664</ele><time>2026-03-25T13:57:30Z</time></trkpt><trkpt lat="41.84412700075399" lon="12.480210258523492"><ele>39.33333333333333</ele><time>2026-03-25T13:57:31Z</time></trkpt><trkpt lat="41.84405692539182" lon="12.480229114181359"><ele>40.0</ele><time>2026-03-25T13:57:32Z</time></trkpt><trkpt lat="41.84399583098986" lon="12.48026469630077"><ele>40.666666666666664</ele><time>2026-03-25T13:57:33Z</time></trkpt><trkpt lat="41.843878199909106" lon="12.480332253515575"><ele>41.333333333333336</ele><time>2026-03-25T13:57:35Z</time></trkpt><trkpt lat="41.843811362720565" lon="12.480359234638868"><ele>42.0</ele><time>2026-03-25T13:57:36Z</time></trkpt><trkpt lat="41.84374641979907" lon="12.480392539968035"><ele>42.0</ele><time>2026-03-25T13:57:37Z</time></trkpt><trkpt lat="41.84367587653739" lon="12.480415627602111"><ele>42.0</ele><time>2026-03-25T13:57:38Z</time></trkpt><trkpt lat="41.84360854045788" lon="12.480442613313109"><ele>42.0</ele><time>2026-03-25T13:57:39Z</time></trkpt><trkpt lat="41.84354240241543" lon="12.480472029313148"><ele>42.0</ele><time>2026-03-25T13:57:40Z</time></trkpt><trkpt lat="41.84346965400367" lon="12.48049088845334"><ele>42.0</ele><time>2026-03-25T13:57:41Z</time></trkpt><trkpt lat="41.8433975097217" lon="12.480505140888745"><ele>42.0</ele><time>2026-03-25T13:57:42Z</time></trkpt><trkpt lat="41.84332434883182" lon="12.48051503146584"><ele>42.0</ele><time>2026-03-25T13:57:43Z</time></trkpt><trkpt lat="41.8432531272709" lon="12.480525510864744"><ele>41.714285714285715</ele><time>2026-03-25T13:57:44Z</time></trkpt><trkpt lat="41.843180090492424" lon="12.48054302780367"><ele>41.42857142857143</ele><time>2026-03-25T13:57:45Z</time></trkpt><trkpt lat="41.84310907702867" lon="12.480559331249895"><ele>41.14285714285714</ele><time>2026-03-25T13:57:46Z</time></trkpt><trkpt lat="41.8430323281707" lon="12.480564191937624"><ele>40.85714285714286</ele><time>2026-03-25T13:57:47Z</time></trkpt><trkpt lat="41.842959581346044" lon="12.480566357740768"><ele>40.57142857142857</ele><time>2026-03-25T13:57:48Z</time></trkpt><trkpt lat="41.842887434281664" lon="12.480560231688846"><ele>40.285714285714285</ele><time>2026-03-25T13:57:49Z</time></trkpt><trkpt lat="41.84281816816895" lon="12.480560593105894"><ele>40.0</ele><time>2026-03-25T13:57:50Z</time></trkpt><trkpt lat="41.84274733634807" lon="12.480564043958319"><ele>40.0</ele><time>2026-03-25T13:57:50.999Z</time></trkpt><trkpt lat="41.84267684919619" lon="12.480561569770165"><ele>40.0</ele><time>2026-03-25T13:57:51.999Z</time></trkpt><trkpt lat="41.84260588295772" lon="12.480567983745257"><ele>40.0</ele><time>2026-03-25T13:57:52.999Z</time></trkpt><trkpt lat="41.84254063562271" lon="12.48057564656453"><ele>40.0</ele><time>2026-03-25T13:57:53.999Z</time></trkpt><trkpt lat="41.84246854836013" lon="12.480574782722249"><ele>40.0</ele><time>2026-03-25T13:57:54.999Z</time></trkpt><trkpt lat="41.84240381595923" lon="12.480569305338875"><ele>40.0</ele><time>2026-03-25T13:57:55.999Z</time></trkpt><trkpt lat="41.84233399432275" lon="12.48059354744177"><ele>40.0</ele><time>2026-03-25T13:57:56.999Z</time></trkpt><trkpt lat="41.84226452978822" lon="12.480596126409887"><ele>38.2</ele><time>2026-03-25T13:57:57.999Z</time></trkpt><trkpt lat="41.84214477448779" lon="12.4805990213487"><ele>36.4</ele><time>2026-03-25T13:57:59.999Z</time></trkpt><trkpt lat="41.842081202217656" lon="12.480598075114957"><ele>34.6</ele><time>2026-03-25T13:58:00.999Z</time></trkpt><trkpt lat="41.84196009104811" lon="12.480596157510712"><ele>32.8</ele><time>2026-03-25T13:58:02.999Z</time></trkpt><trkpt lat="41.841837473067095" lon="12.480611184276011"><ele>31.0</ele><time>2026-03-25T13:58:04.999Z</time></trkpt><trkpt lat="41.84170759953896" lon="12.48060276004458"><ele>29.6</ele><time>2026-03-25T13:58:06.999Z</time></trkpt><trkpt lat="41.84164313397944" lon="12.480608904811161"><ele>28.200000000000003</ele><time>2026-03-25T13:58:07.999Z</time></trkpt><trkpt lat="41.84152833209127" lon="12.480604469437703"><ele>26.799999999999997</ele><time>2026-03-25T13:58:09.999Z</time></trkpt><trkpt lat="41.84140073189492" lon="12.480603298496224"><ele>25.4</ele><time>2026-03-25T13:58:11.999Z</time></trkpt><trkpt lat="41.84133670833156" lon="12.480600764373659"><ele>24.0</ele><time>2026-03-25T13:58:12.999Z</time></trkpt><trkpt lat="41.841227288141965" lon="12.480602660750408"><ele>24.0</ele><time>2026-03-25T13:58:14.999Z</time></trkpt><trkpt lat="41.841118471832175" lon="12.480606162721545"><ele>24.0</ele><time>2026-03-25T13:58:16.999Z</time></trkpt><trkpt lat="41.84100937678009" lon="12.480606415700487"><ele>24.0</ele><time>2026-03-25T13:58:18.999Z</time></trkpt><trkpt lat="41.84094225918971" lon="12.480604269686726"><ele>24.0</ele><time>2026-03-25T13:58:19.999Z</time></trkpt><trkpt lat="41.840875012360634" lon="12.480610818069314"><ele>24.0</ele><time>2026-03-25T13:58:20.999Z</time></trkpt><trkpt lat="41.840750363157056" lon="12.480614404315771"><ele>23.2</ele><time>2026-03-25T13:58:22.999Z</time></trkpt><trkpt lat="41.840636532263204" lon="12.48061528796865"><ele>22.4</ele><time>2026-03-25T13:58:24.999Z</time></trkpt><trkpt lat="41.84057169192577" lon="12.48061195940667"><ele>21.6</ele><time>2026-03-25T13:58:25.999Z</time></trkpt><trkpt lat="41.84045837633999" lon="12.480633515852197"><ele>20.8</ele><time>2026-03-25T13:58:27.999Z</time></trkpt><trkpt lat="41.840348634909994" lon="12.480640099315327"><ele>20.0</ele><time>2026-03-25T13:58:29.999Z</time></trkpt><trkpt lat="41.840285007866775" lon="12.48064267270468"><ele>20.0</ele><time>2026-03-25T13:58:30.999Z</time></trkpt><trkpt lat="41.840173562579814" lon="12.480646557215422"><ele>20.0</ele><time>2026-03-25T13:58:32.999Z</time></trkpt><trkpt lat="41.84007098050715" lon="12.480650022393899"><ele>20.0</ele><time>2026-03-25T13:58:34.999Z</time></trkpt><trkpt lat="41.83995261928681" lon="12.480545347137129"><ele>20.0</ele><time>2026-03-25T13:58:36.999Z</time></trkpt><trkpt lat="41.83987074801603" lon="12.480509798017648"><ele>20.0</ele><time>2026-03-25T13:58:38.999Z</time></trkpt><trkpt lat="41.8397690777437" lon="12.480530687482215"><ele>20.0</ele><time>2026-03-25T13:58:40.999Z</time></trkpt><trkpt lat="41.83965176238975" lon="12.480662668142475"><ele>20.0</ele><time>2026-03-25T13:58:42.999Z</time></trkpt><trkpt lat="41.8395853463552" lon="12.48066451911388"><ele>20.0</ele><time>2026-03-25T13:58:43.999Z</time></trkpt><trkpt lat="41.8395214611794" lon="12.480666299552457"><ele>20.0</ele><time>2026-03-25T13:58:44.999Z</time></trkpt><trkpt lat="41.8394046590014" lon="12.480669554752335"><ele>20.0</ele><time>2026-03-25T13:58:46.999Z</time></trkpt><trkpt lat="41.83929700848472" lon="12.480671031352292"><ele>19.6</ele><time>2026-03-25T13:58:48.999Z</time></trkpt><trkpt lat="41.839174451529644" lon="12.480669311744688"><ele>19.2</ele><time>2026-03-25T13:58:50.999Z</time></trkpt><trkpt lat="41.83906021935507" lon="12.480667576130518"><ele>18.8</ele><time>2026-03-25T13:58:52.999Z</time></trkpt><trkpt lat="41.83893726838862" lon="12.480665799869056"><ele>18.4</ele><time>2026-03-25T13:58:54.999Z</time></trkpt><trkpt lat="41.83886339669325" lon="12.480664510970762"><ele>18.0</ele><time>2026-03-25T13:58:55.999Z</time></trkpt><trkpt lat="41.83879757160817" lon="12.480660294785997"><ele>18.000000000000004</ele><time>2026-03-25T13:58:56.999Z</time></trkpt><trkpt lat="41.83872674689578" lon="12.480655718336312"><ele>18.0</ele><time>2026-03-25T13:58:57.999Z</time></trkpt><trkpt lat="41.83865565739928" lon="12.480650999379478"><ele>18.0</ele><time>2026-03-25T13:58:58.999Z</time></trkpt><trkpt lat="41.83857697363628" lon="12.48064577630871"><ele>18.0</ele><time>2026-03-25T13:58:59.998Z</time></trkpt><trkpt lat="41.83849921896255" lon="12.480640614910818"><ele>18.0</ele><time>2026-03-25T13:59:00.998Z</time></trkpt><trkpt lat="41.83842821627941" lon="12.480636050071322"><ele>18.000000000000004</ele><time>2026-03-25T13:59:01.998Z</time></trkpt><trkpt lat="41.838355757276894" lon="12.480632083688194"><ele>18.0</ele><time>2026-03-25T13:59:02.998Z</time></trkpt><trkpt lat="41.83828268678045" lon="12.480626630487896"><ele>19.0</ele><time>2026-03-25T13:59:03.998Z</time></trkpt><trkpt lat="41.83807965571949" lon="12.480501898141464"><ele>20.0</ele><time>2026-03-25T13:59:04.998Z</time></trkpt><trkpt lat="41.838015032539346" lon="12.480158499610631"><ele>20.0</ele><time>2026-03-25T13:59:05.998Z</time></trkpt><trkpt lat="41.83798762121504" lon="12.480022997575656"><ele>20.0</ele><time>2026-03-25T13:59:08Z</time></trkpt><trkpt lat="41.837956348251865" lon="12.479868179805512"><ele>20.0</ele><time>2026-03-25T13:59:10Z</time></trkpt><trkpt lat="41.83793718766381" lon="12.479773095364934"><ele>20.0</ele><time>2026-03-25T13:59:11Z</time></trkpt><trkpt lat="41.8379201153439" lon="12.479686534879958"><ele>20.0</ele><time>2026-03-25T13:59:12Z</time></trkpt><trkpt lat="41.83788852298898" lon="12.479521274933063"><ele>19.8</ele><time>2026-03-25T13:59:14Z</time></trkpt><trkpt lat="41.83787272622568" lon="12.47943437738408"><ele>19.6</ele><time>2026-03-25T13:59:15Z</time></trkpt><trkpt lat="41.83785141732705" lon="12.479265725361978"><ele>19.4</ele><time>2026-03-25T13:59:17Z</time></trkpt><trkpt lat="41.83784243407019" lon="12.479175845248987"><ele>19.2</ele><time>2026-03-25T13:59:18Z</time></trkpt><trkpt lat="41.83783443688908" lon="12.479091609865947"><ele>19.0</ele><time>2026-03-25T13:59:19Z</time></trkpt><trkpt lat="41.837844993517365" lon="12.47889747815479"><ele>18.8</ele><time>2026-03-25T13:59:21Z</time></trkpt><trkpt lat="41.83787299880318" lon="12.47874520707896"><ele>18.599999999999998</ele><time>2026-03-25T13:59:23Z</time></trkpt><trkpt lat="41.83790730204548" lon="12.47859206221823"><ele>18.4</ele><time>2026-03-25T13:59:25Z</time></trkpt><trkpt lat="41.83796044776064" lon="12.47852972068082"><ele>18.2</ele><time>2026-03-25T13:59:26Z</time></trkpt><trkpt lat="41.83799587110801" lon="12.47840734910513"><ele>18.0</ele><time>2026-03-25T13:59:28Z</time></trkpt><trkpt lat="41.83802605849422" lon="12.47830306542422"><ele>18.0</ele><time>2026-03-25T13:59:30Z</time></trkpt><trkpt lat="41.83805376315767" lon="12.478206939764847"><ele>18.0</ele><time>2026-03-25T13:59:33Z</time></trkpt><trkpt lat="41.8379112961596" lon="12.478203297958315"><ele>18.0</ele><time>2026-03-25T13:59:50Z</time></trkpt><trkpt lat="41.83773994299002" lon="12.478189678812296"><ele>18.0</ele><time>2026-03-25T13:59:52Z</time></trkpt><trkpt lat="41.83770511960869" lon="12.478310151444866"><ele>18.0</ele><time>2026-03-25T13:59:54Z</time></trkpt><trkpt lat="41.83766333950374" lon="12.478454273964969"><ele>18.0</ele><time>2026-03-25T13:59:56Z</time></trkpt><trkpt lat="41.8376392286704" lon="12.478537074079966"><ele>18.0</ele><time>2026-03-25T13:59:57Z</time></trkpt><trkpt lat="41.8377975290091" lon="12.478711631410572"><ele>18.0</ele><time>2026-03-25T13:59:57.999Z</time></trkpt><trkpt lat="41.83775670788975" lon="12.478859779539153"><ele>18.2</ele><time>2026-03-25T13:59:59.999Z</time></trkpt><trkpt lat="41.83773177823532" lon="12.478942767090293"><ele>18.4</ele><time>2026-03-25T14:00:00.999Z</time></trkpt><trkpt lat="41.83771127071212" lon="12.47902868437495"><ele>18.599999999999998</ele><time>2026-03-25T14:00:01.999Z</time></trkpt><trkpt lat="41.8376755948693" lon="12.47918049196312"><ele>18.8</ele><time>2026-03-25T14:00:03.999Z</time></trkpt><trkpt lat="41.837618555183234" lon="12.479339832301681"><ele>19.0</ele><time>2026-03-25T14:00:05.999Z</time></trkpt><trkpt lat="41.837581684937284" lon="12.479489208744276"><ele>19.833333333333332</ele><time>2026-03-25T14:00:07.999Z</time></trkpt><trkpt lat="41.83753583397945" lon="12.479628616484082"><ele>20.666666666666664</ele><time>2026-03-25T14:00:09.999Z</time></trkpt><trkpt lat="41.83751097526966" lon="12.479711640758877"><ele>21.5</ele><time>2026-03-25T14:00:10.999Z</time></trkpt><trkpt lat="41.837477475141135" lon="12.47978372440817"><ele>22.333333333333332</ele><time>2026-03-25T14:00:11.999Z</time></trkpt><trkpt lat="41.83744626909075" lon="12.479929362967134"><ele>23.166666666666668</ele><time>2026-03-25T14:00:13.999Z</time></trkpt><trkpt lat="41.83740771405567" lon="12.48000598069701"><ele>24.0</ele><time>2026-03-25T14:00:14.999Z</time></trkpt><trkpt lat="41.8373893947402" lon="12.480092537053626"><ele>24.0</ele><time>2026-03-25T14:00:15.999Z</time></trkpt><trkpt lat="41.8373376389687" lon="12.48023769386649"><ele>24.0</ele><time>2026-03-25T14:00:17.999Z</time></trkpt><trkpt lat="41.83732010121691" lon="12.48031980859715"><ele>24.0</ele><time>2026-03-25T14:00:18.999Z</time></trkpt><trkpt lat="41.83727082983437" lon="12.480468925721933"><ele>24.0</ele><time>2026-03-25T14:00:20.999Z</time></trkpt><trkpt lat="41.83719305146814" lon="12.480582162229242"><ele>24.0</ele><time>2026-03-25T14:00:22.999Z</time></trkpt><trkpt lat="41.83709314066542" lon="12.48065209159588"><ele>23.799999999999997</ele><time>2026-03-25T14:00:24.999Z</time></trkpt><trkpt lat="41.83697109743735" lon="12.480693789721345"><ele>23.599999999999998</ele><time>2026-03-25T14:00:26.999Z</time></trkpt><trkpt lat="41.836908864701556" lon="12.480725693882567"><ele>23.4</ele><time>2026-03-25T14:00:27.999Z</time></trkpt><trkpt lat="41.83680808375857" lon="12.480778317189971"><ele>23.2</ele><time>2026-03-25T14:00:29.999Z</time></trkpt><trkpt lat="41.83669380229205" lon="12.480782569962102"><ele>23.0</ele><time>2026-03-25T14:00:31.999Z</time></trkpt><trkpt lat="41.83658091926572" lon="12.480789579986247"><ele>24.0</ele><time>2026-03-25T14:00:33.999Z</time></trkpt><trkpt lat="41.836477198536784" lon="12.480789579994758"><ele>25.0</ele><time>2026-03-25T14:00:35.999Z</time></trkpt><trkpt lat="41.83637113691743" lon="12.480777196841386"><ele>25.999999999999996</ele><time>2026-03-25T14:00:37.999Z</time></trkpt><trkpt lat="41.836273830108105" lon="12.480781604146719"><ele>27.0</ele><time>2026-03-25T14:00:39.999Z</time></trkpt><trkpt lat="41.83616743920071" lon="12.48079020503946"><ele>28.0</ele><time>2026-03-25T14:00:41.999Z</time></trkpt><trkpt lat="41.83607709783935" lon="12.48081426666054"><ele>28.0</ele><time>2026-03-25T14:00:43.999Z</time></trkpt><trkpt lat="41.8359817744834" lon="12.48078528226794"><ele>27.999999999999996</ele><time>2026-03-25T14:00:45.999Z</time></trkpt><trkpt lat="41.83590593919787" lon="12.480769763377308"><ele>27.999999999999996</ele><time>2026-03-25T14:00:47.999Z</time></trkpt><trkpt lat="41.83590519985831" lon="12.480632882203095"><ele>28.0</ele><time>2026-03-25T14:00:48.999Z</time></trkpt><trkpt lat="41.83583970042765" lon="12.480549503840345"><ele>28.0</ele><time>2026-03-25T14:00:49.999Z</time></trkpt><trkpt lat="41.83575409911205" lon="12.480675367401979"><ele>28.4</ele><time>2026-03-25T14:00:50.999Z</time></trkpt><trkpt lat="41.83567958272285" lon="12.480671151996852"><ele>28.799999999999997</ele><time>2026-03-25T14:00:52.999Z</time></trkpt><trkpt lat="41.83558573660011" lon="12.480687903796014"><ele>29.2</ele><time>2026-03-25T14:00:55.999Z</time></trkpt><trkpt lat="41.835501674706535" lon="12.480689359163037"><ele>29.6</ele><time>2026-03-25T14:00:57.999Z</time></trkpt><trkpt lat="41.83539131268729" lon="12.4806458162145"><ele>30.0</ele><time>2026-03-25T14:00:59.999Z</time></trkpt><trkpt lat="41.835272460415844" lon="12.48063894052636"><ele>30.0</ele><time>2026-03-25T14:01:01.999Z</time></trkpt><trkpt lat="41.83514944608336" lon="12.480638977449267"><ele>30.0</ele><time>2026-03-25T14:01:03.999Z</time></trkpt><trkpt lat="41.83504732620259" lon="12.480640076643255"><ele>30.0</ele><time>2026-03-25T14:01:05.998Z</time></trkpt><trkpt lat="41.83493563626617" lon="12.480646998531158"><ele>30.0</ele><time>2026-03-25T14:01:07.998Z</time></trkpt><trkpt lat="41.83482441705126" lon="12.480645364708858"><ele>30.0</ele><time>2026-03-25T14:01:09.998Z</time></trkpt><trkpt lat="41.834729084975834" lon="12.480669901928403"><ele>32.25</ele><time>2026-03-25T14:01:11.998Z</time></trkpt><trkpt lat="41.83462649781165" lon="12.48062552633992"><ele>34.5</ele><time>2026-03-25T14:01:14Z</time></trkpt><trkpt lat="41.83458914814336" lon="12.480778623998459"><ele>36.75</ele><time>2026-03-25T14:01:15Z</time></trkpt><trkpt lat="41.834479357462335" lon="12.480797235432133"><ele>39.0</ele><time>2026-03-25T14:01:17Z</time></trkpt><trkpt lat="41.834368588911886" lon="12.480781691349051"><ele>39.0</ele><time>2026-03-25T14:01:19Z</time></trkpt><trkpt lat="41.83430583624895" lon="12.480801860062591"><ele>39.0</ele><time>2026-03-25T14:01:20Z</time></trkpt><trkpt lat="41.83424079294947" lon="12.480803853541"><ele>39.0</ele><time>2026-03-25T14:01:21Z</time></trkpt><trkpt lat="41.834146586804664" lon="12.480787679298869"><ele>39.0</ele><time>2026-03-25T14:01:23Z</time></trkpt><trkpt lat="41.834026318297106" lon="12.480793653668949"><ele>39.0</ele><time>2026-03-25T14:01:25Z</time></trkpt><trkpt lat="41.83390821649422" lon="12.48080795958086"><ele>39.8</ele><time>2026-03-25T14:01:27Z</time></trkpt><trkpt lat="41.83381621124328" lon="12.480802250240416"><ele>40.599999999999994</ele><time>2026-03-25T14:01:29Z</time></trkpt><trkpt lat="41.833695965528605" lon="12.480807439511073"><ele>41.4</ele><time>2026-03-25T14:01:31Z</time></trkpt><trkpt lat="41.83359317323524" lon="12.480802482725876"><ele>42.199999999999996</ele><time>2026-03-25T14:01:33Z</time></trkpt><trkpt lat="41.83353063471054" lon="12.480787383704543"><ele>43.0</ele><time>2026-03-25T14:01:34Z</time></trkpt><trkpt lat="41.833430718192574" lon="12.480794516692217"><ele>43.0</ele><time>2026-03-25T14:01:36Z</time></trkpt><trkpt lat="41.83330682416026" lon="12.480782654351273"><ele>43.0</ele><time>2026-03-25T14:01:38Z</time></trkpt><trkpt lat="41.833200981371995" lon="12.480764054431818"><ele>43.0</ele><time>2026-03-25T14:01:40Z</time></trkpt><trkpt lat="41.83313216847183" lon="12.480752070668194"><ele>43.0</ele><time>2026-03-25T14:01:41Z</time></trkpt><trkpt lat="41.83302181374977" lon="12.48073229062222"><ele>43.0</ele><time>2026-03-25T14:01:43Z</time></trkpt><trkpt lat="41.83290569800604" lon="12.480734784052002"><ele>43.0</ele><time>2026-03-25T14:01:45Z</time></trkpt><trkpt lat="41.83280665349404" lon="12.480727702015383"><ele>43.0</ele><time>2026-03-25T14:01:47Z</time></trkpt><trkpt lat="41.83272134683113" lon="12.48071211724913"><ele>43.0</ele><time>2026-03-25T14:01:49Z</time></trkpt><trkpt lat="41.832615814731255" lon="12.48069639847612"><ele>43.0</ele><time>2026-03-25T14:01:51Z</time></trkpt><trkpt lat="41.832534308641925" lon="12.480667551869743"><ele>43.0</ele><time>2026-03-25T14:01:53Z</time></trkpt><trkpt lat="41.83244996431937" lon="12.480654270828957"><ele>42.833333333333336</ele><time>2026-03-25T14:01:55Z</time></trkpt><trkpt lat="41.832373766826024" lon="12.480648736643069"><ele>42.66666666666667</ele><time>2026-03-25T14:01:57Z</time></trkpt><trkpt lat="41.832308181646" lon="12.48063929809515"><ele>42.5</ele><time>2026-03-25T14:02:01.999Z</time></trkpt><trkpt lat="41.83220610391872" lon="12.480635152525002"><ele>42.333333333333336</ele><time>2026-03-25T14:02:03.999Z</time></trkpt><trkpt lat="41.83212907182964" lon="12.480624796995288"><ele>42.166666666666664</ele><time>2026-03-25T14:02:05.999Z</time></trkpt><trkpt lat="41.83201603756522" lon="12.480599095367333"><ele>42.0</ele><time>2026-03-25T14:02:07.999Z</time></trkpt><trkpt lat="41.83190646074052" lon="12.480565392976194"><ele>42.25</ele><time>2026-03-25T14:02:09.999Z</time></trkpt><trkpt lat="41.831770755620184" lon="12.480549011895842"><ele>42.5</ele><time>2026-03-25T14:02:11.999Z</time></trkpt><trkpt lat="41.83166195988303" lon="12.480530742596612"><ele>42.75</ele><time>2026-03-25T14:02:13.999Z</time></trkpt><trkpt lat="41.83155146084216" lon="12.480537263849932"><ele>43.0</ele><time>2026-03-25T14:02:15.999Z</time></trkpt><trkpt lat="41.83145064718636" lon="12.480509325996808"><ele>43.0</ele><time>2026-03-25T14:02:17.999Z</time></trkpt><trkpt lat="41.83138629314539" lon="12.480495316157157"><ele>43.0</ele><time>2026-03-25T14:02:18.999Z</time></trkpt><trkpt lat="41.83132384809712" lon="12.480483507303656"><ele>43.0</ele><time>2026-03-25T14:02:19.999Z</time></trkpt><trkpt lat="41.83120375581213" lon="12.480453029121845"><ele>43.0</ele><time>2026-03-25T14:02:21.999Z</time></trkpt><trkpt lat="41.8310843414522" lon="12.480445442207124"><ele>43.0</ele><time>2026-03-25T14:02:23.999Z</time></trkpt><trkpt lat="41.831008584378665" lon="12.480435494924732"><ele>43.0</ele><time>2026-03-25T14:02:24.999Z</time></trkpt><trkpt lat="41.83092925254602" lon="12.480418609032743"><ele>43.16666666666667</ele><time>2026-03-25T14:02:25.999Z</time></trkpt><trkpt lat="41.830806749520754" lon="12.48039771640138"><ele>43.333333333333336</ele><time>2026-03-25T14:02:27.999Z</time></trkpt><trkpt lat="41.830743412079805" lon="12.480394142347295"><ele>43.5</ele><time>2026-03-25T14:02:28.999Z</time></trkpt><trkpt lat="41.83067981802742" lon="12.480389773766095"><ele>43.666666666666664</ele><time>2026-03-25T14:02:29.999Z</time></trkpt><trkpt lat="41.830563963296925" lon="12.48037122161736"><ele>43.83333333333333</ele><time>2026-03-25T14:02:31.999Z</time></trkpt><trkpt lat="41.83050003794839" lon="12.480370972571606"><ele>44.0</ele><time>2026-03-25T14:02:32.999Z</time></trkpt><trkpt lat="41.8303807248267" lon="12.480358321041109"><ele>44.0</ele><time>2026-03-25T14:02:34.999Z</time></trkpt><trkpt lat="41.83028783978815" lon="12.480346192717938"><ele>44.0</ele><time>2026-03-25T14:02:37.999Z</time></trkpt><trkpt lat="41.83016208952686" lon="12.48033261551996"><ele>44.0</ele><time>2026-03-25T14:02:39.999Z</time></trkpt><trkpt lat="41.830085887598464" lon="12.480326773759433"><ele>44.0</ele><time>2026-03-25T14:02:40.999Z</time></trkpt><trkpt lat="41.83001764182342" lon="12.48030897452348"><ele>44.0</ele><time>2026-03-25T14:02:41.999Z</time></trkpt><trkpt lat="41.829951056027205" lon="12.480288293845327"><ele>44.0</ele><time>2026-03-25T14:02:42.999Z</time></trkpt><trkpt lat="41.82982561070954" lon="12.480244489305118"><ele>43.85714285714286</ele><time>2026-03-25T14:02:44.999Z</time></trkpt><trkpt lat="41.82976434173629" lon="12.4802218855306"><ele>43.714285714285715</ele><time>2026-03-25T14:02:45.999Z</time></trkpt><trkpt lat="41.8296415666623" lon="12.480184161652256"><ele>43.57142857142857</ele><time>2026-03-25T14:02:47.999Z</time></trkpt><trkpt lat="41.82958118927881" lon="12.480158403706742"><ele>43.42857142857143</ele><time>2026-03-25T14:02:48.999Z</time></trkpt><trkpt lat="41.82951994344262" lon="12.480125158057781"><ele>43.285714285714285</ele><time>2026-03-25T14:02:49.999Z</time></trkpt><trkpt lat="41.829466098515134" lon="12.480073092417536"><ele>43.142857142857146</ele><time>2026-03-25T14:02:50.999Z</time></trkpt><trkpt lat="41.82940673372452" lon="12.480043812439389"><ele>43.0</ele><time>2026-03-25T14:02:51.999Z</time></trkpt><trkpt lat="41.82934556280206" lon="12.479998196860818"><ele>42.16666666666667</ele><time>2026-03-25T14:02:52.999Z</time></trkpt><trkpt lat="41.829289571345846" lon="12.47995201599709"><ele>41.333333333333336</ele><time>2026-03-25T14:02:53.999Z</time></trkpt><trkpt lat="41.829233414044374" lon="12.479912510303459"><ele>40.5</ele><time>2026-03-25T14:02:54.999Z</time></trkpt><trkpt lat="41.82912604993584" lon="12.47982309537675"><ele>39.666666666666664</ele><time>2026-03-25T14:02:56.999Z</time></trkpt><trkpt lat="41.82907784977803" lon="12.479766431225718"><ele>38.83333333333333</ele><time>2026-03-25T14:02:57.999Z</time></trkpt><trkpt lat="41.82902543804373" lon="12.479716086557787"><ele>38.0</ele><time>2026-03-25T14:02:58.999Z</time></trkpt><trkpt lat="41.82892305171575" lon="12.479613922454853"><ele>39.25</ele><time>2026-03-25T14:03:00.999Z</time></trkpt><trkpt lat="41.828822750424365" lon="12.479521484906794"><ele>40.5</ele><time>2026-03-25T14:03:02.999Z</time></trkpt><trkpt lat="41.82872829461768" lon="12.479412320033994"><ele>41.75</ele><time>2026-03-25T14:03:04.999Z</time></trkpt><trkpt lat="41.8286289111611" lon="12.479336515179929"><ele>43.0</ele><time>2026-03-25T14:03:06.999Z</time></trkpt><trkpt lat="41.828529140979974" lon="12.47922317996878"><ele>41.199999999999996</ele><time>2026-03-25T14:03:08.998Z</time></trkpt><trkpt lat="41.82846935245785" lon="12.479177988809779"><ele>39.4</ele><time>2026-03-25T14:03:09.998Z</time></trkpt><trkpt lat="41.8283739726754" lon="12.479089773667713"><ele>37.599999999999994</ele><time>2026-03-25T14:03:11.998Z</time></trkpt><trkpt lat="41.828276851289324" lon="12.479013893555614"><ele>35.8</ele><time>2026-03-25T14:03:13.998Z</time></trkpt><trkpt lat="41.82818764380099" lon="12.47895246559372"><ele>34.0</ele><time>2026-03-25T14:03:15.998Z</time></trkpt><trkpt lat="41.828092492175784" lon="12.478906599080752"><ele>34.0</ele><time>2026-03-25T14:03:17.998Z</time></trkpt><trkpt lat="41.82801549279916" lon="12.478880975060699"><ele>34.0</ele><time>2026-03-25T14:03:20Z</time></trkpt><trkpt lat="41.827902157473886" lon="12.478863491485297"><ele>34.0</ele><time>2026-03-25T14:03:22Z</time></trkpt><trkpt lat="41.82784570503892" lon="12.478806903402676"><ele>34.0</ele><time>2026-03-25T14:03:23Z</time></trkpt><trkpt lat="41.82777845321843" lon="12.478783452699092"><ele>34.0</ele><time>2026-03-25T14:03:24Z</time></trkpt><trkpt lat="41.82765864629704" lon="12.478769390933733"><ele>33.833333333333336</ele><time>2026-03-25T14:03:26Z</time></trkpt><trkpt lat="41.82754946657664" lon="12.478738027428106"><ele>33.66666666666667</ele><time>2026-03-25T14:03:28Z</time></trkpt><trkpt lat="41.827442965714525" lon="12.47867657757472"><ele>33.5</ele><time>2026-03-25T14:03:30Z</time></trkpt><trkpt lat="41.827371602551615" lon="12.478662018338438"><ele>33.333333333333336</ele><time>2026-03-25T14:03:31Z</time></trkpt><trkpt lat="41.827300998452294" lon="12.478658239964169"><ele>33.166666666666664</ele><time>2026-03-25T14:03:32Z</time></trkpt><trkpt lat="41.82723448323145" lon="12.478656412736644"><ele>33.0</ele><time>2026-03-25T14:03:33Z</time></trkpt><trkpt lat="41.82715969616624" lon="12.478646844429708"><ele>33.0</ele><time>2026-03-25T14:03:34Z</time></trkpt><trkpt lat="41.82704399165259" lon="12.478623420006219"><ele>33.0</ele><time>2026-03-25T14:03:36Z</time></trkpt><trkpt lat="41.82691611793566" lon="12.478634359041461"><ele>33.0</ele><time>2026-03-25T14:03:38Z</time></trkpt><trkpt lat="41.8268444802808" lon="12.478639899371847"><ele>33.0</ele><time>2026-03-25T14:03:39Z</time></trkpt><trkpt lat="41.8267794491733" lon="12.478665000129448"><ele>33.0</ele><time>2026-03-25T14:03:40Z</time></trkpt><trkpt lat="41.8266601840469" lon="12.478677696188221"><ele>32.6</ele><time>2026-03-25T14:03:42Z</time></trkpt><trkpt lat="41.8265952514142" lon="12.478675423407163"><ele>32.199999999999996</ele><time>2026-03-25T14:03:43Z</time></trkpt><trkpt lat="41.82648223761697" lon="12.478716620241954"><ele>31.8</ele><time>2026-03-25T14:03:45Z</time></trkpt><trkpt lat="41.82641262308723" lon="12.478730877342832"><ele>31.4</ele><time>2026-03-25T14:03:46Z</time></trkpt><trkpt lat="41.82629476080569" lon="12.478755015600642"><ele>31.0</ele><time>2026-03-25T14:03:48Z</time></trkpt><trkpt lat="41.82617476945066" lon="12.478778521656722"><ele>30.200000000000003</ele><time>2026-03-25T14:03:50Z</time></trkpt><trkpt lat="41.82606750847663" lon="12.478799232079902"><ele>29.400000000000002</ele><time>2026-03-25T14:03:52Z</time></trkpt><trkpt lat="41.82598799297673" lon="12.478821150226427"><ele>28.6</ele><time>2026-03-25T14:03:54Z</time></trkpt><trkpt lat="41.82585929717647" lon="12.47883893939967"><ele>27.8</ele><time>2026-03-25T14:03:56Z</time></trkpt><trkpt lat="41.8257968785987" lon="12.478853979175414"><ele>27.0</ele><time>2026-03-25T14:03:57Z</time></trkpt><trkpt lat="41.82567583969401" lon="12.478877082592016"><ele>26.666666666666668</ele><time>2026-03-25T14:03:59Z</time></trkpt><trkpt lat="41.82560888821492" lon="12.47888816870947"><ele>26.333333333333336</ele><time>2026-03-25T14:04:00Z</time></trkpt><trkpt lat="41.82554180093791" lon="12.478904834036348"><ele>26.0</ele><time>2026-03-25T14:04:01Z</time></trkpt><trkpt lat="41.82547793567561" lon="12.47891493617311"><ele>25.666666666666668</ele><time>2026-03-25T14:04:02Z</time></trkpt><trkpt lat="41.82537807859771" lon="12.47892582734019"><ele>25.333333333333336</ele><time>2026-03-25T14:04:04Z</time></trkpt><trkpt lat="41.82528083278412" lon="12.478954962414953"><ele>25.0</ele><time>2026-03-25T14:04:06Z</time></trkpt><trkpt lat="41.825219759986105" lon="12.478978632505811"><ele>26.2</ele><time>2026-03-25T14:04:06.999Z</time></trkpt><trkpt lat="41.82510920788006" lon="12.478963873067636"><ele>27.4</ele><time>2026-03-25T14:04:08.999Z</time></trkpt><trkpt lat="41.82500946006349" lon="12.478995322051013"><ele>28.6</ele><time>2026-03-25T14:04:10.999Z</time></trkpt><trkpt lat="41.82493246423151" lon="12.479021260460925"><ele>29.8</ele><time>2026-03-25T14:04:12.999Z</time></trkpt><trkpt lat="41.82485312758693" lon="12.479022417685078"><ele>31.0</ele><time>2026-03-25T14:04:17.999Z</time></trkpt><trkpt lat="41.82476432853617" lon="12.479066232022648"><ele>31.0</ele><time>2026-03-25T14:04:19.999Z</time></trkpt><trkpt lat="41.82469413556276" lon="12.479083726835684"><ele>31.0</ele><time>2026-03-25T14:04:20.999Z</time></trkpt><trkpt lat="41.824574780752734" lon="12.479100639732597"><ele>31.0</ele><time>2026-03-25T14:04:22.999Z</time></trkpt><trkpt lat="41.824458981025614" lon="12.479125449260286"><ele>31.0</ele><time>2026-03-25T14:04:24.999Z</time></trkpt><trkpt lat="41.824361097308284" lon="12.479151922638497"><ele>31.0</ele><time>2026-03-25T14:04:26.999Z</time></trkpt><trkpt lat="41.824259381666785" lon="12.47916860555878"><ele>31.4</ele><time>2026-03-25T14:04:28.999Z</time></trkpt><trkpt lat="41.82414738019773" lon="12.479194649609731"><ele>31.8</ele><time>2026-03-25T14:04:30.999Z</time></trkpt><trkpt lat="41.8240331749921" lon="12.479212543023538"><ele>32.199999999999996</ele><time>2026-03-25T14:04:32.999Z</time></trkpt><trkpt lat="41.823940311162346" lon="12.47920590537955"><ele>32.6</ele><time>2026-03-25T14:04:34.999Z</time></trkpt><trkpt lat="41.823845634914655" lon="12.479221950096994"><ele>33.0</ele><time>2026-03-25T14:04:36.999Z</time></trkpt><trkpt lat="41.82374656051625" lon="12.479241366670138"><ele>33.0</ele><time>2026-03-25T14:04:38.999Z</time></trkpt><trkpt lat="41.82364455202239" lon="12.47918359858072"><ele>33.0</ele><time>2026-03-25T14:04:40.999Z</time></trkpt><trkpt lat="41.82357522500514" lon="12.479199326404558"><ele>33.0</ele><time>2026-03-25T14:04:41.999Z</time></trkpt><trkpt lat="41.82347925509643" lon="12.479189586160867"><ele>33.0</ele><time>2026-03-25T14:04:43.999Z</time></trkpt><trkpt lat="41.823363454497844" lon="12.479144221174204"><ele>33.0</ele><time>2026-03-25T14:04:45.999Z</time></trkpt><trkpt lat="41.823317659726804" lon="12.479022762817902"><ele>34.0</ele><time>2026-03-25T14:04:46.999Z</time></trkpt><trkpt lat="41.82325261346529" lon="12.479001252153832"><ele>35.0</ele><time>2026-03-25T14:04:47.999Z</time></trkpt><trkpt lat="41.823159091922086" lon="12.47896381589831"><ele>36.0</ele><time>2026-03-25T14:04:49.999Z</time></trkpt><trkpt lat="41.82306419632782" lon="12.479371654988348"><ele>36.0</ele><time>2026-03-25T14:04:51.999Z</time></trkpt><trkpt lat="41.82313709819513" lon="12.479227005665077"><ele>36.0</ele><time>2026-03-25T14:04:52.999Z</time></trkpt><trkpt lat="41.82310032568337" lon="12.479366915809813"><ele>36.0</ele><time>2026-03-25T14:04:54.999Z</time></trkpt><trkpt lat="41.82293332118212" lon="12.479418156643744"><ele>36.0</ele><time>2026-03-25T14:04:56.999Z</time></trkpt><trkpt lat="41.822822978423105" lon="12.47941293334981"><ele>36.0</ele><time>2026-03-25T14:04:58.999Z</time></trkpt><trkpt lat="41.82270526409852" lon="12.479432684891712"><ele>36.0</ele><time>2026-03-25T14:05:00.999Z</time></trkpt><trkpt lat="41.822592199462264" lon="12.47949123148736"><ele>36.0</ele><time>2026-03-25T14:05:02.999Z</time></trkpt><trkpt lat="41.822480905438596" lon="12.479494720629441"><ele>36.0</ele><time>2026-03-25T14:05:04.999Z</time></trkpt><trkpt lat="41.822392596351825" lon="12.479504379077804"><ele>36.0</ele><time>2026-03-25T14:05:06.999Z</time></trkpt><trkpt lat="41.82229035969373" lon="12.479524982787419"><ele>38.0</ele><time>2026-03-25T14:05:08.999Z</time></trkpt><trkpt lat="41.82216472882948" lon="12.479458700757435"><ele>40.0</ele><time>2026-03-25T14:05:10.999Z</time></trkpt><trkpt lat="41.82205035541292" lon="12.479442257657038"><ele>42.0</ele><time>2026-03-25T14:05:12.999Z</time></trkpt><trkpt lat="41.82194716345125" lon="12.479423800350501"><ele>44.0</ele><time>2026-03-25T14:05:14.998Z</time></trkpt><trkpt lat="41.821841932494074" lon="12.47940271070436"><ele>45.400000000000006</ele><time>2026-03-25T14:05:16.998Z</time></trkpt><trkpt lat="41.82173788135825" lon="12.479374625098613"><ele>46.8</ele><time>2026-03-25T14:05:18.998Z</time></trkpt><trkpt lat="41.82163120420486" lon="12.479338513285107"><ele>48.2</ele><time>2026-03-25T14:05:20.998Z</time></trkpt><trkpt lat="41.821530012388116" lon="12.47930288766849"><ele>49.599999999999994</ele><time>2026-03-25T14:05:22.998Z</time></trkpt><trkpt lat="41.82143552877424" lon="12.47926401395862"><ele>51.0</ele><time>2026-03-25T14:05:25Z</time></trkpt><trkpt lat="41.82134620103879" lon="12.47922319277143"><ele>51.0</ele><time>2026-03-25T14:05:27Z</time></trkpt><trkpt lat="41.82123949731019" lon="12.479172144655545"><ele>51.0</ele><time>2026-03-25T14:05:29Z</time></trkpt><trkpt lat="41.821140960082545" lon="12.479126522182934"><ele>51.0</ele><time>2026-03-25T14:05:31Z</time></trkpt><trkpt lat="41.82105983049754" lon="12.479140724916942"><ele>51.0</ele><time>2026-03-25T14:05:34Z</time></trkpt><trkpt lat="41.820637614823546" lon="12.479150489010479"><ele>51.0</ele><time>2026-03-25T14:05:38Z</time></trkpt><trkpt lat="41.82086290889975" lon="12.479022847652676"><ele>51.0</ele><time>2026-03-25T14:05:41Z</time></trkpt><trkpt lat="41.82061221329196" lon="12.479245241284312"><ele>51.0</ele><time>2026-03-25T14:05:44Z</time></trkpt><trkpt lat="41.820574460269754" lon="12.4793872715322"><ele>51.0</ele><time>2026-03-25T14:05:46Z</time></trkpt><trkpt lat="41.82053826249705" lon="12.479530878465228"><ele>51.0</ele><time>2026-03-25T14:05:48Z</time></trkpt><trkpt lat="41.8205012830605" lon="12.47966694730117"><ele>51.0</ele><time>2026-03-25T14:05:50Z</time></trkpt><trkpt lat="41.82046631925576" lon="12.479799731217884"><ele>51.0</ele><time>2026-03-25T14:05:52Z</time></trkpt><trkpt lat="41.820429386138805" lon="12.479937362853631"><ele>51.199999999999996</ele><time>2026-03-25T14:05:54Z</time></trkpt><trkpt lat="41.82039123075548" lon="12.480078214517738"><ele>51.4</ele><time>2026-03-25T14:05:56Z</time></trkpt><trkpt lat="41.820352252838376" lon="12.480230023648856"><ele>51.6</ele><time>2026-03-25T14:05:58Z</time></trkpt><trkpt lat="41.82031596789984" lon="12.480358403503356"><ele>51.8</ele><time>2026-03-25T14:06:00Z</time></trkpt><trkpt lat="41.82029212781355" lon="12.480439069580266"><ele>52.0</ele><time>2026-03-25T14:06:01Z</time></trkpt><trkpt lat="41.82024567126498" lon="12.480605233922635"><ele>51.99999999999999</ele><time>2026-03-25T14:06:03Z</time></trkpt><trkpt lat="41.82022192935975" lon="12.480746205287344"><ele>52.0</ele><time>2026-03-25T14:06:05Z</time></trkpt><trkpt lat="41.820210513834795" lon="12.480867675504783"><ele>52.0</ele><time>2026-03-25T14:06:07Z</time></trkpt><trkpt lat="41.820196127407456" lon="12.48098051450111"><ele>52.0</ele><time>2026-03-25T14:06:10Z</time></trkpt><trkpt lat="41.820140041272815" lon="12.481038922210722"><ele>51.99999999999999</ele><time>2026-03-25T14:06:16.999Z</time></trkpt><trkpt lat="41.82006906912881" lon="12.480977657686166"><ele>52.0</ele><time>2026-03-25T14:06:22.999Z</time></trkpt><trkpt lat="41.81995881813643" lon="12.481048990308551"><ele>52.0</ele><time>2026-03-25T14:06:24.999Z</time></trkpt><trkpt lat="41.81983848167513" lon="12.481083700519198"><ele>52.0</ele><time>2026-03-25T14:06:26.999Z</time></trkpt><trkpt lat="41.81977771438632" lon="12.481106906985763"><ele>52.0</ele><time>2026-03-25T14:06:27.999Z</time></trkpt><trkpt lat="41.81966772473972" lon="12.481141532669366"><ele>52.0</ele><time>2026-03-25T14:06:29.999Z</time></trkpt><trkpt lat="41.81960425842263" lon="12.481155307193035"><ele>52.0</ele><time>2026-03-25T14:06:30.999Z</time></trkpt><trkpt lat="41.81949477790203" lon="12.481177066423278"><ele>52.0</ele><time>2026-03-25T14:06:32.999Z</time></trkpt><trkpt lat="41.819399639807266" lon="12.48123125481373"><ele>52.0</ele><time>2026-03-25T14:06:34.999Z</time></trkpt><trkpt lat="41.81929239026061" lon="12.481291302358688"><ele>52.0</ele><time>2026-03-25T14:06:36.999Z</time></trkpt><trkpt lat="41.81923361550506" lon="12.481322524526849"><ele>52.0</ele><time>2026-03-25T14:06:37.999Z</time></trkpt><trkpt lat="41.81917847564622" lon="12.48136480077357"><ele>52.0</ele><time>2026-03-25T14:06:38.999Z</time></trkpt><trkpt lat="41.81908742079572" lon="12.481468338956006"><ele>52.33333333333333</ele><time>2026-03-25T14:06:40.999Z</time></trkpt><trkpt lat="41.81904552163885" lon="12.481533332809809"><ele>52.666666666666664</ele><time>2026-03-25T14:06:41.999Z</time></trkpt><trkpt lat="41.818999310607076" lon="12.481599799023265"><ele>53.0</ele><time>2026-03-25T14:06:42.999Z</time></trkpt><trkpt lat="41.818919924076674" lon="12.481726266605868"><ele>53.33333333333333</ele><time>2026-03-25T14:06:44.999Z</time></trkpt><trkpt lat="41.818852081029426" lon="12.481849322865866"><ele>53.666666666666664</ele><time>2026-03-25T14:06:46.999Z</time></trkpt><trkpt lat="41.81880607967904" lon="12.481908655916477"><ele>54.0</ele><time>2026-03-25T14:06:47.999Z</time></trkpt><trkpt lat="41.81874730239481" lon="12.481955494667622"><ele>54.0</ele><time>2026-03-25T14:06:48.999Z</time></trkpt><trkpt lat="41.81865731556224" lon="12.482043027653072"><ele>54.00000000000001</ele><time>2026-03-25T14:06:50.999Z</time></trkpt><trkpt lat="41.818568483642615" lon="12.482123063774212"><ele>54.00000000000001</ele><time>2026-03-25T14:06:52.999Z</time></trkpt><trkpt lat="41.81851595225634" lon="12.482171245670095"><ele>54.0</ele><time>2026-03-25T14:06:53.999Z</time></trkpt><trkpt lat="41.8184275266802" lon="12.482255893875706"><ele>54.0</ele><time>2026-03-25T14:06:55.999Z</time></trkpt><trkpt lat="41.81832471406697" lon="12.482341312764735"><ele>53.75</ele><time>2026-03-25T14:06:57.999Z</time></trkpt><trkpt lat="41.818231084876174" lon="12.4824210230738"><ele>53.5</ele><time>2026-03-25T14:06:59.999Z</time></trkpt><trkpt lat="41.81812641502617" lon="12.482514833678692"><ele>53.25</ele><time>2026-03-25T14:07:01.999Z</time></trkpt><trkpt lat="41.818034915470975" lon="12.482605392321261"><ele>53.0</ele><time>2026-03-25T14:07:03.999Z</time></trkpt><trkpt lat="41.817940761701195" lon="12.482685246024813"><ele>53.00000000000001</ele><time>2026-03-25T14:07:05.999Z</time></trkpt><trkpt lat="41.817843762882696" lon="12.48275956427258"><ele>53.0</ele><time>2026-03-25T14:07:07.999Z</time></trkpt><trkpt lat="41.81779156563703" lon="12.482809360549311"><ele>53.0</ele><time>2026-03-25T14:07:08.999Z</time></trkpt><trkpt lat="41.817734025169266" lon="12.482854576174176"><ele>53.0</ele><time>2026-03-25T14:07:09.999Z</time></trkpt><trkpt lat="41.817675925965936" lon="12.482896315873017"><ele>53.00000000000001</ele><time>2026-03-25T14:07:10.999Z</time></trkpt><trkpt lat="41.817579613588336" lon="12.482961855937734"><ele>53.0</ele><time>2026-03-25T14:07:12.999Z</time></trkpt><trkpt lat="41.817504821601865" lon="12.483052978417561"><ele>52.50000000000001</ele><time>2026-03-25T14:07:14.999Z</time></trkpt><trkpt lat="41.81742954820223" lon="12.483138982530333"><ele>52.0</ele><time>2026-03-25T14:07:16.999Z</time></trkpt><trkpt lat="41.81737070833044" lon="12.483176268483582"><ele>51.5</ele><time>2026-03-25T14:07:17.999Z</time></trkpt><trkpt lat="41.817310771040475" lon="12.483211995986402"><ele>51.0</ele><time>2026-03-25T14:07:18.998Z</time></trkpt><trkpt lat="41.817247649473586" lon="12.483202382137991"><ele>50.50000000000001</ele><time>2026-03-25T14:07:19.998Z</time></trkpt><trkpt lat="41.81716740083643" lon="12.483282972794541"><ele>50.0</ele><time>2026-03-25T14:07:22.998Z</time></trkpt><trkpt lat="41.81707620541314" lon="12.483402928152367"><ele>50.0</ele><time>2026-03-25T14:07:24.998Z</time></trkpt><trkpt lat="41.817015807533444" lon="12.483452543820556"><ele>50.0</ele><time>2026-03-25T14:07:25.998Z</time></trkpt><trkpt lat="41.816955096414354" lon="12.483491052733006"><ele>50.0</ele><time>2026-03-25T14:07:26.998Z</time></trkpt><trkpt lat="41.81684972610284" lon="12.483573098931688"><ele>50.0</ele><time>2026-03-25T14:07:28.998Z</time></trkpt><trkpt lat="41.816751887283694" lon="12.483648616428821"><ele>50.0</ele><time>2026-03-25T14:07:31Z</time></trkpt><trkpt lat="41.81665652345758" lon="12.483718043659183"><ele>50.00000000000001</ele><time>2026-03-25T14:07:33Z</time></trkpt><trkpt lat="41.816542167178156" lon="12.483795830962322"><ele>50.0</ele><time>2026-03-25T14:07:35Z</time></trkpt><trkpt lat="41.81647912499837" lon="12.483815706157486"><ele>50.0</ele><time>2026-03-25T14:07:36Z</time></trkpt><trkpt lat="41.81641758092971" lon="12.483836136050927"><ele>50.0</ele><time>2026-03-25T14:07:37Z</time></trkpt><trkpt lat="41.81635520631784" lon="12.483862652729279"><ele>50.00000000000001</ele><time>2026-03-25T14:07:38Z</time></trkpt><trkpt lat="41.816293652545475" lon="12.483886625597728"><ele>50.0</ele><time>2026-03-25T14:07:39Z</time></trkpt><trkpt lat="41.816175112035175" lon="12.483931273002899"><ele>50.00000000000001</ele><time>2026-03-25T14:07:41Z</time></trkpt><trkpt lat="41.81611343481795" lon="12.483956642035409"><ele>50.0</ele><time>2026-03-25T14:07:42Z</time></trkpt><trkpt lat="41.81605001002002" lon="12.483988113911195"><ele>50.0</ele><time>2026-03-25T14:07:43Z</time></trkpt><trkpt lat="41.81594258049248" lon="12.484039159634378"><ele>50.0</ele><time>2026-03-25T14:07:45Z</time></trkpt><trkpt lat="41.815817974442105" lon="12.484096054402203"><ele>50.00000000000001</ele><time>2026-03-25T14:07:47Z</time></trkpt><trkpt lat="41.81575584611897" lon="12.484115583960804"><ele>50.0</ele><time>2026-03-25T14:07:48Z</time></trkpt><trkpt lat="41.815645420383724" lon="12.484158511569554"><ele>50.2</ele><time>2026-03-25T14:07:50Z</time></trkpt><trkpt lat="41.81557928595772" lon="12.484187490841691"><ele>50.4</ele><time>2026-03-25T14:07:51Z</time></trkpt><trkpt lat="41.815462627608824" lon="12.48423815421215"><ele>50.599999999999994</ele><time>2026-03-25T14:07:53Z</time></trkpt><trkpt lat="41.81540177717638" lon="12.484266095135395"><ele>50.8</ele><time>2026-03-25T14:07:54Z</time></trkpt><trkpt lat="41.815284595904586" lon="12.484317417243778"><ele>51.0</ele><time>2026-03-25T14:07:56Z</time></trkpt><trkpt lat="41.815175928738014" lon="12.484372241171409"><ele>51.199999999999996</ele><time>2026-03-25T14:07:58Z</time></trkpt><trkpt lat="41.81505835222635" lon="12.484422187176863"><ele>51.4</ele><time>2026-03-25T14:08:00Z</time></trkpt><trkpt lat="41.81494625990457" lon="12.484465234202403"><ele>51.6</ele><time>2026-03-25T14:08:02Z</time></trkpt><trkpt lat="41.814879023733404" lon="12.484490188122248"><ele>51.8</ele><time>2026-03-25T14:08:03Z</time></trkpt><trkpt lat="41.814766935883945" lon="12.484544009826823"><ele>52.0</ele><time>2026-03-25T14:08:05Z</time></trkpt><trkpt lat="41.814659679877124" lon="12.484585106892458"><ele>51.8</ele><time>2026-03-25T14:08:07Z</time></trkpt><trkpt lat="41.81454441814561" lon="12.484646260161368"><ele>51.6</ele><time>2026-03-25T14:08:09Z</time></trkpt><trkpt lat="41.81448512642554" lon="12.48467550320534"><ele>51.4</ele><time>2026-03-25T14:08:10Z</time></trkpt><trkpt lat="41.81438559838197" lon="12.484726458454507"><ele>51.199999999999996</ele><time>2026-03-25T14:08:12Z</time></trkpt><trkpt lat="41.81428697840234" lon="12.484789311974465"><ele>51.0</ele><time>2026-03-25T14:08:14Z</time></trkpt><trkpt lat="41.81422544416491" lon="12.48482177179595"><ele>50.8</ele><time>2026-03-25T14:08:15Z</time></trkpt><trkpt lat="41.814133456009216" lon="12.484888028550001"><ele>50.599999999999994</ele><time>2026-03-25T14:08:17Z</time></trkpt><trkpt lat="41.81406480781246" lon="12.48493349688326"><ele>50.4</ele><time>2026-03-25T14:08:18Z</time></trkpt><trkpt lat="41.81401091794984" lon="12.48497902852217"><ele>50.2</ele><time>2026-03-25T14:08:18.999Z</time></trkpt><trkpt lat="41.81390852190122" lon="12.48504647438023"><ele>50.0</ele><time>2026-03-25T14:08:20.999Z</time></trkpt><trkpt lat="41.81381606525249" lon="12.485110179499756"><ele>50.0</ele><time>2026-03-25T14:08:22.999Z</time></trkpt><trkpt lat="41.81373654661595" lon="12.485165853009661"><ele>50.0</ele><time>2026-03-25T14:08:24.999Z</time></trkpt><trkpt lat="41.81367912693402" lon="12.485224791033843"><ele>50.0</ele><time>2026-03-25T14:08:26.999Z</time></trkpt><trkpt lat="41.81360240719491" lon="12.485306206897095"><ele>50.0</ele><time>2026-03-25T14:08:28.999Z</time></trkpt><trkpt lat="41.81349941984505" lon="12.48540324541934"><ele>50.0</ele><time>2026-03-25T14:08:30.999Z</time></trkpt><trkpt lat="41.81339255227966" lon="12.485492668097036"><ele>50.6</ele><time>2026-03-25T14:08:32.999Z</time></trkpt><trkpt lat="41.813300460367536" lon="12.485580697346805"><ele>51.2</ele><time>2026-03-25T14:08:34.999Z</time></trkpt><trkpt lat="41.81321571004219" lon="12.485638410391312"><ele>51.8</ele><time>2026-03-25T14:08:36.999Z</time></trkpt><trkpt lat="41.81314595814012" lon="12.485692062095769"><ele>52.4</ele><time>2026-03-25T14:08:38.999Z</time></trkpt><trkpt lat="41.81304478541798" lon="12.485788977808424"><ele>53.0</ele><time>2026-03-25T14:08:40.999Z</time></trkpt><trkpt lat="41.81294121753048" lon="12.485821449305774"><ele>53.00000000000001</ele><time>2026-03-25T14:08:42.999Z</time></trkpt><trkpt lat="41.812866005136605" lon="12.485891812595078"><ele>53.0</ele><time>2026-03-25T14:08:44.999Z</time></trkpt><trkpt lat="41.81282166080611" lon="12.485960293800913"><ele>53.0</ele><time>2026-03-25T14:08:45.999Z</time></trkpt><trkpt lat="41.812710600650526" lon="12.486019813866449"><ele>53.0</ele><time>2026-03-25T14:08:47.999Z</time></trkpt><trkpt lat="41.812643084358434" lon="12.486038311104895"><ele>53.00000000000001</ele><time>2026-03-25T14:08:48.999Z</time></trkpt><trkpt lat="41.81257349782322" lon="12.486053182564092"><ele>53.0</ele><time>2026-03-25T14:08:49.999Z</time></trkpt><trkpt lat="41.81251021944747" lon="12.4860670439669"><ele>52.599999999999994</ele><time>2026-03-25T14:08:50.999Z</time></trkpt><trkpt lat="41.81238484853724" lon="12.486075914595146"><ele>52.199999999999996</ele><time>2026-03-25T14:08:52.999Z</time></trkpt><trkpt lat="41.81226031779885" lon="12.4860998155494"><ele>51.8</ele><time>2026-03-25T14:08:54.999Z</time></trkpt><trkpt lat="41.81214308768806" lon="12.486125901498706"><ele>51.4</ele><time>2026-03-25T14:08:56.999Z</time></trkpt><trkpt lat="41.81207926483187" lon="12.486132215763647"><ele>51.0</ele><time>2026-03-25T14:08:57.999Z</time></trkpt><trkpt lat="41.81201257600035" lon="12.486139752619877"><ele>51.0</ele><time>2026-03-25T14:08:58.999Z</time></trkpt><trkpt lat="41.8119480900586" lon="12.486150627935128"><ele>51.0</ele><time>2026-03-25T14:08:59.999Z</time></trkpt><trkpt lat="41.81182988687842" lon="12.486167711488061"><ele>51.0</ele><time>2026-03-25T14:09:01.999Z</time></trkpt><trkpt lat="41.81171831133901" lon="12.486169542089385"><ele>51.0</ele><time>2026-03-25T14:09:03.999Z</time></trkpt><trkpt lat="41.81161118799128" lon="12.486155839683398"><ele>51.0</ele><time>2026-03-25T14:09:05.999Z</time></trkpt><trkpt lat="41.81151746709069" lon="12.486133859803417"><ele>50.5</ele><time>2026-03-25T14:09:07.999Z</time></trkpt><trkpt lat="41.811406965196426" lon="12.486107983877062"><ele>50.0</ele><time>2026-03-25T14:09:09.999Z</time></trkpt><trkpt lat="41.81129734601984" lon="12.48606272044649"><ele>49.5</ele><time>2026-03-25T14:09:11.999Z</time></trkpt><trkpt lat="41.81118500375935" lon="12.486007633271525"><ele>49.0</ele><time>2026-03-25T14:09:13.999Z</time></trkpt><trkpt lat="41.81107924557952" lon="12.485945205060819"><ele>49.6</ele><time>2026-03-25T14:09:15.999Z</time></trkpt><trkpt lat="41.81098431897936" lon="12.485886743428125"><ele>50.2</ele><time>2026-03-25T14:09:17.999Z</time></trkpt><trkpt lat="41.810888879879414" lon="12.485819180171108"><ele>50.800000000000004</ele><time>2026-03-25T14:09:19.999Z</time></trkpt><trkpt lat="41.81080485669716" lon="12.485759091925354"><ele>51.400000000000006</ele><time>2026-03-25T14:09:21.999Z</time></trkpt><trkpt lat="41.81070798274763" lon="12.485675961365017"><ele>52.0</ele><time>2026-03-25T14:09:23.999Z</time></trkpt><trkpt lat="41.81060759556799" lon="12.48559898829335"><ele>52.0</ele><time>2026-03-25T14:09:25.998Z</time></trkpt><trkpt lat="41.81050399147535" lon="12.48552947043315"><ele>52.0</ele><time>2026-03-25T14:09:27.998Z</time></trkpt><trkpt lat="41.8103993085099" lon="12.485437939341248"><ele>52.0</ele><time>2026-03-25T14:09:29.998Z</time></trkpt><trkpt lat="41.81030024017727" lon="12.485346255529041"><ele>52.0</ele><time>2026-03-25T14:09:31.998Z</time></trkpt><trkpt lat="41.810197562040635" lon="12.485272829488583"><ele>52.2</ele><time>2026-03-25T14:09:33.998Z</time></trkpt><trkpt lat="41.81008849495068" lon="12.485186700122844"><ele>52.400000000000006</ele><time>2026-03-25T14:09:35.998Z</time></trkpt><trkpt lat="41.80999710139845" lon="12.485125876427102"><ele>52.599999999999994</ele><time>2026-03-25T14:09:38Z</time></trkpt><trkpt lat="41.809923170722854" lon="12.485076315050291"><ele>52.8</ele><time>2026-03-25T14:09:40Z</time></trkpt><trkpt lat="41.80986128773931" lon="12.485031473404751"><ele>53.0</ele><time>2026-03-25T14:09:42Z</time></trkpt><trkpt lat="41.809760031524405" lon="12.484999380459639"><ele>53.0</ele><time>2026-03-25T14:09:44Z</time></trkpt><trkpt lat="41.80965781770286" lon="12.484953546126382"><ele>53.0</ele><time>2026-03-25T14:09:46Z</time></trkpt><trkpt lat="41.8095946834682" lon="12.484916411317426"><ele>53.0</ele><time>2026-03-25T14:09:47Z</time></trkpt><trkpt lat="41.809493985230034" lon="12.484863446113252"><ele>53.0</ele><time>2026-03-25T14:09:49Z</time></trkpt><trkpt lat="41.80937630523553" lon="12.484813863949634"><ele>53.0</ele><time>2026-03-25T14:09:51Z</time></trkpt><trkpt lat="41.809283719447556" lon="12.484772570874002"><ele>52.75</ele><time>2026-03-25T14:09:53Z</time></trkpt><trkpt lat="41.80921267335981" lon="12.484724577154243"><ele>52.5</ele><time>2026-03-25T14:09:55Z</time></trkpt><trkpt lat="41.80910971204613" lon="12.484690696720124"><ele>52.25</ele><time>2026-03-25T14:09:57Z</time></trkpt><trkpt lat="41.80903968027143" lon="12.484756417451962"><ele>52.0</ele><time>2026-03-25T14:10:47.999Z</time></trkpt><trkpt lat="41.808971351976915" lon="12.484996750699883"><ele>52.0</ele><time>2026-03-25T14:10:54.999Z</time></trkpt><trkpt lat="41.8090623122769" lon="12.485156428134326"><ele>52.0</ele><time>2026-03-25T14:11:01.999Z</time></trkpt><trkpt lat="41.809194671889855" lon="12.485181967038734"><ele>52.0</ele><time>2026-03-25T14:11:03.999Z</time></trkpt><trkpt lat="41.80926463978209" lon="12.485192864111232"><ele>52.0</ele><time>2026-03-25T14:11:04.999Z</time></trkpt><trkpt lat="41.809387698293435" lon="12.48522358515741"><ele>52.2</ele><time>2026-03-25T14:11:06.999Z</time></trkpt><trkpt lat="41.80945004239773" lon="12.48523808637667"><ele>52.400000000000006</ele><time>2026-03-25T14:11:07.999Z</time></trkpt><trkpt lat="41.8095728429307" lon="12.48525791536364"><ele>52.599999999999994</ele><time>2026-03-25T14:11:09.999Z</time></trkpt><trkpt lat="41.80968935088889" lon="12.485288618335147"><ele>52.8</ele><time>2026-03-25T14:11:11.999Z</time></trkpt><trkpt lat="41.80966066710217" lon="12.485394698603468"><ele>53.0</ele><time>2026-03-25T14:11:13.999Z</time></trkpt><trkpt lat="41.809543869790254" lon="12.485404775121124"><ele>52.833333333333336</ele><time>2026-03-25T14:11:15.999Z</time></trkpt><trkpt lat="41.80947060075669" lon="12.485498155073493"><ele>52.66666666666667</ele><time>2026-03-25T14:11:17.999Z</time></trkpt><trkpt lat="41.809423162786175" lon="12.48555477188604"><ele>52.5</ele><time>2026-03-25T14:11:18.999Z</time></trkpt><trkpt lat="41.80938325381312" lon="12.485638760851831"><ele>52.33333333333333</ele><time>2026-03-25T14:11:19.999Z</time></trkpt><trkpt lat="41.80937638741976" lon="12.485731100448321"><ele>52.166666666666664</ele><time>2026-03-25T14:11:20.999Z</time></trkpt><trkpt lat="41.80934645666094" lon="12.485888897853961"><ele>52.0</ele><time>2026-03-25T14:11:22.999Z</time></trkpt><trkpt lat="41.8092815270554" lon="12.486018239098549"><ele>52.0</ele><time>2026-03-25T14:11:24.999Z</time></trkpt><trkpt lat="41.80919089252789" lon="12.486121318798512"><ele>52.0</ele><time>2026-03-25T14:11:26.999Z</time></trkpt><trkpt lat="41.80913975034006" lon="12.486192599805992"><ele>52.0</ele><time>2026-03-25T14:11:27.999Z</time></trkpt><trkpt lat="41.80909594873299" lon="12.486344914480672"><ele>52.0</ele><time>2026-03-25T14:11:29.999Z</time></trkpt><trkpt lat="41.809016610121404" lon="12.486448005804547"><ele>52.0</ele><time>2026-03-25T14:11:31.999Z</time></trkpt><trkpt lat="41.808898073301016" lon="12.486461152479302"><ele>51.99999999999999</ele><time>2026-03-25T14:11:33.998Z</time></trkpt><trkpt lat="41.808837954232644" lon="12.486497686983304"><ele>52.0</ele><time>2026-03-25T14:11:34.998Z</time></trkpt><trkpt lat="41.8087795875906" lon="12.486535767399717"><ele>52.0</ele><time>2026-03-25T14:11:35.998Z</time></trkpt><trkpt lat="41.80867365344616" lon="12.486596683246429"><ele>52.0</ele><time>2026-03-25T14:11:37.998Z</time></trkpt><trkpt lat="41.80855612249324" lon="12.486663819039963"><ele>51.99999999999999</ele><time>2026-03-25T14:11:39.998Z</time></trkpt><trkpt lat="41.80849584162857" lon="12.48669226978197"><ele>52.0</ele><time>2026-03-25T14:11:40.998Z</time></trkpt><trkpt lat="41.80838765910251" lon="12.486760506505878"><ele>51.75</ele><time>2026-03-25T14:11:43Z</time></trkpt><trkpt lat="41.80827391760094" lon="12.486833300323017"><ele>51.5</ele><time>2026-03-25T14:11:45Z</time></trkpt><trkpt lat="41.80816768533929" lon="12.486890104019158"><ele>51.25</ele><time>2026-03-25T14:11:47Z</time></trkpt><trkpt lat="41.80806524464704" lon="12.486943775483354"><ele>51.0</ele><time>2026-03-25T14:11:49Z</time></trkpt><trkpt lat="41.80795186111718" lon="12.486981661639605"><ele>51.0</ele><time>2026-03-25T14:11:51Z</time></trkpt><trkpt lat="41.80784188000994" lon="12.487015432167166"><ele>51.0</ele><time>2026-03-25T14:11:53Z</time></trkpt><trkpt lat="41.80772054240252" lon="12.487025780778076"><ele>51.0</ele><time>2026-03-25T14:11:55Z</time></trkpt><trkpt lat="41.80760420392882" lon="12.487035692482769"><ele>51.0</ele><time>2026-03-25T14:11:57Z</time></trkpt><trkpt lat="41.807539632661964" lon="12.487054520056356"><ele>51.0</ele><time>2026-03-25T14:11:58Z</time></trkpt><trkpt lat="41.80743066953862" lon="12.487039401018222"><ele>50.4</ele><time>2026-03-25T14:12:00Z</time></trkpt><trkpt lat="41.80731322182772" lon="12.487001834594157"><ele>49.8</ele><time>2026-03-25T14:12:02Z</time></trkpt><trkpt lat="41.80720110399081" lon="12.486971043323662"><ele>49.199999999999996</ele><time>2026-03-25T14:12:04Z</time></trkpt><trkpt lat="41.80709355866346" lon="12.48694513674137"><ele>48.599999999999994</ele><time>2026-03-25T14:12:06Z</time></trkpt><trkpt lat="41.80702517358346" lon="12.486931355723943"><ele>48.0</ele><time>2026-03-25T14:12:07Z</time></trkpt><trkpt lat="41.806909274313995" lon="12.486908166987646"><ele>48.0</ele><time>2026-03-25T14:12:09Z</time></trkpt><trkpt lat="41.8068041269487" lon="12.486876636613282"><ele>48.0</ele><time>2026-03-25T14:12:11Z</time></trkpt><trkpt lat="41.80668754763459" lon="12.486855642539684"><ele>48.0</ele><time>2026-03-25T14:12:13Z</time></trkpt><trkpt lat="41.80656860290345" lon="12.486824779016306"><ele>48.0</ele><time>2026-03-25T14:12:15Z</time></trkpt><trkpt lat="41.80650483568788" lon="12.48681767266699"><ele>48.0</ele><time>2026-03-25T14:12:16Z</time></trkpt><trkpt lat="41.80639605868094" lon="12.486810297609262"><ele>48.0</ele><time>2026-03-25T14:12:18Z</time></trkpt><trkpt lat="41.80630456628744" lon="12.486776083150579"><ele>48.0</ele><time>2026-03-25T14:12:20Z</time></trkpt><trkpt lat="41.80623867602735" lon="12.486771604009622"><ele>48.0</ele><time>2026-03-25T14:12:21Z</time></trkpt><trkpt lat="41.806133745314895" lon="12.486680349893314"><ele>48.0</ele><time>2026-03-25T14:12:23Z</time></trkpt><trkpt lat="41.80602547993346" lon="12.486643718639286"><ele>48.0</ele><time>2026-03-25T14:12:25Z</time></trkpt><trkpt lat="41.80596239566221" lon="12.48667567947233"><ele>48.75</ele><time>2026-03-25T14:12:26Z</time></trkpt><trkpt lat="41.80583692113391" lon="12.486696482321346"><ele>49.5</ele><time>2026-03-25T14:12:28Z</time></trkpt><trkpt lat="41.80573562870466" lon="12.486642363718788"><ele>50.25</ele><time>2026-03-25T14:12:29.999Z</time></trkpt><trkpt lat="41.805649372034004" lon="12.486620095786899"><ele>51.0</ele><time>2026-03-25T14:12:31.999Z</time></trkpt><trkpt lat="41.80552334098567" lon="12.486588553661804"><ele>51.0</ele><time>2026-03-25T14:12:33.999Z</time></trkpt><trkpt lat="41.80541179634684" lon="12.486560788141823"><ele>51.0</ele><time>2026-03-25T14:12:35.999Z</time></trkpt><trkpt lat="41.805348330687266" lon="12.486544990361425"><ele>51.0</ele><time>2026-03-25T14:12:36.999Z</time></trkpt><trkpt lat="41.80528376575026" lon="12.486528918957223"><ele>51.0</ele><time>2026-03-25T14:12:37.999Z</time></trkpt><trkpt lat="41.805167622420534" lon="12.486500008726054"><ele>51.0</ele><time>2026-03-25T14:12:39.999Z</time></trkpt><trkpt lat="41.80505850762331" lon="12.486472848153502"><ele>50.599999999999994</ele><time>2026-03-25T14:12:41.999Z</time></trkpt><trkpt lat="41.80494467853752" lon="12.48644337179907"><ele>50.2</ele><time>2026-03-25T14:12:43.999Z</time></trkpt><trkpt lat="41.80482870502128" lon="12.48641223541262"><ele>49.8</ele><time>2026-03-25T14:12:45.999Z</time></trkpt><trkpt lat="41.804715733543354" lon="12.486379024202803"><ele>49.400000000000006</ele><time>2026-03-25T14:12:47.999Z</time></trkpt><trkpt lat="41.804622615820215" lon="12.4863525927056"><ele>49.0</ele><time>2026-03-25T14:12:49.999Z</time></trkpt><trkpt lat="41.8045320915754" lon="12.486327844417755"><ele>49.0</ele><time>2026-03-25T14:12:51.999Z</time></trkpt><trkpt lat="41.804413879261226" lon="12.486295822029149"><ele>49.0</ele><time>2026-03-25T14:12:53.999Z</time></trkpt><trkpt lat="41.80435147972806" lon="12.486279262846692"><ele>49.0</ele><time>2026-03-25T14:12:54.999Z</time></trkpt><trkpt lat="41.80424824841666" lon="12.48625190183844"><ele>49.0</ele><time>2026-03-25T14:12:56.999Z</time></trkpt><trkpt lat="41.80415400757686" lon="12.48622692369896"><ele>49.0</ele><time>2026-03-25T14:12:58.999Z</time></trkpt><trkpt lat="41.804043435833606" lon="12.486196811498017"><ele>49.0</ele><time>2026-03-25T14:13:00.999Z</time></trkpt><trkpt lat="41.80397755276667" lon="12.486176913063868"><ele>49.0</ele><time>2026-03-25T14:13:01.999Z</time></trkpt><trkpt lat="41.80385987245822" lon="12.48614137050501"><ele>49.0</ele><time>2026-03-25T14:13:03.999Z</time></trkpt><trkpt lat="41.80376194886569" lon="12.486111893261919"><ele>49.0</ele><time>2026-03-25T14:13:05.999Z</time></trkpt><trkpt lat="41.80368448235589" lon="12.486089609031232"><ele>49.0</ele><time>2026-03-25T14:13:07.999Z</time></trkpt><trkpt lat="41.803602654319135" lon="12.48606600682078"><ele>49.2</ele><time>2026-03-25T14:13:09.999Z</time></trkpt><trkpt lat="41.80349304700465" lon="12.486033901811583"><ele>49.400000000000006</ele><time>2026-03-25T14:13:11.999Z</time></trkpt><trkpt lat="41.80342824922702" lon="12.486014921372178"><ele>49.6</ele><time>2026-03-25T14:13:12.999Z</time></trkpt><trkpt lat="41.80333870767042" lon="12.485984541454643"><ele>49.8</ele><time>2026-03-25T14:13:14.999Z</time></trkpt><trkpt lat="41.803219298135545" lon="12.485947017407106"><ele>50.0</ele><time>2026-03-25T14:13:16.999Z</time></trkpt><trkpt lat="41.803147089931194" lon="12.485924660592985"><ele>50.00000000000001</ele><time>2026-03-25T14:13:17.999Z</time></trkpt><trkpt lat="41.803081338511625" lon="12.485902145708476"><ele>50.0</ele><time>2026-03-25T14:13:18.999Z</time></trkpt><trkpt lat="41.802971329950296" lon="12.48581642750977"><ele>50.0</ele><time>2026-03-25T14:13:20.999Z</time></trkpt><trkpt lat="41.802907714796135" lon="12.48576933985278"><ele>50.0</ele><time>2026-03-25T14:13:21.999Z</time></trkpt><trkpt lat="41.802850608705086" lon="12.48572593718633"><ele>50.00000000000001</ele><time>2026-03-25T14:13:22.999Z</time></trkpt><trkpt lat="41.80278306648294" lon="12.48568577633797"><ele>50.0</ele><time>2026-03-25T14:13:24.999Z</time></trkpt><trkpt lat="41.802480708975956" lon="12.486011346383686"><ele>49.25</ele><time>2026-03-25T14:13:25.999Z</time></trkpt><trkpt lat="41.80241404870263" lon="12.486135952331955"><ele>48.5</ele><time>2026-03-25T14:13:27.999Z</time></trkpt><trkpt lat="41.802351978509144" lon="12.486284497901913"><ele>47.75</ele><time>2026-03-25T14:13:29.999Z</time></trkpt><trkpt lat="41.80229583038351" lon="12.48641825576167"><ele>47.0</ele><time>2026-03-25T14:13:31.999Z</time></trkpt><trkpt lat="41.80223749699198" lon="12.486557144741706"><ele>47.0</ele><time>2026-03-25T14:13:33.999Z</time></trkpt><trkpt lat="41.80220540876324" lon="12.486632561271945"><ele>47.0</ele><time>2026-03-25T14:13:34.999Z</time></trkpt><trkpt lat="41.80217240465178" lon="12.486712028338589"><ele>47.0</ele><time>2026-03-25T14:13:35.999Z</time></trkpt><trkpt lat="41.80211590083041" lon="12.486849280695685"><ele>47.0</ele><time>2026-03-25T14:13:37.998Z</time></trkpt><trkpt lat="41.80206139239025" lon="12.486981686247862"><ele>47.0</ele><time>2026-03-25T14:13:39.998Z</time></trkpt><trkpt lat="41.80202707149898" lon="12.487065054429056"><ele>47.0</ele><time>2026-03-25T14:13:40.998Z</time></trkpt><trkpt lat="41.801969128988674" lon="12.487207595792743"><ele>46.8</ele><time>2026-03-25T14:13:42.998Z</time></trkpt><trkpt lat="41.80191381324604" lon="12.487345300182435"><ele>46.6</ele><time>2026-03-25T14:13:44.998Z</time></trkpt><trkpt lat="41.80188182853561" lon="12.487425462079068"><ele>46.4</ele><time>2026-03-25T14:13:45.998Z</time></trkpt><trkpt lat="41.80185178856862" lon="12.487501490931153"><ele>46.199999999999996</ele><time>2026-03-25T14:13:46.998Z</time></trkpt><trkpt lat="41.801792875837776" lon="12.48765132030453"><ele>46.0</ele><time>2026-03-25T14:13:49Z</time></trkpt><trkpt lat="41.80173606110405" lon="12.48780369325861"><ele>46.0</ele><time>2026-03-25T14:13:51Z</time></trkpt><trkpt lat="41.801707194921484" lon="12.487882314683466"><ele>46.0</ele><time>2026-03-25T14:13:52Z</time></trkpt><trkpt lat="41.801660792439705" lon="12.48801440772867"><ele>46.0</ele><time>2026-03-25T14:13:54Z</time></trkpt><trkpt lat="41.8016127499496" lon="12.488152693758503"><ele>46.0</ele><time>2026-03-25T14:13:56Z</time></trkpt><trkpt lat="41.801566493369016" lon="12.48829041390682"><ele>46.0</ele><time>2026-03-25T14:13:58Z</time></trkpt><trkpt lat="41.80153990355888" lon="12.488368395877977"><ele>46.0</ele><time>2026-03-25T14:13:59Z</time></trkpt><trkpt lat="41.80151312256923" lon="12.488445481079719"><ele>46.0</ele><time>2026-03-25T14:14:00Z</time></trkpt><trkpt lat="41.80146312207064" lon="12.48859355356926"><ele>46.0</ele><time>2026-03-25T14:14:02Z</time></trkpt><trkpt lat="41.801439851573605" lon="12.488687024805996"><ele>46.0</ele><time>2026-03-25T14:14:03Z</time></trkpt><trkpt lat="41.80142247450535" lon="12.48878431446019"><ele>46.0</ele><time>2026-03-25T14:14:04Z</time></trkpt><trkpt lat="41.80141236354152" lon="12.488878969902801"><ele>46.0</ele><time>2026-03-25T14:14:05Z</time></trkpt><trkpt lat="41.80141347062949" lon="12.48898238385044"><ele>46.0</ele><time>2026-03-25T14:14:06Z</time></trkpt><trkpt lat="41.801416227090655" lon="12.48913176750055"><ele>46.0</ele><time>2026-03-25T14:14:08Z</time></trkpt><trkpt lat="41.801416943861085" lon="12.489242210381121"><ele>46.0</ele><time>2026-03-25T14:14:10Z</time></trkpt><trkpt lat="41.801339938235635" lon="12.489247784431578"><ele>46.0</ele><time>2026-03-25T14:14:48.999Z</time></trkpt><trkpt lat="41.801364594162166" lon="12.489151460202592"><ele>46.0</ele><time>2026-03-25T14:14:49.999Z</time></trkpt><trkpt lat="41.80125763485605" lon="12.48929791356763"><ele>46.0</ele><time>2026-03-25T14:14:50.999Z</time></trkpt><trkpt lat="41.801142889222426" lon="12.489143763299788"><ele>46.0</ele><time>2026-03-25T14:14:51.999Z</time></trkpt><trkpt lat="41.80108897742471" lon="12.489197772386209"><ele>46.0</ele><time>2026-03-25T14:14:52.999Z</time></trkpt><trkpt lat="41.80105313361523" lon="12.489268996229681"><ele>46.0</ele><time>2026-03-25T14:14:53.999Z</time></trkpt><trkpt lat="41.80095025399739" lon="12.48924700975789"><ele>46.0</ele><time>2026-03-25T14:14:54.999Z</time></trkpt><trkpt lat="41.800885361443555" lon="12.489359974463277"><ele>46.0</ele><time>2026-03-25T14:14:56.999Z</time></trkpt><trkpt lat="41.80081272706249" lon="12.489511850180243"><ele>46.0</ele><time>2026-03-25T14:14:58.999Z</time></trkpt><trkpt lat="41.80077804866594" lon="12.489587272099808"><ele>46.0</ele><time>2026-03-25T14:14:59.999Z</time></trkpt><trkpt lat="41.800717909804426" lon="12.48972403491113"><ele>46.0</ele><time>2026-03-25T14:15:01.999Z</time></trkpt><trkpt lat="41.80065968067715" lon="12.489854795861419"><ele>46.0</ele><time>2026-03-25T14:15:03.999Z</time></trkpt><trkpt lat="41.80060398780907" lon="12.489979859809962"><ele>46.199999999999996</ele><time>2026-03-25T14:15:05.999Z</time></trkpt><trkpt lat="41.800539078208445" lon="12.490109551409752"><ele>46.4</ele><time>2026-03-25T14:15:07.999Z</time></trkpt><trkpt lat="41.80047676356008" lon="12.490239230352183"><ele>46.6</ele><time>2026-03-25T14:15:09.999Z</time></trkpt><trkpt lat="41.80042549399282" lon="12.490346572200389"><ele>46.8</ele><time>2026-03-25T14:15:11.999Z</time></trkpt><trkpt lat="41.80038161245511" lon="12.49042968074845"><ele>47.0</ele><time>2026-03-25T14:15:13.999Z</time></trkpt><trkpt lat="41.80032017184105" lon="12.490525744259111"><ele>47.0</ele><time>2026-03-25T14:15:15.999Z</time></trkpt><trkpt lat="41.80024730560758" lon="12.49060358264237"><ele>47.0</ele><time>2026-03-25T14:15:17.999Z</time></trkpt><trkpt lat="41.800155370773425" lon="12.490669629477457"><ele>47.0</ele><time>2026-03-25T14:15:19.999Z</time></trkpt><trkpt lat="41.80007785389649" lon="12.490702729001198"><ele>47.0</ele><time>2026-03-25T14:15:21.999Z</time></trkpt><trkpt lat="41.8000034188543" lon="12.490716009508219"><ele>47.0</ele><time>2026-03-25T14:15:23.999Z</time></trkpt><trkpt lat="41.79990663959712" lon="12.490717939892646"><ele>46.8</ele><time>2026-03-25T14:15:25.999Z</time></trkpt><trkpt lat="41.79979521796554" lon="12.490717939891397"><ele>46.6</ele><time>2026-03-25T14:15:27.999Z</time></trkpt><trkpt lat="41.799713855805685" lon="12.49070133948003"><ele>46.4</ele><time>2026-03-25T14:15:29.999Z</time></trkpt><trkpt lat="41.799592902574695" lon="12.490685291015613"><ele>46.199999999999996</ele><time>2026-03-25T14:15:31.999Z</time></trkpt><trkpt lat="41.799529508559466" lon="12.490675628769303"><ele>46.0</ele><time>2026-03-25T14:15:32.999Z</time></trkpt><trkpt lat="41.79942621223207" lon="12.490857439293876"><ele>46.0</ele><time>2026-03-25T14:15:34.999Z</time></trkpt><trkpt lat="41.79939223287703" lon="12.490784084644233"><ele>46.0</ele><time>2026-03-25T14:15:35.999Z</time></trkpt><trkpt lat="41.79934580126112" lon="12.490719522196088"><ele>46.0</ele><time>2026-03-25T14:15:36.999Z</time></trkpt><trkpt lat="41.79928566756405" lon="12.490690236451481"><ele>46.0</ele><time>2026-03-25T14:15:37.999Z</time></trkpt><trkpt lat="41.79923287936682" lon="12.49061444847661"><ele>46.0</ele><time>2026-03-25T14:15:38.999Z</time></trkpt><trkpt lat="41.79916508734065" lon="12.490610993179917"><ele>46.0</ele><time>2026-03-25T14:15:39.999Z</time></trkpt><trkpt lat="41.79909507681963" lon="12.490605184059577"><ele>46.0</ele><time>2026-03-25T14:15:40.999Z</time></trkpt><trkpt lat="41.79899157838733" lon="12.4905908420063"><ele>47.199999999999996</ele><time>2026-03-25T14:15:42.999Z</time></trkpt><trkpt lat="41.79887589545329" lon="12.490571043951089"><ele>48.4</ele><time>2026-03-25T14:15:44.998Z</time></trkpt><trkpt lat="41.79880635319216" lon="12.490576940090628"><ele>49.6</ele><time>2026-03-25T14:15:45.998Z</time></trkpt><trkpt lat="41.798695557501915" lon="12.49055080381377"><ele>50.8</ele><time>2026-03-25T14:15:47.998Z</time></trkpt><trkpt lat="41.79857845754623" lon="12.490521163774554"><ele>52.0</ele><time>2026-03-25T14:15:49.998Z</time></trkpt><trkpt lat="41.79846016263937" lon="12.490508090219254"><ele>52.2</ele><time>2026-03-25T14:15:51.998Z</time></trkpt><trkpt lat="41.7983540347469" lon="12.490484238082285"><ele>52.400000000000006</ele><time>2026-03-25T14:15:53.998Z</time></trkpt><trkpt lat="41.798242631485024" lon="12.490460560751066"><ele>52.599999999999994</ele><time>2026-03-25T14:15:56Z</time></trkpt><trkpt lat="41.79813346607759" lon="12.490442487426225"><ele>52.8</ele><time>2026-03-25T14:15:58Z</time></trkpt><trkpt lat="41.79802727942208" lon="12.49039575590539"><ele>53.0</ele><time>2026-03-25T14:16:00Z</time></trkpt><trkpt lat="41.79792150865859" lon="12.4903724504672"><ele>53.0</ele><time>2026-03-25T14:16:02Z</time></trkpt><trkpt lat="41.79781425091685" lon="12.490351867792095"><ele>53.0</ele><time>2026-03-25T14:16:04Z</time></trkpt><trkpt lat="41.79770642478511" lon="12.49033114894197"><ele>53.0</ele><time>2026-03-25T14:16:06Z</time></trkpt><trkpt lat="41.797591961620974" lon="12.490309478516982"><ele>53.0</ele><time>2026-03-25T14:16:08Z</time></trkpt><trkpt lat="41.79749343956073" lon="12.49029253634241"><ele>53.0</ele><time>2026-03-25T14:16:10Z</time></trkpt><trkpt lat="41.797375694613415" lon="12.490277007353997"><ele>52.599999999999994</ele><time>2026-03-25T14:16:12Z</time></trkpt><trkpt lat="41.797274472588725" lon="12.490267466445209"><ele>52.199999999999996</ele><time>2026-03-25T14:16:14Z</time></trkpt><trkpt lat="41.79715614872806" lon="12.490256311691605"><ele>51.8</ele><time>2026-03-25T14:16:16Z</time></trkpt><trkpt lat="41.79705094455099" lon="12.490245963733138"><ele>51.4</ele><time>2026-03-25T14:16:18Z</time></trkpt><trkpt lat="41.796986348013064" lon="12.490239336975163"><ele>51.0</ele><time>2026-03-25T14:16:19Z</time></trkpt><trkpt lat="41.79692095754907" lon="12.49023806821332"><ele>50.599999999999994</ele><time>2026-03-25T14:16:20Z</time></trkpt><trkpt lat="41.79681864716636" lon="12.490241250642908"><ele>50.2</ele><time>2026-03-25T14:16:22Z</time></trkpt><trkpt lat="41.79671992029773" lon="12.490244382385649"><ele>49.8</ele><time>2026-03-25T14:16:24Z</time></trkpt><trkpt lat="41.79662409185045" lon="12.490246195806742"><ele>49.400000000000006</ele><time>2026-03-25T14:16:26Z</time></trkpt><trkpt lat="41.79654693017591" lon="12.490246765753243"><ele>49.0</ele><time>2026-03-25T14:16:28Z</time></trkpt><trkpt lat="41.79646362582303" lon="12.490246503795046"><ele>49.0</ele><time>2026-03-25T14:16:30Z</time></trkpt><trkpt lat="41.796354497151334" lon="12.490244368671126"><ele>49.0</ele><time>2026-03-25T14:16:32Z</time></trkpt><trkpt lat="41.7962724497781" lon="12.490239331770516"><ele>49.0</ele><time>2026-03-25T14:16:34Z</time></trkpt><trkpt lat="41.79616990367335" lon="12.490227042390629"><ele>49.0</ele><time>2026-03-25T14:16:36Z</time></trkpt><trkpt lat="41.79604370143961" lon="12.490208702652462"><ele>49.0</ele><time>2026-03-25T14:16:38Z</time></trkpt><trkpt lat="41.79593051428692" lon="12.490195237261013"><ele>51.666666666666664</ele><time>2026-03-25T14:16:40Z</time></trkpt><trkpt lat="41.79583095734369" lon="12.490184757689006"><ele>54.33333333333333</ele><time>2026-03-25T14:16:42Z</time></trkpt><trkpt lat="41.795787134942195" lon="12.49053236799142"><ele>57.0</ele><time>2026-03-25T14:16:43.999Z</time></trkpt><trkpt lat="41.79578065184398" lon="12.490680688441406"><ele>57.0</ele><time>2026-03-25T14:16:45.999Z</time></trkpt><trkpt lat="41.795779249896256" lon="12.490844003315571"><ele>57.0</ele><time>2026-03-25T14:16:47.999Z</time></trkpt><trkpt lat="41.79577715447491" lon="12.490940766516152"><ele>57.0</ele><time>2026-03-25T14:16:48.999Z</time></trkpt><trkpt lat="41.7957749070672" lon="12.49104579411317"><ele>57.0</ele><time>2026-03-25T14:16:49.999Z</time></trkpt><trkpt lat="41.7957777129485" lon="12.491157132959795"><ele>57.0</ele><time>2026-03-25T14:16:50.999Z</time></trkpt><trkpt lat="41.79577641256586" lon="12.491275248015356"><ele>57.0</ele><time>2026-03-25T14:16:51.999Z</time></trkpt><trkpt lat="41.795759818848865" lon="12.49139474047333"><ele>57.2</ele><time>2026-03-25T14:16:52.999Z</time></trkpt><trkpt lat="41.795739854159" lon="12.49151292234397"><ele>57.400000000000006</ele><time>2026-03-25T14:16:53.999Z</time></trkpt><trkpt lat="41.79572006159099" lon="12.491635523993542"><ele>57.599999999999994</ele><time>2026-03-25T14:16:54.999Z</time></trkpt><trkpt lat="41.7956966275969" lon="12.491758467698842"><ele>57.8</ele><time>2026-03-25T14:16:55.999Z</time></trkpt><trkpt lat="41.79566922809455" lon="12.491880020503272"><ele>58.0</ele><time>2026-03-25T14:16:56.999Z</time></trkpt><trkpt lat="41.7956556926951" lon="12.492010485967839"><ele>58.166666666666664</ele><time>2026-03-25T14:16:57.999Z</time></trkpt><trkpt lat="41.79563554742445" lon="12.492138256055394"><ele>58.33333333333333</ele><time>2026-03-25T14:16:58.999Z</time></trkpt><trkpt lat="41.79560971467564" lon="12.492267262624026"><ele>58.5</ele><time>2026-03-25T14:16:59.999Z</time></trkpt><trkpt lat="41.79560280245243" lon="12.49238649789213"><ele>58.66666666666667</ele><time>2026-03-25T14:17:00.999Z</time></trkpt><trkpt lat="41.79558155968828" lon="12.492494081646251"><ele>58.833333333333336</ele><time>2026-03-25T14:17:01.999Z</time></trkpt><trkpt lat="41.795560950617556" lon="12.492588846485653"><ele>59.0</ele><time>2026-03-25T14:17:02.999Z</time></trkpt><trkpt lat="41.795549325514806" lon="12.492680084984508"><ele>59.0</ele><time>2026-03-25T14:17:03.999Z</time></trkpt><trkpt lat="41.79553848257609" lon="12.492766021082696"><ele>59.00000000000001</ele><time>2026-03-25T14:17:04.999Z</time></trkpt><trkpt lat="41.79550956857947" lon="12.492916964436827"><ele>59.00000000000001</ele><time>2026-03-25T14:17:06.999Z</time></trkpt><trkpt lat="41.7954823092953" lon="12.493059218645175"><ele>59.0</ele><time>2026-03-25T14:17:08.999Z</time></trkpt><trkpt lat="41.79545546866527" lon="12.493219883497641"><ele>59.0</ele><time>2026-03-25T14:17:10.999Z</time></trkpt><trkpt lat="41.79543722199609" lon="12.493306662958302"><ele>58.5</ele><time>2026-03-25T14:17:11.999Z</time></trkpt><trkpt lat="41.795415790772225" lon="12.493476821658428"><ele>58.0</ele><time>2026-03-25T14:17:13.999Z</time></trkpt><trkpt lat="41.79539920454037" lon="12.493642285233234"><ele>57.5</ele><time>2026-03-25T14:17:15.999Z</time></trkpt><trkpt lat="41.795385305176744" lon="12.493808756061066"><ele>57.0</ele><time>2026-03-25T14:17:17.999Z</time></trkpt><trkpt lat="41.79536333675272" lon="12.493976813077763"><ele>57.0</ele><time>2026-03-25T14:17:19.999Z</time></trkpt><trkpt lat="41.79534721951257" lon="12.494138213686975"><ele>57.0</ele><time>2026-03-25T14:17:21.999Z</time></trkpt><trkpt lat="41.79532970283119" lon="12.49430362743375"><ele>57.0</ele><time>2026-03-25T14:17:23.999Z</time></trkpt><trkpt lat="41.79532100084854" lon="12.49438943597298"><ele>57.0</ele><time>2026-03-25T14:17:24.999Z</time></trkpt><trkpt lat="41.7953014115315" lon="12.494552690471208"><ele>57.0</ele><time>2026-03-25T14:17:26.999Z</time></trkpt><trkpt lat="41.79528198032337" lon="12.494714867995409"><ele>57.0</ele><time>2026-03-25T14:17:28.999Z</time></trkpt><trkpt lat="41.79525982530615" lon="12.494877881506913"><ele>57.0</ele><time>2026-03-25T14:17:30.999Z</time></trkpt><trkpt lat="41.79525066584603" lon="12.495044121689036"><ele>57.0</ele><time>2026-03-25T14:17:32.999Z</time></trkpt><trkpt lat="41.795238088485306" lon="12.495205154744946"><ele>57.0</ele><time>2026-03-25T14:17:34.999Z</time></trkpt><trkpt lat="41.795215929509645" lon="12.495354627959253"><ele>57.0</ele><time>2026-03-25T14:17:36.999Z</time></trkpt><trkpt lat="41.79520626225976" lon="12.495438393505893"><ele>57.0</ele><time>2026-03-25T14:17:37.999Z</time></trkpt><trkpt lat="41.795180212805846" lon="12.49559271782225"><ele>57.0</ele><time>2026-03-25T14:17:39.999Z</time></trkpt><trkpt lat="41.79516453590346" lon="12.495761441378336"><ele>57.0</ele><time>2026-03-25T14:17:41.999Z</time></trkpt><trkpt lat="41.79516582666532" lon="12.495920106522199"><ele>57.0</ele><time>2026-03-25T14:17:43.999Z</time></trkpt><trkpt lat="41.79519632069656" lon="12.496082138147505"><ele>57.2</ele><time>2026-03-25T14:17:45.999Z</time></trkpt><trkpt lat="41.7951796317274" lon="12.49624013083851"><ele>57.400000000000006</ele><time>2026-03-25T14:17:47.999Z</time></trkpt><trkpt lat="41.79515872362049" lon="12.496377448288312"><ele>57.599999999999994</ele><time>2026-03-25T14:17:49.998Z</time></trkpt><trkpt lat="41.79514257255138" lon="12.496513739019925"><ele>57.8</ele><time>2026-03-25T14:17:51.998Z</time></trkpt><trkpt lat="41.79512923845222" lon="12.496655052043014"><ele>58.0</ele><time>2026-03-25T14:17:53.998Z</time></trkpt><trkpt lat="41.79508883788671" lon="12.49679503839442"><ele>58.571428571428584</ele><time>2026-03-25T14:17:55.998Z</time></trkpt><trkpt lat="41.79502536386626" lon="12.496842713093624"><ele>59.142857142857146</ele><time>2026-03-25T14:17:56.998Z</time></trkpt><trkpt lat="41.794956395448835" lon="12.496832178709521"><ele>59.71428571428572</ele><time>2026-03-25T14:17:57.998Z</time></trkpt><trkpt lat="41.79490160030992" lon="12.496776383460817"><ele>60.28571428571429</ele><time>2026-03-25T14:17:58.998Z</time></trkpt><trkpt lat="41.79485693694551" lon="12.496699525413685"><ele>60.85714285714286</ele><time>2026-03-25T14:17:59.998Z</time></trkpt><trkpt lat="41.79480301055564" lon="12.49664265448071"><ele>61.42857142857143</ele><time>2026-03-25T14:18:01Z</time></trkpt><trkpt lat="41.7947543622319" lon="12.496589004216744"><ele>62.0</ele><time>2026-03-25T14:18:02Z</time></trkpt><trkpt lat="41.79469974043218" lon="12.496537627039546"><ele>62.0</ele><time>2026-03-25T14:18:03Z</time></trkpt><trkpt lat="41.794596922814634" lon="12.49644378673831"><ele>62.0</ele><time>2026-03-25T14:18:05Z</time></trkpt><trkpt lat="41.79450616446009" lon="12.496349846237264"><ele>62.0</ele><time>2026-03-25T14:18:07Z</time></trkpt><trkpt lat="41.79440314025352" lon="12.496249376363247"><ele>62.0</ele><time>2026-03-25T14:18:09Z</time></trkpt><trkpt lat="41.79430448449056" lon="12.496155336673892"><ele>61.75</ele><time>2026-03-25T14:18:11Z</time></trkpt><trkpt lat="41.79420970516437" lon="12.496066697131086"><ele>61.5</ele><time>2026-03-25T14:18:13Z</time></trkpt><trkpt lat="41.79411281564689" lon="12.495957952264412"><ele>61.25</ele><time>2026-03-25T14:18:15Z</time></trkpt><trkpt lat="41.79410599442529" lon="12.495754131259515"><ele>61.0</ele><time>2026-03-25T14:18:16Z</time></trkpt><trkpt lat="41.7940081861463" lon="12.495707180940002"><ele>61.0</ele><time>2026-03-25T14:18:18Z</time></trkpt><trkpt lat="41.79391071724153" lon="12.49562922754852"><ele>60.99999999999999</ele><time>2026-03-25T14:18:20Z</time></trkpt><trkpt lat="41.79382354398633" lon="12.49554176050893"><ele>60.99999999999999</ele><time>2026-03-25T14:18:22Z</time></trkpt><trkpt lat="41.79374034734196" lon="12.495453040203481"><ele>61.0</ele><time>2026-03-25T14:18:24Z</time></trkpt><trkpt lat="41.79366232284941" lon="12.495369836482835"><ele>61.0</ele><time>2026-03-25T14:18:26Z</time></trkpt><trkpt lat="41.79357854432503" lon="12.495282331708111"><ele>60.8</ele><time>2026-03-25T14:18:28Z</time></trkpt><trkpt lat="41.79350798702311" lon="12.495195399246997"><ele>60.599999999999994</ele><time>2026-03-25T14:18:30Z</time></trkpt><trkpt lat="41.7934427068575" lon="12.49510028368454"><ele>60.4</ele><time>2026-03-25T14:18:32Z</time></trkpt><trkpt lat="41.79338458557706" lon="12.494999608677109"><ele>60.2</ele><time>2026-03-25T14:18:34Z</time></trkpt><trkpt lat="41.7933353046571" lon="12.49489711227182"><ele>60.0</ele><time>2026-03-25T14:18:36Z</time></trkpt><trkpt lat="41.79328893312101" lon="12.494822990961904"><ele>60.0</ele><time>2026-03-25T14:18:38Z</time></trkpt><trkpt lat="41.793262058234845" lon="12.494723545627627"><ele>60.0</ele><time>2026-03-25T14:18:40Z</time></trkpt><trkpt lat="41.79321588216136" lon="12.494613485667845"><ele>60.0</ele><time>2026-03-25T14:18:42Z</time></trkpt><trkpt lat="41.793035623643235" lon="12.494686859143124"><ele>60.0</ele><time>2026-03-25T14:18:43Z</time></trkpt><trkpt lat="41.793057800191676" lon="12.49459523342117"><ele>60.0</ele><time>2026-03-25T14:18:45Z</time></trkpt><trkpt lat="41.79312953598884" lon="12.494448456045648"><ele>61.5</ele><time>2026-03-25T14:18:47Z</time></trkpt><trkpt lat="41.7930690539453" lon="12.49434551816497"><ele>63.0</ele><time>2026-03-25T14:18:48.999Z</time></trkpt><trkpt lat="41.79288549882346" lon="12.494523572315984"><ele>64.5</ele><time>2026-03-25T14:18:49.999Z</time></trkpt><trkpt lat="41.79277673790164" lon="12.494485076764672"><ele>66.0</ele><time>2026-03-25T14:18:51.999Z</time></trkpt><trkpt lat="41.79266069053258" lon="12.4944439176431"><ele>66.0</ele><time>2026-03-25T14:18:53.999Z</time></trkpt><trkpt lat="41.79255628177475" lon="12.494405634429166"><ele>66.0</ele><time>2026-03-25T14:18:55.999Z</time></trkpt><trkpt lat="41.79249428224299" lon="12.494382904449362"><ele>66.0</ele><time>2026-03-25T14:18:56.999Z</time></trkpt><trkpt lat="41.7923876540865" lon="12.494343807453014"><ele>66.0</ele><time>2026-03-25T14:18:58.999Z</time></trkpt><trkpt lat="41.79228610700971" lon="12.494305960606889"><ele>66.0</ele><time>2026-03-25T14:19:00.999Z</time></trkpt><trkpt lat="41.792199574473436" lon="12.494273543199627"><ele>66.0</ele><time>2026-03-25T14:19:02.999Z</time></trkpt><trkpt lat="41.792238016949156" lon="12.49387359188357"><ele>66.0</ele><time>2026-03-25T14:19:05.999Z</time></trkpt><trkpt lat="41.79220528796895" lon="12.493733962833293"><ele>66.0</ele><time>2026-03-25T14:19:07.999Z</time></trkpt><trkpt lat="41.79217406388949" lon="12.493603118934491"><ele>66.8</ele><time>2026-03-25T14:19:09.999Z</time></trkpt><trkpt lat="41.79213886209529" lon="12.493459575064401"><ele>67.6</ele><time>2026-03-25T14:19:11.999Z</time></trkpt><trkpt lat="41.79212224595214" lon="12.493343278443653"><ele>68.4</ele><time>2026-03-25T14:19:13.999Z</time></trkpt><trkpt lat="41.792078314463126" lon="12.493228948057453"><ele>69.2</ele><time>2026-03-25T14:19:15.999Z</time></trkpt><trkpt lat="41.792042076179136" lon="12.493078521517768"><ele>70.0</ele><time>2026-03-25T14:19:17.999Z</time></trkpt><trkpt lat="41.79198927329589" lon="12.492970473055111"><ele>69.8</ele><time>2026-03-25T14:19:19.999Z</time></trkpt><trkpt lat="41.79194845602144" lon="12.492832575424126"><ele>69.6</ele><time>2026-03-25T14:19:21.999Z</time></trkpt><trkpt lat="41.79192229323984" lon="12.492695050608598"><ele>69.4</ele><time>2026-03-25T14:19:23.999Z</time></trkpt><trkpt lat="41.79191277835414" lon="12.492573442462355"><ele>69.2</ele><time>2026-03-25T14:19:25.999Z</time></trkpt><trkpt lat="41.79187982108865" lon="12.492431023140186"><ele>69.0</ele><time>2026-03-25T14:19:27.999Z</time></trkpt><trkpt lat="41.79184919005638" lon="12.492289308061192"><ele>68.8</ele><time>2026-03-25T14:19:29.999Z</time></trkpt><trkpt lat="41.79177901643244" lon="12.492191996636805"><ele>68.60000000000001</ele><time>2026-03-25T14:19:31.999Z</time></trkpt><trkpt lat="41.79177699061015" lon="12.492078070991015"><ele>68.4</ele><time>2026-03-25T14:19:33.999Z</time></trkpt><trkpt lat="41.791799000892354" lon="12.49197300561917"><ele>68.2</ele><time>2026-03-25T14:19:35.999Z</time></trkpt><trkpt lat="41.79180759961002" lon="12.491833437241615"><ele>68.0</ele><time>2026-03-25T14:19:37.999Z</time></trkpt><trkpt lat="41.791753229040175" lon="12.491716543362527"><ele>67.16666666666667</ele><time>2026-03-25T14:19:39.999Z</time></trkpt><trkpt lat="41.79169302744097" lon="12.491587351839073"><ele>66.33333333333334</ele><time>2026-03-25T14:19:41.999Z</time></trkpt><trkpt lat="41.79167506188762" lon="12.4914994973626"><ele>65.5</ele><time>2026-03-25T14:19:42.999Z</time></trkpt><trkpt lat="41.79165527633862" lon="12.49141442586589"><ele>64.66666666666667</ele><time>2026-03-25T14:19:43.999Z</time></trkpt><trkpt lat="41.7916395244531" lon="12.491331599591822"><ele>63.833333333333336</ele><time>2026-03-25T14:19:44.999Z</time></trkpt><trkpt lat="41.791604547335645" lon="12.491187667672603"><ele>63.0</ele><time>2026-03-25T14:19:46.999Z</time></trkpt><trkpt lat="41.79156077603816" lon="12.491041202506839"><ele>62.599999999999994</ele><time>2026-03-25T14:19:48.999Z</time></trkpt><trkpt lat="41.79151311947953" lon="12.490893411083908"><ele>62.199999999999996</ele><time>2026-03-25T14:19:50.999Z</time></trkpt><trkpt lat="41.79148978756722" lon="12.49073155152206"><ele>61.8</ele><time>2026-03-25T14:19:52.999Z</time></trkpt><trkpt lat="41.79144000371699" lon="12.490586642612394"><ele>61.4</ele><time>2026-03-25T14:19:54.998Z</time></trkpt><trkpt lat="41.79141983659563" lon="12.490504923395196"><ele>61.0</ele><time>2026-03-25T14:19:55.998Z</time></trkpt><trkpt lat="41.79140296155238" lon="12.49042274172983"><ele>61.0</ele><time>2026-03-25T14:19:56.998Z</time></trkpt><trkpt lat="41.79135792818849" lon="12.49027016949782"><ele>60.99999999999999</ele><time>2026-03-25T14:19:58.998Z</time></trkpt><trkpt lat="41.79130737328706" lon="12.490117977051298"><ele>60.99999999999999</ele><time>2026-03-25T14:20:00.998Z</time></trkpt><trkpt lat="41.79128399252854" lon="12.490039166252078"><ele>61.0</ele><time>2026-03-25T14:20:01.998Z</time></trkpt><trkpt lat="41.791239149828066" lon="12.48988692416321"><ele>61.0</ele><time>2026-03-25T14:20:03.998Z</time></trkpt><trkpt lat="41.79119517292937" lon="12.489737594621763"><ele>61.0</ele><time>2026-03-25T14:20:05.998Z</time></trkpt><trkpt lat="41.791145651956185" lon="12.489593405955025"><ele>60.99999999999999</ele><time>2026-03-25T14:20:08Z</time></trkpt><trkpt lat="41.791120867740695" lon="12.489507108825357"><ele>60.99999999999999</ele><time>2026-03-25T14:20:09Z</time></trkpt><trkpt lat="41.7910857623219" lon="12.489350203972469"><ele>61.0</ele><time>2026-03-25T14:20:11Z</time></trkpt><trkpt lat="41.79103612240555" lon="12.489203090654195"><ele>61.0</ele><time>2026-03-25T14:20:13Z</time></trkpt><trkpt lat="41.79097025627904" lon="12.48905573711728"><ele>61.4</ele><time>2026-03-25T14:20:15Z</time></trkpt><trkpt lat="41.79085703522204" lon="12.489012859129884"><ele>61.8</ele><time>2026-03-25T14:20:17Z</time></trkpt><trkpt lat="41.790747432320515" lon="12.48895275029692"><ele>62.199999999999996</ele><time>2026-03-25T14:20:19Z</time></trkpt><trkpt lat="41.79063186699974" lon="12.488906863604747"><ele>62.599999999999994</ele><time>2026-03-25T14:20:21Z</time></trkpt><trkpt lat="41.79056597480466" lon="12.488885951682063"><ele>63.0</ele><time>2026-03-25T14:20:22Z</time></trkpt><trkpt lat="41.79044819147148" lon="12.488851777116784"><ele>63.0</ele><time>2026-03-25T14:20:24Z</time></trkpt><trkpt lat="41.790333972780495" lon="12.488810522943531"><ele>63.0</ele><time>2026-03-25T14:20:26Z</time></trkpt><trkpt lat="41.79026417744157" lon="12.488582214990247"><ele>63.0</ele><time>2026-03-25T14:20:28Z</time></trkpt><trkpt lat="41.79015068161241" lon="12.488551068888912"><ele>63.0</ele><time>2026-03-25T14:20:30Z</time></trkpt><trkpt lat="41.790086154860354" lon="12.48853425608383"><ele>63.0</ele><time>2026-03-25T14:20:31Z</time></trkpt><trkpt lat="41.789979424458345" lon="12.488505250333702"><ele>63.0</ele><time>2026-03-25T14:20:33Z</time></trkpt><trkpt lat="41.78986611123256" lon="12.488472500034506"><ele>63.0</ele><time>2026-03-25T14:20:35Z</time></trkpt><trkpt lat="41.789767477953816" lon="12.488443992643745"><ele>63.0</ele><time>2026-03-25T14:20:37Z</time></trkpt><trkpt lat="41.78965638123045" lon="12.488411625105575"><ele>63.0</ele><time>2026-03-25T14:20:39Z</time></trkpt><trkpt lat="41.789593675994716" lon="12.488393366208856"><ele>63.0</ele><time>2026-03-25T14:20:40Z</time></trkpt><trkpt lat="41.78953191623196" lon="12.488375382599987"><ele>63.0</ele><time>2026-03-25T14:20:41Z</time></trkpt><trkpt lat="41.789408292820966" lon="12.488344960868218"><ele>63.0</ele><time>2026-03-25T14:20:43Z</time></trkpt><trkpt lat="41.789317092636644" lon="12.488382031734021"><ele>63.0</ele><time>2026-03-25T14:20:44Z</time></trkpt><trkpt lat="41.78928747012001" lon="12.488307214502814"><ele>63.0</ele><time>2026-03-25T14:20:48Z</time></trkpt><trkpt lat="41.78922535487889" lon="12.488119599958884"><ele>63.0</ele><time>2026-03-25T14:20:52Z</time></trkpt><trkpt lat="41.78921039156068" lon="12.488036594732435"><ele>63.0</ele><time>2026-03-25T14:20:53Z</time></trkpt><trkpt lat="41.78917688734566" lon="12.487888224091332"><ele>63.0</ele><time>2026-03-25T14:20:54.999Z</time></trkpt><trkpt lat="41.7891363181663" lon="12.487729266739885"><ele>63.0</ele><time>2026-03-25T14:20:56.999Z</time></trkpt><trkpt lat="41.78903376165878" lon="12.487640471122193"><ele>63.0</ele><time>2026-03-25T14:20:58.999Z</time></trkpt><trkpt lat="41.78892469717468" lon="12.487624324933341"><ele>63.0</ele><time>2026-03-25T14:21:00.999Z</time></trkpt><trkpt lat="41.788835841608716" lon="12.487656311439604"><ele>63.0</ele><time>2026-03-25T14:21:02.999Z</time></trkpt><trkpt lat="41.788752895577474" lon="12.48772536927112"><ele>63.0</ele><time>2026-03-25T14:21:04.999Z</time></trkpt><trkpt lat="41.78865953536141" lon="12.487789269662068"><ele>63.0</ele><time>2026-03-25T14:21:06.999Z</time></trkpt><trkpt lat="41.788565010224595" lon="12.487866749490777"><ele>63.0</ele><time>2026-03-25T14:21:08.999Z</time></trkpt><trkpt lat="41.7884553096392" lon="12.487907452806716"><ele>61.8</ele><time>2026-03-25T14:21:10.999Z</time></trkpt><trkpt lat="41.78834682969985" lon="12.487927169498683"><ele>60.599999999999994</ele><time>2026-03-25T14:21:12.999Z</time></trkpt><trkpt lat="41.78823936062302" lon="12.487936815254539"><ele>59.400000000000006</ele><time>2026-03-25T14:21:14.999Z</time></trkpt><trkpt lat="41.78813494272818" lon="12.487936690653713"><ele>58.2</ele><time>2026-03-25T14:21:16.999Z</time></trkpt><trkpt lat="41.78802869576525" lon="12.487908615635403"><ele>57.0</ele><time>2026-03-25T14:21:18.999Z</time></trkpt><trkpt lat="41.78796315290222" lon="12.487881473714427"><ele>57.0</ele><time>2026-03-25T14:21:19.999Z</time></trkpt><trkpt lat="41.78790387354534" lon="12.487841852673416"><ele>57.0</ele><time>2026-03-25T14:21:20.999Z</time></trkpt><trkpt lat="41.787847462356716" lon="12.487792263041952"><ele>57.0</ele><time>2026-03-25T14:21:21.999Z</time></trkpt><trkpt lat="41.78779644118167" lon="12.487739171524915"><ele>57.0</ele><time>2026-03-25T14:21:22.999Z</time></trkpt><trkpt lat="41.787694863332646" lon="12.487631224719978"><ele>57.0</ele><time>2026-03-25T14:21:24.999Z</time></trkpt><trkpt lat="41.78764770514787" lon="12.487556228627279"><ele>57.0</ele><time>2026-03-25T14:21:25.999Z</time></trkpt><trkpt lat="41.78760576167985" lon="12.487475065592697"><ele>55.2</ele><time>2026-03-25T14:21:26.999Z</time></trkpt><trkpt lat="41.787580164346544" lon="12.48736988375657"><ele>53.400000000000006</ele><time>2026-03-25T14:21:27.999Z</time></trkpt><trkpt lat="41.78757889464661" lon="12.487249510007732"><ele>51.599999999999994</ele><time>2026-03-25T14:21:28.999Z</time></trkpt><trkpt lat="41.78758305173132" lon="12.487122487418777"><ele>49.8</ele><time>2026-03-25T14:21:29.999Z</time></trkpt><trkpt lat="41.78744879954193" lon="12.486969293351265"><ele>48.0</ele><time>2026-03-25T14:21:30.999Z</time></trkpt><trkpt lat="41.78745849984107" lon="12.486849133146427"><ele>48.0</ele><time>2026-03-25T14:21:31.999Z</time></trkpt><trkpt lat="41.78746813779239" lon="12.486732808949997"><ele>48.0</ele><time>2026-03-25T14:21:32.999Z</time></trkpt><trkpt lat="41.787475890734484" lon="12.486640075136219"><ele>48.0</ele><time>2026-03-25T14:21:33.999Z</time></trkpt><trkpt lat="41.78748324460411" lon="12.486552114677806"><ele>48.0</ele><time>2026-03-25T14:21:34.999Z</time></trkpt><trkpt lat="41.78749107561858" lon="12.486458447078691"><ele>48.0</ele><time>2026-03-25T14:21:35.999Z</time></trkpt><trkpt lat="41.7874986081292" lon="12.486367613384148"><ele>48.0</ele><time>2026-03-25T14:21:36.999Z</time></trkpt><trkpt lat="41.787510856844385" lon="12.48621566807037"><ele>48.0</ele><time>2026-03-25T14:21:38.999Z</time></trkpt><trkpt lat="41.787519969028324" lon="12.486095556995586"><ele>48.0</ele><time>2026-03-25T14:21:40.999Z</time></trkpt><trkpt lat="41.78753196745309" lon="12.485956137702038"><ele>48.0</ele><time>2026-03-25T14:21:42.999Z</time></trkpt><trkpt lat="41.78754004749155" lon="12.485869199255708"><ele>48.0</ele><time>2026-03-25T14:21:43.999Z</time></trkpt><trkpt lat="41.78755297299093" lon="12.485726695666894"><ele>48.0</ele><time>2026-03-25T14:21:45.999Z</time></trkpt><trkpt lat="41.787565289287485" lon="12.485594734851016"><ele>47.8</ele><time>2026-03-25T14:21:47.999Z</time></trkpt><trkpt lat="41.78758589587063" lon="12.48542412685039"><ele>47.599999999999994</ele><time>2026-03-25T14:21:49.999Z</time></trkpt><trkpt lat="41.78760023829722" lon="12.4853331296993"><ele>47.400000000000006</ele><time>2026-03-25T14:21:50.999Z</time></trkpt><trkpt lat="41.7876348076611" lon="12.485159420211062"><ele>47.2</ele><time>2026-03-25T14:21:52.999Z</time></trkpt><trkpt lat="41.787664836320985" lon="12.485059338135367"><ele>47.0</ele><time>2026-03-25T14:21:53.999Z</time></trkpt><trkpt lat="41.78770432398191" lon="12.484974347727071"><ele>46.6</ele><time>2026-03-25T14:21:54.999Z</time></trkpt><trkpt lat="41.78773531065975" lon="12.484888824354508"><ele>46.2</ele><time>2026-03-25T14:21:55.999Z</time></trkpt><trkpt lat="41.7877864605079" lon="12.484729521411056"><ele>45.8</ele><time>2026-03-25T14:21:57.999Z</time></trkpt><trkpt lat="41.7878308077768" lon="12.484570159119906"><ele>45.4</ele><time>2026-03-25T14:21:59.999Z</time></trkpt><trkpt lat="41.787861560811436" lon="12.484418209283543"><ele>45.0</ele><time>2026-03-25T14:22:01.998Z</time></trkpt><trkpt lat="41.78787600575792" lon="12.484323390633007"><ele>45.0</ele><time>2026-03-25T14:22:03.998Z</time></trkpt><trkpt lat="41.78787671543117" lon="12.484185386965539"><ele>45.0</ele><time>2026-03-25T14:22:06.998Z</time></trkpt><trkpt lat="41.78788837520108" lon="12.484097767568379"><ele>45.0</ele><time>2026-03-25T14:22:07.998Z</time></trkpt><trkpt lat="41.787889192520495" lon="12.484003083538763"><ele>45.0</ele><time>2026-03-25T14:22:08.998Z</time></trkpt><trkpt lat="41.78788592468106" lon="12.483913788424278"><ele>45.0</ele><time>2026-03-25T14:22:09.998Z</time></trkpt><trkpt lat="41.78787952087172" lon="12.483825150052638"><ele>45.0</ele><time>2026-03-25T14:22:10.998Z</time></trkpt><trkpt lat="41.78786893305528" lon="12.483657381089097"><ele>45.2</ele><time>2026-03-25T14:22:13Z</time></trkpt><trkpt lat="41.78786557984357" lon="12.483493752449409"><ele>45.4</ele><time>2026-03-25T14:22:15Z</time></trkpt><trkpt lat="41.78782210860712" lon="12.483405599021346"><ele>45.599999999999994</ele><time>2026-03-25T14:22:16Z</time></trkpt><trkpt lat="41.78783584326044" lon="12.483314585763823"><ele>45.8</ele><time>2026-03-25T14:22:17Z</time></trkpt><trkpt lat="41.78786458357773" lon="12.483154081728284"><ele>46.0</ele><time>2026-03-25T14:22:19Z</time></trkpt><trkpt lat="41.78789059571721" lon="12.482998287589453"><ele>46.4</ele><time>2026-03-25T14:22:21Z</time></trkpt><trkpt lat="41.787917064232474" lon="12.482841641650166"><ele>46.8</ele><time>2026-03-25T14:22:23Z</time></trkpt><trkpt lat="41.78794037565792" lon="12.482712019687007"><ele>47.199999999999996</ele><time>2026-03-25T14:22:25Z</time></trkpt><trkpt lat="41.788044602457994" lon="12.482611808154804"><ele>47.599999999999994</ele><time>2026-03-25T14:22:27Z</time></trkpt><trkpt lat="41.78809938167891" lon="12.482553403578503"><ele>48.0</ele><time>2026-03-25T14:22:28Z</time></trkpt><trkpt lat="41.78814683590405" lon="12.482494661450211"><ele>48.0</ele><time>2026-03-25T14:22:29Z</time></trkpt><trkpt lat="41.788188015204305" lon="12.482430399109914"><ele>48.0</ele><time>2026-03-25T14:22:30Z</time></trkpt><trkpt lat="41.78821418830992" lon="12.48235292358499"><ele>48.0</ele><time>2026-03-25T14:22:31Z</time></trkpt><trkpt lat="41.788250213659445" lon="12.48219082767839"><ele>48.0</ele><time>2026-03-25T14:22:33Z</time></trkpt><trkpt lat="41.78826278708461" lon="12.482104293959313"><ele>48.0</ele><time>2026-03-25T14:22:34Z</time></trkpt><trkpt lat="41.788267691637834" lon="12.482018346613996"><ele>48.0</ele><time>2026-03-25T14:22:35Z</time></trkpt><trkpt lat="41.78826190699217" lon="12.48185029626572"><ele>47.599999999999994</ele><time>2026-03-25T14:22:37Z</time></trkpt><trkpt lat="41.78821523158653" lon="12.481703672343489"><ele>47.199999999999996</ele><time>2026-03-25T14:22:39Z</time></trkpt><trkpt lat="41.78818443840859" lon="12.48162506986486"><ele>46.8</ele><time>2026-03-25T14:22:40Z</time></trkpt><trkpt lat="41.78811117458679" lon="12.481512643648035"><ele>46.4</ele><time>2026-03-25T14:22:42Z</time></trkpt><trkpt lat="41.78802773753332" lon="12.481395810381875"><ele>46.0</ele><time>2026-03-25T14:22:44Z</time></trkpt><trkpt lat="41.787926419604176" lon="12.481334930415732"><ele>46.0</ele><time>2026-03-25T14:22:46Z</time></trkpt><trkpt lat="41.78785786505291" lon="12.481297294156652"><ele>46.0</ele><time>2026-03-25T14:22:48Z</time></trkpt><trkpt lat="41.78790359855189" lon="12.481136416400805"><ele>46.0</ele><time>2026-03-25T14:22:49Z</time></trkpt><trkpt lat="41.78777518354305" lon="12.481056173098109"><ele>46.0</ele><time>2026-03-25T14:22:51Z</time></trkpt><trkpt lat="41.78767534307171" lon="12.481083550131679"><ele>46.0</ele><time>2026-03-25T14:22:53Z</time></trkpt><trkpt lat="41.78757280082936" lon="12.481100333734686"><ele>45.75</ele><time>2026-03-25T14:22:55Z</time></trkpt><trkpt lat="41.787481008308525" lon="12.481149248189718"><ele>45.5</ele><time>2026-03-25T14:22:57Z</time></trkpt><trkpt lat="41.78740662217153" lon="12.48115114612555"><ele>45.25</ele><time>2026-03-25T14:23:01.999Z</time></trkpt><trkpt lat="41.78734525040772" lon="12.481173965748484"><ele>45.0</ele><time>2026-03-25T14:23:03.999Z</time></trkpt><trkpt lat="41.78724166441395" lon="12.480835775247884"><ele>45.0</ele><time>2026-03-25T14:23:04.999Z</time></trkpt><trkpt lat="41.787137455871154" lon="12.48074755227855"><ele>45.0</ele><time>2026-03-25T14:23:06.999Z</time></trkpt><trkpt lat="41.787029552835016" lon="12.480685093766985"><ele>45.0</ele><time>2026-03-25T14:23:08.999Z</time></trkpt><trkpt lat="41.78692396518404" lon="12.480639489730212"><ele>45.0</ele><time>2026-03-25T14:23:10.999Z</time></trkpt><trkpt lat="41.78680269867993" lon="12.48061199016289"><ele>45.75</ele><time>2026-03-25T14:23:12.999Z</time></trkpt><trkpt lat="41.786684705090266" lon="12.480580157554618"><ele>46.5</ele><time>2026-03-25T14:23:14.999Z</time></trkpt><trkpt lat="41.78658320939748" lon="12.480548584888739"><ele>47.25</ele><time>2026-03-25T14:23:16.999Z</time></trkpt><trkpt lat="41.78645931104836" lon="12.480512803043007"><ele>48.0</ele><time>2026-03-25T14:23:18.999Z</time></trkpt><trkpt lat="41.786353854098536" lon="12.480486574966747"><ele>48.0</ele><time>2026-03-25T14:23:20.999Z</time></trkpt><trkpt lat="41.78623979353641" lon="12.480457968300144"><ele>48.0</ele><time>2026-03-25T14:23:22.999Z</time></trkpt><trkpt lat="41.78612161381054" lon="12.480414439266289"><ele>48.0</ele><time>2026-03-25T14:23:24.999Z</time></trkpt><trkpt lat="41.78602744897393" lon="12.480361678781028"><ele>48.0</ele><time>2026-03-25T14:23:26.999Z</time></trkpt><trkpt lat="41.78592425034212" lon="12.480277525500949"><ele>48.5</ele><time>2026-03-25T14:23:28.999Z</time></trkpt><trkpt lat="41.785841527542225" lon="12.48028038899329"><ele>49.0</ele><time>2026-03-25T14:23:29.999Z</time></trkpt><trkpt lat="41.78579179815039" lon="12.480225318780763"><ele>49.5</ele><time>2026-03-25T14:23:30.999Z</time></trkpt><trkpt lat="41.78570784697898" lon="12.480115169818642"><ele>50.0</ele><time>2026-03-25T14:23:32.999Z</time></trkpt><trkpt lat="41.78566514973038" lon="12.480041425138587"><ele>50.5</ele><time>2026-03-25T14:23:33.999Z</time></trkpt><trkpt lat="41.785628307441165" lon="12.47996637191212"><ele>51.0</ele><time>2026-03-25T14:23:34.999Z</time></trkpt><trkpt lat="41.785569090823294" lon="12.47982201933571"><ele>51.0</ele><time>2026-03-25T14:23:36.999Z</time></trkpt><trkpt lat="41.78554314516038" lon="12.479737175796283"><ele>51.0</ele><time>2026-03-25T14:23:37.999Z</time></trkpt><trkpt lat="41.78552545876357" lon="12.47965302393866"><ele>51.0</ele><time>2026-03-25T14:23:38.999Z</time></trkpt><trkpt lat="41.78550309350123" lon="12.479512845653824"><ele>51.0</ele><time>2026-03-25T14:23:40.999Z</time></trkpt><trkpt lat="41.78550141389997" lon="12.479347260971338"><ele>51.0</ele><time>2026-03-25T14:23:42.999Z</time></trkpt><trkpt lat="41.785455169343074" lon="12.479244154894344"><ele>50.33333333333333</ele><time>2026-03-25T14:23:44.999Z</time></trkpt><trkpt lat="41.78545162319861" lon="12.479115522822164"><ele>49.666666666666664</ele><time>2026-03-25T14:23:51.999Z</time></trkpt><trkpt lat="41.785151111672974" lon="12.479013221198452"><ele>49.0</ele><time>2026-03-25T14:23:54.999Z</time></trkpt><trkpt lat="41.78510146118414" lon="12.478899636787295"><ele>51.0</ele><time>2026-03-25T14:23:56.999Z</time></trkpt><trkpt lat="41.78507451174415" lon="12.478737586171425"><ele>53.0</ele><time>2026-03-25T14:23:58.999Z</time></trkpt><trkpt lat="41.78507399212396" lon="12.478589824884729"><ele>55.0</ele><time>2026-03-25T14:24:00.999Z</time></trkpt><trkpt lat="41.78502288037782" lon="12.478461796201076"><ele>57.0</ele><time>2026-03-25T14:24:02.999Z</time></trkpt><trkpt lat="41.78495351269538" lon="12.478322172584383"><ele>57.0</ele><time>2026-03-25T14:24:04.999Z</time></trkpt><trkpt lat="41.784866786473934" lon="12.478245036539786"><ele>57.0</ele><time>2026-03-25T14:24:06.999Z</time></trkpt><trkpt lat="41.78479031112841" lon="12.478177017830781"><ele>57.0</ele><time>2026-03-25T14:24:08.998Z</time></trkpt><trkpt lat="41.78469340798364" lon="12.478090830232063"><ele>57.0</ele><time>2026-03-25T14:24:10.998Z</time></trkpt><trkpt lat="41.784606641298254" lon="12.478013553535646"><ele>57.0</ele><time>2026-03-25T14:24:12.998Z</time></trkpt><trkpt lat="41.78452751109053" lon="12.477943033703198"><ele>57.0</ele><time>2026-03-25T14:24:14.998Z</time></trkpt><trkpt lat="41.78447347786292" lon="12.477894710373594"><ele>57.0</ele><time>2026-03-25T14:24:15.998Z</time></trkpt><trkpt lat="41.784419518328995" lon="12.477846452948995"><ele>57.0</ele><time>2026-03-25T14:24:16.998Z</time></trkpt><trkpt lat="41.78432932408749" lon="12.477766511842736"><ele>57.0</ele><time>2026-03-25T14:24:19Z</time></trkpt><trkpt lat="41.78425409963651" lon="12.477700090576917"><ele>57.0</ele><time>2026-03-25T14:24:21Z</time></trkpt><trkpt lat="41.78418063872495" lon="12.477635226473744"><ele>57.0</ele><time>2026-03-25T14:24:23Z</time></trkpt><trkpt lat="41.78411874752951" lon="12.477581095562806"><ele>57.0</ele><time>2026-03-25T14:24:25Z</time></trkpt><trkpt lat="41.78404988905433" lon="12.477522094323861"><ele>57.0</ele><time>2026-03-25T14:24:27Z</time></trkpt><trkpt lat="41.78395124004256" lon="12.477442658246227"><ele>57.0</ele><time>2026-03-25T14:24:29Z</time></trkpt><trkpt lat="41.78386577224317" lon="12.477378232562772"><ele>57.0</ele><time>2026-03-25T14:24:31Z</time></trkpt><trkpt lat="41.78377068173051" lon="12.477311320247825"><ele>57.0</ele><time>2026-03-25T14:24:33Z</time></trkpt><trkpt lat="41.783685076158875" lon="12.477252206818317"><ele>57.0</ele><time>2026-03-25T14:24:35Z</time></trkpt><trkpt lat="41.78358268419723" lon="12.47718692558404"><ele>57.0</ele><time>2026-03-25T14:24:37Z</time></trkpt><trkpt lat="41.783523957470926" lon="12.47714986162574"><ele>57.0</ele><time>2026-03-25T14:24:38Z</time></trkpt><trkpt lat="41.78341892850689" lon="12.477086950687404"><ele>57.0</ele><time>2026-03-25T14:24:40Z</time></trkpt><trkpt lat="41.783309134334075" lon="12.477021232951834"><ele>57.0</ele><time>2026-03-25T14:24:42Z</time></trkpt><trkpt lat="41.78324987250778" lon="12.476985761560783"><ele>57.166666666666664</ele><time>2026-03-25T14:24:43Z</time></trkpt><trkpt lat="41.783189613711336" lon="12.476949917935714"><ele>57.33333333333333</ele><time>2026-03-25T14:24:44Z</time></trkpt><trkpt lat="41.783077809307784" lon="12.47688471513072"><ele>57.5</ele><time>2026-03-25T14:24:46Z</time></trkpt><trkpt lat="41.78297196677198" lon="12.47682298771296"><ele>57.666666666666664</ele><time>2026-03-25T14:24:48Z</time></trkpt><trkpt lat="41.78291117754651" lon="12.47678753570605"><ele>57.83333333333333</ele><time>2026-03-25T14:24:49Z</time></trkpt><trkpt lat="41.782851638495025" lon="12.476752812281328"><ele>58.0</ele><time>2026-03-25T14:24:50Z</time></trkpt><trkpt lat="41.78274817058248" lon="12.476691243700714"><ele>57.599999999999994</ele><time>2026-03-25T14:24:52Z</time></trkpt><trkpt lat="41.78264772246855" lon="12.476631142768442"><ele>57.199999999999996</ele><time>2026-03-25T14:24:54Z</time></trkpt><trkpt lat="41.78259017779362" lon="12.476596278254092"><ele>56.8</ele><time>2026-03-25T14:24:55Z</time></trkpt><trkpt lat="41.78252854377588" lon="12.476558291569097"><ele>56.4</ele><time>2026-03-25T14:24:56Z</time></trkpt><trkpt lat="41.782425257565244" lon="12.47648885587998"><ele>56.0</ele><time>2026-03-25T14:24:58Z</time></trkpt><trkpt lat="41.78233169690374" lon="12.476418463842526"><ele>56.0</ele><time>2026-03-25T14:25:00Z</time></trkpt><trkpt lat="41.78223131257116" lon="12.47633725296597"><ele>56.0</ele><time>2026-03-25T14:25:02Z</time></trkpt><trkpt lat="41.78213893036092" lon="12.476258127681879"><ele>56.0</ele><time>2026-03-25T14:25:04Z</time></trkpt><trkpt lat="41.782042212227125" lon="12.47616822144984"><ele>56.0</ele><time>2026-03-25T14:25:05.999Z</time></trkpt><trkpt lat="41.7819464652334" lon="12.476074268665657"><ele>56.4</ele><time>2026-03-25T14:25:07.999Z</time></trkpt><trkpt lat="41.7818606863651" lon="12.475982186668185"><ele>56.8</ele><time>2026-03-25T14:25:09.999Z</time></trkpt><trkpt lat="41.78177559498541" lon="12.475883683193976"><ele>57.199999999999996</ele><time>2026-03-25T14:25:11.999Z</time></trkpt><trkpt lat="41.78169056560841" lon="12.475776003222462"><ele>57.599999999999994</ele><time>2026-03-25T14:25:13.999Z</time></trkpt><trkpt lat="41.78164441348404" lon="12.47571504845492"><ele>58.0</ele><time>2026-03-25T14:25:14.999Z</time></trkpt><trkpt lat="41.78156418727574" lon="12.475609090828387"><ele>58.25</ele><time>2026-03-25T14:25:16.999Z</time></trkpt><trkpt lat="41.78148959627762" lon="12.47550947992219"><ele>58.5</ele><time>2026-03-25T14:25:18.999Z</time></trkpt><trkpt lat="41.78141120045856" lon="12.475403366454977"><ele>58.75</ele><time>2026-03-25T14:25:20.999Z</time></trkpt><trkpt lat="41.781329605365414" lon="12.475292922552521"><ele>59.0</ele><time>2026-03-25T14:25:22.999Z</time></trkpt><trkpt lat="41.781243541568266" lon="12.475176430037767"><ele>58.6</ele><time>2026-03-25T14:25:24.999Z</time></trkpt><trkpt lat="41.78117375894558" lon="12.475082656086574"><ele>58.2</ele><time>2026-03-25T14:25:26.999Z</time></trkpt><trkpt lat="41.781100168126756" lon="12.474984956602832"><ele>57.800000000000004</ele><time>2026-03-25T14:25:28.999Z</time></trkpt><trkpt lat="41.78103832123802" lon="12.474902848425007"><ele>57.400000000000006</ele><time>2026-03-25T14:25:30.999Z</time></trkpt><trkpt lat="41.78098490101611" lon="12.474830418259176"><ele>57.0</ele><time>2026-03-25T14:25:32.999Z</time></trkpt><trkpt lat="41.780920129144704" lon="12.474739447666796"><ele>56.8</ele><time>2026-03-25T14:25:34.999Z</time></trkpt><trkpt lat="41.780859071656536" lon="12.474651112573069"><ele>56.6</ele><time>2026-03-25T14:25:36.999Z</time></trkpt><trkpt lat="41.78080963167212" lon="12.474578329247684"><ele>56.39999999999999</ele><time>2026-03-25T14:25:38.999Z</time></trkpt><trkpt lat="41.780739545728615" lon="12.474475089074334"><ele>56.199999999999996</ele><time>2026-03-25T14:25:41.999Z</time></trkpt><trkpt lat="41.780671250177576" lon="12.474374486239538"><ele>56.0</ele><time>2026-03-25T14:25:43.999Z</time></trkpt><trkpt lat="41.78060988562741" lon="12.474284093121076"><ele>56.0</ele><time>2026-03-25T14:25:45.999Z</time></trkpt><trkpt lat="41.780543793231026" lon="12.474186735650383"><ele>55.99999999999999</ele><time>2026-03-25T14:25:47.999Z</time></trkpt><trkpt lat="41.780474727707244" lon="12.474084998609406"><ele>55.99999999999999</ele><time>2026-03-25T14:25:49.999Z</time></trkpt><trkpt lat="41.78040077610169" lon="12.473976064128411"><ele>56.0</ele><time>2026-03-25T14:25:51.999Z</time></trkpt><trkpt lat="41.78033439253715" lon="12.473878277718475"><ele>56.0</ele><time>2026-03-25T14:25:53.999Z</time></trkpt><trkpt lat="41.78025035476653" lon="12.473754485830995"><ele>56.833333333333336</ele><time>2026-03-25T14:25:55.999Z</time></trkpt><trkpt lat="41.78020746621338" lon="12.47369149975382"><ele>57.66666666666667</ele><time>2026-03-25T14:25:56.999Z</time></trkpt><trkpt lat="41.78012900685565" lon="12.473577448768665"><ele>58.5</ele><time>2026-03-25T14:25:58.999Z</time></trkpt><trkpt lat="41.780054366827905" lon="12.47346894967725"><ele>59.33333333333333</ele><time>2026-03-25T14:26:00.999Z</time></trkpt><trkpt lat="41.78001048485204" lon="12.473405401021083"><ele>60.166666666666664</ele><time>2026-03-25T14:26:01.999Z</time></trkpt><trkpt lat="41.779965861825296" lon="12.473340920633714"><ele>61.0</ele><time>2026-03-25T14:26:02.999Z</time></trkpt><trkpt lat="41.77988712491481" lon="12.47322714556126"><ele>61.0</ele><time>2026-03-25T14:26:04.999Z</time></trkpt><trkpt lat="41.77984347941021" lon="12.473166034479615"><ele>60.99999999999999</ele><time>2026-03-25T14:26:05.999Z</time></trkpt><trkpt lat="41.77979782815213" lon="12.473105872591024"><ele>60.99999999999999</ele><time>2026-03-25T14:26:06.999Z</time></trkpt><trkpt lat="41.77970162551886" lon="12.472992497012159"><ele>61.0</ele><time>2026-03-25T14:26:08.999Z</time></trkpt><trkpt lat="41.77960224620057" lon="12.472897653139983"><ele>61.0</ele><time>2026-03-25T14:26:10.999Z</time></trkpt><trkpt lat="41.77949373254229" lon="12.472807349942158"><ele>60.599999999999994</ele><time>2026-03-25T14:26:12.998Z</time></trkpt><trkpt lat="41.77943565661688" lon="12.472765930174848"><ele>60.199999999999996</ele><time>2026-03-25T14:26:13.998Z</time></trkpt><trkpt lat="41.77933016270812" lon="12.4727023666446"><ele>59.800000000000004</ele><time>2026-03-25T14:26:15.998Z</time></trkpt><trkpt lat="41.77922398625821" lon="12.472654595390672"><ele>59.400000000000006</ele><time>2026-03-25T14:26:17.998Z</time></trkpt><trkpt lat="41.779107886482976" lon="12.47260403449098"><ele>59.0</ele><time>2026-03-25T14:26:19.998Z</time></trkpt><trkpt lat="41.77899593977622" lon="12.472551519915562"><ele>59.0</ele><time>2026-03-25T14:26:21.998Z</time></trkpt><trkpt lat="41.77889770825456" lon="12.472499974762004"><ele>59.00000000000001</ele><time>2026-03-25T14:26:23.998Z</time></trkpt><trkpt lat="41.77879299083618" lon="12.472432941499964"><ele>59.00000000000001</ele><time>2026-03-25T14:26:26Z</time></trkpt><trkpt lat="41.77873665583317" lon="12.472393715656324"><ele>59.0</ele><time>2026-03-25T14:26:27Z</time></trkpt><trkpt lat="41.77863564521434" lon="12.472315211062671"><ele>59.0</ele><time>2026-03-25T14:26:29Z</time></trkpt><trkpt lat="41.77853944844996" lon="12.472233641272881"><ele>59.5</ele><time>2026-03-25T14:26:31Z</time></trkpt><trkpt lat="41.778452488974004" lon="12.472153465747688"><ele>60.0</ele><time>2026-03-25T14:26:33Z</time></trkpt><trkpt lat="41.77835125291967" lon="12.472048650520842"><ele>60.5</ele><time>2026-03-25T14:26:35Z</time></trkpt><trkpt lat="41.77826439482189" lon="12.471941855302008"><ele>61.0</ele><time>2026-03-25T14:26:37Z</time></trkpt><trkpt lat="41.77818947984355" lon="12.471845504741564"><ele>61.0</ele><time>2026-03-25T14:26:39Z</time></trkpt><trkpt lat="41.7781014882178" lon="12.471731280966445"><ele>61.0</ele><time>2026-03-25T14:26:41Z</time></trkpt><trkpt lat="41.77801351100149" lon="12.471618317574851"><ele>61.0</ele><time>2026-03-25T14:26:43Z</time></trkpt><trkpt lat="41.77792894979097" lon="12.471509739961327"><ele>61.0</ele><time>2026-03-25T14:26:45Z</time></trkpt><trkpt lat="41.777843855115016" lon="12.471400477854932"><ele>61.0</ele><time>2026-03-25T14:26:47Z</time></trkpt><trkpt lat="41.777758478047645" lon="12.47129085275142"><ele>61.0</ele><time>2026-03-25T14:26:49Z</time></trkpt><trkpt lat="41.777670231365114" lon="12.471178559841768"><ele>61.0</ele><time>2026-03-25T14:26:51Z</time></trkpt><trkpt lat="41.77758754967456" lon="12.471074513094331"><ele>61.0</ele><time>2026-03-25T14:26:53Z</time></trkpt><trkpt lat="41.7774951754528" lon="12.470959971403168"><ele>61.166666666666664</ele><time>2026-03-25T14:26:55Z</time></trkpt><trkpt lat="41.77744836459852" lon="12.470903187814447"><ele>61.33333333333333</ele><time>2026-03-25T14:26:56Z</time></trkpt><trkpt lat="41.777359437957436" lon="12.470800278746532"><ele>61.5</ele><time>2026-03-25T14:26:58Z</time></trkpt><trkpt lat="41.77730604602674" lon="12.470745272368669"><ele>61.66666666666667</ele><time>2026-03-25T14:26:59Z</time></trkpt><trkpt lat="41.7772518915027" lon="12.470695796325156"><ele>61.833333333333336</ele><time>2026-03-25T14:27:00Z</time></trkpt><trkpt lat="41.77716687346049" lon="12.470619076637893"><ele>62.0</ele><time>2026-03-25T14:27:02Z</time></trkpt><trkpt lat="41.77707880436891" lon="12.470540522472565"><ele>62.0</ele><time>2026-03-25T14:27:04Z</time></trkpt><trkpt lat="41.77698282009912" lon="12.470454908288762"><ele>62.0</ele><time>2026-03-25T14:27:06Z</time></trkpt><trkpt lat="41.776879137623446" lon="12.47036242761628"><ele>62.0</ele><time>2026-03-25T14:27:08Z</time></trkpt><trkpt lat="41.77677600556197" lon="12.470270437885533"><ele>62.0</ele><time>2026-03-25T14:27:10Z</time></trkpt><trkpt lat="41.776683618624745" lon="12.470188032394995"><ele>62.400000000000006</ele><time>2026-03-25T14:27:12Z</time></trkpt><trkpt lat="41.776575916499596" lon="12.470091966319577"><ele>62.800000000000004</ele><time>2026-03-25T14:27:13.999Z</time></trkpt><trkpt lat="41.776477226146" lon="12.470003255427999"><ele>63.2</ele><time>2026-03-25T14:27:15.999Z</time></trkpt><trkpt lat="41.77638359442717" lon="12.469918942772281"><ele>63.6</ele><time>2026-03-25T14:27:17.999Z</time></trkpt><trkpt lat="41.776331330123604" lon="12.469871880275468"><ele>64.0</ele><time>2026-03-25T14:27:18.999Z</time></trkpt><trkpt lat="41.77627576099731" lon="12.469821841881657"><ele>64.0</ele><time>2026-03-25T14:27:19.999Z</time></trkpt><trkpt lat="41.776177054165025" lon="12.469732959239893"><ele>64.0</ele><time>2026-03-25T14:27:21.999Z</time></trkpt><trkpt lat="41.7760796689846" lon="12.469645266684523"><ele>64.0</ele><time>2026-03-25T14:27:23.999Z</time></trkpt><trkpt lat="41.776024042551676" lon="12.469595176675762"><ele>64.0</ele><time>2026-03-25T14:27:24.999Z</time></trkpt><trkpt lat="41.775929989975516" lon="12.469510485060278"><ele>64.0</ele><time>2026-03-25T14:27:26.999Z</time></trkpt><trkpt lat="41.775876315958655" lon="12.469462160453496"><ele>63.666666666666664</ele><time>2026-03-25T14:27:27.999Z</time></trkpt><trkpt lat="41.77582283496765" lon="12.469414200010455"><ele>63.33333333333333</ele><time>2026-03-25T14:27:28.999Z</time></trkpt><trkpt lat="41.77576861935248" lon="12.469365580775058"><ele>63.0</ele><time>2026-03-25T14:27:29.999Z</time></trkpt><trkpt lat="41.77567500040231" lon="12.469281625607909"><ele>62.66666666666667</ele><time>2026-03-25T14:27:31.999Z</time></trkpt><trkpt lat="41.775578378134995" lon="12.469194977094912"><ele>62.333333333333336</ele><time>2026-03-25T14:27:33.999Z</time></trkpt><trkpt lat="41.77552499882389" lon="12.46914710784527"><ele>62.0</ele><time>2026-03-25T14:27:34.999Z</time></trkpt><trkpt lat="41.775428013385294" lon="12.469060133649737"><ele>62.0</ele><time>2026-03-25T14:27:36.999Z</time></trkpt><trkpt lat="41.775325576667676" lon="12.468968246814105"><ele>62.0</ele><time>2026-03-25T14:27:38.999Z</time></trkpt><trkpt lat="41.77526955449338" lon="12.468917992604569"><ele>62.0</ele><time>2026-03-25T14:27:39.999Z</time></trkpt><trkpt lat="41.77516927242968" lon="12.468826443048858"><ele>62.0</ele><time>2026-03-25T14:27:41.999Z</time></trkpt><trkpt lat="41.7751150473506" lon="12.46877735508823"><ele>62.0</ele><time>2026-03-25T14:27:42.999Z</time></trkpt><trkpt lat="41.77501417684953" lon="12.46868604073613"><ele>61.8</ele><time>2026-03-25T14:27:44.999Z</time></trkpt><trkpt lat="41.77490659663813" lon="12.468588652339502"><ele>61.6</ele><time>2026-03-25T14:27:46.999Z</time></trkpt><trkpt lat="41.77485255541336" lon="12.46853973038544"><ele>61.39999999999999</ele><time>2026-03-25T14:27:47.999Z</time></trkpt><trkpt lat="41.774762275048026" lon="12.468456646150269"><ele>61.199999999999996</ele><time>2026-03-25T14:27:49.999Z</time></trkpt><trkpt lat="41.7746624675503" lon="12.468364101763708"><ele>61.0</ele><time>2026-03-25T14:27:51.999Z</time></trkpt><trkpt lat="41.774608010477344" lon="12.46831353591628"><ele>61.0</ele><time>2026-03-25T14:27:52.999Z</time></trkpt><trkpt lat="41.77450721131183" lon="12.468219939373485"><ele>60.99999999999999</ele><time>2026-03-25T14:27:54.999Z</time></trkpt><trkpt lat="41.77440845715887" lon="12.468132101868076"><ele>60.99999999999999</ele><time>2026-03-25T14:27:56.999Z</time></trkpt><trkpt lat="41.77430726832202" lon="12.468043216904672"><ele>61.0</ele><time>2026-03-25T14:27:58.999Z</time></trkpt><trkpt lat="41.77424061135864" lon="12.467989448725348"><ele>61.0</ele><time>2026-03-25T14:27:59.999Z</time></trkpt><trkpt lat="41.77418110487624" lon="12.467943687950306"><ele>61.25</ele><time>2026-03-25T14:28:00.999Z</time></trkpt><trkpt lat="41.774070918365695" lon="12.467866560370117"><ele>61.5</ele><time>2026-03-25T14:28:02.999Z</time></trkpt><trkpt lat="41.773962345461456" lon="12.46779663027654"><ele>61.75</ele><time>2026-03-25T14:28:04.999Z</time></trkpt><trkpt lat="41.7738620347923" lon="12.467732651450694"><ele>62.0</ele><time>2026-03-25T14:28:06.999Z</time></trkpt><trkpt lat="41.77376308154286" lon="12.467672422947118"><ele>62.0</ele><time>2026-03-25T14:28:08.999Z</time></trkpt><trkpt lat="41.773655937806716" lon="12.467606510020108"><ele>62.0</ele><time>2026-03-25T14:28:10.999Z</time></trkpt><trkpt lat="41.773556058282836" lon="12.467543931513298"><ele>62.0</ele><time>2026-03-25T14:28:12.999Z</time></trkpt><trkpt lat="41.773443684908365" lon="12.46747293888213"><ele>62.0</ele><time>2026-03-25T14:28:14.999Z</time></trkpt><trkpt lat="41.7733844721883" lon="12.467435530021783"><ele>62.0</ele><time>2026-03-25T14:28:15.999Z</time></trkpt><trkpt lat="41.773326966634386" lon="12.467399199773492"><ele>60.8</ele><time>2026-03-25T14:28:16.999Z</time></trkpt><trkpt lat="41.77321829364015" lon="12.467330543334683"><ele>59.6</ele><time>2026-03-25T14:28:18.999Z</time></trkpt><trkpt lat="41.77315664560915" lon="12.467291602880938"><ele>58.39999999999999</ele><time>2026-03-25T14:28:19.998Z</time></trkpt><trkpt lat="41.77309831185929" lon="12.467255318305485"><ele>57.199999999999996</ele><time>2026-03-25T14:28:20.998Z</time></trkpt><trkpt lat="41.77299773785193" lon="12.467192759380744"><ele>56.0</ele><time>2026-03-25T14:28:22.998Z</time></trkpt><trkpt lat="41.77288563413136" lon="12.467123028678566"><ele>56.16666666666667</ele><time>2026-03-25T14:28:24.998Z</time></trkpt><trkpt lat="41.77279182150249" lon="12.46706343795168"><ele>56.333333333333336</ele><time>2026-03-25T14:28:26.998Z</time></trkpt><trkpt lat="41.77268012099325" lon="12.46699146551126"><ele>56.5</ele><time>2026-03-25T14:28:28.998Z</time></trkpt><trkpt lat="41.77262214436001" lon="12.466950266944242"><ele>56.66666666666667</ele><time>2026-03-25T14:28:29.998Z</time></trkpt><trkpt lat="41.77256415250089" lon="12.466909057573735"><ele>56.833333333333336</ele><time>2026-03-25T14:28:31Z</time></trkpt><trkpt lat="41.77250639902099" lon="12.46686801711945"><ele>57.0</ele><time>2026-03-25T14:28:32Z</time></trkpt><trkpt lat="41.772440004357605" lon="12.466861288986316"><ele>56.6</ele><time>2026-03-25T14:28:33Z</time></trkpt><trkpt lat="41.772335441716336" lon="12.46679507506253"><ele>56.2</ele><time>2026-03-25T14:28:35Z</time></trkpt><trkpt lat="41.77223380620867" lon="12.466732109441711"><ele>55.8</ele><time>2026-03-25T14:28:37Z</time></trkpt><trkpt lat="41.7721718953084" lon="12.466693965044733"><ele>55.4</ele><time>2026-03-25T14:28:38Z</time></trkpt><trkpt lat="41.77206457557149" lon="12.466628241917693"><ele>55.0</ele><time>2026-03-25T14:28:40Z</time></trkpt><trkpt lat="41.77189282605162" lon="12.466520481369816"><ele>54.8</ele><time>2026-03-25T14:28:41Z</time></trkpt><trkpt lat="41.771780125040145" lon="12.466517497407864"><ele>54.6</ele><time>2026-03-25T14:28:43Z</time></trkpt><trkpt lat="41.771711513042206" lon="12.466530447353724"><ele>54.400000000000006</ele><time>2026-03-25T14:28:46Z</time></trkpt><trkpt lat="41.771638726704225" lon="12.466513753612379"><ele>54.2</ele><time>2026-03-25T14:28:48Z</time></trkpt><trkpt lat="41.771790467077544" lon="12.466488933686163"><ele>54.0</ele><time>2026-03-25T14:28:49Z</time></trkpt><trkpt lat="41.771724797638555" lon="12.466444591877297"><ele>54.0</ele><time>2026-03-25T14:28:50Z</time></trkpt><trkpt lat="41.77165328732062" lon="12.466402350650466"><ele>54.00000000000001</ele><time>2026-03-25T14:28:51Z</time></trkpt><trkpt lat="41.77154696372043" lon="12.46636142690095"><ele>54.00000000000001</ele><time>2026-03-25T14:28:55Z</time></trkpt><trkpt lat="41.77146946158366" lon="12.466304414786082"><ele>54.0</ele><time>2026-03-25T14:28:58Z</time></trkpt><trkpt lat="41.771404687729316" lon="12.466219631584876"><ele>54.0</ele><time>2026-03-25T14:29:00Z</time></trkpt><trkpt lat="41.77130415115705" lon="12.466157404524559"><ele>53.25</ele><time>2026-03-25T14:29:02Z</time></trkpt><trkpt lat="41.771245577349276" lon="12.466121277864891"><ele>52.5</ele><time>2026-03-25T14:29:03Z</time></trkpt><trkpt lat="41.77114535048701" lon="12.466054916770203"><ele>51.75</ele><time>2026-03-25T14:29:05Z</time></trkpt><trkpt lat="41.77102817030139" lon="12.466187328231928"><ele>51.0</ele><time>2026-03-25T14:29:06Z</time></trkpt><trkpt lat="41.77093300700392" lon="12.466075341936067"><ele>50.85714285714286</ele><time>2026-03-25T14:29:08Z</time></trkpt><trkpt lat="41.7708764786404" lon="12.46602795029995"><ele>50.714285714285715</ele><time>2026-03-25T14:29:09Z</time></trkpt><trkpt lat="41.77081437298508" lon="12.466000497696049"><ele>50.57142857142857</ele><time>2026-03-25T14:29:10Z</time></trkpt><trkpt lat="41.77075158784617" lon="12.46597689342691"><ele>50.42857142857143</ele><time>2026-03-25T14:29:11Z</time></trkpt><trkpt lat="41.77068660580592" lon="12.465971595333666"><ele>50.285714285714285</ele><time>2026-03-25T14:29:12Z</time></trkpt><trkpt lat="41.77056422835565" lon="12.46599314255009"><ele>50.142857142857146</ele><time>2026-03-25T14:29:14Z</time></trkpt><trkpt lat="41.770503512335715" lon="12.466016821729157"><ele>50.0</ele><time>2026-03-25T14:29:15Z</time></trkpt><trkpt lat="41.770392712609635" lon="12.466080476715776"><ele>50.00000000000001</ele><time>2026-03-25T14:29:17Z</time></trkpt><trkpt lat="41.77029243638723" lon="12.465999574138037"><ele>50.0</ele><time>2026-03-25T14:29:18Z</time></trkpt><trkpt lat="41.770230120453725" lon="12.466058348708291"><ele>50.0</ele><time>2026-03-25T14:29:18.999Z</time></trkpt><trkpt lat="41.77016705079248" lon="12.466136122324"><ele>50.0</ele><time>2026-03-25T14:29:19.999Z</time></trkpt><trkpt lat="41.77011560139974" lon="12.46621679954193"><ele>50.00000000000001</ele><time>2026-03-25T14:29:20.999Z</time></trkpt><trkpt lat="41.77007590381978" lon="12.466290773167751"><ele>50.0</ele><time>2026-03-25T14:29:21.999Z</time></trkpt><trkpt lat="41.77003755983427" lon="12.466367893418347"><ele>49.8</ele><time>2026-03-25T14:29:22.999Z</time></trkpt><trkpt lat="41.770002493467906" lon="12.466443747705146"><ele>49.6</ele><time>2026-03-25T14:29:23.999Z</time></trkpt><trkpt lat="41.76994447746814" lon="12.466591746464573"><ele>49.400000000000006</ele><time>2026-03-25T14:29:25.999Z</time></trkpt><trkpt lat="41.7698909191055" lon="12.46673137537169"><ele>49.2</ele><time>2026-03-25T14:29:27.999Z</time></trkpt><trkpt lat="41.76986178156628" lon="12.466807338928943"><ele>49.0</ele><time>2026-03-25T14:29:28.999Z</time></trkpt><trkpt lat="41.76980583833705" lon="12.466952119922425"><ele>49.0</ele><time>2026-03-25T14:29:30.999Z</time></trkpt><trkpt lat="41.76975216300551" lon="12.467091186558754"><ele>49.0</ele><time>2026-03-25T14:29:32.999Z</time></trkpt><trkpt lat="41.769696351931096" lon="12.467235786678204"><ele>49.0</ele><time>2026-03-25T14:29:34.999Z</time></trkpt><trkpt lat="41.76964413696247" lon="12.467371069681494"><ele>49.0</ele><time>2026-03-25T14:29:36.999Z</time></trkpt><trkpt lat="41.769614868738905" lon="12.467446290835932"><ele>49.0</ele><time>2026-03-25T14:29:37.999Z</time></trkpt><trkpt lat="41.76958483455373" lon="12.467522636475328"><ele>48.75</ele><time>2026-03-25T14:29:38.999Z</time></trkpt><trkpt lat="41.76952719644254" lon="12.467669150120715"><ele>48.5</ele><time>2026-03-25T14:29:40.999Z</time></trkpt><trkpt lat="41.76947329625375" lon="12.467805843987703"><ele>48.25</ele><time>2026-03-25T14:29:42.999Z</time></trkpt><trkpt lat="41.76941324821283" lon="12.467957719787224"><ele>48.0</ele><time>2026-03-25T14:29:44.999Z</time></trkpt><trkpt lat="41.7693577694024" lon="12.468099572129285"><ele>48.75</ele><time>2026-03-25T14:29:46.999Z</time></trkpt><trkpt lat="41.76930172199306" lon="12.468242878352736"><ele>49.5</ele><time>2026-03-25T14:29:48.999Z</time></trkpt><trkpt lat="41.769244769315186" lon="12.468388575469385"><ele>50.25</ele><time>2026-03-25T14:29:50.999Z</time></trkpt><trkpt lat="41.769183785021355" lon="12.468544657302203"><ele>51.0</ele><time>2026-03-25T14:29:52.999Z</time></trkpt><trkpt lat="41.769127814184365" lon="12.46868927789925"><ele>52.0</ele><time>2026-03-25T14:29:54.999Z</time></trkpt><trkpt lat="41.76907366847028" lon="12.468827251867841"><ele>53.0</ele><time>2026-03-25T14:29:56.999Z</time></trkpt><trkpt lat="41.769016913527615" lon="12.468967296256727"><ele>53.99999999999999</ele><time>2026-03-25T14:29:58.999Z</time></trkpt><trkpt lat="41.76896067335649" lon="12.469109772402591"><ele>55.0</ele><time>2026-03-25T14:30:00.999Z</time></trkpt><trkpt lat="41.7689359175105" lon="12.469187849162639"><ele>56.0</ele><time>2026-03-25T14:30:01.999Z</time></trkpt><trkpt lat="41.768913223109145" lon="12.469273269476696"><ele>56.0</ele><time>2026-03-25T14:30:02.999Z</time></trkpt><trkpt lat="41.76889577719557" lon="12.469365677321688"><ele>56.0</ele><time>2026-03-25T14:30:03.999Z</time></trkpt><trkpt lat="41.76888289124161" lon="12.469531625680185"><ele>56.0</ele><time>2026-03-25T14:30:05.999Z</time></trkpt><trkpt lat="41.768884770203144" lon="12.469659701936449"><ele>56.0</ele><time>2026-03-25T14:30:07.999Z</time></trkpt><trkpt lat="41.768852104070795" lon="12.469882017162853"><ele>55.50000000000001</ele><time>2026-03-25T14:30:13.999Z</time></trkpt><trkpt lat="41.76878763989547" lon="12.469783467616557"><ele>55.0</ele><time>2026-03-25T14:30:15.999Z</time></trkpt><trkpt lat="41.76880190087305" lon="12.46993101763107"><ele>54.5</ele><time>2026-03-25T14:30:16.999Z</time></trkpt><trkpt lat="41.76883055977022" lon="12.470006400530286"><ele>54.0</ele><time>2026-03-25T14:30:17.999Z</time></trkpt><trkpt lat="41.7688687590092" lon="12.470124746224007"><ele>53.50000000000001</ele><time>2026-03-25T14:30:19.999Z</time></trkpt><trkpt lat="41.76886831383235" lon="12.47021058381257"><ele>53.0</ele><time>2026-03-25T14:30:20.999Z</time></trkpt><trkpt lat="41.76887799970446" lon="12.470296005478724"><ele>53.00000000000001</ele><time>2026-03-25T14:30:21.999Z</time></trkpt><trkpt lat="41.76884141217469" lon="12.470385197126651"><ele>53.0</ele><time>2026-03-25T14:30:22.999Z</time></trkpt><trkpt lat="41.76881142787157" lon="12.470462674773023"><ele>53.0</ele><time>2026-03-25T14:30:23.999Z</time></trkpt><trkpt lat="41.76874176523121" lon="12.470575331171482"><ele>53.0</ele><time>2026-03-25T14:30:25.998Z</time></trkpt><trkpt lat="41.76869871869022" lon="12.4706517186278"><ele>53.00000000000001</ele><time>2026-03-25T14:30:26.998Z</time></trkpt><trkpt lat="41.768605554999894" lon="12.470749024136397"><ele>53.0</ele><time>2026-03-25T14:30:28.998Z</time></trkpt><trkpt lat="41.76850518656124" lon="12.470728278790778"><ele>53.4</ele><time>2026-03-25T14:30:29.998Z</time></trkpt><trkpt lat="41.76838739101258" lon="12.470735616237675"><ele>53.8</ele><time>2026-03-25T14:30:31.998Z</time></trkpt><trkpt lat="41.76828559569638" lon="12.470744130778842"><ele>54.2</ele><time>2026-03-25T14:30:33.998Z</time></trkpt><trkpt lat="41.768223447227776" lon="12.470657697382848"><ele>54.6</ele><time>2026-03-25T14:30:34.998Z</time></trkpt><trkpt lat="41.76813497351162" lon="12.47060812859847"><ele>55.0</ele><time>2026-03-25T14:30:37Z</time></trkpt><trkpt lat="41.76804570428917" lon="12.470557986958353"><ele>54.99999999999999</ele><time>2026-03-25T14:30:39Z</time></trkpt><trkpt lat="41.767974036975225" lon="12.470517615671925"><ele>55.0</ele><time>2026-03-25T14:30:41Z</time></trkpt><trkpt lat="41.76790892097028" lon="12.470480959816939"><ele>55.0</ele><time>2026-03-25T14:30:44Z</time></trkpt><trkpt lat="41.76784866356036" lon="12.470447173540492"><ele>55.0</ele><time>2026-03-25T14:30:46Z</time></trkpt><trkpt lat="41.76778336679874" lon="12.47040113985748"><ele>54.99999999999999</ele><time>2026-03-25T14:30:49Z</time></trkpt><trkpt lat="41.767708605964096" lon="12.470349818268064"><ele>55.0</ele><time>2026-03-25T14:30:51Z</time></trkpt><trkpt lat="41.76760042179875" lon="12.470295502864987"><ele>55.8</ele><time>2026-03-25T14:30:55Z</time></trkpt><trkpt lat="41.76752848296215" lon="12.470260294568337"><ele>56.6</ele><time>2026-03-25T14:30:57Z</time></trkpt><trkpt lat="41.76743650429453" lon="12.470201188582326"><ele>57.400000000000006</ele><time>2026-03-25T14:30:59Z</time></trkpt><trkpt lat="41.76737594130036" lon="12.470169202777292"><ele>58.2</ele><time>2026-03-25T14:31:00Z</time></trkpt><trkpt lat="41.76725848099389" lon="12.470095849185615"><ele>59.0</ele><time>2026-03-25T14:31:02Z</time></trkpt><trkpt lat="41.76714928300322" lon="12.470045231561826"><ele>59.0</ele><time>2026-03-25T14:31:04Z</time></trkpt><trkpt lat="41.76704913164926" lon="12.469989425658463"><ele>59.00000000000001</ele><time>2026-03-25T14:31:06Z</time></trkpt><trkpt lat="41.76694107751047" lon="12.469919476949723"><ele>59.00000000000001</ele><time>2026-03-25T14:31:08Z</time></trkpt><trkpt lat="41.76682485263339" lon="12.469858473518256"><ele>59.0</ele><time>2026-03-25T14:31:10Z</time></trkpt><trkpt lat="41.76674665517507" lon="12.469852867465256"><ele>59.0</ele><time>2026-03-25T14:31:11Z</time></trkpt><trkpt lat="41.766628386060724" lon="12.46977989078132"><ele>58.833333333333336</ele><time>2026-03-25T14:31:13Z</time></trkpt><trkpt lat="41.76656410203402" lon="12.469743600449089"><ele>58.66666666666667</ele><time>2026-03-25T14:31:14Z</time></trkpt><trkpt lat="41.76650098981532" lon="12.469707971635344"><ele>58.5</ele><time>2026-03-25T14:31:15Z</time></trkpt><trkpt lat="41.76644209162535" lon="12.46967463911925"><ele>58.33333333333333</ele><time>2026-03-25T14:31:16Z</time></trkpt><trkpt lat="41.76637855764662" lon="12.46963853683578"><ele>58.166666666666664</ele><time>2026-03-25T14:31:17Z</time></trkpt><trkpt lat="41.76631802409457" lon="12.469615009529534"><ele>58.0</ele><time>2026-03-25T14:31:18Z</time></trkpt><trkpt lat="41.766209074104786" lon="12.469563180222956"><ele>58.0</ele><time>2026-03-25T14:31:20Z</time></trkpt><trkpt lat="41.766106567966524" lon="12.469502285317903"><ele>58.0</ele><time>2026-03-25T14:31:22Z</time></trkpt><trkpt lat="41.76602156798974" lon="12.469442532113154"><ele>58.0</ele><time>2026-03-25T14:31:23.999Z</time></trkpt><trkpt lat="41.76593497343047" lon="12.469569906494616"><ele>58.0</ele><time>2026-03-25T14:31:26.999Z</time></trkpt><trkpt lat="41.76590927792765" lon="12.469684660206974"><ele>58.0</ele><time>2026-03-25T14:31:28.999Z</time></trkpt><trkpt lat="41.76585810645806" lon="12.469821100158757"><ele>58.8</ele><time>2026-03-25T14:31:30.999Z</time></trkpt><trkpt lat="41.76582328574423" lon="12.469977557103197"><ele>59.599999999999994</ele><time>2026-03-25T14:31:32.999Z</time></trkpt><trkpt lat="41.765792268215975" lon="12.470054533484552"><ele>60.400000000000006</ele><time>2026-03-25T14:31:33.999Z</time></trkpt><trkpt lat="41.765745418746555" lon="12.470199461506683"><ele>61.2</ele><time>2026-03-25T14:31:35.999Z</time></trkpt><trkpt lat="41.76570794353538" lon="12.470334995442444"><ele>62.0</ele><time>2026-03-25T14:31:37.999Z</time></trkpt><trkpt lat="41.76565330720737" lon="12.47038574491032"><ele>62.333333333333336</ele><time>2026-03-25T14:31:38.999Z</time></trkpt><trkpt lat="41.76561081065505" lon="12.470457565305088"><ele>62.66666666666667</ele><time>2026-03-25T14:31:39.999Z</time></trkpt><trkpt lat="41.76559618801011" lon="12.47054633026528"><ele>63.0</ele><time>2026-03-25T14:31:40.999Z</time></trkpt><trkpt lat="41.765552228124804" lon="12.470674392970416"><ele>63.33333333333333</ele><time>2026-03-25T14:31:42.999Z</time></trkpt><trkpt lat="41.76550645824523" lon="12.47081442146644"><ele>63.666666666666664</ele><time>2026-03-25T14:31:44.999Z</time></trkpt><trkpt lat="41.76548069850186" lon="12.470893485257138"><ele>64.0</ele><time>2026-03-25T14:31:45.999Z</time></trkpt><trkpt lat="41.765432851900584" lon="12.471040270562264"><ele>64.0</ele><time>2026-03-25T14:31:47.999Z</time></trkpt><trkpt lat="41.7653835664079" lon="12.471181152500959"><ele>64.0</ele><time>2026-03-25T14:31:49.999Z</time></trkpt><trkpt lat="41.76536153722068" lon="12.471260772439889"><ele>64.0</ele><time>2026-03-25T14:31:50.999Z</time></trkpt><trkpt lat="41.7653183940778" lon="12.471399917135972"><ele>64.0</ele><time>2026-03-25T14:31:52.999Z</time></trkpt><trkpt lat="41.76526726099401" lon="12.471535041198448"><ele>64.0</ele><time>2026-03-25T14:31:54.999Z</time></trkpt><trkpt lat="41.76524147223848" lon="12.471623049963148"><ele>64.0</ele><time>2026-03-25T14:31:55.999Z</time></trkpt><trkpt lat="41.76520005171009" lon="12.4717517236232"><ele>64.0</ele><time>2026-03-25T14:31:57.999Z</time></trkpt><trkpt lat="41.76516136020533" lon="12.471898346414296"><ele>64.0</ele><time>2026-03-25T14:31:59.999Z</time></trkpt><trkpt lat="41.765133190684935" lon="12.471974352687369"><ele>64.0</ele><time>2026-03-25T14:32:00.999Z</time></trkpt><trkpt lat="41.765098715817075" lon="12.472119257868505"><ele>64.0</ele><time>2026-03-25T14:32:02.999Z</time></trkpt><trkpt lat="41.765059511094904" lon="12.47226271748313"><ele>64.60000000000001</ele><time>2026-03-25T14:32:04.999Z</time></trkpt><trkpt lat="41.76500567341786" lon="12.472389279250587"><ele>65.2</ele><time>2026-03-25T14:32:06.999Z</time></trkpt><trkpt lat="41.76496599426194" lon="12.472522422381322"><ele>65.80000000000001</ele><time>2026-03-25T14:32:08.999Z</time></trkpt><trkpt lat="41.764934505738864" lon="12.472656869994061"><ele>66.4</ele><time>2026-03-25T14:32:10.999Z</time></trkpt><trkpt lat="41.76489796289098" lon="12.472803814151067"><ele>67.0</ele><time>2026-03-25T14:32:12.999Z</time></trkpt><trkpt lat="41.76483892493792" lon="12.472950686163458"><ele>67.4</ele><time>2026-03-25T14:32:14.999Z</time></trkpt><trkpt lat="41.76479876141546" lon="12.473098055631466"><ele>67.80000000000001</ele><time>2026-03-25T14:32:16.999Z</time></trkpt><trkpt lat="41.76475493455523" lon="12.473245608923165"><ele>68.2</ele><time>2026-03-25T14:32:18.999Z</time></trkpt><trkpt lat="41.76473785957113" lon="12.473327444882324"><ele>68.60000000000001</ele><time>2026-03-25T14:32:19.999Z</time></trkpt><trkpt lat="41.7646998382167" lon="12.473475253810806"><ele>69.0</ele><time>2026-03-25T14:32:21.999Z</time></trkpt><trkpt lat="41.76463263593086" lon="12.473591720284123"><ele>69.0</ele><time>2026-03-25T14:32:23.999Z</time></trkpt><trkpt lat="41.764600929975884" lon="12.473723175671214"><ele>69.0</ele><time>2026-03-25T14:32:25.999Z</time></trkpt><trkpt lat="41.764557117548286" lon="12.473852200616887"><ele>69.0</ele><time>2026-03-25T14:32:27.999Z</time></trkpt><trkpt lat="41.76451352345535" lon="12.473975883915628"><ele>69.0</ele><time>2026-03-25T14:32:29.998Z</time></trkpt><trkpt lat="41.76447241525948" lon="12.47410667415231"><ele>69.0</ele><time>2026-03-25T14:32:31.998Z</time></trkpt><trkpt lat="41.764445374010776" lon="12.474245235655925"><ele>69.2</ele><time>2026-03-25T14:32:33.998Z</time></trkpt><trkpt lat="41.764393021808644" lon="12.47434457541542"><ele>69.4</ele><time>2026-03-25T14:32:35.998Z</time></trkpt><trkpt lat="41.76432144297634" lon="12.474409276277223"><ele>69.6</ele><time>2026-03-25T14:32:41.998Z</time></trkpt><trkpt lat="41.764272206663726" lon="12.474523508211936"><ele>69.8</ele><time>2026-03-25T14:32:44Z</time></trkpt><trkpt lat="41.76422927107091" lon="12.474660520692137"><ele>70.0</ele><time>2026-03-25T14:32:46Z</time></trkpt><trkpt lat="41.76420356206125" lon="12.474742197498273"><ele>70.0</ele><time>2026-03-25T14:32:47Z</time></trkpt><trkpt lat="41.764154517604645" lon="12.47488065245671"><ele>70.0</ele><time>2026-03-25T14:32:49Z</time></trkpt><trkpt lat="41.76413856085796" lon="12.475005847212598"><ele>70.0</ele><time>2026-03-25T14:32:51Z</time></trkpt><trkpt lat="41.76408968933845" lon="12.475160792047735"><ele>70.0</ele><time>2026-03-25T14:32:53Z</time></trkpt><trkpt lat="41.76404287271108" lon="12.475295116337731"><ele>70.0</ele><time>2026-03-25T14:32:55Z</time></trkpt><trkpt lat="41.763945353780755" lon="12.475191503695797"><ele>70.0</ele><time>2026-03-25T14:32:57Z</time></trkpt><trkpt lat="41.76388234295198" lon="12.475140367140135"><ele>70.0</ele><time>2026-03-25T14:32:58Z</time></trkpt><trkpt lat="41.76378429680459" lon="12.475064917179273"><ele>70.0</ele><time>2026-03-25T14:33:00Z</time></trkpt><trkpt lat="41.76368566097596" lon="12.47498901214011"><ele>70.0</ele><time>2026-03-25T14:33:02Z</time></trkpt><trkpt lat="41.76362134247792" lon="12.474964919234159"><ele>70.0</ele><time>2026-03-25T14:33:03Z</time></trkpt><trkpt lat="41.763525202792536" lon="12.474968351936564"><ele>71.2</ele><time>2026-03-25T14:33:05Z</time></trkpt><trkpt lat="41.76342884995295" lon="12.474891199176845"><ele>72.4</ele><time>2026-03-25T14:33:07Z</time></trkpt><trkpt lat="41.763316973819265" lon="12.474830166669781"><ele>73.6</ele><time>2026-03-25T14:33:09Z</time></trkpt><trkpt lat="41.76325840059224" lon="12.474781937646044"><ele>74.8</ele><time>2026-03-25T14:33:10Z</time></trkpt><trkpt lat="41.76319431300317" lon="12.47477533115421"><ele>76.0</ele><time>2026-03-25T14:33:11Z</time></trkpt><trkpt lat="41.7630943664759" lon="12.47471623875622"><ele>76.0</ele><time>2026-03-25T14:33:13Z</time></trkpt><trkpt lat="41.76297649281577" lon="12.474673898376404"><ele>76.0</ele><time>2026-03-25T14:33:15Z</time></trkpt><trkpt lat="41.762909181853345" lon="12.474657646366435"><ele>76.0</ele><time>2026-03-25T14:33:16Z</time></trkpt><trkpt lat="41.76278803071539" lon="12.474660982826308"><ele>76.0</ele><time>2026-03-25T14:33:18Z</time></trkpt><trkpt lat="41.76268960105321" lon="12.474720742452384"><ele>76.0</ele><time>2026-03-25T14:33:20Z</time></trkpt><trkpt lat="41.762585826703784" lon="12.47477694696093"><ele>75.8</ele><time>2026-03-25T14:33:22Z</time></trkpt><trkpt lat="41.76248005476413" lon="12.474800701125073"><ele>75.6</ele><time>2026-03-25T14:33:24Z</time></trkpt><trkpt lat="41.76239091459586" lon="12.47479565404979"><ele>75.4</ele><time>2026-03-25T14:33:26Z</time></trkpt><trkpt lat="41.76229997089043" lon="12.47481042249587"><ele>75.2</ele><time>2026-03-25T14:33:28Z</time></trkpt><trkpt lat="41.762194194872244" lon="12.474779632355629"><ele>75.0</ele><time>2026-03-25T14:33:29.999Z</time></trkpt><trkpt lat="41.76212851335172" lon="12.474793664701176"><ele>75.0</ele><time>2026-03-25T14:33:30.999Z</time></trkpt><trkpt lat="41.7620634827723" lon="12.474764589433011"><ele>75.0</ele><time>2026-03-25T14:33:31.999Z</time></trkpt><trkpt lat="41.76200247519654" lon="12.474743251853292"><ele>75.0</ele><time>2026-03-25T14:33:32.999Z</time></trkpt><trkpt lat="41.76189417836153" lon="12.474677097405003"><ele>75.0</ele><time>2026-03-25T14:33:34.999Z</time></trkpt><trkpt lat="41.76180268983418" lon="12.474567058623611"><ele>75.0</ele><time>2026-03-25T14:33:36.999Z</time></trkpt><trkpt lat="41.761688869066354" lon="12.474500209748118"><ele>73.4</ele><time>2026-03-25T14:33:38.999Z</time></trkpt><trkpt lat="41.7616120513821" lon="12.474534347380438"><ele>71.8</ele><time>2026-03-25T14:33:39.999Z</time></trkpt><trkpt lat="41.76155357822363" lon="12.474594668215424"><ele>70.2</ele><time>2026-03-25T14:33:40.999Z</time></trkpt><trkpt lat="41.7615050789616" lon="12.474662810525814"><ele>68.6</ele><time>2026-03-25T14:33:41.999Z</time></trkpt><trkpt lat="41.76144726679222" lon="12.474794271779432"><ele>67.0</ele><time>2026-03-25T14:33:43.999Z</time></trkpt><trkpt lat="41.7614099423717" lon="12.474953411438689"><ele>67.0</ele><time>2026-03-25T14:33:45.999Z</time></trkpt><trkpt lat="41.76145854186555" lon="12.475118342582917"><ele>67.0</ele><time>2026-03-25T14:33:47.999Z</time></trkpt><trkpt lat="41.761546758765306" lon="12.4752208413189"><ele>67.0</ele><time>2026-03-25T14:33:49.999Z</time></trkpt><trkpt lat="41.76164370930335" lon="12.475286738815907"><ele>67.0</ele><time>2026-03-25T14:33:51.999Z</time></trkpt><trkpt lat="41.76173295780904" lon="12.475404217496825"><ele>66.4</ele><time>2026-03-25T14:33:53.999Z</time></trkpt><trkpt lat="41.761761156907774" lon="12.475485797185769"><ele>65.80000000000001</ele><time>2026-03-25T14:33:54.999Z</time></trkpt><trkpt lat="41.76175749016761" lon="12.475603391472132"><ele>65.2</ele><time>2026-03-25T14:33:55.999Z</time></trkpt><trkpt lat="41.76175339999038" lon="12.475754250723186"><ele>64.60000000000001</ele><time>2026-03-25T14:33:57.999Z</time></trkpt><trkpt lat="41.76175214379669" lon="12.475888505078633"><ele>64.0</ele><time>2026-03-25T14:33:59.999Z</time></trkpt><trkpt lat="41.761754564267655" lon="12.476039623101089"><ele>63.99999999999999</ele><time>2026-03-25T14:34:01.999Z</time></trkpt><trkpt lat="41.76175607366064" lon="12.476135661850076"><ele>64.0</ele><time>2026-03-25T14:34:02.999Z</time></trkpt><trkpt lat="41.761757030048926" lon="12.476221617375312"><ele>64.0</ele><time>2026-03-25T14:34:03.999Z</time></trkpt><trkpt lat="41.761758744572695" lon="12.476375710168261"><ele>64.0</ele><time>2026-03-25T14:34:05.999Z</time></trkpt><trkpt lat="41.76176032746669" lon="12.476530944803196"><ele>63.99999999999999</ele><time>2026-03-25T14:34:07.999Z</time></trkpt><trkpt lat="41.76176086692193" lon="12.476617742930383"><ele>64.0</ele><time>2026-03-25T14:34:10.999Z</time></trkpt><trkpt lat="41.76177663550187" lon="12.476771400612783"><ele>63.83333333333333</ele><time>2026-03-25T14:34:12.999Z</time></trkpt><trkpt lat="41.761773025696186" lon="12.476935207251248"><ele>63.666666666666664</ele><time>2026-03-25T14:34:14.999Z</time></trkpt><trkpt lat="41.76177392803075" lon="12.477035034590893"><ele>63.5</ele><time>2026-03-25T14:34:15.999Z</time></trkpt><trkpt lat="41.761769098733225" lon="12.477141987225142"><ele>63.33333333333333</ele><time>2026-03-25T14:34:16.999Z</time></trkpt><trkpt lat="41.7617729669374" lon="12.477249826476472"><ele>63.166666666666664</ele><time>2026-03-25T14:34:17.999Z</time></trkpt><trkpt lat="41.76175642322946" lon="12.477352910108884"><ele>63.0</ele><time>2026-03-25T14:34:18.999Z</time></trkpt><trkpt lat="41.761747422687336" lon="12.477452524949804"><ele>62.5</ele><time>2026-03-25T14:34:20.999Z</time></trkpt><trkpt lat="41.7616205191314" lon="12.477454940681417"><ele>62.0</ele><time>2026-03-25T14:34:22.999Z</time></trkpt><trkpt lat="41.761549192045486" lon="12.477417541711862"><ele>61.5</ele><time>2026-03-25T14:34:23.999Z</time></trkpt><trkpt lat="41.76148276606562" lon="12.477412311928235"><ele>61.0</ele><time>2026-03-25T14:34:24.999Z</time></trkpt><trkpt lat="41.76141902857782" lon="12.477397519831499"><ele>60.5</ele><time>2026-03-25T14:34:25.999Z</time></trkpt><trkpt lat="41.761351314366806" lon="12.477373032138008"><ele>60.0</ele><time>2026-03-25T14:34:26.999Z</time></trkpt><trkpt lat="41.76128448816941" lon="12.477354265964287"><ele>60.0</ele><time>2026-03-25T14:34:27.999Z</time></trkpt><trkpt lat="41.761214921918956" lon="12.477336314166632"><ele>60.0</ele><time>2026-03-25T14:34:28.999Z</time></trkpt><trkpt lat="41.76114677680096" lon="12.477319566214288"><ele>60.0</ele><time>2026-03-25T14:34:29.999Z</time></trkpt><trkpt lat="41.761079242456795" lon="12.477308286442943"><ele>60.0</ele><time>2026-03-25T14:34:30.999Z</time></trkpt><trkpt lat="41.76100918078198" lon="12.47729017056973"><ele>60.0</ele><time>2026-03-25T14:34:31.999Z</time></trkpt><trkpt lat="41.760939169235066" lon="12.477274018105316"><ele>60.0</ele><time>2026-03-25T14:34:32.999Z</time></trkpt><trkpt lat="41.760871676193766" lon="12.477258005603751"><ele>60.0</ele><time>2026-03-25T14:34:33.999Z</time></trkpt><trkpt lat="41.76080730749877" lon="12.477241727638258"><ele>59.0</ele><time>2026-03-25T14:34:34.998Z</time></trkpt><trkpt lat="41.7607440796323" lon="12.477222745111375"><ele>58.0</ele><time>2026-03-25T14:34:35.998Z</time></trkpt><trkpt lat="41.76062264552806" lon="12.477199307565478"><ele>57.0</ele><time>2026-03-25T14:34:37.998Z</time></trkpt><trkpt lat="41.76055810487799" lon="12.477183564239613"><ele>56.0</ele><time>2026-03-25T14:34:38.998Z</time></trkpt><trkpt lat="41.760492471923186" lon="12.47716469043645"><ele>55.0</ele><time>2026-03-25T14:34:39.998Z</time></trkpt><trkpt lat="41.76037318557655" lon="12.477140234595101"><ele>54.0</ele><time>2026-03-25T14:34:41.998Z</time></trkpt><trkpt lat="41.76025125427257" lon="12.477113431097127"><ele>54.0</ele><time>2026-03-25T14:34:43.998Z</time></trkpt><trkpt lat="41.760184511049964" lon="12.47709887987686"><ele>54.00000000000001</ele><time>2026-03-25T14:34:44.998Z</time></trkpt><trkpt lat="41.760066791970246" lon="12.477061885556951"><ele>54.00000000000001</ele><time>2026-03-25T14:34:46.998Z</time></trkpt><trkpt lat="41.76000493334399" lon="12.477040266024774"><ele>54.0</ele><time>2026-03-25T14:34:47.998Z</time></trkpt><trkpt lat="41.75988867758231" lon="12.47699036984862"><ele>54.0</ele><time>2026-03-25T14:34:50Z</time></trkpt><trkpt lat="41.75978764250639" lon="12.476940086284134"><ele>54.0</ele><time>2026-03-25T14:34:52Z</time></trkpt><trkpt lat="41.75968646786766" lon="12.476871757708906"><ele>54.0</ele><time>2026-03-25T14:34:54Z</time></trkpt><trkpt lat="41.7595780183439" lon="12.476817625940908"><ele>54.0</ele><time>2026-03-25T14:34:56Z</time></trkpt><trkpt lat="41.75946885723274" lon="12.476757844558138"><ele>54.0</ele><time>2026-03-25T14:34:58Z</time></trkpt><trkpt lat="41.75935366376893" lon="12.476693290662872"><ele>55.75</ele><time>2026-03-25T14:35:00Z</time></trkpt><trkpt lat="41.75925759459408" lon="12.476621857600426"><ele>57.5</ele><time>2026-03-25T14:35:02Z</time></trkpt><trkpt lat="41.75915015453783" lon="12.47657072867455"><ele>59.25</ele><time>2026-03-25T14:35:04Z</time></trkpt><trkpt lat="41.759040097045954" lon="12.476521067032667"><ele>61.0</ele><time>2026-03-25T14:35:06Z</time></trkpt><trkpt lat="41.7589289407984" lon="12.47646561745509"><ele>61.0</ele><time>2026-03-25T14:35:08Z</time></trkpt><trkpt lat="41.75882759279205" lon="12.47640138759534"><ele>60.99999999999999</ele><time>2026-03-25T14:35:10Z</time></trkpt><trkpt lat="41.75871470222991" lon="12.476328482654464"><ele>60.99999999999999</ele><time>2026-03-25T14:35:12Z</time></trkpt><trkpt lat="41.75861470785313" lon="12.476279223956691"><ele>61.0</ele><time>2026-03-25T14:35:14Z</time></trkpt><trkpt lat="41.758537725425015" lon="12.47623583735372"><ele>61.0</ele><time>2026-03-25T14:35:16Z</time></trkpt><trkpt lat="41.75843748502034" lon="12.476181928992363"><ele>62.4</ele><time>2026-03-25T14:35:18Z</time></trkpt><trkpt lat="41.758335261182104" lon="12.476115307945722"><ele>63.8</ele><time>2026-03-25T14:35:20Z</time></trkpt><trkpt lat="41.75823279852884" lon="12.476059833298551"><ele>65.19999999999999</ele><time>2026-03-25T14:35:22Z</time></trkpt><trkpt lat="41.75812743155824" lon="12.47601205948101"><ele>66.6</ele><time>2026-03-25T14:35:24Z</time></trkpt><trkpt lat="41.75802858439262" lon="12.475947680037665"><ele>68.0</ele><time>2026-03-25T14:35:26Z</time></trkpt><trkpt lat="41.75792994407907" lon="12.475891135239383"><ele>68.0</ele><time>2026-03-25T14:35:28Z</time></trkpt><trkpt lat="41.7578317914808" lon="12.475832015967818"><ele>68.0</ele><time>2026-03-25T14:35:30Z</time></trkpt><trkpt lat="41.75775188785066" lon="12.475789775401669"><ele>68.0</ele><time>2026-03-25T14:35:32Z</time></trkpt><trkpt lat="41.75768145190977" lon="12.475756126431145"><ele>68.0</ele><time>2026-03-25T14:35:34Z</time></trkpt><trkpt lat="41.75760046558658" lon="12.475706247060936"><ele>68.0</ele><time>2026-03-25T14:35:35.999Z</time></trkpt><trkpt lat="41.75748735920841" lon="12.47565656273138"><ele>68.2</ele><time>2026-03-25T14:35:37.999Z</time></trkpt><trkpt lat="41.75739617341814" lon="12.475589412121444"><ele>68.4</ele><time>2026-03-25T14:35:39.999Z</time></trkpt><trkpt lat="41.757295179441954" lon="12.475530948545059"><ele>68.60000000000001</ele><time>2026-03-25T14:35:41.999Z</time></trkpt><trkpt lat="41.75720389466635" lon="12.475471815608483"><ele>68.8</ele><time>2026-03-25T14:35:43.999Z</time></trkpt><trkpt lat="41.75711375646575" lon="12.4754297494025"><ele>69.0</ele><time>2026-03-25T14:35:45.999Z</time></trkpt><trkpt lat="41.75701037091199" lon="12.475368026241902"><ele>69.0</ele><time>2026-03-25T14:35:47.999Z</time></trkpt><trkpt lat="41.75689455972583" lon="12.475304632049777"><ele>69.0</ele><time>2026-03-25T14:35:49.999Z</time></trkpt><trkpt lat="41.75683629836412" lon="12.475272655037537"><ele>69.0</ele><time>2026-03-25T14:35:50.999Z</time></trkpt><trkpt lat="41.7567224164715" lon="12.475200254527365"><ele>69.0</ele><time>2026-03-25T14:35:52.999Z</time></trkpt><trkpt lat="41.75660855069848" lon="12.47513107906784"><ele>69.0</ele><time>2026-03-25T14:35:54.999Z</time></trkpt><trkpt lat="41.75649444857818" lon="12.475060977910083"><ele>68.33333333333333</ele><time>2026-03-25T14:35:56.999Z</time></trkpt><trkpt lat="41.756379577326534" lon="12.47500263554724"><ele>67.66666666666667</ele><time>2026-03-25T14:35:58.999Z</time></trkpt><trkpt lat="41.75631956573342" lon="12.474970871634524"><ele>67.0</ele><time>2026-03-25T14:35:59.999Z</time></trkpt><trkpt lat="41.75626321229501" lon="12.474932454359312"><ele>66.33333333333334</ele><time>2026-03-25T14:36:00.999Z</time></trkpt><trkpt lat="41.75614930812786" lon="12.474867682549464"><ele>65.66666666666667</ele><time>2026-03-25T14:36:02.999Z</time></trkpt><trkpt lat="41.75609227980517" lon="12.474827378220473"><ele>65.0</ele><time>2026-03-25T14:36:03.999Z</time></trkpt><trkpt lat="41.75598933403673" lon="12.474736536406997"><ele>65.0</ele><time>2026-03-25T14:36:05.999Z</time></trkpt><trkpt lat="41.755900046651206" lon="12.47464322191225"><ele>65.0</ele><time>2026-03-25T14:36:07.999Z</time></trkpt><trkpt lat="41.755849895753194" lon="12.474584981415274"><ele>65.0</ele><time>2026-03-25T14:36:08.999Z</time></trkpt><trkpt lat="41.75580056742938" lon="12.47452363943987"><ele>65.0</ele><time>2026-03-25T14:36:09.999Z</time></trkpt><trkpt lat="41.75571627392917" lon="12.474409679894388"><ele>65.0</ele><time>2026-03-25T14:36:11.999Z</time></trkpt><trkpt lat="41.75563330799111" lon="12.474280826038509"><ele>65.16666666666667</ele><time>2026-03-25T14:36:13.999Z</time></trkpt><trkpt lat="41.75555443676405" lon="12.474158276278976"><ele>65.33333333333334</ele><time>2026-03-25T14:36:15.999Z</time></trkpt><trkpt lat="41.755509069132565" lon="12.474098726416015"><ele>65.5</ele><time>2026-03-25T14:36:16.999Z</time></trkpt><trkpt lat="41.755463003850046" lon="12.474039275047751"><ele>65.66666666666667</ele><time>2026-03-25T14:36:17.999Z</time></trkpt><trkpt lat="41.755418327702294" lon="12.473976830395353"><ele>65.83333333333333</ele><time>2026-03-25T14:36:18.999Z</time></trkpt><trkpt lat="41.75533476652694" lon="12.473864261911503"><ele>66.0</ele><time>2026-03-25T14:36:20.999Z</time></trkpt><trkpt lat="41.75525380436371" lon="12.4737442277121"><ele>66.33333333333333</ele><time>2026-03-25T14:36:22.999Z</time></trkpt><trkpt lat="41.75520770170242" lon="12.47368484856712"><ele>66.66666666666667</ele><time>2026-03-25T14:36:23.999Z</time></trkpt><trkpt lat="41.755122596191384" lon="12.473563103951395"><ele>67.0</ele><time>2026-03-25T14:36:25.999Z</time></trkpt><trkpt lat="41.75508397046958" lon="12.473495002648217"><ele>67.33333333333334</ele><time>2026-03-25T14:36:26.999Z</time></trkpt><trkpt lat="41.75501160727455" lon="12.47337194894799"><ele>67.66666666666667</ele><time>2026-03-25T14:36:28.999Z</time></trkpt><trkpt lat="41.75497285466794" lon="12.473299806826951"><ele>68.0</ele><time>2026-03-25T14:36:29.999Z</time></trkpt><trkpt lat="41.754902209105644" lon="12.473173309688741"><ele>68.0</ele><time>2026-03-25T14:36:31.999Z</time></trkpt><trkpt lat="41.75484269418173" lon="12.473059619642099"><ele>68.0</ele><time>2026-03-25T14:36:33.999Z</time></trkpt><trkpt lat="41.75479817542713" lon="12.472953998087027"><ele>68.0</ele><time>2026-03-25T14:36:35.999Z</time></trkpt><trkpt lat="41.7547566603462" lon="12.472885201115616"><ele>68.0</ele><time>2026-03-25T14:36:37.999Z</time></trkpt><trkpt lat="41.754689900120276" lon="12.472799089382727"><ele>68.0</ele><time>2026-03-25T14:36:40.999Z</time></trkpt><trkpt lat="41.7546187448566" lon="12.4726621402386"><ele>67.83333333333334</ele><time>2026-03-25T14:36:42.998Z</time></trkpt><trkpt lat="41.75457744553356" lon="12.472593634557397"><ele>67.66666666666667</ele><time>2026-03-25T14:36:43.998Z</time></trkpt><trkpt lat="41.75453253455753" lon="12.472515508884626"><ele>67.5</ele><time>2026-03-25T14:36:44.998Z</time></trkpt><trkpt lat="41.75446577755649" lon="12.472385154945858"><ele>67.33333333333333</ele><time>2026-03-25T14:36:46.998Z</time></trkpt><trkpt lat="41.75442717594585" lon="12.472313257966894"><ele>67.16666666666666</ele><time>2026-03-25T14:36:47.998Z</time></trkpt><trkpt lat="41.754388085460974" lon="12.472245120039714"><ele>67.0</ele><time>2026-03-25T14:36:48.998Z</time></trkpt><trkpt lat="41.75435082747252" lon="12.47217367276025"><ele>66.6</ele><time>2026-03-25T14:36:49.998Z</time></trkpt><trkpt lat="41.75431055619929" lon="12.472107984323092"><ele>66.2</ele><time>2026-03-25T14:36:50.998Z</time></trkpt><trkpt lat="41.75424401919117" lon="12.471984589116357"><ele>65.8</ele><time>2026-03-25T14:36:52.998Z</time></trkpt><trkpt lat="41.754206614365266" lon="12.471912741394855"><ele>65.4</ele><time>2026-03-25T14:36:53.998Z</time></trkpt><trkpt lat="41.75413527207479" lon="12.47178140933222"><ele>65.0</ele><time>2026-03-25T14:36:56Z</time></trkpt><trkpt lat="41.754059900838726" lon="12.471647594883187"><ele>64.83333333333334</ele><time>2026-03-25T14:36:58Z</time></trkpt><trkpt lat="41.75398675075147" lon="12.471514862815281"><ele>64.66666666666667</ele><time>2026-03-25T14:37:00Z</time></trkpt><trkpt lat="41.75394789021341" lon="12.47144258806055"><ele>64.5</ele><time>2026-03-25T14:37:01Z</time></trkpt><trkpt lat="41.75390831494803" lon="12.471374463036726"><ele>64.33333333333333</ele><time>2026-03-25T14:37:02Z</time></trkpt><trkpt lat="41.75387167862583" lon="12.471304320715328"><ele>64.16666666666666</ele><time>2026-03-25T14:37:03Z</time></trkpt><trkpt lat="41.75379878703708" lon="12.471167712583732"><ele>64.0</ele><time>2026-03-25T14:37:05Z</time></trkpt><trkpt lat="41.75376020491638" lon="12.471096111908276"><ele>63.99999999999999</ele><time>2026-03-25T14:37:06Z</time></trkpt><trkpt lat="41.75372166373487" lon="12.47102843210714"><ele>64.0</ele><time>2026-03-25T14:37:07Z</time></trkpt><trkpt lat="41.753644815408755" lon="12.470900844871071"><ele>64.0</ele><time>2026-03-25T14:37:09Z</time></trkpt><trkpt lat="41.753576847995724" lon="12.470773852203095"><ele>64.0</ele><time>2026-03-25T14:37:11Z</time></trkpt><trkpt lat="41.753539582473024" lon="12.470701416146968"><ele>63.99999999999999</ele><time>2026-03-25T14:37:12Z</time></trkpt><trkpt lat="41.753495604811874" lon="12.470628718389873"><ele>64.0</ele><time>2026-03-25T14:37:13Z</time></trkpt><trkpt lat="41.75345441779403" lon="12.470553231016831"><ele>64.14285714285714</ele><time>2026-03-25T14:37:14Z</time></trkpt><trkpt lat="41.75341111154022" lon="12.470482082924665"><ele>64.28571428571428</ele><time>2026-03-25T14:37:15Z</time></trkpt><trkpt lat="41.75336868153184" lon="12.470413615113742"><ele>64.42857142857143</ele><time>2026-03-25T14:37:16Z</time></trkpt><trkpt lat="41.75332783894682" lon="12.470340724380234"><ele>64.57142857142857</ele><time>2026-03-25T14:37:17Z</time></trkpt><trkpt lat="41.75328183918129" lon="12.470266586118614"><ele>64.71428571428572</ele><time>2026-03-25T14:37:18Z</time></trkpt><trkpt lat="41.7532379589605" lon="12.470194021284293"><ele>64.85714285714286</ele><time>2026-03-25T14:37:19Z</time></trkpt><trkpt lat="41.75319507650315" lon="12.47011870985348"><ele>65.0</ele><time>2026-03-25T14:37:20Z</time></trkpt><trkpt lat="41.753147926368364" lon="12.470043297452483"><ele>65.00000000000001</ele><time>2026-03-25T14:37:21Z</time></trkpt><trkpt lat="41.75309947134375" lon="12.469970750778543"><ele>65.0</ele><time>2026-03-25T14:37:22Z</time></trkpt><trkpt lat="41.75304858068809" lon="12.46989983012514"><ele>65.0</ele><time>2026-03-25T14:37:23Z</time></trkpt><trkpt lat="41.752995168371065" lon="12.469832076500575"><ele>65.0</ele><time>2026-03-25T14:37:24Z</time></trkpt><trkpt lat="41.75294241369124" lon="12.469766239960263"><ele>65.0</ele><time>2026-03-25T14:37:25Z</time></trkpt><trkpt lat="41.75288570271696" lon="12.469705089484242"><ele>65.00000000000001</ele><time>2026-03-25T14:37:26Z</time></trkpt><trkpt lat="41.752827678167904" lon="12.46964234852682"><ele>65.0</ele><time>2026-03-25T14:37:27Z</time></trkpt><trkpt lat="41.7527720184019" lon="12.469586560673083"><ele>64.85714285714286</ele><time>2026-03-25T14:37:28Z</time></trkpt><trkpt lat="41.75271310028359" lon="12.469535066566259"><ele>64.71428571428572</ele><time>2026-03-25T14:37:29Z</time></trkpt><trkpt lat="41.75265519254128" lon="12.469487633254575"><ele>64.57142857142857</ele><time>2026-03-25T14:37:30Z</time></trkpt><trkpt lat="41.7525945524099" lon="12.469450315072086"><ele>64.42857142857143</ele><time>2026-03-25T14:37:31Z</time></trkpt><trkpt lat="41.75253618868034" lon="12.469406724835338"><ele>64.28571428571428</ele><time>2026-03-25T14:37:32Z</time></trkpt><trkpt lat="41.75247482846803" lon="12.469368275331762"><ele>64.14285714285714</ele><time>2026-03-25T14:37:33Z</time></trkpt><trkpt lat="41.75241330203428" lon="12.46932355787097"><ele>64.0</ele><time>2026-03-25T14:37:34Z</time></trkpt><trkpt lat="41.75235137228649" lon="12.469290568131616"><ele>63.57142857142857</ele><time>2026-03-25T14:37:35Z</time></trkpt><trkpt lat="41.752290775572675" lon="12.469247739132271"><ele>63.14285714285714</ele><time>2026-03-25T14:37:36Z</time></trkpt><trkpt lat="41.752226852572676" lon="12.46920712394007"><ele>62.71428571428571</ele><time>2026-03-25T14:37:37Z</time></trkpt><trkpt lat="41.75215896237158" lon="12.469164042293174"><ele>62.28571428571428</ele><time>2026-03-25T14:37:38Z</time></trkpt><trkpt lat="41.75209406216118" lon="12.469126196652867"><ele>61.857142857142854</ele><time>2026-03-25T14:37:39Z</time></trkpt><trkpt lat="41.75202922522299" lon="12.469088802682121"><ele>61.428571428571416</ele><time>2026-03-25T14:37:40Z</time></trkpt><trkpt lat="41.75195932320886" lon="12.46905287505742"><ele>60.99999999999999</ele><time>2026-03-25T14:37:41Z</time></trkpt><trkpt lat="41.75188600817263" lon="12.46901614414625"><ele>59.99999999999999</ele><time>2026-03-25T14:37:41.999Z</time></trkpt><trkpt lat="41.75181040437438" lon="12.468984220511693"><ele>59.0</ele><time>2026-03-25T14:37:42.999Z</time></trkpt><trkpt lat="41.751735015957706" lon="12.46895577815023"><ele>58.0</ele><time>2026-03-25T14:37:43.999Z</time></trkpt><trkpt lat="41.75165917982733" lon="12.46892723176269"><ele>57.0</ele><time>2026-03-25T14:37:44.999Z</time></trkpt><trkpt lat="41.751577829656505" lon="12.468898996232893"><ele>55.99999999999999</ele><time>2026-03-25T14:37:45.999Z</time></trkpt><trkpt lat="41.75149805406423" lon="12.468883183751988"><ele>55.0</ele><time>2026-03-25T14:37:46.999Z</time></trkpt><trkpt lat="41.75141604283037" lon="12.468870630268285"><ele>54.99999999999999</ele><time>2026-03-25T14:37:47.999Z</time></trkpt><trkpt lat="41.75133471673848" lon="12.468858165610271"><ele>55.0</ele><time>2026-03-25T14:37:48.999Z</time></trkpt><trkpt lat="41.75125204494575" lon="12.468848505911806"><ele>55.0</ele><time>2026-03-25T14:37:49.999Z</time></trkpt><trkpt lat="41.751173125887966" lon="12.468841018264795"><ele>55.0</ele><time>2026-03-25T14:37:50.999Z</time></trkpt><trkpt lat="41.75108940896335" lon="12.468829308564295"><ele>54.99999999999999</ele><time>2026-03-25T14:37:51.999Z</time></trkpt><trkpt lat="41.75100574688324" lon="12.468810815817175"><ele>55.0</ele><time>2026-03-25T14:37:52.999Z</time></trkpt><trkpt lat="41.750922582937356" lon="12.468787113977575"><ele>54.166666666666664</ele><time>2026-03-25T14:37:53.999Z</time></trkpt><trkpt lat="41.750841224776806" lon="12.468759991521248"><ele>53.33333333333333</ele><time>2026-03-25T14:37:54.999Z</time></trkpt><trkpt lat="41.75075978353891" lon="12.468731300396803"><ele>52.5</ele><time>2026-03-25T14:37:55.999Z</time></trkpt><trkpt lat="41.7506801720781" lon="12.468694774526261"><ele>51.66666666666667</ele><time>2026-03-25T14:37:56.999Z</time></trkpt><trkpt lat="41.750601261862286" lon="12.468640347518246"><ele>50.833333333333336</ele><time>2026-03-25T14:37:57.999Z</time></trkpt><trkpt lat="41.750525796518545" lon="12.46858462143105"><ele>50.0</ele><time>2026-03-25T14:37:58.999Z</time></trkpt><trkpt lat="41.75045568769259" lon="12.468527518785798"><ele>50.00000000000001</ele><time>2026-03-25T14:37:59.999Z</time></trkpt><trkpt lat="41.750386114787034" lon="12.468475668820007"><ele>50.0</ele><time>2026-03-25T14:38:00.999Z</time></trkpt><trkpt lat="41.75031615985451" lon="12.468418442132277"><ele>50.0</ele><time>2026-03-25T14:38:01.999Z</time></trkpt><trkpt lat="41.75024740945541" lon="12.468364172557772"><ele>50.0</ele><time>2026-03-25T14:38:02.999Z</time></trkpt><trkpt lat="41.750174069182826" lon="12.468306134068644"><ele>50.00000000000001</ele><time>2026-03-25T14:38:03.999Z</time></trkpt><trkpt lat="41.75010520649695" lon="12.468246675475738"><ele>50.0</ele><time>2026-03-25T14:38:04.999Z</time></trkpt><trkpt lat="41.750037092173734" lon="12.468187686103304"><ele>48.66666666666667</ele><time>2026-03-25T14:38:05.999Z</time></trkpt><trkpt lat="41.74997234350133" lon="12.468127065401074"><ele>47.333333333333336</ele><time>2026-03-25T14:38:06.999Z</time></trkpt><trkpt lat="41.74990369557567" lon="12.468067209786106"><ele>46.0</ele><time>2026-03-25T14:38:07.999Z</time></trkpt><trkpt lat="41.749835936525564" lon="12.468008663824703"><ele>44.66666666666667</ele><time>2026-03-25T14:38:08.999Z</time></trkpt><trkpt lat="41.74977011622616" lon="12.467949231205752"><ele>43.333333333333336</ele><time>2026-03-25T14:38:09.999Z</time></trkpt><trkpt lat="41.74971061465241" lon="12.467883593909521"><ele>42.0</ele><time>2026-03-25T14:38:10.999Z</time></trkpt><trkpt lat="41.749652011044724" lon="12.467812745391553"><ele>42.0</ele><time>2026-03-25T14:38:11.999Z</time></trkpt><trkpt lat="41.74960118333534" lon="12.46773129583828"><ele>42.0</ele><time>2026-03-25T14:38:12.999Z</time></trkpt><trkpt lat="41.74954792380593" lon="12.467653116422433"><ele>42.0</ele><time>2026-03-25T14:38:13.999Z</time></trkpt><trkpt lat="41.74949673218033" lon="12.467575206577125"><ele>42.0</ele><time>2026-03-25T14:38:14.999Z</time></trkpt><trkpt lat="41.7494479817987" lon="12.467496280879764"><ele>42.0</ele><time>2026-03-25T14:38:15.999Z</time></trkpt><trkpt lat="41.749402118489044" lon="12.467414836465418"><ele>42.0</ele><time>2026-03-25T14:38:16.999Z</time></trkpt><trkpt lat="41.749356135352976" lon="12.467336687084977"><ele>41.142857142857146</ele><time>2026-03-25T14:38:17.999Z</time></trkpt><trkpt lat="41.74931007216913" lon="12.467258238583566"><ele>40.285714285714285</ele><time>2026-03-25T14:38:18.999Z</time></trkpt><trkpt lat="41.74926583049558" lon="12.467177882094276"><ele>39.42857142857143</ele><time>2026-03-25T14:38:19.999Z</time></trkpt><trkpt lat="41.74921924444052" lon="12.467104435008018"><ele>38.57142857142857</ele><time>2026-03-25T14:38:20.999Z</time></trkpt><trkpt lat="41.749170309395524" lon="12.4670369467302"><ele>37.714285714285715</ele><time>2026-03-25T14:38:21.999Z</time></trkpt><trkpt lat="41.7491216837632" lon="12.46696848551469"><ele>36.85714285714286</ele><time>2026-03-25T14:38:22.999Z</time></trkpt><trkpt lat="41.74907341054089" lon="12.466902635418128"><ele>36.0</ele><time>2026-03-25T14:38:23.999Z</time></trkpt><trkpt lat="41.74902894024902" lon="12.466838232517887"><ele>35.4</ele><time>2026-03-25T14:38:24.999Z</time></trkpt><trkpt lat="41.74899828125508" lon="12.466759490298022"><ele>34.8</ele><time>2026-03-25T14:38:25.999Z</time></trkpt><trkpt lat="41.74891587075642" lon="12.466642403113239"><ele>34.199999999999996</ele><time>2026-03-25T14:38:27.999Z</time></trkpt><trkpt lat="41.74883850787217" lon="12.466532489902528"><ele>33.6</ele><time>2026-03-25T14:38:29.999Z</time></trkpt><trkpt lat="41.74873559921991" lon="12.466568948375027"><ele>33.0</ele><time>2026-03-25T14:38:30.999Z</time></trkpt><trkpt lat="41.74863268045642" lon="12.466575532134138"><ele>33.0</ele><time>2026-03-25T14:38:32.999Z</time></trkpt><trkpt lat="41.74855885215854" lon="12.46669110245375"><ele>33.0</ele><time>2026-03-25T14:38:34.999Z</time></trkpt><trkpt lat="41.74853039649763" lon="12.466775453498066"><ele>33.0</ele><time>2026-03-25T14:38:35.999Z</time></trkpt><trkpt lat="41.74849921621254" lon="12.466856461841349"><ele>33.0</ele><time>2026-03-25T14:38:36.999Z</time></trkpt><trkpt lat="41.74845670859137" lon="12.46700635055348"><ele>33.0</ele><time>2026-03-25T14:38:38.999Z</time></trkpt><trkpt lat="41.74843043357791" lon="12.46708730668214"><ele>33.0</ele><time>2026-03-25T14:38:39.999Z</time></trkpt><trkpt lat="41.74841045899846" lon="12.46716875691803"><ele>33.25</ele><time>2026-03-25T14:38:40.999Z</time></trkpt><trkpt lat="41.748387551743846" lon="12.467324199100888"><ele>33.5</ele><time>2026-03-25T14:38:42.999Z</time></trkpt><trkpt lat="41.74835652782089" lon="12.467486084779305"><ele>33.75</ele><time>2026-03-25T14:38:44.999Z</time></trkpt><trkpt lat="41.74831334670337" lon="12.46763750886213"><ele>34.0</ele><time>2026-03-25T14:38:46.999Z</time></trkpt><trkpt lat="41.74822261527513" lon="12.467738615867455"><ele>34.0</ele><time>2026-03-25T14:38:48.998Z</time></trkpt><trkpt lat="41.748146101684014" lon="12.467850220126747"><ele>34.0</ele><time>2026-03-25T14:38:50.998Z</time></trkpt><trkpt lat="41.74804651116665" lon="12.467936439814878"><ele>34.0</ele><time>2026-03-25T14:38:52.998Z</time></trkpt><trkpt lat="41.74799747231793" lon="12.467991886405745"><ele>34.0</ele><time>2026-03-25T14:38:53.998Z</time></trkpt><trkpt lat="41.747949121796346" lon="12.468046205082617"><ele>34.0</ele><time>2026-03-25T14:38:54.998Z</time></trkpt><trkpt lat="41.74786180461225" lon="12.468148309362787"><ele>33.4</ele><time>2026-03-25T14:38:56.998Z</time></trkpt><trkpt lat="41.74781383353486" lon="12.468204404308727"><ele>32.8</ele><time>2026-03-25T14:38:57.998Z</time></trkpt><trkpt lat="41.747735161741275" lon="12.468323872655048"><ele>32.2</ele><time>2026-03-25T14:38:59.998Z</time></trkpt><trkpt lat="41.7476387801027" lon="12.468409919562218"><ele>31.6</ele><time>2026-03-25T14:39:02Z</time></trkpt><trkpt lat="41.747592445973964" lon="12.468471396473094"><ele>31.0</ele><time>2026-03-25T14:39:03Z</time></trkpt><trkpt lat="41.74749053286396" lon="12.468574217138176"><ele>31.0</ele><time>2026-03-25T14:39:05Z</time></trkpt><trkpt lat="41.74740018697854" lon="12.468675300420324"><ele>31.0</ele><time>2026-03-25T14:39:07Z</time></trkpt><trkpt lat="41.74735086793107" lon="12.46873327083957"><ele>31.0</ele><time>2026-03-25T14:39:08Z</time></trkpt><trkpt lat="41.74724640523455" lon="12.468815695316716"><ele>31.0</ele><time>2026-03-25T14:39:10Z</time></trkpt><trkpt lat="41.74715676544813" lon="12.468908721852857"><ele>31.0</ele><time>2026-03-25T14:39:12Z</time></trkpt><trkpt lat="41.74707561422233" lon="12.469008775089405"><ele>31.0</ele><time>2026-03-25T14:39:14Z</time></trkpt><trkpt lat="41.74713250032267" lon="12.469162781409501"><ele>31.0</ele><time>2026-03-25T14:39:17Z</time></trkpt><trkpt lat="41.747277035394106" lon="12.468978421783472"><ele>31.0</ele><time>2026-03-25T14:39:22Z</time></trkpt><trkpt lat="41.74738271954176" lon="12.468887045899134"><ele>31.000000000000004</ele><time>2026-03-25T14:39:24Z</time></trkpt><trkpt lat="41.7474969351" lon="12.468852703159905"><ele>31.0</ele><time>2026-03-25T14:39:26Z</time></trkpt><trkpt lat="41.74760218756621" lon="12.468894595352744"><ele>31.0</ele><time>2026-03-25T14:39:28Z</time></trkpt><trkpt lat="41.747642126615936" lon="12.46896675392906"><ele>31.0</ele><time>2026-03-25T14:39:29Z</time></trkpt><trkpt lat="41.74767934527748" lon="12.469044117637116"><ele>31.000000000000004</ele><time>2026-03-25T14:39:30Z</time></trkpt><trkpt lat="41.74772159287485" lon="12.469107971580296"><ele>31.0</ele><time>2026-03-25T14:39:31Z</time></trkpt><trkpt lat="41.747799291291145" lon="12.4691963691377"><ele>30.833333333333336</ele><time>2026-03-25T14:39:33Z</time></trkpt><trkpt lat="41.7478626542414" lon="12.46926373757531"><ele>30.666666666666668</ele><time>2026-03-25T14:39:35Z</time></trkpt><trkpt lat="41.747897767705695" lon="12.469346369826381"><ele>30.5</ele><time>2026-03-25T14:39:37Z</time></trkpt><trkpt lat="41.747970273586176" lon="12.469410982554413"><ele>30.333333333333336</ele><time>2026-03-25T14:40:04.999Z</time></trkpt><trkpt lat="41.74804421030811" lon="12.469344970604135"><ele>30.166666666666668</ele><time>2026-03-25T14:40:08.999Z</time></trkpt><trkpt lat="41.747962485303326" lon="12.469313677611412"><ele>30.0</ele><time>2026-03-25T14:40:10.999Z</time></trkpt><trkpt lat="41.747902244860946" lon="12.469349333677775"><ele>30.0</ele><time>2026-03-25T14:40:12.999Z</time></trkpt><trkpt lat="41.747852135622566" lon="12.469405125633623"><ele>30.0</ele><time>2026-03-25T14:40:19.999Z</time></trkpt><trkpt lat="41.74779030349318" lon="12.469426302502216"><ele>30.0</ele><time>2026-03-25T14:40:23.999Z</time></trkpt><trkpt lat="41.74774134684685" lon="12.469510422472469"><ele>30.0</ele><time>2026-03-25T14:42:16.999Z</time></trkpt><trkpt lat="41.74778725293113" lon="12.469416584387602"><ele>30.0</ele><time>2026-03-25T14:43:06.998Z</time></trkpt></trkseg></trk></gpx>